GFSNGP_sfc_wetblb_000.txt.gz
Wetbulb
36.52 37.75 37.33 37.75 38.02 38.35 36.35 34.87 33.36 33.51 35.34 37.52 39.96 40.31 41.51 41.90 41.76 42.81 41.13 40.76 40.49 41.93 41.07 40.04 38.70 37.50 36.94 36.65 36.75 37.36 36.40 36.24 35.63 35.63 35.59 35.51 35.45 35.55 36.07 36.38 36.54 37.03 36.57 36.85
33.04 36.45 36.20 34.41 35.79 35.94 36.32 37.29 37.19 36.57 37.28 41.13 42.22 40.16 40.82 38.94 41.34 41.17 39.82 39.99 42.93 42.16 39.60 38.17 36.14 35.49 35.70 35.01 35.11 35.32 33.99 33.96 33.82 33.18 33.05 32.91 33.22 33.53 33.84 33.90 34.08 34.74 34.55 35.12
29.17 34.62 35.12 32.42 35.07 34.50 33.75 34.64 35.62 32.39 36.78 39.88 40.23 41.65 40.56 40.61 41.38 40.34 38.92 41.98 41.46 39.46 38.21 36.92 35.04 34.82 33.54 33.53 33.84 32.64 32.70 31.55 31.58 31.59 31.15 31.33 31.81 31.89 31.67 31.49 32.47 32.45 32.81 33.74
29.07 31.29 26.25 34.32 38.68 39.63 37.10 38.04 37.67 38.34 39.53 39.83 40.15 39.60 39.18 39.96 41.19 38.69 41.31 41.03 39.29 37.66 36.36 35.31 34.04 33.33 32.67 32.45 30.80 30.05 29.92 29.68 30.51 30.42 30.00 30.33 30.16 29.94 29.80 30.52 30.49 30.75 31.48 31.73
28.80 28.00 32.88 35.72 37.83 38.09 36.77 35.72 39.24 38.88 39.37 40.25 40.02 38.20 37.59 40.39 39.91 39.68 39.71 38.86 37.53 36.31 35.59 33.61 32.50 31.19 30.20 28.82 27.95 28.43 28.59 28.60 29.39 29.41 29.01 29.07 28.45 28.44 29.10 29.27 29.38 29.89 30.65 30.56
25.39 25.20 26.51 33.93 38.71 40.53 38.69 30.63 40.01 40.37 39.94 39.92 39.66 35.05 37.26 39.60 40.66 40.18 39.09 37.86 36.36 37.05 34.82 32.53 29.98 28.60 27.48 26.61 26.19 26.50 27.64 28.33 28.94 28.97 28.54 27.68 27.80 27.80 28.97 28.94 29.07 29.84 29.51 29.84
29.13 27.11 30.83 37.29 40.23 40.40 30.56 30.60 39.08 39.85 39.47 39.57 38.37 39.10 39.41 40.33 38.52 38.06 37.74 37.84 36.18 33.73 31.81 29.86 27.59 27.05 25.96 25.18 24.92 26.69 27.78 27.97 28.12 28.17 27.53 27.72 28.03 28.21 28.10 27.81 28.01 27.62 27.89 28.68
28.54 26.13 24.43 39.08 39.54 35.39 37.46 39.04 38.79 39.01 38.73 38.31 39.08 39.73 39.25 38.71 38.27 38.26 36.77 34.63 33.92 30.37 30.61 30.39 29.67 26.40 24.78 23.78 26.05 26.48 26.76 27.06 27.09 26.88 27.98 29.07 27.03 27.25 27.38 26.80 26.10 26.14 26.46 27.47
32.80 31.62 38.73 38.76 39.34 39.85 40.84 39.52 38.36 38.60 39.24 39.11 39.92 39.29 39.67 38.47 38.08 38.25 35.65 33.27 32.40 31.30 30.41 30.07 27.18 25.72 23.89 24.92 25.58 25.99 25.55 25.71 26.25 26.79 26.68 27.07 26.35 26.08 25.92 26.12 25.35 25.42 25.92 26.62
35.96 36.61 37.37 38.74 38.59 39.21 39.94 39.92 40.34 39.76 39.12 38.59 37.99 39.03 38.19 37.24 36.48 36.15 33.67 31.15 31.09 29.95 28.58 26.73 26.67 26.07 25.04 25.32 25.81 25.06 24.25 24.72 25.38 25.05 26.41 26.46 26.53 26.68 25.72 24.99 25.03 25.41 26.42 26.66
35.01 37.49 37.69 37.75 38.87 39.11 39.29 39.01 38.37 38.15 38.40 38.37 37.13 35.80 35.09 35.61 36.02 33.67 31.45 30.83 29.73 28.19 25.88 25.25 24.80 24.38 24.94 25.63 24.98 23.67 23.68 24.38 25.17 25.46 25.44 25.39 26.11 25.91 25.92 26.88 27.96 27.57 27.58 27.89
32.82 37.52 37.29 37.16 38.31 39.21 38.21 37.81 38.56 37.55 36.19 34.86 34.72 35.05 35.55 34.54 31.21 29.62 29.56 28.97 25.95 24.79 23.93 23.84 23.52 23.49 24.29 25.07 24.43 23.54 24.03 24.60 24.79 25.36 24.99 25.32 24.69 24.71 29.74 30.88 32.05 32.10 32.08 30.85
37.36 38.46 38.25 37.93 37.52 36.66 36.10 36.36 36.42 35.19 33.92 34.10 36.98 35.84 35.26 30.78 29.94 30.65 25.54 24.97 23.89 23.38 23.14 22.92 22.75 22.96 24.47 25.12 24.96 23.58 22.89 24.08 24.27 25.85 24.77 24.05 23.88 23.24 23.17 27.12 30.85 30.85 31.05 31.42
37.11 38.20 35.98 36.54 35.92 35.51 35.39 35.46 36.52 36.86 37.22 37.98 37.12 34.00 31.50 28.65 25.59 24.72 23.67 23.77 23.48 23.19 23.02 22.84 22.78 23.27 24.88 24.83 24.21 23.22 23.33 27.92 25.01 24.27 24.03 24.06 24.20 24.64 24.92 23.94 23.25 24.16 28.59 29.67
36.54 36.67 36.39 34.85 33.37 33.97 35.86 35.05 33.75 33.24 33.74 33.78 32.06 28.72 25.83 24.27 23.37 22.92 23.25 23.60 23.36 22.32 21.97 22.30 22.18 23.38 25.17 24.80 24.85 24.23 24.10 24.15 24.27 24.24 24.92 25.95 25.45 24.85 24.64 24.35 23.82 23.60 24.59 27.42
33.38 30.68 28.52 32.45 31.39 33.12 33.96 34.39 33.10 33.06 31.15 28.92 27.03 24.76 24.03 23.36 22.74 22.47 22.66 22.60 20.73 21.49 22.63 22.62 22.89 24.65 25.10 24.87 24.08 24.00 24.06 27.27 27.57 24.98 24.55 24.55 24.41 24.15 24.11 23.55 23.30 23.34 24.22 24.22
29.78 26.73 23.23 24.07 31.72 31.02 32.28 33.49 32.46 33.36 32.01 27.91 23.74 23.52 23.24 22.68 22.10 21.61 21.74 21.99 21.98 21.82 22.78 23.61 23.83 25.30 25.53 24.66 23.90 24.17 24.25 24.25 27.28 24.64 23.63 24.02 24.21 23.76 23.57 23.99 23.94 23.21 23.13 25.46
30.88 29.29 30.58 32.34 32.06 32.03 32.22 31.73 31.39 30.18 27.39 24.14 23.31 22.33 21.82 20.87 20.42 20.42 20.73 21.06 20.58 20.53 22.77 24.02 24.46 25.06 24.54 25.28 25.39 24.87 24.76 24.18 24.01 23.38 24.01 23.94 24.04 24.93 24.37 23.03 22.99 23.31 23.34 24.46
32.98 31.65 31.36 31.85 31.83 31.49 31.37 30.47 28.89 25.83 23.39 22.71 21.44 20.81 20.96 20.68 20.45 20.37 20.18 19.36 18.75 18.68 22.14 23.98 26.67 26.55 24.50 25.60 26.92 25.03 23.87 23.11 23.37 23.51 24.00 25.68 24.40 24.25 24.21 23.38 22.85 23.25 23.97 23.15
28.76 28.27 28.62 29.93 30.93 29.91 28.19 25.20 23.65 22.08 21.77 21.36 21.08 20.34 19.99 20.32 20.26 19.94 19.42 18.53 20.00 21.24 23.33 23.91 24.87 24.26 23.66 24.13 26.85 24.45 23.90 23.84 23.54 23.80 23.91 24.28 23.65 23.12 23.29 24.18 23.81 23.55 22.13 22.01
28.64 27.38 25.44 25.47 25.80 25.54 24.92 22.95 21.55 20.67 21.08 21.33 20.83 20.11 19.56 19.76 19.61 19.51 17.97 17.72 20.68 22.89 24.32 26.38 23.87 23.47 23.56 24.91 25.72 24.91 23.78 23.03 23.11 22.57 22.86 22.92 22.94 22.56 22.61 22.57 21.75 21.61 21.76 22.11
27.64 26.97 25.29 23.52 21.93 21.79 22.00 21.08 20.95 21.12 20.79 20.49 20.38 20.06 19.11 18.46 18.47 17.97 20.05 19.34 22.17 26.19 24.76 23.20 22.73 24.37 24.81 28.02 24.73 23.51 23.09 22.73 22.09 21.38 20.50 20.37 20.56 20.16 19.52 19.52 19.33 20.35 20.92 20.67
27.83 28.19 26.30 23.55 21.82 21.28 21.33 20.91 21.02 20.96 20.66 20.40 19.95 19.47 18.56 18.85 18.76 17.61 17.89 21.60 22.65 23.95 23.72 22.41 24.54 26.98 27.31 24.88 23.00 21.73 20.64 19.94 19.74 19.76 19.50 19.27 19.47 19.14 19.23 19.48 20.42 21.40 20.99 20.58
27.14 27.14 26.35 24.35 21.60 19.99 19.61 20.60 20.38 20.79 20.12 20.78 20.58 20.46 19.51 18.11 18.19 19.50 20.57 23.78 24.93 23.62 22.79 22.89 23.51 26.48 27.02 21.87 19.99 19.41 19.42 19.52 19.04 18.40 18.90 22.22 19.59 19.65 19.97 20.58 20.56 20.82 21.16 21.35
23.41 20.73 16.97 15.63 18.84 20.76 18.49 17.43 16.13 16.03 18.78 18.55 19.25 19.49 19.83 19.28 17.76 19.68 19.33 20.06 23.29 22.40 20.44 23.41 24.72 24.64 20.74 19.85 19.91 19.75 19.15 18.67 19.00 20.43 21.34 20.25 19.25 19.32 20.17 20.79 20.90 21.11 21.77 21.90
22.22 23.40 22.57 20.84 21.15 20.93 20.41 19.50 18.99 18.90 17.70 17.43 18.25 18.59 18.34 18.75 18.48 20.06 18.93 20.76 19.86 20.92 19.16 19.20 19.36 20.07 20.23 19.83 19.39 19.57 19.72 19.85 20.18 19.75 20.47 19.88 19.79 20.00 20.39 20.69 20.80 20.75 20.66 19.77
16.99 22.24 17.16 20.26 20.02 19.56 18.61 18.87 17.84 16.91 17.65 16.93 17.15 18.20 18.20 18.13 18.18 19.59 20.14 17.70 17.57 17.99 18.13 18.73 19.17 19.80 19.56 19.79 19.98 19.95 19.90 19.63 20.72 20.29 20.64 20.46 19.86 19.53 19.79 20.26 20.58 20.95 20.90 19.94

GFSNGP_sfc_wetblb_003.txt.gz
Wetbulb
34.68 36.00 36.71 36.54 37.00 35.74 34.14 33.36 32.09 32.09 33.80 35.32 36.88 39.05 39.48 40.93 41.17 42.36 42.14 39.22 40.76 41.25 39.82 37.57 35.77 34.31 33.99 33.86 34.00 33.63 32.97 31.73 31.19 31.17 30.88 30.60 30.59 30.93 31.44 31.63 31.71 32.07 32.28 32.43
30.01 34.06 34.05 32.12 34.01 36.76 35.82 35.54 34.58 35.45 34.96 38.87 39.61 39.35 40.78 40.46 39.52 40.96 39.51 38.57 41.31 40.83 37.85 36.30 33.50 33.14 33.50 32.66 32.28 31.68 30.89 29.87 30.38 30.07 29.78 29.48 29.76 29.94 30.10 30.06 30.10 30.48 30.52 30.78
27.29 31.84 32.19 29.88 33.60 33.48 33.04 33.91 35.30 31.99 35.93 39.00 39.04 39.96 39.02 39.72 40.12 40.64 38.57 39.79 40.82 38.35 36.77 34.84 32.79 32.73 31.23 30.80 30.92 29.95 29.32 29.19 29.33 29.37 28.87 28.84 29.05 28.82 28.44 28.17 28.60 28.60 28.95 29.68
28.66 31.12 25.13 33.84 38.47 38.80 36.31 37.30 37.90 39.50 39.91 39.97 39.49 39.32 38.75 39.33 40.20 39.62 38.82 40.61 38.33 36.52 34.87 32.82 32.13 31.33 31.56 31.44 29.20 28.00 27.81 27.77 28.38 28.27 27.89 28.12 27.66 27.19 26.97 27.71 27.55 27.75 28.17 28.84
30.79 29.20 31.58 34.49 37.50 36.41 36.85 36.00 39.46 39.03 39.24 39.32 38.69 37.40 38.03 39.76 39.11 37.94 39.03 38.11 36.80 35.09 33.57 31.27 30.55 31.94 30.36 27.15 26.39 26.50 26.56 26.40 27.11 27.09 26.96 26.90 26.19 26.03 26.68 27.03 26.96 27.23 28.02 27.90
27.65 26.76 28.01 34.39 38.66 40.73 39.04 32.11 39.00 39.77 38.49 38.48 37.77 33.84 36.23 38.14 38.92 38.16 37.81 36.74 35.00 33.80 32.48 32.56 30.99 27.72 26.32 26.14 24.74 24.66 25.73 26.17 26.68 26.76 26.40 25.55 25.44 25.61 26.83 26.49 26.72 27.43 27.14 27.53
30.71 29.03 32.16 37.53 39.48 40.21 30.66 30.99 38.06 37.95 37.52 36.87 35.96 38.23 39.15 39.16 37.96 37.68 36.72 35.19 33.84 33.58 31.36 28.81 29.35 27.16 26.44 26.76 24.12 25.06 25.95 26.05 26.22 26.09 25.20 25.13 25.32 25.88 25.99 25.65 25.84 25.35 25.78 26.58
29.52 28.01 27.81 38.54 38.57 35.42 36.61 37.92 38.22 38.15 37.79 37.15 38.41 38.72 38.85 38.35 37.27 36.67 34.17 33.17 32.43 29.82 29.23 30.07 30.00 28.77 26.93 23.46 24.59 24.86 25.12 25.06 24.88 24.55 25.74 27.50 24.62 25.34 25.32 24.74 24.07 24.10 24.49 25.41
32.53 31.66 37.76 37.86 38.22 38.88 39.46 38.36 38.03 37.70 38.71 38.37 38.60 38.45 39.10 37.93 36.84 36.11 33.22 30.74 30.52 29.29 29.33 29.41 29.10 27.55 22.91 23.74 24.24 24.35 23.54 23.09 23.52 24.11 24.22 25.00 24.13 24.56 24.11 24.26 23.55 23.43 23.97 24.49
35.00 35.10 36.37 37.66 38.68 39.44 38.88 39.00 39.16 38.99 38.58 38.12 37.09 37.28 37.17 36.57 35.89 33.47 31.04 29.28 29.24 29.47 28.41 27.74 25.76 24.09 23.14 23.50 24.01 23.16 21.64 21.73 23.08 22.31 25.10 25.20 24.58 24.92 24.32 23.40 23.35 23.56 24.62 25.60
34.78 35.75 36.43 37.12 37.64 38.42 38.88 37.71 37.25 37.06 36.97 36.72 35.13 34.25 33.99 34.91 35.17 32.40 30.43 30.67 29.22 27.98 25.27 23.90 23.34 22.93 23.14 23.73 23.25 22.40 22.03 22.38 22.45 22.91 22.87 23.54 24.46 24.74 24.64 25.34 26.43 26.46 26.40 26.67
33.27 37.01 36.39 36.44 38.19 38.17 37.62 36.82 36.91 35.88 35.22 33.94 33.71 34.21 34.76 34.64 35.08 31.77 30.11 29.14 26.46 23.85 23.38 22.52 22.32 22.25 23.03 23.77 23.12 21.88 22.44 22.97 22.63 23.81 23.41 24.00 23.42 23.50 28.56 29.70 31.00 31.19 31.12 29.74
37.00 37.76 37.58 37.56 37.48 35.83 35.88 34.84 34.92 34.16 33.96 32.90 34.22 34.96 34.49 32.22 30.70 30.97 27.30 24.13 23.38 23.00 22.75 21.94 21.71 21.62 23.01 23.58 23.44 22.81 21.40 22.83 22.96 24.73 23.34 22.95 22.87 22.36 22.21 26.06 29.73 29.90 30.10 30.29
36.05 37.67 36.02 36.27 34.75 33.43 33.80 35.78 36.94 36.78 36.86 35.57 36.12 35.97 33.40 30.19 28.74 25.00 23.27 23.42 23.06 22.74 22.21 21.28 21.34 21.46 23.08 23.40 23.36 22.20 21.92 26.94 24.05 23.13 23.19 23.39 23.25 23.72 23.81 22.90 22.43 23.22 27.75 28.60
36.20 35.88 35.24 33.99 33.07 32.51 33.19 34.40 33.90 34.13 34.50 34.54 35.37 33.06 28.34 25.32 23.33 22.66 22.67 22.99 22.79 21.42 21.05 21.15 21.31 22.12 23.45 23.34 24.01 23.05 23.15 23.06 23.45 23.55 23.95 25.25 24.53 23.83 23.61 23.35 23.15 22.87 23.76 26.44
31.20 30.66 31.90 31.39 32.67 29.91 29.65 28.88 32.63 33.13 33.41 32.59 29.25 26.69 24.57 23.34 22.56 22.24 22.08 21.82 20.43 20.73 21.60 21.65 21.77 23.26 23.97 24.07 23.01 22.73 22.76 26.59 26.67 24.47 23.92 23.68 23.41 23.07 23.08 22.93 22.77 23.00 23.03 22.97
29.87 28.98 25.13 23.52 23.75 28.26 30.03 31.07 33.48 34.03 30.56 28.83 27.34 25.22 22.76 22.30 21.86 21.43 21.53 21.44 21.10 20.92 21.62 22.54 22.85 24.57 24.87 23.64 22.69 23.08 23.04 23.28 26.57 24.00 22.83 23.23 23.11 22.89 23.19 23.73 23.64 22.49 22.33 24.49
31.18 28.53 28.46 29.05 30.30 30.14 30.79 31.42 30.89 30.55 29.70 29.01 24.10 21.93 21.37 20.88 20.86 20.51 20.55 20.50 19.88 19.79 21.77 23.29 23.75 24.42 23.51 24.25 24.40 23.91 23.83 23.05 22.99 22.51 23.22 23.23 23.42 24.39 24.45 23.25 22.81 22.71 22.53 23.98
31.70 31.91 30.12 30.15 30.28 30.24 30.21 30.41 30.24 29.52 24.63 23.18 21.29 20.80 20.83 20.60 20.42 20.27 19.86 18.85 18.02 17.79 21.13 23.14 25.87 25.90 23.52 24.67 26.01 24.19 22.98 22.20 22.62 22.88 23.49 24.94 23.52 23.67 23.84 22.75 22.73 22.79 23.11 22.53
30.65 29.86 29.49 28.74 29.97 30.24 29.96 29.23 27.25 23.55 22.38 21.10 20.80 20.14 19.88 20.15 20.07 19.72 18.94 17.98 19.05 20.37 22.30 22.99 23.98 23.15 22.40 22.90 26.03 23.54 23.11 22.96 22.63 22.24 22.26 22.60 22.11 21.55 22.26 22.58 22.02 21.83 21.28 21.67
28.82 28.49 27.42 25.94 25.52 27.57 27.85 26.16 23.45 21.80 21.15 20.60 20.27 19.87 19.69 19.97 19.45 19.15 17.40 16.54 19.53 22.10 23.49 26.11 23.13 22.69 22.66 24.11 24.81 23.66 22.75 21.90 21.65 20.98 20.66 19.92 19.67 19.88 20.17 20.26 20.34 20.58 20.91 21.31
26.15 26.95 26.81 25.60 22.76 22.24 22.33 21.64 21.07 20.83 19.91 19.52 19.79 19.83 18.94 18.44 18.26 17.23 19.56 18.51 21.09 25.62 24.13 22.32 21.57 23.57 24.29 27.47 23.86 22.48 21.58 20.80 19.99 19.35 18.64 18.73 18.90 18.68 18.38 18.56 18.85 19.78 20.41 20.66
26.07 26.65 27.10 26.17 24.26 22.49 21.39 20.33 19.70 19.85 19.74 20.03 20.04 19.61 18.72 18.85 18.28 17.02 17.21 20.68 21.46 23.15 23.11 21.70 23.94 26.49 26.79 23.95 21.85 20.35 19.23 18.71 18.61 18.75 18.43 17.98 17.97 17.83 18.67 19.19 19.87 20.63 19.65 19.84
25.53 26.01 26.14 26.54 23.46 20.43 19.65 20.14 19.63 20.34 20.17 21.21 20.71 20.49 19.44 17.66 17.41 18.77 19.35 22.77 24.17 23.13 22.30 22.17 22.93 25.88 26.47 21.19 18.95 18.32 18.49 18.54 18.08 17.36 17.94 21.46 19.30 19.69 19.57 19.37 19.16 19.63 19.99 20.25
21.66 18.82 16.99 15.74 18.43 21.07 18.38 16.86 15.45 15.57 18.65 18.79 19.31 19.62 19.44 18.45 17.10 18.46 17.90 19.11 22.37 21.68 19.49 22.65 24.00 24.05 19.88 18.74 18.91 18.87 18.37 17.74 17.66 19.34 20.76 19.56 18.41 18.40 19.11 19.42 19.43 19.72 20.54 20.90
21.89 22.87 22.74 22.14 21.41 20.73 20.10 19.50 19.14 18.46 17.76 17.53 18.62 18.01 17.81 18.24 17.85 18.58 17.31 19.78 18.82 19.98 18.03 18.09 18.29 19.19 19.33 18.80 18.32 18.51 18.81 19.07 19.58 19.16 20.06 19.35 18.60 18.75 19.22 19.29 19.21 19.22 19.57 19.89
16.15 21.65 16.32 20.17 20.07 19.87 18.95 19.05 18.02 17.31 17.54 16.49 16.57 17.45 17.48 17.21 16.87 18.65 19.26 16.57 16.52 16.95 17.08 17.62 18.00 18.60 18.38 18.69 18.93 19.00 19.15 19.03 20.18 19.76 20.00 19.51 18.95 18.67 18.77 18.85 19.04 19.63 19.89 19.84

GFSNGP_sfc_wetblb_006.txt.gz
Wetbulb
33.22 35.86 36.52 35.97 36.12 33.98 33.29 34.13 32.46 33.34 33.05 35.56 36.97 38.10 37.53 38.36 39.33 40.20 40.54 39.34 41.35 40.85 37.93 35.57 33.70 32.75 32.47 32.13 31.18 31.17 29.76 29.14 28.93 29.09 28.92 28.56 28.50 28.56 28.82 28.92 29.17 29.29 29.25 29.58
29.72 33.43 32.65 32.40 35.08 34.44 34.05 33.43 32.09 33.70 33.89 36.90 37.40 38.45 39.33 37.89 39.55 40.14 40.32 38.99 41.12 39.77 37.09 34.53 32.10 31.91 31.91 30.62 29.53 29.73 28.71 28.27 28.78 28.50 28.33 27.91 27.91 27.95 27.83 27.78 27.73 27.94 27.91 28.20
28.42 31.20 30.78 28.97 32.54 34.45 34.04 34.23 35.80 32.78 35.73 37.34 38.24 40.10 39.63 40.69 40.28 40.41 39.95 38.06 40.22 37.80 35.73 32.87 31.75 31.62 29.67 28.68 28.66 28.81 28.39 27.63 27.82 27.81 27.23 27.21 27.30 26.80 26.57 26.20 26.37 26.49 26.79 27.19
26.31 28.78 22.42 31.55 36.11 35.44 34.58 34.66 35.85 37.54 38.35 39.10 39.34 39.04 38.21 38.42 38.69 39.69 38.34 39.51 38.35 35.81 33.32 31.71 31.18 30.07 28.99 29.06 29.71 27.74 26.55 26.37 26.84 26.66 26.19 26.36 25.61 25.03 24.70 25.61 25.35 25.74 26.01 26.61
28.65 26.17 30.34 33.78 35.16 35.68 35.76 34.81 38.45 38.43 38.93 38.57 37.95 37.31 37.12 39.38 38.74 37.52 38.00 38.28 36.27 34.60 32.41 30.27 29.18 28.95 28.95 28.65 25.63 25.52 25.44 25.06 25.54 25.45 25.02 24.81 24.25 23.90 24.57 24.78 25.18 25.38 26.11 25.96
26.11 25.47 25.83 32.92 37.62 39.72 39.83 33.18 39.95 40.16 39.11 38.73 37.80 33.65 36.37 38.62 38.15 37.27 37.23 36.01 34.06 32.28 30.92 29.44 27.69 27.04 25.58 24.84 24.30 24.25 24.69 24.80 25.19 25.14 24.44 23.58 23.47 23.80 24.45 24.66 25.02 25.69 25.44 25.62
30.93 28.85 31.44 37.01 39.49 40.05 31.58 32.70 39.30 38.63 38.16 38.30 36.47 37.75 38.71 38.14 36.30 36.19 35.06 33.81 32.56 31.31 29.05 27.14 26.69 28.37 25.14 23.80 23.24 24.03 24.61 24.66 24.65 24.50 23.54 23.32 23.25 23.59 24.40 24.23 24.22 23.69 23.92 24.90
29.04 27.26 27.22 37.84 38.42 35.14 36.64 37.42 38.55 38.29 38.19 37.31 37.83 38.30 38.57 37.68 36.68 34.91 33.09 32.29 31.02 28.24 26.71 27.49 29.76 25.60 24.01 24.21 23.65 23.67 23.73 23.52 23.19 22.93 24.22 26.25 23.48 23.71 23.59 23.18 22.64 22.81 23.03 23.69
32.49 32.19 37.71 37.18 37.70 38.74 39.42 38.26 37.71 38.01 38.73 38.54 37.79 37.45 37.87 37.36 36.02 34.61 32.57 31.01 29.83 27.93 26.52 25.71 25.59 24.81 22.14 22.94 22.98 22.96 22.19 21.85 21.86 22.79 23.20 23.63 23.10 23.61 23.44 23.13 22.44 22.18 22.52 23.17
34.64 35.89 36.48 38.08 38.73 39.22 39.44 39.06 39.04 38.66 38.20 37.53 35.86 36.09 35.26 36.30 35.50 33.92 31.01 29.08 28.31 26.76 26.47 27.28 26.53 23.73 22.36 22.49 22.75 21.97 20.60 20.59 21.64 21.28 23.43 22.89 22.58 23.83 23.12 22.44 22.07 22.43 23.63 24.50
33.72 34.95 36.82 37.29 37.92 38.99 38.79 38.54 38.06 37.23 36.27 35.88 34.39 33.58 33.26 34.25 34.15 32.26 30.13 28.67 28.13 28.39 27.08 24.68 22.58 22.06 22.21 22.97 22.12 21.43 21.09 21.58 21.54 21.74 21.12 22.43 23.31 22.74 23.25 23.93 25.28 25.08 25.35 25.69
32.90 37.06 36.59 36.45 38.18 38.15 37.96 36.90 35.91 35.38 33.60 33.17 32.93 33.44 33.50 33.92 34.50 31.26 28.70 28.85 27.43 26.35 23.64 22.15 21.60 21.36 22.01 22.54 22.08 20.60 21.07 22.24 21.78 22.83 22.15 22.96 22.25 22.58 27.91 29.08 30.16 30.31 30.37 29.05
36.40 36.88 36.37 36.69 36.65 35.57 35.56 34.41 33.66 33.19 32.72 31.82 32.84 33.98 33.35 32.13 30.01 31.71 27.24 26.54 25.12 22.98 22.52 20.85 20.61 20.80 21.97 22.49 22.32 21.84 20.42 21.90 22.31 24.00 22.47 21.99 22.13 21.75 21.44 25.12 28.83 29.06 29.50 29.90
36.39 37.29 35.38 34.00 34.53 33.10 34.08 35.86 36.48 35.36 35.37 35.90 35.01 35.42 34.15 30.35 28.30 25.12 24.54 23.34 22.90 22.39 21.92 20.61 20.32 20.31 22.10 21.87 22.41 21.38 20.99 26.34 23.27 22.16 22.32 22.80 22.64 23.02 22.79 21.68 21.32 22.51 27.21 28.22
34.27 34.13 34.75 33.19 32.48 32.22 32.24 31.78 29.95 31.03 32.36 33.74 35.33 34.52 30.79 28.05 24.31 22.92 22.22 22.70 22.53 20.94 20.56 20.39 20.26 20.77 22.23 22.45 23.52 22.13 22.70 22.57 22.75 22.92 23.24 24.64 23.90 22.97 22.65 22.57 22.47 22.39 23.54 26.21
31.57 32.77 29.53 29.79 32.21 28.96 30.83 27.16 29.26 30.05 31.20 33.58 33.23 31.30 27.67 24.15 22.67 21.93 21.78 21.44 20.20 20.44 21.06 20.90 20.91 22.03 23.28 23.30 22.08 21.89 21.90 25.80 25.98 23.69 23.09 22.89 22.59 22.30 22.28 22.24 22.30 22.84 22.93 22.64
30.54 29.28 25.16 23.80 22.66 27.56 28.88 30.12 30.65 31.15 32.91 28.99 28.24 27.95 23.75 22.04 21.36 21.02 20.97 20.71 20.54 20.49 21.02 21.78 22.06 23.78 24.13 22.83 21.94 22.13 22.14 22.20 25.70 23.02 22.05 22.45 22.46 22.47 22.74 23.15 22.77 22.52 22.35 24.21
32.24 29.54 29.51 30.13 29.21 29.02 29.18 29.32 30.08 29.69 29.48 29.03 28.20 24.47 21.51 20.44 20.50 20.34 20.27 20.02 19.46 19.53 21.42 22.71 22.99 23.68 22.92 23.48 23.55 22.84 22.89 22.20 22.13 21.66 22.48 22.55 22.84 23.64 22.59 22.01 22.34 21.73 22.31 23.52
30.70 31.10 30.26 30.37 29.50 29.20 29.00 29.13 29.26 28.94 28.23 26.25 22.37 21.06 20.59 20.34 20.14 20.00 19.48 18.74 18.17 17.82 20.75 22.57 25.32 25.46 22.80 23.95 25.66 23.67 22.30 21.38 21.70 21.91 22.50 23.81 21.78 22.06 21.59 20.95 21.16 21.08 21.17 21.37
30.24 29.50 29.17 26.98 28.28 28.41 28.47 28.52 27.11 26.85 24.70 21.77 20.97 19.76 19.06 19.57 19.77 19.62 18.61 17.96 18.70 19.54 21.63 22.25 23.60 22.59 21.96 22.28 25.45 22.91 22.29 21.68 21.44 21.38 21.09 21.15 20.26 19.61 20.03 20.97 20.62 20.60 20.37 20.79
28.89 28.18 26.73 26.24 24.99 25.50 27.45 26.99 25.67 23.66 22.58 21.05 20.30 19.83 19.47 19.48 19.22 18.83 17.25 16.35 19.47 21.58 23.20 25.72 22.54 22.24 22.02 23.67 24.33 22.79 21.84 21.25 20.90 19.72 19.23 18.51 18.29 18.45 19.02 19.40 19.23 19.32 19.69 20.15
25.97 26.32 26.27 26.07 24.55 24.09 23.30 22.21 22.32 22.22 20.90 19.26 19.22 19.48 18.79 17.92 17.63 16.63 19.12 18.16 20.30 25.29 23.54 21.59 20.68 22.85 23.90 27.31 23.33 21.65 20.90 20.27 19.25 18.34 17.66 17.77 17.83 17.54 17.19 17.71 18.00 19.11 19.83 20.14
25.75 25.81 25.88 25.45 24.95 24.45 22.29 21.06 20.09 19.84 19.41 19.17 19.15 19.02 18.46 18.49 17.95 16.92 16.88 20.59 20.59 22.37 22.72 21.22 23.54 26.10 26.61 23.50 20.89 19.70 18.68 18.01 17.77 17.76 17.52 17.11 17.20 16.80 17.45 18.20 18.89 19.38 18.57 18.82
25.26 25.02 25.18 25.20 23.23 21.91 21.90 21.80 19.36 19.47 19.06 20.51 20.28 19.95 19.09 17.36 17.71 19.97 19.39 22.15 23.82 22.71 21.78 21.34 22.32 25.49 26.07 20.16 18.21 17.53 17.57 17.60 17.27 16.57 17.04 20.67 18.02 18.63 18.74 17.94 17.65 18.59 19.16 19.41
20.25 17.08 15.47 16.13 19.86 22.39 18.75 16.06 15.27 15.96 18.32 18.55 18.99 18.71 19.20 19.15 17.29 17.78 17.24 18.28 21.66 21.20 18.68 21.87 23.25 23.23 18.97 17.88 17.97 17.90 17.41 16.78 15.80 17.95 19.69 18.84 17.63 17.58 18.25 18.56 18.43 18.74 19.78 19.48
20.87 22.22 21.97 21.46 21.62 20.52 19.52 18.92 18.31 17.65 17.68 18.10 18.52 18.70 18.45 18.06 17.05 17.23 16.23 19.04 17.61 19.00 17.03 17.09 17.21 18.36 18.36 17.66 17.21 17.39 17.65 17.69 18.30 18.33 19.28 18.70 18.24 18.24 18.30 18.14 17.99 17.89 18.17 18.18
15.98 21.38 16.03 19.69 19.20 18.87 18.17 18.46 17.53 16.37 17.88 17.44 17.50 17.45 16.65 16.16 15.83 17.56 18.29 15.21 15.35 15.87 15.98 16.46 16.78 17.44 17.44 17.73 17.82 17.77 17.80 17.74 19.25 19.04 19.32 18.61 17.81 17.34 17.41 17.22 17.00 17.15 17.41 17.54

GFSNGP_sfc_wetblb_009.txt.gz
Wetbulb
33.06 36.39 36.85 36.40 35.72 34.11 34.34 36.70 34.86 35.58 33.94 38.15 39.21 40.36 41.38 42.34 42.29 42.19 41.39 41.17 41.87 41.12 39.35 37.21 35.82 35.25 34.65 33.63 33.05 32.91 32.08 31.80 31.54 31.72 31.80 31.68 31.41 31.25 31.28 31.14 30.99 31.07 30.62 30.83
30.93 34.22 35.41 34.97 35.95 36.56 35.95 34.04 34.58 35.02 35.18 39.50 40.81 41.02 41.92 42.33 41.64 41.45 41.30 40.90 42.20 40.97 38.49 36.28 35.26 34.70 33.91 32.46 31.63 32.04 31.01 30.52 30.91 30.87 30.83 30.58 30.49 30.26 30.12 30.03 30.12 29.84 29.70 29.72
30.40 32.48 32.82 30.89 33.80 34.84 35.91 35.24 38.06 34.60 40.12 38.79 39.79 40.74 41.19 41.46 42.12 41.87 41.74 40.66 42.17 40.59 38.06 35.49 34.73 34.16 32.56 31.13 31.18 30.87 30.16 29.73 29.84 29.87 29.46 29.53 29.54 29.19 28.84 28.63 28.96 28.92 29.08 29.06
28.07 30.36 24.13 34.18 36.41 37.78 36.84 35.50 36.70 36.89 37.01 39.17 40.17 40.45 40.23 41.05 41.38 41.14 41.32 39.97 40.99 38.52 35.89 34.44 33.78 32.59 31.10 30.91 30.61 29.65 28.81 28.69 28.97 28.67 28.44 28.73 28.32 27.93 27.94 28.55 28.23 28.19 28.12 28.48
28.38 26.72 31.01 34.45 35.37 34.76 35.69 34.89 37.71 37.68 38.40 38.96 39.42 40.02 39.89 41.23 40.65 40.07 40.25 40.61 39.45 37.50 34.49 32.91 31.94 31.25 30.55 29.56 28.28 28.23 28.06 27.66 27.94 27.85 27.50 27.45 27.10 27.11 27.84 27.98 27.88 27.68 28.10 27.65
28.51 26.14 26.98 34.24 38.01 40.08 40.09 33.21 39.63 39.59 38.82 38.32 39.08 36.29 38.29 40.20 40.00 38.26 38.20 37.63 35.88 33.81 32.14 31.16 29.86 29.61 28.76 28.23 27.52 27.16 27.14 27.10 27.48 27.51 26.99 26.45 26.81 27.11 27.66 27.56 27.16 27.80 27.00 27.26
31.35 28.55 31.85 37.75 39.61 39.95 32.18 34.51 39.98 40.08 39.62 39.02 37.87 39.24 39.65 39.59 38.01 37.01 35.83 34.55 33.37 32.63 31.21 29.79 28.80 29.54 28.56 27.12 26.58 26.83 26.83 26.85 27.01 27.06 26.22 27.05 27.15 27.17 27.04 26.69 26.42 25.93 25.80 26.78
29.82 28.07 27.63 39.07 39.31 35.90 37.82 38.28 38.96 38.81 39.04 38.79 38.92 39.20 39.28 38.93 37.24 35.56 33.78 33.39 31.98 29.65 28.63 28.62 30.42 29.20 26.83 26.17 26.57 26.30 26.11 25.75 25.98 26.17 26.23 27.20 26.47 26.72 26.61 25.82 24.97 24.73 25.06 25.69
32.51 32.07 37.55 37.52 38.32 38.76 39.49 38.37 38.51 38.81 38.82 39.28 38.93 38.76 38.78 38.18 37.08 35.06 33.70 32.40 31.15 29.43 27.87 27.65 27.74 27.22 25.87 26.03 25.74 25.40 24.85 24.88 25.01 25.49 25.86 26.25 25.95 25.87 25.62 25.50 24.46 24.22 24.51 24.86
34.25 35.70 35.87 37.43 38.46 39.03 39.58 39.29 39.49 39.73 39.23 38.95 38.30 38.33 37.76 37.40 36.36 34.64 32.65 30.47 29.60 28.22 27.10 27.72 28.28 27.04 25.37 25.20 25.22 24.50 23.96 24.12 24.98 24.90 26.74 26.36 25.37 25.55 24.93 24.51 24.19 24.28 24.83 25.54
33.29 35.21 36.77 37.44 37.56 38.47 38.14 38.39 38.12 38.10 37.84 37.65 37.09 35.85 35.90 35.51 35.54 34.33 31.56 30.29 29.02 27.94 27.83 27.60 26.15 24.90 24.75 25.44 24.46 24.00 23.99 24.28 24.53 24.49 23.87 24.54 25.03 25.00 25.27 26.55 26.87 26.24 26.33 26.60
32.96 37.03 36.91 37.15 38.24 38.61 37.88 36.81 37.00 37.25 35.65 35.05 35.21 35.02 35.60 34.82 35.12 32.68 30.07 28.52 27.01 27.64 27.37 25.65 23.97 23.88 24.28 24.58 24.18 23.09 23.44 24.61 24.16 25.00 24.53 24.48 23.79 24.39 27.89 28.84 29.84 29.92 29.99 28.94
36.19 36.84 35.75 36.34 36.48 36.72 35.40 34.95 34.79 34.34 34.61 33.86 34.31 34.93 35.50 34.01 33.07 33.16 29.74 27.10 25.85 26.06 25.02 23.68 23.20 22.98 23.87 24.13 24.31 23.71 22.87 23.40 23.90 25.14 23.60 23.27 23.80 23.41 22.78 26.15 28.42 28.61 28.96 29.52
36.34 37.22 35.41 34.71 35.23 34.41 35.01 36.25 37.22 34.94 34.76 35.02 35.98 36.60 35.20 31.75 31.19 28.04 25.32 25.03 24.38 24.11 24.00 23.09 22.67 22.82 23.88 23.86 24.00 23.40 23.28 25.97 24.74 23.40 23.89 24.20 23.99 24.33 24.23 22.82 22.22 23.61 27.26 27.98
33.17 33.93 36.10 33.43 32.90 33.01 32.91 31.85 30.43 30.89 32.13 32.80 34.43 35.19 33.91 30.01 27.83 24.63 23.48 23.79 23.90 22.94 22.66 22.44 22.42 22.91 23.89 24.18 24.26 23.73 23.81 24.01 24.36 24.62 24.64 25.29 24.93 23.95 23.82 23.46 23.11 23.22 24.53 26.40
32.46 30.24 30.98 31.68 30.87 31.79 31.33 29.51 30.24 30.76 31.34 31.39 31.66 33.81 32.68 26.70 24.42 22.95 22.64 22.58 22.17 22.51 22.64 22.52 22.43 23.58 24.47 24.33 23.62 23.59 23.59 25.57 25.96 24.73 23.93 23.69 23.45 23.26 23.07 23.00 23.10 23.40 22.96 23.13
30.28 26.70 28.29 24.08 24.70 28.11 29.18 30.62 31.08 31.12 31.13 32.26 29.89 29.45 26.57 23.26 22.28 21.88 22.00 22.03 22.20 22.09 22.45 22.71 22.92 24.55 24.84 24.11 23.30 23.58 23.22 23.16 25.42 23.68 22.65 23.18 23.27 23.09 23.32 23.54 22.42 22.19 22.49 23.74
34.43 32.23 31.12 29.97 28.63 29.01 29.09 29.33 29.88 30.00 30.03 30.66 29.15 27.32 23.58 21.66 22.18 21.57 21.40 21.14 20.85 20.81 22.19 23.52 23.87 24.74 24.58 24.72 24.46 23.94 23.74 23.28 22.92 22.55 23.23 23.10 23.22 24.00 22.91 22.35 22.12 21.18 21.91 22.65
30.47 30.51 29.98 30.04 29.48 29.22 29.19 28.94 29.37 29.20 28.86 28.57 26.47 24.52 22.73 21.56 21.10 21.02 20.41 19.81 19.28 19.34 22.08 23.41 25.38 25.61 23.72 24.45 25.94 24.68 23.27 22.37 22.57 22.63 22.87 23.79 22.11 22.38 21.72 21.13 21.06 21.18 21.28 21.22
29.52 29.01 28.87 28.16 28.96 28.47 28.06 28.23 27.48 27.73 27.02 24.02 22.31 20.65 20.14 20.20 20.25 20.14 19.46 19.32 20.26 21.01 22.32 22.91 24.35 23.52 22.79 22.78 25.30 24.13 23.38 22.70 22.07 22.13 21.76 21.74 20.89 20.05 20.65 20.81 20.82 20.49 20.27 20.43
28.61 28.02 27.56 27.20 26.08 26.10 26.89 26.67 26.38 25.32 24.11 21.74 21.08 20.44 19.84 19.79 19.57 19.43 18.35 18.16 20.68 22.05 23.79 25.56 22.98 22.58 22.38 24.03 25.07 23.86 22.72 22.07 21.51 20.66 19.98 19.40 18.91 18.81 19.17 19.36 19.11 19.02 19.27 19.80
25.92 26.51 26.48 26.17 24.81 24.59 24.16 22.73 23.18 23.17 21.82 19.90 19.68 19.67 18.82 18.05 17.69 17.26 19.64 19.16 20.95 24.98 23.69 22.01 21.40 22.83 24.58 27.23 24.01 22.31 21.52 20.83 19.87 19.18 18.49 18.47 18.31 17.96 17.79 18.16 18.20 19.03 19.86 20.05
25.52 25.80 25.78 25.30 25.14 24.40 22.47 21.63 20.58 20.34 20.06 19.60 18.99 18.66 18.64 18.86 18.54 18.02 18.03 20.66 21.13 22.38 22.88 21.13 23.45 25.68 26.30 23.68 21.36 20.17 19.12 18.42 18.19 18.19 18.19 18.15 18.06 17.73 18.16 18.56 19.30 19.57 18.50 18.70
25.43 24.77 24.92 24.92 23.61 22.62 22.74 21.09 19.67 19.26 19.00 19.76 19.67 19.53 18.93 17.79 17.76 18.80 19.36 21.62 23.20 22.74 21.68 21.14 22.46 25.02 25.52 20.23 18.57 17.92 17.88 17.90 17.85 17.53 17.57 20.36 18.63 19.01 19.08 18.40 18.01 18.95 19.11 19.07
20.15 16.96 15.60 16.68 20.60 22.21 17.59 14.98 15.60 16.32 17.78 17.67 17.96 18.14 18.23 18.15 17.36 17.99 17.40 17.77 20.50 20.87 18.31 21.03 22.71 22.67 18.75 17.97 18.02 17.87 17.53 17.17 16.66 17.20 19.23 18.53 17.81 18.14 18.63 18.72 18.67 18.52 19.12 18.73
21.22 21.27 20.83 20.46 20.61 19.88 18.66 18.67 17.42 17.14 17.27 16.90 17.54 18.04 17.29 17.06 16.26 16.30 16.14 18.56 16.87 18.40 16.43 16.72 16.82 18.15 18.21 17.42 17.10 17.42 17.63 17.64 17.95 17.77 18.93 18.48 18.34 18.37 18.19 17.35 17.33 17.41 17.38 17.17
19.34 21.36 16.60 18.27 18.39 18.43 17.83 17.72 16.84 15.77 17.42 17.17 16.66 16.26 15.49 15.35 15.33 16.38 17.14 14.34 14.65 15.15 15.40 15.96 16.35 16.94 17.35 17.57 17.71 17.55 17.42 17.33 18.46 18.53 19.14 18.16 17.23 16.87 16.61 16.30 16.10 16.27 16.53 16.59

GFSNGP_sfc_wetblb_012.txt.gz
Wetbulb
40.94 41.99 43.31 42.04 41.36 41.22 41.22 43.38 39.99 43.14 41.94 45.74 47.81 47.98 48.41 48.79 48.60 48.32 48.04 47.72 47.49 47.49 46.89 45.39 43.42 42.24 40.95 39.28 38.33 36.96 36.41 36.28 35.40 35.51 35.69 35.59 35.56 35.34 35.33 35.15 34.94 34.79 34.29 34.40
37.89 40.09 41.72 40.12 42.14 42.51 43.06 43.83 43.67 43.99 43.28 48.12 47.73 48.71 47.26 48.17 48.02 47.79 47.71 47.11 47.35 47.53 46.76 44.45 42.71 41.03 39.68 37.91 36.53 36.40 35.52 34.42 34.64 34.45 34.70 34.82 34.68 34.32 34.38 34.35 34.44 34.26 33.95 33.71
36.76 38.13 38.81 36.54 40.97 41.34 42.49 44.32 43.57 40.76 45.75 46.39 44.53 45.43 47.01 47.81 47.56 47.49 47.55 47.22 46.97 47.01 46.00 43.41 41.85 41.16 39.62 37.43 35.92 35.14 34.37 33.77 33.47 33.69 33.68 33.72 33.76 33.60 33.54 33.49 34.02 33.57 33.37 33.05
35.49 36.33 30.67 41.63 42.28 45.55 43.59 44.81 45.46 45.49 44.82 46.17 46.92 47.38 46.79 48.00 47.84 47.10 46.87 46.50 47.12 46.86 44.25 42.51 41.32 39.78 37.53 36.10 35.06 33.89 33.11 33.13 33.21 32.96 32.61 33.05 33.00 33.07 33.28 33.46 33.02 32.68 32.48 32.35
34.45 34.53 38.34 38.64 39.63 40.12 40.99 42.42 44.71 44.64 44.34 45.21 45.03 45.87 44.28 45.43 45.63 45.49 45.44 46.21 47.02 46.07 43.04 40.35 39.32 38.17 36.52 34.58 33.52 32.88 32.82 32.49 32.39 32.39 31.91 32.16 32.20 32.37 32.79 32.43 32.20 32.05 31.97 31.44
34.75 32.41 32.52 39.09 41.94 44.12 44.86 38.69 44.17 44.84 44.22 43.79 44.54 42.07 44.23 44.69 44.11 43.15 43.75 43.72 42.95 41.37 40.11 39.54 37.59 36.45 35.12 33.26 31.56 32.45 32.07 31.83 32.16 32.16 31.71 31.56 31.90 31.87 32.34 32.14 31.42 31.54 30.95 31.28
36.98 34.23 37.99 41.96 43.57 44.91 37.00 39.87 44.02 45.46 44.88 44.35 44.10 45.08 44.00 43.18 41.51 42.32 42.08 40.90 39.68 39.35 38.71 37.81 35.78 35.16 32.55 30.54 30.95 32.05 31.87 31.77 31.93 32.15 31.66 31.80 31.88 32.12 31.65 31.14 30.88 30.52 30.06 30.59
37.98 34.68 32.66 43.31 42.22 40.63 43.28 44.51 45.07 45.42 45.38 43.78 43.47 43.08 43.22 42.46 40.90 39.92 38.65 38.34 38.81 37.81 36.26 35.37 34.87 33.00 30.57 30.84 32.08 31.74 31.36 31.20 31.41 31.72 31.42 31.20 31.18 31.27 31.04 30.46 29.50 29.14 28.92 29.24
39.54 39.21 41.37 42.39 42.86 43.67 46.66 44.26 43.93 43.95 44.13 43.95 42.86 42.92 43.10 42.20 40.99 39.93 39.04 37.73 37.58 36.88 34.66 34.08 32.70 31.84 31.01 31.86 31.37 30.89 30.70 30.78 30.94 31.18 31.29 31.60 30.54 29.74 29.26 29.41 28.42 27.87 27.83 28.09
38.30 39.76 40.17 41.45 42.38 43.96 45.48 43.92 44.31 44.49 43.93 44.25 42.89 43.10 42.51 42.44 41.69 40.43 39.12 37.57 36.69 35.48 34.59 32.40 31.99 31.51 31.63 31.17 30.79 30.04 29.97 30.37 30.78 30.52 30.31 30.56 30.49 29.94 28.76 28.11 27.62 27.51 27.54 27.47
37.45 39.26 40.71 41.53 43.16 43.27 42.69 43.25 42.84 43.00 43.23 43.02 43.02 41.76 41.84 41.34 41.18 40.64 38.80 37.02 36.12 35.44 34.20 33.32 31.79 30.67 30.78 30.62 30.20 29.61 29.81 30.14 30.15 30.06 29.92 29.56 29.60 28.94 28.29 29.12 28.85 27.45 27.78 27.93
40.73 43.46 43.68 42.99 43.18 43.60 42.90 42.41 43.05 41.76 40.44 40.37 41.50 40.72 40.50 40.19 40.49 39.79 37.62 36.26 34.58 33.96 33.14 31.00 30.37 30.04 30.17 30.12 29.68 28.89 28.70 29.57 29.39 28.97 29.24 28.58 28.07 27.96 30.18 29.98 30.31 30.19 30.16 29.41
43.13 44.54 41.90 44.52 43.77 43.56 42.10 41.20 40.99 41.24 40.59 39.05 38.74 39.85 39.58 39.10 39.45 37.86 36.29 34.08 33.22 32.47 31.56 30.18 29.43 29.24 29.73 29.51 29.24 28.66 28.05 28.28 28.91 28.74 27.94 27.33 27.18 26.68 25.59 28.55 29.85 29.59 29.54 29.68
41.89 41.70 39.09 41.64 40.54 41.38 40.90 40.33 39.85 38.80 38.70 38.69 38.89 39.09 37.65 37.06 36.99 35.67 33.43 32.84 31.69 30.64 29.87 29.28 28.84 28.73 29.62 29.25 28.83 28.56 28.50 28.07 27.87 27.86 27.76 27.38 27.04 26.81 26.54 25.26 24.55 25.89 28.90 29.12
39.46 39.47 42.87 40.35 39.53 38.77 39.18 37.58 35.68 35.96 36.62 36.71 37.77 37.66 37.60 35.35 34.42 32.91 30.94 30.18 29.58 29.26 28.70 28.13 27.99 28.58 29.22 28.97 27.97 28.00 27.80 27.79 27.72 27.97 27.75 27.36 27.04 26.43 26.14 25.73 25.29 25.35 26.66 27.63
36.25 37.28 38.28 37.59 35.96 34.91 34.93 35.07 35.60 35.40 35.96 36.05 36.03 36.12 36.53 35.54 33.62 30.68 29.54 29.14 28.28 28.07 28.57 27.72 27.87 29.04 28.85 28.36 28.09 28.11 28.13 27.29 27.14 27.02 26.86 26.42 26.07 25.59 25.27 25.19 25.00 25.05 24.49 24.67
34.51 32.56 33.05 31.82 32.78 33.65 35.54 36.44 36.54 36.02 35.76 35.73 35.41 35.48 34.44 31.47 29.54 28.36 27.98 28.41 28.49 28.10 28.00 27.61 27.85 28.52 28.15 28.32 27.68 27.68 27.32 27.02 26.89 26.39 25.94 25.81 25.44 25.09 25.21 25.07 24.01 23.93 24.02 25.08
42.10 40.39 39.40 37.88 35.48 34.30 33.99 34.91 35.32 35.49 35.53 35.74 34.66 33.68 32.19 29.46 29.72 28.52 27.82 27.38 26.90 26.65 27.22 28.13 27.94 28.01 28.68 28.12 27.43 27.34 27.05 26.45 26.02 25.49 25.63 25.14 25.13 25.35 24.68 24.06 23.59 23.01 23.61 24.11
39.06 36.64 35.74 35.50 35.80 35.21 34.61 34.27 34.58 34.78 34.42 34.56 33.56 32.75 32.18 30.45 29.36 27.94 27.06 26.27 26.27 26.17 27.70 27.41 26.52 27.50 27.40 27.26 26.92 27.00 26.56 26.03 25.69 25.47 25.20 25.28 24.50 24.64 23.81 23.35 22.94 22.65 22.98 22.83
34.35 34.71 34.46 33.29 33.88 34.19 33.46 33.71 33.91 33.69 33.50 32.61 31.68 29.75 28.39 27.47 26.78 26.16 26.03 26.06 27.10 27.99 26.92 26.92 27.41 27.05 26.37 26.23 26.42 26.96 26.70 25.88 24.95 24.64 24.14 23.92 23.43 22.88 22.99 22.55 22.21 21.74 21.56 21.17
33.23 33.18 32.81 32.74 32.02 32.10 32.70 32.98 32.67 31.86 30.77 29.37 28.50 28.09 27.40 26.23 25.62 25.65 24.51 25.55 26.55 25.84 26.69 26.50 26.28 26.15 25.79 25.99 27.24 27.29 25.83 24.69 23.88 23.34 22.72 22.36 22.00 21.90 21.61 21.21 20.74 20.48 20.28 20.42
32.43 32.12 31.51 31.21 30.93 30.00 29.55 29.48 30.01 29.26 28.30 26.70 25.83 25.45 24.61 23.89 24.13 23.84 24.81 25.18 26.23 25.29 26.02 26.28 25.94 25.28 26.19 27.30 26.75 25.32 24.16 23.18 22.69 22.54 22.02 21.83 21.16 20.59 20.29 20.46 20.19 20.49 20.95 21.19
31.85 31.36 30.52 30.42 30.27 30.23 28.19 27.57 26.61 26.78 25.76 24.84 24.02 23.77 24.55 25.11 25.40 24.51 24.05 24.27 25.53 24.96 25.68 25.37 24.94 25.45 26.31 25.80 24.74 23.18 22.30 21.75 21.43 21.41 21.39 21.23 20.80 20.66 20.54 20.12 20.60 20.65 20.44 20.49
30.03 30.25 29.51 29.08 28.70 28.32 27.59 24.47 24.84 24.13 23.79 23.61 23.71 23.98 23.97 23.85 23.50 24.28 24.04 23.41 23.03 23.46 23.98 23.51 23.81 24.65 25.08 23.36 22.23 21.69 21.54 21.42 21.34 21.20 20.72 21.73 21.23 21.13 20.40 20.07 20.11 20.32 20.08 20.40
28.31 26.28 25.58 26.42 27.43 26.45 23.65 21.95 21.84 22.43 22.42 22.21 22.04 22.27 22.47 22.70 22.90 22.73 22.36 21.61 21.36 21.81 21.78 22.27 22.74 22.60 21.66 21.61 21.36 20.97 20.78 20.96 21.39 21.34 21.13 20.20 19.92 20.21 20.24 20.05 19.84 19.36 20.03 19.61
26.29 26.41 26.23 26.57 26.79 25.41 23.55 23.52 22.80 22.70 22.57 21.49 21.42 21.64 21.36 21.14 20.95 21.34 20.74 20.34 20.13 20.24 19.80 20.12 20.27 20.94 20.75 20.24 20.35 20.61 20.77 20.62 20.42 20.03 20.31 19.83 20.03 19.94 19.15 18.44 18.40 18.51 18.28 18.28
24.98 24.78 23.53 22.62 23.23 23.35 23.15 23.21 22.46 21.35 21.89 22.01 20.19 19.67 19.53 19.48 19.44 19.50 18.89 18.78 18.70 18.81 19.08 19.49 19.59 19.66 19.96 20.08 20.01 20.31 20.16 19.94 20.27 19.58 19.75 19.31 18.57 18.13 17.72 17.65 17.81 17.69 17.96 17.90

GFSNGP_sfc_wetblb_015.txt.gz
Wetbulb
43.56 44.62 44.41 43.24 43.39 43.66 43.12 44.36 41.22 43.87 43.67 47.28 49.30 49.46 49.65 50.19 50.42 50.26 50.03 50.11 49.97 49.80 49.48 48.74 47.16 45.81 44.46 43.20 41.40 40.02 38.51 37.89 37.04 36.85 36.77 36.61 36.27 36.15 36.04 36.01 35.96 36.00 35.45 35.65
40.35 42.92 43.72 42.16 44.10 44.76 44.55 45.21 45.18 45.62 45.41 51.06 50.99 51.05 50.32 50.11 49.93 49.44 49.62 49.90 50.12 50.09 49.82 48.25 46.74 44.81 43.01 41.32 39.47 38.86 37.41 36.10 36.08 35.72 35.82 35.64 35.53 35.02 35.18 35.34 35.49 35.45 35.22 35.07
37.60 41.11 41.41 37.86 42.69 43.62 44.36 45.63 45.47 42.09 46.90 51.11 47.54 48.31 49.24 50.17 49.97 49.49 49.84 49.96 49.86 49.70 49.71 48.43 46.37 44.48 41.89 40.24 38.56 37.48 36.08 35.34 34.98 34.89 34.55 34.64 34.66 34.54 34.54 34.56 35.16 34.77 34.55 34.33
37.64 39.37 31.62 42.70 45.36 46.67 45.03 46.12 47.51 47.79 49.16 48.58 48.78 49.29 50.21 51.10 50.02 49.86 49.80 49.59 49.75 49.89 49.37 47.55 45.63 43.59 41.93 38.76 37.41 35.90 34.86 34.49 34.53 34.18 33.79 34.05 33.92 33.91 34.18 34.45 34.06 33.74 33.59 33.47
36.06 36.74 41.44 43.39 41.97 43.18 43.74 43.40 47.93 47.25 48.48 48.14 48.34 47.00 45.30 47.82 49.68 48.81 49.04 49.68 50.01 50.06 47.75 45.12 42.83 41.12 38.63 37.15 35.74 34.72 34.02 33.91 33.86 33.63 33.02 33.09 32.87 33.08 33.63 33.55 33.28 32.80 33.05 32.50
38.72 34.17 32.57 40.52 43.80 45.85 47.72 39.59 49.17 49.66 48.21 46.65 45.92 42.29 44.33 46.16 46.66 46.34 47.12 47.91 47.31 46.45 43.83 41.90 40.84 39.35 37.77 35.97 34.53 33.38 33.03 33.25 33.54 33.45 32.84 32.45 32.62 32.66 33.35 33.19 32.45 32.65 32.11 32.34
36.21 35.97 40.73 44.07 44.93 46.48 37.39 40.96 45.45 47.75 48.17 46.51 44.95 46.71 45.92 45.51 44.68 45.22 45.04 43.95 43.27 42.49 41.36 40.26 38.99 38.47 36.39 34.09 32.78 32.88 33.03 33.24 33.25 33.39 32.88 32.80 32.50 32.82 32.55 32.05 31.75 31.40 30.97 31.53
38.26 35.38 33.24 45.49 43.71 41.01 44.60 46.37 46.88 47.63 47.75 46.53 44.96 44.59 44.41 43.52 42.33 42.08 40.91 40.54 41.39 40.53 38.77 38.08 37.90 37.04 34.05 32.40 32.86 32.89 32.94 32.62 32.75 32.95 32.83 32.82 32.52 32.57 32.08 31.23 30.29 29.82 29.73 29.82
42.28 41.43 43.69 45.61 45.01 46.57 48.29 46.89 47.10 46.73 46.80 45.66 44.14 43.45 43.39 42.21 41.78 40.78 40.14 39.72 40.40 39.13 37.15 36.86 35.77 35.31 32.73 32.92 32.72 32.46 32.17 32.11 32.34 32.47 32.66 32.79 31.79 31.02 30.44 30.32 29.18 28.58 28.40 28.33
40.75 42.06 42.88 44.63 44.80 46.48 48.52 47.06 47.10 46.63 45.76 45.62 43.79 43.91 43.24 42.90 41.83 40.83 40.23 39.29 39.65 37.98 36.28 34.36 33.97 32.64 33.33 32.65 32.40 31.60 31.22 31.55 31.83 31.63 31.88 31.81 32.00 31.29 30.11 29.01 28.24 27.72 27.32 27.07
40.80 41.25 42.13 43.32 44.86 45.18 45.22 45.60 44.78 45.37 45.58 44.94 44.38 43.70 43.66 43.17 42.96 42.20 40.72 39.44 38.83 38.10 37.04 34.71 34.00 32.74 32.55 32.08 31.80 30.66 30.90 30.91 31.34 31.55 30.86 30.60 30.92 30.37 29.55 29.99 29.75 27.66 27.68 27.71
41.02 44.91 45.34 44.53 45.53 45.59 44.06 43.52 43.84 42.86 42.27 43.61 44.31 42.60 43.25 42.51 42.89 42.10 40.05 38.81 37.71 37.15 35.73 33.70 32.66 32.12 31.89 31.76 31.10 30.26 29.46 30.23 30.57 30.05 30.33 30.14 29.31 29.01 31.98 32.01 32.19 31.71 31.28 29.89
44.85 46.80 46.06 45.81 45.16 46.05 44.33 44.17 44.51 43.92 43.07 41.07 41.84 42.03 42.17 41.22 41.46 40.76 39.47 37.65 36.21 35.18 34.20 32.35 31.80 31.19 31.37 31.21 30.54 29.71 28.91 29.18 29.50 29.38 28.99 28.44 28.13 27.48 26.16 29.21 31.11 31.10 31.08 31.07
45.30 45.02 42.69 43.80 42.30 44.79 43.76 43.02 42.92 41.83 41.68 41.22 40.69 40.97 40.42 39.95 39.50 38.34 36.38 36.09 35.35 33.24 31.79 31.49 30.91 30.50 31.26 30.87 29.94 29.48 29.37 30.24 29.17 28.98 28.54 28.23 27.84 27.25 27.12 25.79 24.91 26.26 29.61 29.96
43.48 43.28 45.17 45.09 43.70 42.39 41.87 40.36 38.52 38.19 38.71 38.78 39.80 39.42 38.61 36.78 36.21 35.57 34.65 32.98 31.95 31.60 30.81 30.28 29.71 29.99 31.00 30.36 29.08 28.69 28.68 28.70 28.71 28.28 28.14 28.31 27.78 27.22 26.67 26.10 25.61 25.73 26.71 27.86
40.97 41.50 41.72 40.60 39.09 38.49 38.16 38.23 37.78 37.60 38.27 38.00 37.70 37.43 37.71 37.46 36.54 33.27 31.73 31.41 29.95 29.22 29.96 29.24 29.19 30.38 30.24 29.43 28.77 28.87 29.13 29.48 28.94 27.68 27.29 26.89 26.77 26.10 25.55 25.49 25.19 25.08 24.46 24.64
36.26 34.10 33.91 34.08 35.70 36.90 37.95 38.98 38.97 37.99 37.72 37.45 37.01 36.86 35.97 34.18 32.70 30.84 30.32 30.62 30.43 29.75 29.74 29.17 29.02 29.94 29.24 29.07 28.57 28.15 28.22 27.97 28.82 27.28 26.61 26.47 25.97 25.50 25.55 25.02 24.32 24.16 23.97 25.46
44.07 41.67 41.18 39.51 38.76 37.50 36.90 37.34 37.53 37.34 37.06 37.17 36.57 35.90 34.88 32.61 32.18 30.98 29.79 29.26 28.73 28.28 28.47 29.41 29.34 28.69 29.11 29.10 28.24 27.49 27.37 27.15 26.86 26.18 26.30 25.79 25.65 25.79 25.10 24.64 23.96 23.38 23.59 24.28
42.52 41.96 41.24 39.37 38.43 37.41 36.46 36.08 36.55 36.88 36.55 36.35 35.38 34.59 34.81 33.39 32.52 30.71 29.33 27.88 27.48 27.41 28.83 28.73 27.33 27.62 28.20 28.33 27.38 26.92 26.71 26.55 26.40 26.18 25.82 26.02 24.85 24.89 24.30 23.85 23.25 23.04 22.92 22.45
38.03 37.29 36.46 35.96 36.32 36.12 35.40 36.32 36.36 35.76 35.69 35.50 35.08 33.58 32.38 31.12 29.52 28.03 27.83 27.30 28.66 28.55 28.01 27.91 27.54 27.69 27.33 27.10 27.38 26.78 26.91 26.65 25.57 24.95 24.42 24.25 23.78 23.25 23.27 23.39 22.80 22.26 21.66 21.51
35.37 35.21 34.62 34.53 34.14 35.33 35.59 35.85 35.27 33.93 32.75 32.32 31.57 30.54 29.80 28.41 27.56 27.50 26.06 26.27 27.24 26.87 27.17 26.92 27.02 26.73 26.30 26.69 27.40 27.04 26.52 25.42 24.18 23.46 23.05 22.77 22.57 22.35 22.08 21.85 21.54 21.25 20.94 21.10
35.28 34.36 33.93 33.74 33.59 32.18 32.80 33.12 32.58 31.53 30.50 29.31 28.44 28.10 26.81 25.37 26.06 25.85 26.38 26.31 26.80 25.87 26.33 26.92 26.92 26.37 25.96 27.37 26.36 25.80 24.84 23.74 23.03 22.85 22.34 22.12 21.64 21.13 21.03 20.90 20.62 20.94 21.05 20.92
34.59 33.86 33.06 32.97 32.90 31.47 30.76 30.08 29.01 29.15 27.95 27.05 26.25 25.97 26.62 26.94 27.22 25.76 24.99 25.22 26.34 25.83 25.34 25.76 26.15 25.86 26.30 25.37 24.94 24.05 22.94 22.43 22.12 22.05 21.96 21.80 21.45 21.09 21.03 20.79 20.71 20.82 20.29 20.31
32.85 32.96 32.49 31.89 31.75 30.89 28.24 26.61 27.11 26.56 25.91 25.53 25.39 26.05 25.87 25.27 24.57 25.46 25.09 24.47 23.86 24.00 23.87 24.13 24.12 25.03 25.61 23.45 22.87 22.41 22.25 22.03 21.82 21.88 21.43 22.89 21.90 21.46 20.45 20.20 20.01 20.25 20.13 19.88
30.49 29.48 29.52 29.61 30.17 28.69 25.67 24.72 24.13 24.57 24.57 23.94 23.68 23.88 24.25 24.08 24.13 23.50 23.24 22.83 22.93 22.50 22.10 23.74 23.75 23.60 22.20 22.17 21.92 21.46 21.29 21.60 21.65 21.81 21.27 20.68 20.25 20.00 20.03 20.14 19.84 19.09 19.51 19.43
30.17 29.89 29.94 30.49 29.98 27.78 25.96 26.01 24.98 24.90 24.50 23.05 22.95 23.18 22.60 22.41 22.19 22.54 21.94 21.81 21.17 21.40 20.77 21.15 21.28 21.42 21.10 20.99 21.08 21.07 21.07 21.10 20.89 20.44 20.50 19.93 19.79 19.55 18.91 18.29 18.33 18.40 18.27 18.23
27.91 28.09 26.42 25.46 25.93 26.02 26.01 25.77 24.32 23.42 24.36 24.17 21.39 21.16 20.95 20.82 20.82 20.59 20.44 20.46 20.29 20.25 20.30 20.62 20.64 20.78 20.68 20.56 20.47 20.52 20.47 20.40 20.68 20.05 19.83 18.90 18.31 18.06 17.80 17.62 17.68 17.85 17.63 17.44

GFSNGP_sfc_wetblb_018.txt.gz
Wetbulb
38.50 42.60 42.32 41.83 41.62 42.24 40.42 41.29 35.32 38.29 39.29 41.17 43.47 43.23 43.96 44.94 46.91 47.36 47.38 47.39 46.76 45.71 44.48 43.37 42.21 40.89 39.82 38.15 36.71 36.08 35.06 34.17 33.11 33.13 32.98 32.73 32.76 32.71 32.47 32.05 31.95 31.83 31.66 31.74
38.73 42.15 42.05 40.40 42.43 42.58 42.46 41.77 41.17 41.68 40.74 45.92 44.89 45.70 44.39 44.24 45.90 46.75 47.11 47.44 46.83 46.59 44.90 43.15 41.10 39.62 38.92 36.81 35.45 35.27 33.84 33.19 33.60 33.06 32.68 32.54 32.17 31.60 31.01 30.90 30.64 30.87 30.51 30.65
33.27 38.54 39.10 34.16 40.19 41.99 42.94 43.72 43.26 39.70 43.85 45.12 43.53 45.22 44.58 44.57 45.92 45.97 46.35 46.85 46.29 46.03 44.85 43.03 40.94 39.48 36.58 35.12 34.85 33.69 33.18 33.08 32.97 32.84 32.32 31.69 31.26 30.40 29.66 29.10 29.29 29.06 28.92 29.04
33.95 34.16 26.40 37.18 40.98 43.91 42.66 43.40 44.31 44.16 44.45 44.89 44.52 44.00 44.47 45.49 45.13 45.43 46.59 46.97 46.29 45.83 44.64 42.33 40.35 38.56 36.24 34.66 33.65 33.23 32.41 32.31 32.67 32.34 31.04 30.39 29.40 28.85 28.18 28.50 28.12 27.88 27.91 28.03
31.44 32.28 37.45 38.90 39.07 39.03 39.29 40.29 44.32 43.41 45.03 43.50 43.39 41.95 40.63 43.63 44.94 44.55 44.93 45.34 45.30 44.77 42.20 39.97 38.17 35.63 34.69 33.69 32.67 32.31 31.74 32.14 31.99 30.54 29.23 28.86 28.02 27.20 27.48 27.45 27.20 26.92 27.69 27.34
34.66 28.76 27.23 35.79 40.52 43.22 43.05 34.55 42.60 43.90 44.32 42.48 42.36 36.44 37.96 42.25 43.42 43.28 44.23 44.20 42.83 41.34 39.95 38.06 35.72 35.05 33.37 31.83 31.18 30.89 30.92 30.57 30.27 30.00 28.94 27.51 27.03 26.71 27.43 27.32 27.77 28.28 28.36 27.32
35.85 32.93 36.05 41.06 41.29 43.16 33.24 35.57 42.18 43.62 44.14 42.73 39.07 40.17 41.94 42.46 41.65 41.92 41.23 40.07 39.54 38.35 37.00 34.78 34.69 34.64 31.70 30.67 29.39 29.99 30.37 30.30 30.03 29.36 28.15 27.41 26.93 26.98 26.80 26.12 25.99 25.69 26.09 26.41
36.12 33.75 30.70 42.16 40.98 37.33 40.94 41.81 43.02 43.50 43.13 41.22 40.88 41.31 40.82 40.60 39.66 38.96 38.15 38.36 38.06 35.93 34.42 34.60 35.05 32.70 29.90 28.24 28.85 29.66 29.74 29.44 28.64 27.81 28.93 30.00 26.76 26.46 26.40 25.18 23.97 23.65 24.57 25.41
38.16 38.09 42.40 43.02 42.52 43.23 45.26 42.98 42.89 42.08 42.38 42.24 40.66 39.93 39.84 38.65 37.86 37.71 37.43 37.20 36.80 34.64 33.45 32.74 32.21 30.66 28.01 27.88 29.28 29.36 28.10 27.36 27.15 27.47 27.87 28.06 26.43 25.44 24.75 24.35 23.19 23.50 24.05 24.13
38.79 38.31 39.24 41.50 42.27 42.86 44.53 43.31 43.52 43.27 42.58 42.39 40.50 40.37 39.19 38.83 37.86 37.19 36.91 36.09 35.18 33.13 31.18 29.41 28.93 29.64 28.58 29.18 29.21 28.41 26.66 25.92 26.23 25.97 27.41 26.55 26.57 26.02 24.43 23.21 23.22 23.53 24.08 24.22
37.04 38.60 40.02 41.46 41.79 42.58 42.46 42.82 42.60 42.83 42.71 42.08 41.50 40.42 40.14 38.95 38.05 37.18 36.31 35.67 34.78 33.27 31.51 29.35 29.15 28.75 28.71 28.85 28.23 25.90 24.98 24.88 25.59 26.12 25.50 24.85 25.47 24.95 24.32 24.96 26.42 26.45 25.75 25.25
37.81 42.43 41.35 40.26 42.16 43.22 41.83 41.28 41.42 41.23 40.37 40.85 40.57 39.87 39.94 39.13 38.87 37.40 35.49 35.12 34.10 32.39 30.16 28.87 28.52 28.03 28.16 28.32 26.85 25.33 23.98 24.48 24.30 24.12 24.19 24.12 23.31 24.88 30.37 31.53 32.16 32.02 31.80 29.95
41.10 42.49 42.87 42.92 42.62 42.86 41.34 41.17 41.18 40.12 39.72 38.82 39.10 39.26 39.08 38.00 37.94 39.33 35.10 33.87 31.73 30.62 28.46 28.19 27.72 27.20 27.51 27.75 26.48 25.40 22.63 23.61 23.40 24.83 23.14 21.98 23.14 22.74 22.70 26.37 30.47 30.53 30.78 31.06
42.96 42.85 39.82 40.96 39.98 41.73 41.34 41.03 41.11 38.78 38.33 38.19 37.78 37.95 37.76 36.70 36.23 33.70 32.23 31.81 30.46 28.91 27.81 27.43 27.00 26.56 27.18 27.24 25.24 24.28 23.65 29.28 23.89 22.95 22.65 22.73 23.40 23.36 23.28 22.54 22.03 23.13 28.01 29.21
39.57 40.84 41.26 41.26 40.47 38.64 37.78 36.83 35.20 35.00 35.74 35.72 36.57 35.29 34.89 33.70 32.34 30.72 29.34 28.84 28.62 27.36 26.73 26.76 26.11 26.03 26.99 26.61 25.21 23.89 24.00 23.43 23.48 23.09 23.13 24.90 23.99 23.19 22.87 22.80 22.51 22.57 23.58 25.97
37.67 38.29 38.88 37.59 36.35 35.49 34.92 34.37 34.44 34.27 34.56 34.33 34.11 34.27 33.73 32.36 29.51 28.34 27.35 27.06 25.69 24.32 25.19 24.84 24.63 25.42 26.23 25.12 23.92 23.54 23.54 28.47 28.32 23.62 22.87 22.40 22.28 22.54 22.51 22.20 22.12 22.09 21.66 22.00
34.87 34.10 34.97 32.50 33.77 34.06 34.26 34.89 35.02 34.31 33.91 33.10 32.91 32.57 31.38 29.62 27.30 25.73 25.90 26.09 25.19 24.66 24.39 24.57 24.24 25.47 25.63 25.22 24.31 22.95 22.54 22.64 27.76 22.88 22.13 22.33 22.61 22.38 22.41 22.26 21.46 21.46 21.39 23.27
38.56 36.88 37.33 37.00 35.54 34.23 33.68 34.22 33.98 33.68 33.03 33.71 33.89 32.71 29.94 28.20 26.93 25.36 24.27 24.00 23.48 23.10 24.34 24.64 24.58 24.74 24.89 25.15 24.50 23.38 22.94 22.16 22.34 21.75 22.43 22.09 22.50 22.84 22.05 21.79 21.33 20.92 21.18 22.46
39.36 38.40 37.85 36.01 35.11 34.32 33.56 33.06 33.44 34.16 34.06 33.32 32.45 31.69 30.65 29.33 27.23 24.70 23.82 22.80 22.26 21.96 22.48 24.01 27.51 25.73 24.27 25.56 26.15 23.46 22.34 21.87 22.27 21.72 21.64 23.99 21.15 21.08 20.99 20.92 20.82 20.79 20.72 20.83
36.82 35.12 34.37 33.75 33.78 33.79 32.83 33.37 33.22 32.66 32.96 32.67 31.72 30.18 28.10 25.16 23.84 23.37 23.08 22.02 21.24 21.91 23.58 24.34 24.17 23.29 22.95 23.51 26.91 22.97 22.24 21.79 20.94 19.87 19.75 21.07 19.92 20.13 20.33 21.74 21.28 20.71 20.08 20.25
33.30 33.10 32.66 32.83 32.14 32.64 32.69 32.32 31.67 29.93 29.59 29.53 28.32 26.85 24.20 22.97 23.33 22.81 21.45 20.12 20.76 24.04 24.39 26.15 23.39 22.24 22.17 24.26 24.30 22.36 21.61 20.39 19.50 18.16 18.60 18.96 19.06 19.12 19.54 19.73 19.79 19.75 19.71 20.28
33.37 31.76 31.32 31.03 30.15 28.54 28.77 28.64 28.30 27.17 26.05 24.87 24.31 23.30 22.01 21.34 20.80 20.35 21.55 20.84 21.83 27.11 23.87 22.17 21.64 25.02 23.60 27.00 21.92 20.79 20.05 19.32 18.56 17.95 17.43 17.57 18.37 18.06 18.03 18.52 18.73 19.49 19.81 19.69
31.29 30.50 29.59 29.01 27.56 26.21 25.67 25.28 25.40 24.96 23.38 22.77 22.27 22.19 21.69 21.11 20.91 20.42 19.42 21.98 21.42 24.05 21.55 20.74 24.79 26.16 26.85 21.39 20.09 19.18 18.54 18.45 18.45 17.87 16.69 15.92 17.62 18.07 19.88 19.06 18.82 19.06 18.77 18.97
29.61 29.33 28.35 27.75 26.80 25.35 22.68 22.23 22.19 22.05 21.55 22.68 22.42 22.14 21.52 19.40 19.16 20.28 21.38 23.65 24.31 23.22 20.98 21.31 23.06 25.80 25.90 19.09 17.98 17.53 17.66 17.45 16.39 15.66 17.69 22.14 16.50 17.39 18.78 18.43 18.24 19.05 18.60 17.88
26.44 24.98 25.16 26.02 25.21 23.26 21.75 20.81 20.34 20.23 20.46 20.27 20.58 20.08 19.74 19.64 19.68 18.78 18.03 19.02 22.26 20.47 18.24 22.22 24.12 23.94 18.80 17.84 17.52 17.30 16.78 15.59 13.01 16.07 16.60 14.67 17.89 17.21 17.81 18.41 17.70 16.72 18.01 17.02
26.76 26.57 25.56 25.70 24.40 23.10 22.04 21.89 20.72 20.46 20.85 19.47 19.10 18.75 18.39 18.63 18.83 17.71 17.39 20.10 17.81 20.07 17.29 17.80 18.19 18.86 18.14 17.74 17.53 17.13 17.23 16.48 17.41 17.10 19.10 18.36 17.66 16.71 16.35 16.52 16.60 16.17 16.23 15.65
25.42 26.09 22.86 22.66 22.74 22.38 21.79 21.62 20.85 19.75 21.12 19.88 17.62 17.72 17.47 17.54 18.12 17.20 19.15 16.22 16.45 16.78 16.70 17.06 17.44 18.36 18.06 17.86 17.62 16.74 16.15 16.15 18.11 17.89 17.26 15.22 15.42 15.33 15.21 15.13 15.13 15.51 15.61 15.38

GFSNGP_sfc_wetblb_021.txt.gz
Wetbulb
36.50 38.29 40.65 40.60 39.37 39.33 39.08 39.57 35.89 35.22 36.51 38.76 40.04 40.81 41.55 44.88 45.58 45.36 45.44 45.37 44.69 43.27 42.54 41.72 40.09 38.46 36.96 35.38 34.54 34.20 33.19 32.28 31.48 31.55 31.66 31.65 31.43 31.21 31.13 30.93 30.87 30.27 30.19 30.02
37.67 41.39 40.69 39.77 41.82 41.90 41.45 41.46 39.59 39.63 38.43 40.76 40.62 41.61 41.14 43.88 45.65 45.42 45.28 45.63 45.02 43.85 42.88 41.49 39.76 37.68 36.62 34.49 33.52 33.52 32.27 31.66 32.02 31.75 31.67 31.13 30.85 30.81 29.94 29.44 29.25 28.97 28.41 28.41
31.90 40.26 40.10 36.18 40.12 40.81 41.62 42.12 42.44 38.23 42.16 41.10 41.29 42.62 42.01 42.68 46.07 45.59 45.28 44.69 44.74 44.17 43.10 41.33 39.12 37.45 34.75 33.35 32.87 31.97 31.48 31.74 32.02 31.66 31.21 30.99 30.47 29.24 28.43 27.79 26.98 26.88 26.77 26.82
33.80 33.26 26.26 36.47 41.75 43.93 42.82 42.99 43.19 42.75 43.66 42.26 41.43 40.22 40.80 41.59 44.19 44.96 45.84 45.49 45.36 44.55 42.07 40.32 37.50 36.05 33.82 33.02 31.98 31.45 31.22 31.23 31.42 31.40 30.63 29.78 28.59 27.59 26.33 26.20 26.03 25.89 25.88 25.91
31.20 30.80 34.32 36.37 38.12 37.55 38.40 38.31 41.51 42.93 42.61 41.60 41.15 40.57 39.56 41.63 42.65 42.84 43.97 44.32 43.81 42.67 39.83 37.83 36.00 34.30 33.00 31.83 31.11 30.67 30.24 30.51 30.65 29.99 28.91 28.29 26.98 25.42 25.50 25.52 25.28 25.03 25.39 25.04
32.04 26.33 26.20 34.52 39.21 40.36 39.90 33.25 40.40 40.24 41.41 41.27 40.64 36.52 36.61 40.24 42.41 41.30 41.77 41.67 39.26 38.15 36.29 34.34 33.54 33.80 31.84 30.26 29.65 29.71 30.24 30.19 29.86 29.55 28.27 26.24 25.32 25.03 25.53 25.22 25.45 25.65 25.83 24.82
33.97 32.53 33.44 39.60 40.18 41.09 31.80 33.73 40.40 40.67 41.84 40.70 38.36 38.68 39.75 40.39 38.69 38.73 38.46 37.52 37.58 36.14 33.91 32.79 32.45 32.29 30.36 29.21 28.53 29.60 29.85 29.72 29.23 28.52 26.90 26.00 25.26 24.98 24.88 24.49 24.03 22.87 22.65 22.88
35.57 33.27 28.41 39.96 38.62 34.96 38.87 39.73 40.28 39.69 39.61 38.46 38.93 39.39 38.86 38.29 37.63 37.69 36.58 35.74 35.29 33.68 32.69 32.55 32.04 31.25 27.85 26.85 28.13 29.00 29.06 28.72 27.89 26.47 27.34 28.73 25.42 25.05 25.00 23.44 21.91 21.24 21.05 21.97
36.70 37.30 42.08 40.86 40.29 42.04 42.57 40.94 39.71 39.41 39.61 39.60 38.55 37.80 37.53 36.14 36.05 35.94 35.55 33.76 34.35 33.37 31.29 29.84 29.06 28.95 26.84 27.09 28.59 28.25 27.21 26.32 25.54 25.81 26.43 26.28 25.20 24.53 23.67 22.39 21.19 22.24 22.01 22.20
37.57 38.43 37.95 39.82 40.79 42.21 42.34 41.21 40.96 40.85 40.22 39.85 37.56 37.53 36.33 36.18 35.62 35.78 35.24 33.30 32.63 30.77 28.58 27.06 27.79 28.21 27.68 27.82 27.93 26.89 25.16 24.72 24.91 24.48 26.56 24.88 24.70 24.47 23.13 21.43 21.23 22.13 22.74 23.80
35.74 36.90 38.12 39.15 39.87 40.72 40.55 41.19 40.79 40.84 40.65 39.36 38.53 37.45 37.27 36.37 35.41 34.91 34.00 32.55 31.82 29.90 28.54 26.89 26.90 26.65 26.77 27.01 26.72 24.90 24.13 23.73 23.41 24.04 23.54 22.90 23.28 23.04 23.22 23.45 25.28 25.54 24.92 24.84
36.57 40.28 39.44 38.99 40.63 41.59 41.10 40.32 41.14 40.42 38.96 39.35 39.68 38.33 37.73 36.27 35.86 34.91 33.48 32.89 31.40 29.21 27.48 26.25 25.82 25.69 26.21 26.74 25.79 24.25 23.28 23.17 22.85 23.16 22.42 22.12 21.24 22.45 28.54 30.13 30.98 30.92 30.80 28.96
41.11 42.04 41.25 41.36 40.95 40.82 40.02 39.50 40.01 39.67 39.78 38.46 38.67 39.23 38.47 36.72 35.57 37.24 33.35 31.58 29.44 27.51 26.38 25.65 25.39 25.40 25.99 26.42 24.93 24.13 21.79 22.80 22.33 23.82 22.12 20.83 21.25 20.73 21.38 24.91 29.29 29.45 29.67 29.96
41.69 42.16 39.12 39.71 38.72 40.22 40.25 39.63 39.75 38.04 37.96 38.14 37.57 37.56 36.96 35.30 34.44 31.87 30.71 29.74 27.87 26.39 25.56 25.30 24.97 24.78 25.56 25.38 24.02 23.24 22.52 28.00 23.27 21.79 21.84 21.77 21.41 21.56 21.78 21.50 20.94 21.95 26.69 27.88
39.43 40.04 40.99 39.81 38.66 37.51 37.76 37.25 35.67 35.11 34.97 34.22 35.30 35.51 34.13 31.57 29.75 28.13 27.21 26.79 26.33 25.36 24.91 25.08 24.61 24.04 25.14 24.71 24.38 23.27 23.40 22.64 22.73 22.35 22.28 24.36 22.50 22.00 21.89 21.85 21.47 21.43 22.37 24.86
36.72 37.70 38.51 37.08 35.40 34.33 34.18 34.20 34.09 33.45 33.69 32.95 32.52 31.94 30.81 28.53 26.49 25.58 25.45 25.33 24.49 23.11 24.04 23.98 23.28 23.78 24.70 24.31 23.32 22.51 22.17 26.90 26.98 22.60 21.93 21.67 21.90 21.66 21.57 21.22 21.07 20.81 20.55 20.91
35.18 31.69 33.47 32.03 33.35 32.77 33.09 33.80 34.39 33.61 33.21 32.16 30.77 29.23 27.28 25.43 24.78 23.92 23.66 24.08 24.41 23.61 23.38 23.62 23.07 24.59 25.09 24.32 23.24 21.77 21.45 21.50 26.91 21.44 21.56 21.98 21.71 21.35 21.21 20.96 20.26 20.36 20.37 22.43
37.43 36.86 37.26 36.84 34.72 32.73 32.42 33.01 33.44 33.43 32.01 31.52 30.17 28.56 26.51 25.44 23.90 23.09 22.71 22.53 21.92 21.95 23.03 23.42 24.02 24.33 24.31 24.29 23.70 22.76 22.21 21.39 21.71 21.26 22.08 21.45 21.55 21.71 20.66 20.40 20.23 19.95 20.33 21.71
37.54 36.79 35.62 33.69 33.99 33.69 32.98 33.02 32.54 32.47 32.44 31.84 30.20 28.54 28.13 26.26 24.08 22.72 21.87 21.29 20.72 20.60 21.56 23.82 27.93 25.02 22.92 24.97 25.74 22.92 21.87 21.04 21.27 20.77 20.58 22.60 19.50 19.70 19.72 19.84 19.84 20.01 19.99 20.07
36.81 35.33 34.51 32.80 33.46 33.57 32.24 32.57 32.54 32.05 31.89 31.42 29.35 26.89 23.53 22.42 22.11 21.72 21.14 19.63 20.44 21.60 23.15 24.14 23.32 22.07 21.68 23.04 27.23 22.21 21.32 20.67 19.78 18.69 18.54 19.69 18.54 19.10 19.09 20.66 20.13 19.42 19.32 19.52
34.19 34.11 33.34 32.75 31.80 32.42 32.66 32.25 31.94 30.63 29.89 29.33 27.56 23.74 21.79 21.56 22.03 21.71 20.33 18.99 20.91 24.21 24.21 25.42 22.36 21.33 21.93 24.15 22.63 20.83 20.16 18.89 18.24 16.92 17.23 17.63 17.70 17.91 18.45 18.49 18.50 19.23 19.29 19.46
33.31 32.61 32.11 31.46 30.24 28.56 28.78 28.29 27.57 25.57 24.22 23.10 22.21 22.07 21.73 20.91 20.60 20.63 21.55 20.62 22.20 26.28 22.58 20.69 20.57 25.14 23.80 25.71 20.49 19.37 18.65 18.17 17.58 16.90 16.33 16.87 17.12 16.95 16.89 18.17 18.54 18.23 18.50 18.06
32.33 31.05 29.49 28.57 27.12 25.03 24.55 24.01 23.21 23.24 22.18 21.91 22.05 22.08 21.68 21.04 20.89 20.17 19.15 21.53 21.14 24.26 20.01 19.42 24.56 26.51 26.78 19.44 18.32 17.61 17.21 17.06 17.03 16.90 16.51 15.77 16.48 15.96 17.68 17.35 17.77 17.58 17.07 17.62
29.90 28.23 26.05 25.27 24.43 23.66 21.11 20.14 21.13 21.21 21.65 22.29 21.87 21.84 20.90 19.15 18.30 19.46 21.64 24.00 24.76 21.95 20.19 21.54 23.16 25.34 23.75 17.50 16.59 16.09 16.29 16.20 15.23 13.64 15.57 20.04 15.41 14.92 16.27 16.99 16.55 17.04 16.12 16.50
26.46 25.11 24.51 23.07 22.10 20.66 19.96 19.75 19.29 19.46 19.64 19.06 19.01 18.97 19.25 19.27 19.06 17.72 17.30 18.30 22.75 19.72 17.16 21.71 23.11 23.25 17.60 16.67 16.32 16.16 15.43 13.58 11.54 16.68 16.12 15.46 17.04 16.24 15.87 15.49 14.98 15.43 16.71 14.67
26.38 25.33 24.17 23.71 22.38 21.73 21.06 21.13 19.58 19.57 19.49 17.79 17.50 17.57 17.46 18.06 18.72 16.66 16.96 19.20 17.37 19.13 16.19 16.58 17.39 18.02 16.90 16.63 16.59 15.89 15.38 14.62 15.51 15.33 17.29 16.21 15.09 13.51 13.77 13.96 13.85 14.10 14.58 14.69
24.21 25.39 22.37 21.95 22.46 21.82 20.80 20.94 20.26 19.27 19.64 18.42 16.65 16.77 16.63 16.69 17.87 16.27 17.90 14.93 15.31 15.50 15.43 15.75 16.12 17.37 16.94 16.51 15.62 15.23 14.70 14.28 16.03 15.99 14.99 13.10 13.57 13.33 13.62 14.01 14.40 14.98 15.22 14.93

GFSNGP_sfc_wetblb_024.txt.gz
Wetbulb
35.41 35.37 36.21 38.53 37.03 37.76 32.35 35.72 31.95 36.54 37.83 38.49 39.75 39.71 41.81 43.29 43.55 43.53 43.73 43.89 43.37 42.35 41.13 38.98 37.55 36.20 35.38 34.02 33.55 33.12 32.06 31.26 30.59 30.45 30.43 30.42 30.32 30.08 30.19 29.37 29.35 29.01 28.55 28.66
31.99 36.56 37.04 36.54 39.23 38.78 36.28 35.33 35.01 36.74 40.29 42.47 39.92 39.79 40.60 42.04 43.44 43.48 43.78 43.91 43.53 42.65 40.94 38.94 37.74 35.98 34.96 33.09 32.58 32.92 31.47 30.82 30.98 30.66 30.44 30.17 29.95 28.86 28.45 28.39 27.86 27.43 27.18 26.75
33.47 39.05 38.09 35.80 39.55 34.60 35.25 39.26 37.50 38.18 40.57 39.25 40.13 40.98 40.70 41.82 44.38 44.11 44.22 44.08 43.16 42.25 41.67 40.40 37.40 35.88 33.47 32.51 32.31 31.44 30.82 30.69 30.81 30.60 30.01 29.61 28.99 28.39 27.62 26.35 26.17 26.10 25.51 25.30
34.20 36.88 26.09 36.47 41.19 44.54 41.99 42.77 42.49 42.48 41.04 40.41 40.44 38.94 39.85 40.56 43.82 44.17 45.01 44.56 43.53 42.78 41.30 38.72 36.47 34.89 32.56 32.24 31.34 30.70 30.09 30.28 30.52 30.13 29.45 28.71 27.69 26.52 25.73 25.78 25.53 24.98 24.67 24.43
32.80 30.44 33.29 35.57 37.61 37.56 39.20 39.13 39.34 42.15 40.22 39.78 40.09 39.96 39.20 40.58 42.06 43.03 43.86 44.64 43.96 42.56 38.79 35.98 34.21 33.34 32.14 30.72 30.06 29.92 29.43 29.74 29.86 29.29 28.15 27.03 25.99 25.10 24.87 24.92 24.39 23.84 23.92 23.49
29.87 26.72 26.99 34.14 38.37 39.02 38.49 32.20 38.78 39.03 39.78 39.59 39.85 36.87 37.57 38.79 40.11 40.50 41.03 40.98 38.86 37.25 35.67 33.59 32.65 32.73 31.23 29.25 28.78 28.58 29.42 29.45 28.70 28.19 27.27 25.97 24.81 24.84 24.54 23.85 23.55 23.80 23.39 22.94
30.93 31.85 32.52 38.56 38.97 39.26 30.27 32.81 38.64 39.03 40.08 40.02 37.94 37.86 38.60 37.07 35.88 36.98 36.75 35.42 35.66 35.13 33.07 31.61 31.70 31.59 29.12 27.90 28.07 28.88 28.60 28.25 28.10 27.47 26.03 25.24 24.55 23.84 23.76 22.99 22.63 21.64 21.83 21.67
33.09 28.62 25.60 39.14 38.80 33.88 37.31 38.68 38.47 37.74 37.99 37.52 38.20 37.93 36.86 36.58 35.74 35.23 33.75 33.62 33.73 31.95 30.46 29.98 30.77 30.38 27.87 26.94 26.99 27.70 27.94 27.55 26.58 25.16 26.81 27.29 24.70 24.32 23.98 21.88 20.49 20.18 20.04 20.49
35.88 34.42 39.37 39.23 38.95 40.52 40.67 39.66 38.56 37.48 38.78 38.88 37.70 36.88 36.77 35.07 34.25 33.19 32.94 32.28 32.81 31.43 29.30 27.94 27.87 28.61 26.03 25.45 27.10 26.96 26.03 24.90 24.73 25.00 24.79 24.53 24.30 23.56 22.60 21.06 20.06 20.40 20.31 20.87
37.67 37.77 37.94 39.10 40.49 41.00 41.00 39.76 38.86 39.21 39.37 39.13 36.36 36.29 34.70 34.42 33.17 32.21 31.94 30.86 30.84 29.60 27.58 25.64 26.19 26.84 26.13 26.43 26.73 25.58 24.06 23.15 23.08 23.26 25.12 22.93 22.89 23.56 22.16 20.40 19.93 21.02 22.37 22.85
36.11 36.24 37.52 38.72 39.26 39.70 39.28 39.60 38.88 38.66 38.67 37.42 36.48 35.23 34.98 33.87 32.92 31.77 30.74 30.15 29.75 28.31 26.81 25.06 25.54 25.43 25.69 25.90 25.47 23.66 22.74 23.11 22.69 23.21 22.29 21.82 22.11 21.57 22.47 22.47 24.09 24.14 23.04 23.62
36.04 40.11 39.18 38.28 39.72 40.39 39.91 39.08 39.11 38.20 37.31 37.49 37.51 35.99 35.29 34.07 33.72 32.11 30.52 29.81 28.60 26.79 25.54 24.46 24.63 24.41 24.84 25.21 24.08 23.13 23.06 22.83 22.15 22.34 21.31 21.07 20.42 20.68 27.27 29.19 30.17 30.19 30.07 28.17
40.27 40.37 40.11 40.34 39.99 40.11 39.70 39.49 39.44 38.73 38.68 37.27 37.04 36.71 35.68 33.86 32.84 35.03 30.91 29.12 27.38 26.07 24.33 24.21 24.02 23.98 24.43 24.64 24.16 23.25 21.55 22.57 22.07 23.16 21.54 20.46 20.45 19.82 20.29 23.79 28.46 28.67 28.88 29.06
40.91 41.66 39.12 39.45 38.23 39.73 39.80 39.40 39.50 38.02 38.12 37.80 36.81 36.39 35.63 34.26 33.15 30.64 29.28 28.01 26.33 25.01 24.06 23.94 23.84 23.49 23.94 23.98 23.46 22.45 21.91 27.65 21.98 20.95 21.30 21.12 20.64 21.04 20.68 20.58 19.94 20.87 25.61 26.88
38.69 39.55 40.06 38.87 38.12 37.10 37.84 37.64 35.83 34.88 35.23 34.65 35.01 34.02 33.17 30.84 29.35 27.60 25.99 25.25 24.94 24.33 23.99 23.85 22.96 22.39 23.84 23.88 24.04 22.76 22.81 22.37 22.49 21.78 21.38 23.56 21.83 21.38 20.96 20.71 20.45 20.13 20.86 23.51
36.08 37.17 37.91 36.76 35.48 35.09 34.71 34.16 33.62 32.57 33.04 32.86 31.99 30.83 28.82 27.05 25.48 24.35 23.92 24.61 24.57 22.61 22.93 23.25 22.65 22.83 23.93 23.90 22.73 21.94 21.77 26.16 26.20 22.39 21.39 21.33 21.20 20.74 20.39 19.79 19.53 19.35 19.16 19.71
35.07 31.35 32.68 32.29 33.06 32.62 33.47 33.75 33.81 32.66 33.11 33.30 30.67 26.75 25.48 24.27 23.53 23.15 23.46 23.42 22.95 22.81 22.98 23.17 22.71 24.33 24.75 23.41 22.89 21.47 21.13 21.50 26.24 21.57 21.14 21.12 20.67 19.95 19.69 19.45 19.04 19.17 19.24 21.47
37.00 36.56 36.64 36.01 33.77 32.14 31.95 32.34 32.99 34.16 32.79 30.82 27.61 25.48 24.29 24.48 23.17 21.85 21.28 21.74 21.61 21.28 22.63 23.27 23.73 24.13 23.66 23.80 23.62 22.66 22.35 21.54 21.59 20.75 21.21 20.21 20.29 19.88 19.17 18.91 19.17 19.03 19.52 20.71
36.93 35.78 34.76 33.63 33.79 33.13 32.50 32.25 33.70 33.08 31.34 28.37 26.69 25.41 24.79 23.86 23.07 21.86 21.21 20.61 20.07 20.24 21.75 24.23 27.82 24.31 22.41 25.01 25.66 23.07 21.53 20.49 20.42 19.67 19.25 21.22 18.50 18.43 18.70 18.80 18.91 19.02 18.99 19.16
33.76 33.80 33.65 32.80 33.59 33.49 33.11 33.77 33.36 31.55 29.76 28.94 27.48 25.62 23.15 22.29 21.56 20.63 20.42 19.44 20.56 21.65 22.94 23.63 22.90 21.75 22.02 23.31 26.62 20.95 20.15 19.39 18.30 17.27 17.21 18.20 17.55 18.06 17.89 19.49 19.07 18.38 18.55 18.78
33.06 33.52 33.90 33.74 33.24 33.87 33.73 33.44 32.09 30.29 28.70 27.40 25.32 23.19 21.65 20.26 20.69 20.85 20.29 19.60 20.92 23.83 24.04 25.14 21.91 21.78 22.24 23.65 21.23 19.68 19.02 17.66 17.06 15.73 16.07 16.28 16.45 16.64 17.30 17.63 17.69 18.21 17.93 18.08
33.88 33.40 32.60 32.58 31.01 29.27 29.27 29.33 28.94 27.62 25.72 23.03 21.89 21.17 20.44 19.64 19.39 19.47 20.78 20.39 22.41 25.82 22.10 20.56 20.70 25.04 24.24 23.09 19.22 17.87 17.20 16.84 16.32 15.68 15.19 15.65 15.73 15.63 15.92 16.43 16.28 16.90 17.45 16.59
33.01 32.03 31.25 30.58 28.61 25.25 24.31 23.93 23.54 23.56 22.09 21.45 20.94 20.73 20.48 19.75 19.75 19.65 18.48 21.50 21.71 23.25 19.65 19.93 24.90 26.32 24.47 18.00 16.90 16.26 15.90 15.90 15.77 15.55 14.78 13.57 14.45 12.80 14.40 14.84 16.10 16.02 15.55 15.42
30.53 29.11 26.88 25.99 25.45 24.15 21.19 19.98 20.79 20.55 20.87 21.41 20.87 21.01 20.32 18.32 17.27 19.23 22.13 24.91 24.62 21.46 20.02 21.61 22.69 24.82 22.33 16.33 15.48 15.12 15.39 15.07 13.79 12.01 13.63 18.28 12.48 14.13 15.48 14.89 14.00 13.87 13.96 15.42
27.24 25.76 24.39 23.41 22.23 20.38 19.34 19.07 18.80 18.86 18.92 18.21 18.10 18.34 18.89 18.60 17.94 16.95 16.99 19.25 22.97 18.41 16.31 21.72 22.76 22.24 16.42 15.67 15.43 15.20 13.99 12.11 10.28 13.50 14.06 13.23 14.66 13.45 13.30 12.81 12.84 13.78 15.55 13.68
26.02 24.65 22.92 22.67 22.00 21.52 20.80 21.14 19.23 18.77 18.47 16.81 16.83 17.37 17.33 17.74 18.73 16.21 16.48 17.96 16.61 18.31 15.12 15.51 16.81 17.17 15.94 15.41 15.15 13.98 13.57 13.37 13.98 13.71 15.86 13.65 12.83 11.54 12.19 12.58 12.70 13.24 14.00 14.17
24.17 24.48 21.41 20.91 21.25 20.94 20.24 20.41 19.51 18.72 18.77 17.77 15.81 16.08 16.26 16.17 17.13 15.72 16.79 13.82 14.52 14.73 14.52 14.65 14.87 16.24 15.53 15.36 14.01 13.79 13.07 12.76 14.73 15.01 13.47 11.21 12.02 12.26 12.78 13.01 13.44 14.13 14.51 14.49

GFSNGP_sfc_wetblb_027.txt.gz
Wetbulb
34.15 34.30 34.68 34.29 35.04 34.26 31.78 33.24 30.07 32.86 32.41 35.98 39.51 42.69 42.51 42.92 42.88 42.94 43.14 42.75 41.92 40.30 38.18 36.31 34.85 34.24 33.65 32.54 32.39 32.17 31.27 30.39 29.64 29.46 29.53 29.50 29.19 28.90 28.81 28.35 27.61 27.41 27.23 27.36
30.81 34.67 35.08 34.26 35.80 36.12 34.86 34.59 35.51 35.96 35.04 41.79 42.10 41.33 40.82 41.88 42.65 42.64 42.86 42.85 42.33 40.90 38.43 36.06 35.15 34.25 33.55 32.15 31.71 32.16 30.73 29.89 29.97 29.73 29.60 29.13 28.53 28.00 27.55 27.03 26.83 26.29 25.76 25.48
29.26 37.25 35.49 31.43 34.80 36.44 37.05 38.38 37.16 32.82 37.18 40.98 40.69 40.62 41.37 41.89 43.19 42.92 43.26 42.90 42.08 40.70 39.16 37.38 35.67 34.31 32.42 32.14 31.64 30.85 30.28 29.85 29.90 29.64 29.25 28.58 28.35 27.48 26.74 25.31 24.85 24.83 24.82 24.33
31.97 35.18 28.21 37.38 41.86 40.55 38.33 38.54 38.57 38.80 39.81 41.75 42.47 39.76 41.45 42.28 43.20 43.11 43.68 43.20 42.42 41.15 39.13 36.54 34.96 33.60 31.95 31.90 31.02 30.38 29.34 29.37 29.62 29.77 28.55 28.29 26.88 25.53 24.19 24.32 24.74 24.00 23.86 23.34
33.26 31.13 34.18 34.89 38.74 37.90 36.71 37.24 39.97 38.37 41.68 40.98 40.11 40.06 39.80 40.96 42.36 42.14 43.69 43.51 42.42 41.35 37.94 35.14 33.65 32.62 31.71 30.16 29.68 29.51 28.64 28.91 29.08 28.38 27.53 26.20 24.77 23.74 24.45 23.86 23.42 22.91 22.53 22.25
33.48 28.34 26.07 32.83 36.68 38.50 40.69 32.20 39.75 43.04 42.36 39.96 39.84 37.61 39.51 38.63 40.58 41.33 42.27 41.54 38.80 36.45 35.20 33.22 31.99 32.38 30.99 29.05 28.51 28.04 28.68 28.41 28.05 27.61 25.96 24.55 24.00 24.00 23.68 23.02 22.56 22.49 22.68 21.93
32.58 31.55 31.79 37.70 39.54 38.40 30.04 31.93 37.83 39.24 39.92 39.32 38.55 37.21 36.07 36.27 35.25 36.95 37.83 35.80 35.44 35.09 33.27 31.37 31.68 31.72 28.98 27.90 27.54 28.20 28.10 27.81 26.90 25.88 24.76 24.13 23.60 23.51 22.90 21.56 21.25 20.46 20.90 20.55
31.45 27.95 24.32 37.98 38.23 33.71 36.04 37.73 37.54 37.17 37.78 36.73 35.95 35.48 34.98 34.60 33.76 34.09 33.15 32.52 32.45 30.81 29.42 29.91 31.16 30.69 27.66 26.97 26.90 27.41 27.07 26.10 24.77 23.72 26.17 26.57 24.19 23.34 23.02 20.70 19.60 19.39 19.50 20.48
33.92 32.77 38.53 38.50 38.14 39.79 39.66 38.67 36.67 36.27 37.91 37.38 35.88 34.67 33.90 32.01 31.61 31.34 31.44 30.97 31.12 29.92 28.36 27.37 28.06 30.01 27.02 24.90 26.12 25.68 24.70 23.56 22.93 23.99 24.08 23.90 23.59 22.59 21.63 20.06 19.21 19.42 19.71 20.08
36.63 36.14 36.80 38.19 39.25 39.82 39.72 37.76 37.63 38.13 38.30 38.29 34.91 33.90 31.81 31.79 31.39 30.93 30.93 29.91 30.27 29.39 27.57 25.25 25.80 26.08 25.76 25.44 25.57 24.41 22.21 21.96 22.63 23.28 22.60 21.84 22.27 23.04 21.60 19.91 19.58 20.57 21.52 22.08
35.56 36.88 37.54 37.85 39.01 39.26 38.37 38.64 38.14 37.80 37.93 36.87 35.95 34.37 33.11 31.30 30.46 29.75 29.46 29.30 29.52 28.07 26.37 24.15 24.80 24.40 24.60 24.74 24.30 22.65 22.16 22.59 22.15 22.26 21.40 21.02 21.35 20.52 22.14 22.30 23.34 22.94 22.53 22.96
35.90 40.23 39.47 38.32 39.68 39.31 38.78 38.18 37.91 36.99 36.02 36.58 36.49 34.17 33.36 31.33 30.77 29.72 28.27 27.85 26.70 25.34 24.84 23.31 23.68 23.22 23.62 24.05 23.59 22.96 22.45 22.30 22.58 21.61 20.24 20.48 19.85 20.58 26.77 28.65 29.73 29.79 29.71 27.78
40.01 39.08 38.72 38.94 39.34 39.57 38.59 38.16 38.26 37.60 37.25 34.96 34.81 34.53 33.21 30.94 29.70 32.47 27.72 26.69 25.61 23.98 23.53 23.29 22.93 22.67 23.16 23.86 23.52 22.72 21.30 22.75 21.59 22.75 20.97 20.13 20.50 19.82 19.64 23.61 27.90 28.14 28.30 28.59
39.31 40.07 38.08 38.48 38.45 39.04 39.09 38.96 38.84 37.08 36.65 35.88 34.65 34.24 33.29 32.08 30.76 28.16 26.82 25.64 24.77 23.95 23.38 22.97 22.64 22.21 22.98 23.36 23.11 21.87 21.56 27.69 21.15 20.51 21.07 21.01 20.55 20.47 20.07 19.64 19.15 19.92 24.85 26.09
37.96 38.79 40.45 39.05 38.53 37.39 37.83 37.50 35.68 34.69 34.58 33.47 33.57 32.70 31.74 29.58 28.15 26.02 24.45 24.50 24.39 23.16 22.29 22.41 21.97 21.51 22.81 23.41 23.76 22.20 22.71 22.07 22.24 21.45 21.04 23.29 21.33 20.83 20.10 19.77 19.49 19.06 19.62 22.41
35.87 37.18 37.63 36.86 35.55 35.16 35.27 35.19 34.51 33.48 32.88 31.79 30.94 29.80 28.06 26.53 24.40 23.17 23.00 23.74 23.85 22.26 22.14 22.37 21.95 22.12 23.28 23.52 22.05 21.51 21.48 26.30 25.76 21.80 20.91 20.75 20.43 19.61 19.28 18.77 18.26 18.16 17.95 18.70
35.01 31.76 33.48 32.85 33.47 33.81 34.61 34.96 35.10 33.44 32.85 33.28 29.55 26.63 25.39 23.98 23.12 22.50 22.39 22.64 22.69 22.17 22.65 23.02 22.40 24.19 24.32 22.61 22.55 20.83 20.68 21.10 25.36 20.88 20.23 20.15 19.37 18.86 18.65 18.25 18.07 18.17 18.36 20.70
37.08 36.52 36.73 36.21 34.02 32.32 31.64 32.05 32.76 33.46 32.32 29.59 27.71 24.93 24.20 24.10 22.48 21.05 20.63 21.39 21.51 21.25 22.48 23.13 23.62 23.73 22.87 23.41 22.92 22.12 21.54 20.32 20.61 19.42 19.66 18.71 19.17 18.92 18.09 17.86 18.16 18.12 18.66 19.83
35.97 35.58 34.80 34.08 33.94 32.97 32.37 31.86 32.46 31.34 29.63 27.95 25.54 23.48 22.81 22.08 22.20 21.41 21.23 21.02 20.27 20.02 21.60 24.50 27.51 23.44 22.04 25.78 24.08 21.39 19.95 19.09 18.64 17.77 17.78 20.19 17.32 17.33 17.79 17.73 18.01 18.21 18.10 18.26
33.17 33.68 33.66 32.61 33.27 33.13 31.91 32.32 31.68 29.54 28.44 26.23 24.74 23.22 21.67 21.52 21.61 20.91 20.62 19.17 19.64 20.91 22.86 23.24 22.23 21.59 21.57 24.12 24.57 19.46 18.68 17.57 16.54 15.96 15.98 17.02 16.31 17.02 16.95 18.53 18.09 17.28 17.33 17.58
32.53 33.13 32.97 33.01 32.75 33.43 33.15 32.71 31.03 28.60 26.07 26.11 24.47 22.75 21.29 20.16 20.51 20.89 19.63 18.88 20.18 23.42 23.66 24.64 21.77 21.26 21.90 21.39 19.57 17.84 17.23 16.22 15.86 14.71 14.86 15.05 15.30 15.56 16.16 16.08 16.20 16.64 16.50 17.09
32.74 32.68 32.48 33.06 32.06 31.28 31.54 31.05 29.12 25.97 24.04 22.24 21.53 21.13 20.18 19.55 19.23 19.23 20.35 19.85 21.80 25.41 21.36 20.11 20.42 25.34 22.90 21.50 17.58 16.45 16.10 15.87 15.26 14.58 14.05 14.45 14.45 14.12 13.86 14.23 14.06 15.33 15.94 14.78
32.72 32.40 31.57 30.84 28.52 26.90 27.14 25.98 24.50 23.62 22.14 21.62 20.85 20.54 20.35 19.32 19.43 19.89 18.52 21.55 20.79 23.07 19.51 20.08 25.10 26.37 23.20 16.67 15.81 15.43 15.14 14.87 14.45 14.02 13.15 11.69 12.62 11.26 12.86 13.16 14.56 13.73 13.04 13.16
31.44 29.70 27.93 27.36 26.90 25.93 22.26 20.56 21.17 20.97 20.85 21.02 20.69 20.80 20.29 18.58 17.66 19.74 22.62 24.86 24.98 21.55 20.40 21.07 22.76 24.17 21.19 15.38 14.71 14.42 14.19 13.64 12.11 9.95 11.94 17.17 10.58 12.17 13.37 12.70 12.15 12.25 12.51 13.85
28.03 27.31 26.67 25.27 23.19 20.47 19.64 19.64 19.25 19.05 19.02 18.67 18.90 18.87 19.04 18.50 18.27 17.21 17.92 19.59 22.61 17.75 15.74 21.98 22.63 21.54 15.55 14.61 14.54 13.68 12.36 10.43 7.77 11.34 11.98 11.21 12.31 10.93 11.40 11.24 11.22 12.55 15.12 14.28
26.99 25.35 23.22 23.49 21.87 21.30 20.89 21.39 19.08 18.72 18.70 16.84 16.21 16.55 16.67 17.36 18.46 15.31 15.96 17.74 16.00 18.03 14.44 14.76 15.92 16.18 14.67 14.26 13.85 12.71 12.48 12.17 12.67 12.27 14.82 12.04 11.29 10.11 10.68 11.44 11.80 12.09 13.06 13.83
23.99 24.28 21.30 20.81 21.13 21.06 20.45 20.42 19.35 18.60 18.55 17.59 15.33 15.34 15.66 15.77 16.82 15.42 16.58 13.61 14.16 14.02 13.53 13.51 13.54 15.28 14.95 14.65 13.04 12.72 11.99 11.45 13.65 13.80 11.46 9.29 10.00 10.12 11.65 12.10 12.18 12.67 12.93 13.72

GFSNGP_sfc_wetblb_030.txt.gz
Wetbulb
33.66 34.14 34.15 33.42 33.81 33.04 30.73 31.49 28.17 30.71 30.34 33.78 37.20 38.81 39.05 41.09 42.65 43.30 42.82 41.16 39.66 37.21 35.64 34.46 33.32 32.62 32.15 31.67 31.67 31.60 30.65 29.93 28.65 28.34 28.47 28.36 28.09 27.92 27.97 27.95 27.81 27.17 26.60 26.13
30.72 34.41 34.27 32.06 34.27 34.99 34.01 33.41 32.98 33.17 32.85 40.46 40.55 41.75 41.13 39.51 42.31 43.71 43.04 41.69 39.94 37.69 35.69 34.11 33.12 32.30 32.17 31.20 30.76 31.55 30.42 29.09 29.01 28.82 28.46 27.89 27.51 27.33 27.39 27.24 26.42 25.62 24.84 24.92
28.60 33.84 34.02 31.88 34.28 34.92 35.36 36.65 35.03 30.88 35.56 40.61 40.12 41.81 41.93 41.64 43.59 44.23 43.29 42.02 39.82 37.65 36.20 34.72 33.62 32.82 31.29 30.95 30.80 30.45 29.68 29.10 28.97 28.61 27.89 27.50 27.38 27.46 26.60 25.87 24.84 23.75 23.55 23.22
30.27 33.52 28.01 36.98 42.25 40.49 37.28 38.32 37.91 38.33 39.74 41.07 41.47 42.73 41.00 42.21 42.76 42.60 43.27 42.37 40.23 38.17 35.89 34.28 33.24 32.33 31.11 31.26 30.51 29.84 28.94 28.59 28.53 28.24 27.25 27.23 26.76 25.88 25.26 24.21 23.16 22.68 22.44 22.19
32.00 30.84 34.54 36.44 39.36 36.45 35.12 35.29 40.22 39.35 40.26 40.83 40.35 39.11 38.18 40.64 42.46 42.88 43.71 42.89 40.76 38.71 35.68 33.90 32.56 32.04 31.25 29.96 29.41 29.13 27.97 27.83 27.77 27.39 26.75 26.27 25.71 24.88 22.90 22.74 22.21 21.53 21.64 21.24
32.68 29.26 27.35 34.18 37.75 40.70 40.18 33.36 39.56 39.86 40.18 39.90 40.26 37.44 37.81 39.44 41.60 42.82 42.38 41.03 37.90 35.62 34.37 32.47 31.52 32.03 30.75 28.85 28.47 27.65 27.58 27.35 27.40 27.40 26.27 25.06 23.67 22.97 22.41 21.75 21.63 21.68 22.04 21.15
33.36 31.36 31.57 37.69 39.02 38.50 30.29 31.80 38.64 41.21 40.94 41.13 39.09 39.91 37.59 37.99 36.93 38.75 38.74 36.44 35.44 34.77 33.11 30.95 31.48 31.68 28.99 28.27 27.30 27.41 27.76 27.22 26.59 25.68 24.16 23.20 22.59 22.04 21.44 20.64 20.43 19.68 20.52 20.23
33.08 30.53 23.98 38.09 37.11 32.48 35.67 37.30 37.87 37.21 37.91 38.62 35.97 35.62 35.13 34.57 34.51 34.99 34.00 33.06 32.61 30.96 29.68 30.24 31.36 30.63 28.10 26.75 26.08 26.94 26.50 25.28 23.76 23.48 26.20 25.47 23.13 22.44 21.97 19.85 19.00 18.86 19.30 20.54
33.75 32.32 37.63 38.10 38.09 39.33 39.15 37.85 35.69 35.59 36.86 36.30 34.27 32.84 32.27 31.34 31.19 30.91 30.84 30.20 30.57 29.26 28.08 27.67 28.75 30.27 26.60 24.01 26.08 25.13 23.63 22.65 22.65 23.23 23.03 23.42 23.03 21.93 20.90 19.35 18.78 19.06 19.53 20.12
35.89 36.16 36.72 38.09 38.99 38.21 38.17 36.78 37.25 37.56 36.80 35.70 31.99 31.09 29.92 30.20 30.06 29.73 29.71 29.00 29.66 29.10 27.39 25.41 26.22 26.47 25.46 25.33 25.13 23.83 21.69 21.53 22.30 22.57 21.59 21.09 21.69 22.81 21.14 19.63 19.32 20.19 20.86 21.80
35.26 37.34 36.68 37.83 37.04 36.84 36.88 37.44 37.10 37.06 36.50 34.22 33.19 31.62 30.85 29.47 28.98 29.06 29.24 29.62 29.84 28.06 25.89 24.07 25.31 24.51 24.45 24.03 23.76 22.50 21.53 21.93 21.52 21.46 20.46 20.25 20.63 20.05 21.54 21.61 22.23 22.29 22.18 22.66
35.28 39.42 38.26 37.19 38.37 38.31 37.40 36.75 36.92 36.20 35.10 35.07 34.31 31.76 31.15 29.54 29.77 29.14 27.89 27.70 26.24 25.36 24.47 23.42 23.69 22.67 22.60 23.29 23.20 22.06 21.58 22.00 22.36 20.46 19.39 19.92 19.46 19.96 26.56 28.19 29.41 29.46 29.22 27.29
39.47 38.56 38.35 38.54 39.23 38.68 37.05 36.61 36.85 36.20 35.45 33.48 33.12 32.53 31.34 29.17 28.71 31.14 27.15 26.59 25.18 23.78 23.23 22.83 22.29 21.63 22.18 22.81 22.92 22.32 21.23 21.71 20.93 22.07 20.46 19.58 19.57 18.97 18.91 22.70 27.19 27.40 27.67 27.96
38.36 38.83 37.57 37.92 37.51 38.03 38.02 37.37 37.20 35.30 34.55 33.71 32.50 32.18 31.41 29.27 28.53 26.74 24.71 23.84 24.07 23.54 22.70 22.35 21.80 20.72 21.96 22.36 22.59 21.60 22.48 27.53 20.57 20.09 20.11 20.00 19.71 19.74 19.21 18.50 17.97 18.82 23.97 25.45
37.65 38.95 39.21 38.04 37.75 36.82 37.41 36.44 34.92 33.36 32.92 31.99 32.23 30.78 29.79 27.72 25.51 23.11 22.94 23.89 23.74 22.53 21.43 21.80 21.29 20.51 21.97 23.13 23.14 21.86 22.47 22.08 21.17 20.65 20.27 22.56 20.54 19.61 18.99 18.61 18.13 17.74 18.55 21.52
35.78 36.96 37.19 36.54 35.77 35.53 35.25 34.72 33.44 32.17 32.03 31.19 29.84 28.31 26.44 24.83 23.35 22.39 22.45 23.52 23.32 21.49 21.44 21.84 21.24 21.48 22.83 22.82 21.33 20.71 21.05 26.40 25.16 20.85 20.10 19.74 19.12 18.37 18.13 17.30 16.93 17.05 17.01 17.86
35.54 32.91 33.47 32.66 33.89 34.00 34.50 34.70 34.24 32.75 31.98 31.21 27.67 25.62 24.60 23.36 22.67 21.97 21.20 21.72 22.18 21.68 22.50 23.07 22.54 23.94 23.48 21.91 21.83 20.27 20.28 20.24 24.73 19.76 18.76 18.47 17.88 17.79 17.45 17.11 17.13 17.23 17.48 19.84
36.76 36.52 37.32 37.36 35.31 33.71 33.01 33.17 33.24 32.27 30.49 28.98 27.28 24.77 24.21 23.85 21.48 20.18 20.32 21.28 21.50 21.47 22.93 23.33 23.36 22.95 22.57 22.57 22.39 21.42 20.34 19.29 19.34 17.67 17.88 17.44 18.44 17.79 16.93 16.98 17.27 17.22 17.84 18.91
36.03 35.91 35.65 35.20 34.98 33.83 32.82 31.68 30.06 29.95 29.13 27.21 25.16 22.68 22.33 21.70 21.52 20.84 21.10 21.03 20.43 20.38 22.02 24.36 26.85 23.14 22.90 26.24 22.33 20.12 18.80 17.50 16.87 16.28 16.56 19.30 16.19 16.27 16.93 16.84 17.07 17.17 16.98 17.03
33.67 34.02 33.97 32.94 33.82 33.25 30.79 30.71 30.45 28.66 27.82 25.08 23.29 22.46 20.89 20.97 21.46 21.10 20.67 18.92 19.52 21.08 22.88 22.63 22.07 21.32 22.21 23.00 22.83 18.12 17.12 16.26 15.37 14.93 14.98 15.84 15.39 16.22 15.95 17.33 16.83 15.91 15.84 16.19
31.99 32.81 32.71 32.53 31.76 31.86 31.86 31.12 29.57 27.20 25.52 24.77 23.42 21.69 20.59 19.99 20.92 20.90 20.11 19.24 20.18 23.27 23.03 24.46 21.27 20.81 21.77 20.15 18.31 16.59 16.11 15.35 14.92 13.73 13.83 14.07 14.40 14.37 14.83 14.59 14.49 14.88 14.96 15.73
32.12 32.08 31.82 32.16 31.12 30.38 30.51 29.63 28.08 26.26 23.67 22.08 21.56 21.34 20.43 19.60 19.77 19.86 20.42 19.83 21.73 25.26 21.08 20.03 20.61 24.68 21.68 20.67 16.50 15.64 15.32 14.90 14.18 13.52 13.07 13.39 13.30 12.88 12.38 12.62 12.41 13.52 14.74 13.33
32.31 32.08 31.76 31.45 29.80 27.46 26.57 26.05 25.29 24.29 22.60 21.99 20.91 20.71 20.69 20.11 20.36 20.25 18.72 21.31 20.35 23.40 19.83 20.43 25.48 25.74 22.47 15.71 15.05 14.72 14.08 13.69 13.33 12.91 12.12 10.66 11.81 9.88 10.98 11.48 13.23 13.15 11.56 12.10
30.87 30.45 28.76 28.22 27.56 26.24 22.95 21.28 21.46 21.00 20.78 21.03 20.88 21.23 20.74 19.00 18.34 20.24 22.80 24.81 25.76 22.23 19.92 20.93 22.78 23.59 20.57 14.41 13.89 13.41 13.01 12.60 11.12 8.98 10.78 16.38 9.15 10.36 11.37 11.49 11.20 11.33 11.54 12.77
27.92 27.06 28.05 27.24 25.14 22.12 20.55 20.10 19.50 19.33 19.48 19.12 19.11 18.98 18.84 18.56 19.46 17.84 18.17 19.81 23.09 17.61 15.73 22.37 22.66 21.02 14.43 13.54 13.60 12.59 11.44 9.50 7.25 9.94 10.47 9.78 10.05 9.20 10.19 10.48 10.43 11.35 14.56 13.45
27.54 27.47 25.66 25.99 23.76 22.57 21.71 22.14 19.79 19.56 19.24 17.10 16.36 16.72 16.95 18.28 19.54 15.81 16.05 17.62 15.73 17.77 13.73 13.94 15.10 15.42 13.86 13.49 13.45 12.03 11.74 11.26 11.60 11.04 13.44 10.96 10.35 9.31 9.77 10.45 11.09 11.61 11.99 11.91
24.43 24.91 22.17 21.40 21.74 21.62 20.94 21.04 20.17 19.37 19.20 18.16 15.40 15.37 15.73 15.72 16.93 15.30 16.46 13.31 13.62 13.20 12.58 12.48 12.59 14.58 14.36 14.00 12.47 12.08 11.12 10.21 12.62 12.92 9.58 8.23 8.65 8.45 9.82 10.91 11.38 11.99 12.23 12.30

GFSNGP_sfc_wetblb_033.txt.gz
Wetbulb
32.50 33.49 33.80 32.87 32.57 32.88 30.62 31.38 27.44 30.42 30.23 33.55 36.49 37.84 40.21 42.12 42.84 42.40 40.90 39.47 38.94 37.29 36.79 36.18 35.41 35.56 35.09 34.01 33.56 34.01 33.51 33.18 32.06 32.02 32.23 31.99 31.76 31.75 31.57 31.89 31.46 31.31 30.76 30.07
31.15 34.64 34.72 31.98 34.28 34.37 32.99 33.17 32.44 32.92 32.00 38.60 39.73 41.29 41.48 43.08 42.42 42.73 41.87 40.03 38.02 36.58 35.99 35.26 34.69 34.23 34.09 33.42 33.46 34.23 33.10 31.66 31.69 31.67 31.52 31.09 30.99 30.74 30.90 30.65 30.51 30.13 29.36 28.92
28.78 34.79 34.00 31.71 35.49 36.77 35.54 35.51 34.12 30.71 34.96 39.09 39.06 40.44 41.61 42.38 43.17 44.07 44.36 39.96 37.61 36.47 35.81 34.69 34.51 34.44 33.32 33.19 33.51 32.93 31.88 31.52 31.38 31.23 30.55 30.37 30.25 30.25 29.91 29.60 29.58 28.82 28.36 27.90
29.78 33.07 27.39 37.68 42.32 39.88 37.86 37.40 37.65 37.48 38.74 39.83 40.60 42.30 43.14 42.36 42.93 45.30 43.43 40.14 38.32 37.17 35.31 34.54 34.52 33.87 32.97 33.20 32.74 31.94 31.29 30.93 31.04 30.64 29.63 29.59 29.63 29.32 29.01 29.04 28.48 28.08 27.48 27.04
30.93 30.69 33.79 36.30 37.35 37.94 37.27 36.77 39.82 38.41 39.74 41.05 42.43 40.76 39.67 41.53 43.61 44.50 43.31 41.04 39.31 37.75 35.36 34.46 33.67 33.49 32.61 31.98 31.79 31.36 30.60 30.45 30.18 30.03 29.05 29.02 28.63 28.51 28.16 28.08 27.40 26.81 26.71 26.17
32.46 28.96 26.46 34.34 38.54 40.52 40.02 33.12 40.52 41.13 40.35 40.46 41.30 38.01 38.56 38.68 42.56 42.55 41.79 39.86 37.11 36.06 35.13 33.77 33.20 33.52 32.37 31.09 31.28 30.28 30.04 29.46 29.73 29.62 29.07 28.42 28.35 27.56 26.92 26.66 26.44 26.51 26.27 26.53
32.50 32.11 31.47 37.09 38.33 39.14 30.35 33.58 39.43 41.50 41.43 41.09 41.04 38.86 37.96 38.48 38.27 40.32 39.35 37.12 36.31 35.64 34.24 32.71 33.28 33.26 31.24 31.03 29.57 29.32 29.44 29.30 28.86 28.51 27.78 27.79 27.09 26.75 25.90 25.57 25.34 25.00 25.50 26.19
33.72 30.46 26.03 37.69 37.78 34.04 36.69 37.72 38.81 38.72 41.52 41.93 37.46 35.41 34.98 35.09 35.32 35.93 34.71 33.89 33.43 32.17 31.42 32.40 33.26 32.55 30.30 27.94 28.43 29.10 28.65 27.40 26.85 27.66 28.50 27.59 26.89 26.24 25.31 24.70 24.34 24.11 24.51 25.69
33.68 32.94 38.05 38.48 38.77 39.10 38.60 37.46 36.84 37.24 37.74 38.18 35.53 33.41 32.92 31.75 31.49 31.97 31.77 31.30 31.90 30.65 29.71 30.36 31.93 31.58 27.58 26.90 28.36 27.37 26.55 25.80 25.96 26.43 26.50 26.91 26.46 25.72 25.46 24.22 23.76 23.83 24.32 24.47
36.58 37.86 38.19 38.62 38.54 37.64 37.67 36.78 36.44 36.57 35.77 35.16 31.88 31.63 30.45 30.57 30.42 30.28 30.56 29.94 30.55 29.82 28.24 26.87 28.46 28.67 28.01 27.54 27.29 26.38 25.22 25.20 25.54 25.47 24.80 24.84 25.47 25.84 24.98 24.11 23.79 24.42 24.60 24.64
35.52 37.84 37.80 37.58 37.45 37.22 36.96 36.99 35.68 34.85 33.98 32.53 32.14 30.46 30.01 29.06 29.17 29.58 29.67 29.90 29.88 28.13 26.52 25.81 26.93 26.22 26.63 26.26 26.57 25.12 24.77 24.94 24.73 24.42 24.25 24.16 24.41 24.55 25.48 25.57 25.87 26.22 25.92 25.59
35.66 39.34 38.48 37.43 38.45 38.37 37.43 36.26 35.89 34.52 33.26 33.45 32.71 30.75 30.46 29.12 29.30 28.79 27.82 27.91 26.74 26.18 25.53 25.02 25.27 24.68 24.84 25.63 26.16 25.31 24.63 24.76 24.48 23.88 23.45 23.67 23.39 23.69 26.85 28.20 28.82 28.94 28.71 27.88
39.48 38.09 38.07 38.62 39.14 38.95 37.08 36.75 36.47 35.14 34.17 32.08 32.20 31.41 30.35 28.54 28.87 30.42 27.23 26.59 25.57 24.58 24.37 24.29 23.91 23.37 24.11 24.88 25.59 24.82 23.67 23.87 24.96 23.80 23.22 22.97 22.79 22.32 21.14 23.87 26.40 26.66 27.21 27.67
38.54 38.62 37.39 37.81 37.64 37.92 37.61 36.84 36.30 34.37 33.75 32.53 31.56 31.21 30.02 28.37 27.76 26.02 24.63 24.58 24.84 24.28 23.61 23.50 23.21 22.47 23.54 24.89 25.66 25.02 25.62 26.64 23.09 22.99 23.01 23.31 22.79 21.97 21.36 20.42 19.46 20.45 24.29 25.57
37.61 38.08 38.91 37.88 37.08 36.04 36.31 35.86 33.58 32.08 31.80 30.67 30.82 29.52 28.61 26.25 24.36 23.27 23.88 24.41 24.10 23.14 22.52 22.99 22.51 21.80 23.87 24.81 24.46 23.69 24.53 24.22 23.35 22.89 22.90 23.88 21.88 21.11 21.03 20.17 19.37 19.34 20.39 22.26
36.33 37.22 37.92 36.41 35.77 35.42 35.35 34.89 32.66 31.44 30.78 29.80 28.43 27.00 25.35 24.30 23.42 22.97 23.40 24.37 23.84 22.21 22.38 22.68 22.30 22.80 23.95 23.85 22.62 22.57 23.35 27.23 25.21 22.13 21.37 20.75 20.40 20.18 19.62 18.92 18.70 18.86 18.77 19.18
34.99 33.72 34.75 34.08 34.37 34.32 34.69 34.63 33.57 31.72 30.44 28.48 25.90 25.10 24.27 23.38 23.08 22.34 21.71 22.82 23.04 22.64 23.49 23.83 23.18 24.27 23.86 22.79 22.96 22.12 21.61 22.05 24.30 20.57 19.68 19.46 19.61 19.51 18.78 18.61 18.34 18.42 18.72 20.24
37.42 36.88 37.59 37.46 35.62 33.99 33.06 32.67 32.21 30.76 28.56 27.13 25.50 24.57 24.22 24.14 21.74 20.81 21.03 21.94 22.20 22.23 23.40 23.61 23.74 23.63 23.27 23.58 22.80 21.87 21.25 20.30 19.79 18.68 18.84 18.82 20.30 18.97 18.28 18.00 18.06 17.80 18.25 18.85
36.55 36.47 36.51 36.14 35.84 34.33 32.77 31.11 30.10 29.29 28.40 27.16 25.18 22.79 22.58 21.88 21.61 20.99 21.46 21.27 20.94 21.17 22.69 24.71 27.38 25.40 25.20 25.16 22.04 20.79 19.49 18.54 17.91 17.54 17.58 19.84 17.43 17.62 17.77 17.39 17.46 17.41 17.15 16.92
33.83 34.16 34.46 33.77 34.23 32.79 30.15 30.19 30.31 28.88 27.74 25.26 23.52 22.38 20.81 20.70 21.30 20.90 20.93 19.38 20.94 22.56 23.30 23.26 23.12 22.89 21.92 23.22 21.94 18.94 18.13 17.56 16.75 16.36 16.23 17.66 16.34 16.97 16.44 17.00 16.71 15.90 15.91 16.22
32.27 33.09 32.96 32.47 30.90 31.24 30.91 30.71 29.12 26.80 26.04 25.66 24.01 22.08 20.72 19.97 20.72 21.10 20.60 19.84 21.27 23.47 23.54 24.42 22.28 21.95 21.21 20.17 18.55 17.75 17.30 16.54 16.02 15.19 14.82 14.99 15.09 14.93 15.06 14.83 14.44 14.86 15.08 15.83
31.74 31.70 30.89 30.63 29.68 28.65 29.66 29.58 27.76 25.81 23.90 22.59 21.96 21.58 20.85 19.72 19.96 20.09 20.93 20.97 22.57 25.78 21.78 21.37 21.90 23.85 21.90 20.40 17.43 16.76 16.20 15.62 15.17 14.74 14.32 14.43 13.87 13.54 13.29 13.32 13.13 13.94 15.11 14.66
31.76 31.61 30.71 29.91 28.64 26.60 26.52 25.86 25.31 24.71 23.06 22.54 21.85 21.64 21.29 20.56 21.42 20.78 19.09 21.76 21.59 24.23 20.95 21.51 26.22 24.66 22.15 16.24 16.03 15.52 14.73 14.41 14.09 13.72 13.52 13.20 13.38 12.66 12.23 12.32 13.76 14.41 13.06 13.20
30.97 30.46 28.08 27.11 26.94 25.70 22.44 21.62 22.67 22.34 21.69 21.33 21.06 21.54 21.24 19.69 19.33 21.04 23.18 24.99 26.74 22.66 20.67 21.74 23.47 23.20 19.39 15.03 14.78 14.06 13.81 13.53 12.70 11.81 12.42 16.70 12.31 12.10 12.13 12.18 12.00 12.82 12.80 13.59
27.76 28.19 27.14 26.63 25.57 22.83 21.32 20.90 20.32 19.95 19.71 19.39 19.53 19.65 19.89 20.14 20.32 19.00 19.82 21.81 24.68 18.82 17.11 23.20 22.81 20.11 14.76 14.19 14.30 13.49 12.88 12.17 11.05 12.95 13.14 11.94 12.11 11.33 11.27 11.38 11.57 12.71 15.56 15.24
27.77 28.36 27.12 26.25 24.13 23.35 22.63 23.29 20.66 20.11 19.70 17.66 17.05 17.71 18.52 19.75 20.43 16.89 16.99 18.23 16.34 18.11 13.89 14.28 15.66 15.23 14.43 14.13 14.26 12.91 12.74 12.37 12.26 11.49 13.96 12.65 11.47 10.37 10.41 10.92 11.61 12.35 12.89 13.00
24.04 25.57 23.43 22.60 23.50 23.60 22.61 21.92 20.59 20.10 20.14 18.96 15.93 16.11 16.54 16.52 17.61 16.29 16.93 13.29 13.29 12.98 12.55 12.54 12.78 15.12 14.72 14.63 12.96 12.73 11.98 11.46 12.81 13.30 12.87 9.97 9.64 9.24 9.92 10.71 11.09 11.73 12.46 13.04

GFSNGP_sfc_wetblb_036.txt.gz
Wetbulb
34.92 35.68 35.69 34.35 33.79 34.36 31.76 32.44 28.69 32.55 32.80 36.85 39.30 40.44 42.72 44.46 45.71 46.23 46.38 44.22 44.37 44.71 45.72 45.66 42.93 40.30 37.88 36.95 36.60 36.83 36.00 36.47 36.97 38.80 38.21 37.66 37.03 37.22 37.08 37.19 36.86 36.27 35.42 34.74
31.88 35.61 35.43 33.15 36.04 36.03 35.23 34.74 33.06 33.55 33.28 41.09 43.15 44.00 43.32 43.85 44.83 45.38 44.83 44.24 43.43 43.41 43.39 40.58 38.06 36.50 35.77 35.19 35.26 36.03 35.31 35.17 36.65 36.94 36.57 36.32 36.42 36.26 36.24 35.87 35.44 35.09 34.30 33.65
30.46 34.81 35.13 34.15 36.99 37.42 37.52 37.36 35.69 32.00 37.37 41.74 41.05 41.22 42.40 43.73 44.41 45.08 45.18 43.55 42.38 42.09 39.67 38.22 36.64 36.29 34.75 34.83 36.11 35.62 34.98 36.05 36.37 36.22 35.31 35.56 35.56 35.60 35.21 34.98 35.06 34.20 33.33 33.07
31.40 33.39 28.55 39.31 42.75 41.28 38.10 39.06 38.79 38.72 40.26 41.42 41.37 42.97 44.92 44.58 43.80 44.77 45.54 43.25 42.83 39.42 37.35 37.15 37.13 36.26 35.76 36.51 36.21 36.54 36.23 35.84 35.72 35.46 34.50 34.66 34.96 34.72 34.46 34.70 34.07 33.62 33.04 32.73
30.84 30.59 34.80 38.97 40.64 38.04 36.76 37.24 41.05 39.40 40.65 41.74 43.36 44.24 42.13 42.80 46.08 47.64 45.69 43.82 42.46 38.80 37.71 38.42 37.98 37.96 38.15 37.86 37.11 36.21 35.56 34.84 34.87 34.61 33.83 34.02 34.01 34.24 34.01 33.58 33.09 33.02 32.65 31.64
33.41 28.89 28.22 38.51 41.90 42.31 42.28 35.34 40.71 42.28 40.99 41.69 43.35 41.93 41.18 42.91 44.69 42.18 43.52 42.57 40.63 39.68 39.77 39.19 38.52 39.01 37.58 36.38 36.14 34.19 33.92 34.11 34.68 34.80 34.51 34.32 33.99 33.15 32.68 33.02 32.43 32.46 31.61 31.94
32.85 31.18 35.74 42.35 43.71 42.73 34.31 34.51 41.18 41.83 42.84 42.89 42.72 40.10 40.21 43.05 43.32 42.18 40.53 40.26 40.21 39.71 38.40 37.35 37.77 37.52 35.25 35.25 33.73 34.10 34.21 34.29 34.02 34.35 33.47 33.43 33.04 32.87 32.27 32.07 31.81 31.67 30.87 31.81
34.99 32.74 30.50 42.68 45.04 39.27 42.19 43.47 42.58 42.51 42.69 42.85 39.92 38.06 38.43 38.39 37.99 38.43 38.28 37.83 36.69 34.61 34.28 35.63 36.73 36.52 35.29 33.12 33.18 33.29 33.01 32.11 31.44 32.28 32.33 32.78 32.41 31.77 31.34 31.57 31.04 30.41 30.22 30.64
38.30 38.90 43.92 44.35 44.32 44.80 43.01 41.73 41.83 41.20 42.31 41.20 38.13 36.88 35.75 36.71 36.81 36.32 35.08 35.92 37.21 36.15 35.61 36.70 36.90 35.14 31.21 30.88 31.86 31.61 30.87 30.58 32.14 32.29 32.04 32.19 32.00 31.39 31.66 30.87 29.94 29.38 29.27 28.95
40.68 44.27 44.14 43.93 43.91 42.09 41.68 40.49 39.88 40.68 40.90 40.89 36.67 36.25 34.94 34.83 34.81 34.67 35.16 35.00 35.75 34.97 33.91 33.42 33.09 31.40 30.40 30.72 31.12 31.11 31.30 31.20 31.56 31.24 30.78 31.02 31.32 31.14 30.66 29.99 29.16 28.93 28.54 28.05
41.29 44.38 45.30 42.66 42.40 41.54 39.82 39.38 38.36 38.42 38.55 37.79 36.83 35.25 34.65 33.14 32.68 32.80 33.28 34.15 34.68 33.30 32.27 31.52 31.51 30.19 30.33 30.70 32.33 31.61 31.47 31.25 31.18 30.94 30.64 30.28 30.22 30.24 30.12 30.51 29.41 28.16 28.22 27.85
41.11 44.29 43.63 42.58 41.67 41.29 40.00 37.90 37.62 36.83 35.72 36.84 36.60 34.28 34.19 32.50 32.60 32.10 31.49 32.19 31.53 31.10 30.85 30.69 30.68 29.92 30.94 32.20 32.48 31.56 30.40 30.54 30.50 30.30 30.04 30.01 29.52 29.34 28.00 27.81 28.30 28.30 28.26 27.97
45.02 43.10 42.13 42.07 41.62 40.90 39.03 38.30 37.79 36.74 36.23 34.22 34.62 34.04 32.98 31.45 31.71 32.46 31.33 31.08 30.31 29.71 29.88 30.15 30.19 29.96 30.91 31.76 32.44 31.61 30.54 29.89 29.57 29.16 28.71 28.41 27.98 27.13 25.66 27.88 27.82 27.10 27.01 27.56
44.39 43.29 41.24 41.42 40.85 40.43 39.15 37.58 37.01 35.52 35.29 34.45 33.49 33.38 32.52 31.02 30.82 29.95 29.34 29.61 30.25 30.03 29.86 30.09 29.65 28.92 30.75 31.51 30.89 30.49 29.63 28.37 28.94 28.32 28.25 27.97 26.85 25.90 25.71 24.49 23.59 24.75 26.82 26.50
42.66 42.49 42.39 41.51 39.80 38.17 37.60 36.59 34.68 33.40 33.11 32.52 32.93 31.71 31.37 29.75 28.78 28.30 29.60 30.06 29.90 29.31 28.91 29.05 28.35 27.97 30.18 30.36 29.49 29.32 29.04 28.41 28.12 27.71 27.46 26.09 25.61 25.20 24.92 24.11 23.50 23.66 24.73 25.49
40.09 40.32 40.24 39.46 37.97 37.28 37.08 36.20 34.12 32.30 32.78 32.15 31.39 30.81 30.05 29.24 28.68 28.53 29.13 29.85 29.13 27.55 28.13 28.20 27.59 28.10 29.10 29.13 28.74 28.84 29.05 27.42 26.47 26.36 25.51 24.77 24.67 24.20 23.56 23.19 23.03 23.09 22.98 22.71
37.82 36.29 36.90 35.81 36.11 36.68 37.18 37.45 35.85 33.90 32.84 31.51 29.09 28.83 28.60 28.41 28.17 27.87 28.37 29.35 28.78 28.06 28.37 28.06 26.85 28.04 27.94 28.13 27.61 27.17 26.93 26.52 24.56 24.83 24.21 23.71 23.71 23.22 22.84 22.51 22.19 22.06 22.17 23.05
41.39 41.30 39.90 39.46 38.60 37.23 35.69 35.32 34.33 33.30 31.32 29.52 28.97 29.01 28.77 29.20 27.42 26.69 26.71 27.28 27.13 26.93 27.36 27.64 27.62 27.47 27.36 26.94 26.63 26.35 25.76 24.67 23.88 23.26 23.08 23.00 23.28 22.66 22.13 21.66 21.41 21.05 21.38 21.81
40.33 40.52 40.71 39.76 38.84 37.33 35.32 33.82 33.35 31.81 30.15 29.44 29.28 28.80 28.77 27.70 27.03 26.30 27.06 26.49 26.18 25.19 25.73 28.55 28.11 27.79 26.72 25.66 25.45 25.28 24.42 23.46 22.82 22.62 21.99 22.26 22.00 21.98 21.48 20.86 20.71 20.58 20.58 20.06
37.75 39.13 39.16 37.84 37.28 36.00 33.95 33.18 31.95 30.59 30.24 29.60 27.81 26.86 25.76 25.26 25.48 25.55 26.58 25.85 27.37 27.52 27.83 27.74 27.49 26.31 25.61 24.70 23.95 24.03 23.19 22.59 21.74 21.52 21.29 21.45 20.80 20.76 20.28 19.82 19.39 19.18 19.28 19.38
36.55 36.85 36.39 36.05 34.76 34.46 33.85 33.31 31.77 29.47 28.75 28.84 28.03 26.49 25.32 25.28 25.53 25.48 24.64 23.73 25.13 26.83 26.91 26.67 26.45 24.79 24.51 23.81 23.43 23.11 22.26 21.54 21.08 20.63 19.95 19.72 19.60 19.43 19.10 18.81 18.49 18.50 18.36 18.82
36.02 35.74 34.91 33.91 33.32 32.48 33.04 32.72 31.10 29.26 28.65 27.91 26.58 25.10 24.28 23.61 24.26 24.32 26.15 25.06 26.00 27.40 26.02 25.74 25.08 24.62 24.24 22.30 22.50 21.69 20.78 20.37 20.20 20.10 19.59 19.28 18.61 18.27 18.40 18.30 18.06 18.30 18.86 19.13
35.03 34.41 33.76 32.98 32.13 30.61 30.47 29.82 29.15 28.25 26.49 25.65 24.96 25.00 25.07 25.08 25.69 24.21 22.39 25.56 26.12 26.13 25.88 26.35 26.18 24.40 22.21 21.83 21.26 20.46 19.90 19.34 18.97 18.96 18.80 18.85 18.62 18.40 17.92 17.77 18.02 18.64 18.22 18.41
33.32 33.27 31.80 30.38 30.09 29.03 26.08 26.76 27.62 27.16 26.39 25.88 25.19 24.92 24.42 23.80 23.71 25.97 26.71 26.61 27.70 26.09 25.88 26.40 25.10 22.96 20.39 20.72 20.32 19.75 19.37 19.00 18.82 18.77 18.58 18.85 18.20 17.90 17.73 17.46 17.13 17.86 17.90 18.27
30.53 29.35 29.29 29.27 29.01 26.53 25.05 24.94 24.19 24.24 23.86 23.37 23.52 24.21 24.91 25.72 24.85 24.41 25.62 25.99 26.37 24.07 24.10 24.85 22.94 20.38 19.85 19.80 19.53 18.95 18.85 18.91 18.89 19.49 18.39 17.60 17.61 17.12 17.02 16.89 16.77 17.17 18.35 18.83
29.84 29.56 29.73 29.61 26.88 26.41 25.51 26.27 24.14 24.02 23.40 21.68 21.78 22.58 22.87 24.01 24.54 23.02 22.86 22.27 21.38 20.90 19.69 19.71 20.21 19.36 19.04 18.79 19.07 18.32 18.10 17.96 17.41 17.17 17.42 17.23 16.86 16.05 15.90 15.83 16.03 16.60 17.12 17.48
28.17 27.90 25.96 25.62 26.24 26.61 26.87 25.45 23.82 23.25 23.53 22.71 20.22 21.16 21.19 20.83 21.49 20.89 20.75 19.25 18.95 18.43 18.16 17.90 17.88 18.28 18.84 18.58 17.65 17.68 17.32 17.04 16.72 16.78 17.29 16.44 15.82 15.61 15.34 15.40 15.71 16.16 16.51 16.85

GFSNGP_sfc_wetblb_039.txt.gz
Wetbulb
35.94 37.12 37.23 36.37 35.62 36.55 33.53 33.84 29.71 32.71 33.03 38.16 40.45 41.74 42.64 44.35 44.93 45.33 46.46 47.97 47.61 47.29 48.83 50.00 50.44 49.80 46.84 45.15 45.06 43.80 41.90 40.41 39.35 38.95 38.73 38.51 39.33 39.16 38.80 38.66 37.92 37.56 36.78 36.20
31.39 36.21 36.87 35.13 37.38 37.69 37.36 36.87 35.55 35.71 34.54 41.77 43.60 43.93 42.59 44.05 44.53 45.03 46.34 47.02 46.43 46.28 47.61 47.27 44.57 42.74 40.87 40.11 39.15 38.81 38.62 37.76 37.58 37.83 37.53 38.52 37.39 37.59 37.44 36.71 36.46 36.30 35.84 35.30
29.75 36.22 35.92 33.76 38.15 38.42 38.44 39.25 38.11 32.90 38.52 42.71 41.51 42.08 42.45 42.81 43.99 44.76 45.56 45.75 44.26 44.63 44.62 40.87 38.58 37.78 36.86 37.05 37.01 36.47 35.46 36.37 36.02 36.67 36.46 36.96 36.80 36.74 35.96 35.92 36.07 35.33 34.70 34.26
31.94 34.14 29.15 39.90 44.19 42.93 38.72 39.87 40.64 40.22 41.55 42.25 41.66 43.11 43.06 43.33 43.97 44.29 46.12 43.62 43.74 42.17 39.87 37.51 36.77 36.10 36.20 36.83 36.47 35.30 34.94 34.98 35.35 35.38 35.12 36.24 36.04 35.83 35.62 35.65 35.15 34.72 33.89 33.66
29.95 30.19 35.61 40.14 41.98 40.14 37.83 37.51 41.36 40.31 42.23 43.05 44.93 45.08 40.96 44.13 45.11 45.95 44.66 44.35 41.47 39.63 37.07 35.76 35.44 36.54 36.42 35.63 35.41 35.02 34.22 34.32 35.22 35.67 35.64 35.56 34.90 34.80 34.87 34.42 33.93 33.58 33.22 32.87
32.90 28.98 27.95 39.94 44.11 44.29 43.43 35.95 42.05 41.30 42.09 43.72 44.43 39.33 37.97 42.94 41.87 43.48 41.29 38.77 36.98 37.31 36.55 36.25 36.56 37.26 36.56 35.61 35.74 34.71 36.21 36.44 36.48 36.25 35.53 34.90 34.68 33.73 33.97 34.00 32.97 32.93 32.30 32.82
31.80 30.45 35.71 43.94 44.88 44.85 35.42 36.66 43.57 42.16 42.43 44.26 40.35 40.28 41.87 42.26 39.73 40.89 39.11 37.96 38.67 38.37 36.90 37.23 38.07 38.31 37.06 37.11 35.76 36.11 36.13 35.75 35.39 35.37 34.45 34.14 33.69 33.57 33.33 32.75 32.39 32.40 31.81 32.76
33.87 32.07 30.58 45.40 45.98 40.46 43.83 45.33 44.74 43.23 42.72 39.85 40.20 39.66 39.42 39.24 38.71 38.56 39.17 39.91 40.34 39.28 38.92 39.66 39.79 38.25 35.26 33.18 34.13 34.21 33.58 33.26 33.27 33.44 33.72 33.85 33.27 32.83 32.43 32.04 31.73 31.53 31.13 31.24
38.95 39.21 47.32 48.56 46.56 47.30 45.11 43.61 43.87 43.06 43.45 41.54 38.68 37.96 38.40 36.64 35.39 35.65 35.73 35.46 35.87 35.38 35.63 36.86 36.75 34.85 32.01 32.35 32.98 32.26 31.79 32.04 32.64 32.96 32.95 33.34 32.75 32.13 31.79 31.45 30.68 30.10 29.70 29.43
41.69 45.21 46.70 48.02 48.11 45.35 43.80 42.15 42.25 43.17 43.92 43.45 39.06 38.09 37.47 37.39 37.61 37.06 37.37 36.83 37.11 36.27 34.24 32.29 32.40 31.84 30.87 31.09 31.91 32.17 31.97 31.94 32.08 31.53 31.49 31.84 31.67 31.47 31.01 30.54 29.51 29.00 28.44 27.96
42.96 45.73 47.04 45.18 44.48 43.58 41.79 41.32 40.61 41.46 42.25 40.78 38.67 37.21 36.93 35.97 35.84 36.30 36.71 37.14 37.18 34.99 32.16 30.44 30.53 30.03 31.07 32.07 33.19 32.14 31.83 31.68 31.59 31.54 31.46 30.86 30.79 30.42 29.93 30.77 28.89 27.13 27.10 26.60
41.11 45.61 45.10 44.03 44.01 43.30 41.32 39.15 39.72 39.43 38.83 39.68 38.93 36.98 36.64 35.08 35.15 35.14 34.87 35.00 33.48 31.94 30.09 29.83 30.29 30.64 32.47 34.11 33.79 32.35 30.97 31.36 31.39 31.01 30.79 30.40 29.83 29.70 29.54 28.43 28.28 28.63 28.52 27.56
46.05 45.88 45.14 44.51 43.33 42.65 40.36 39.50 39.29 38.54 38.25 36.47 36.99 36.38 35.43 34.09 34.11 34.94 33.53 32.76 31.49 30.21 29.83 30.82 31.49 31.66 33.11 33.90 33.75 32.64 31.20 30.51 29.85 30.39 29.50 28.51 28.23 27.28 25.82 28.59 29.62 28.74 27.85 28.08
48.13 45.85 43.73 43.48 42.44 41.33 39.55 38.56 38.72 37.63 37.25 36.43 35.41 34.96 34.25 33.21 33.18 32.24 31.19 31.22 31.43 31.53 31.35 31.46 31.07 30.72 32.47 32.87 32.03 31.04 30.01 30.93 29.79 28.70 28.19 27.76 26.80 26.12 26.06 24.86 23.74 24.88 27.94 27.98
46.55 46.54 45.53 44.42 41.57 38.82 37.77 37.12 35.12 34.16 34.57 34.30 34.85 33.65 33.32 31.72 30.49 30.42 31.33 31.45 31.54 31.14 30.66 30.52 30.05 30.04 31.95 31.93 30.81 30.22 29.65 28.51 28.52 27.89 26.92 26.11 26.04 25.70 25.41 24.67 24.06 24.12 25.11 26.45
44.32 43.63 42.87 40.96 38.83 37.60 37.51 37.14 35.21 34.07 33.72 33.51 32.96 32.57 31.56 30.72 30.26 30.31 30.87 31.41 30.10 28.71 29.45 29.10 28.85 29.70 30.66 30.89 30.52 29.85 27.98 27.48 27.31 26.33 25.73 25.22 25.19 24.70 24.19 23.65 23.32 23.34 23.12 23.04
40.07 38.09 39.54 38.23 37.72 37.80 38.00 38.14 36.70 34.84 34.11 33.20 31.14 30.70 30.17 29.78 29.78 30.03 30.47 30.86 30.38 29.58 29.58 28.83 27.84 29.17 29.52 29.33 28.70 27.87 27.51 26.20 25.26 25.34 24.70 24.22 24.29 23.89 23.38 22.86 22.37 22.27 22.36 23.69
44.32 43.77 42.53 41.16 39.91 39.08 38.28 37.53 36.43 35.31 33.23 32.04 31.37 30.74 29.96 29.82 28.46 28.24 28.61 29.07 28.73 28.08 28.20 28.41 28.65 28.70 28.04 27.72 27.70 27.08 26.30 25.22 24.40 23.83 23.73 23.59 23.52 23.11 22.68 22.26 21.83 21.48 21.71 22.54
42.93 42.83 42.85 41.95 41.55 39.92 37.76 36.24 35.85 34.29 32.37 31.79 31.29 30.86 30.76 29.45 28.63 28.02 28.58 27.70 26.49 25.22 26.23 28.25 28.79 28.01 26.37 26.03 26.64 26.08 25.14 24.28 23.83 23.54 23.01 23.67 23.01 22.78 22.26 21.59 21.00 20.76 20.90 20.74
40.42 42.10 42.62 41.27 40.52 38.46 36.51 36.15 33.97 32.43 32.38 32.48 31.22 29.65 28.37 27.93 28.07 28.02 28.67 27.34 28.13 27.72 29.14 28.53 28.26 26.78 25.48 24.93 25.48 24.80 24.11 23.44 22.73 22.64 22.33 21.83 21.78 21.15 21.04 21.33 20.51 20.00 19.92 20.01
38.87 39.57 39.19 38.13 37.50 37.40 36.24 34.78 33.34 31.80 32.19 31.33 30.20 28.45 27.29 27.56 28.32 27.46 25.78 24.31 26.04 28.27 27.98 27.91 26.85 25.44 24.96 24.55 24.60 23.88 23.08 22.49 22.10 21.56 20.99 20.70 20.60 20.32 20.00 19.96 19.75 19.69 19.53 19.77
38.77 38.40 38.10 37.50 36.06 35.16 35.00 34.76 33.67 31.87 31.31 30.98 29.68 27.98 26.71 25.72 26.55 26.71 27.88 25.67 26.81 28.66 27.47 26.47 25.56 25.56 24.25 23.76 23.43 22.52 21.79 21.45 21.20 21.01 20.43 20.18 19.76 19.38 19.44 19.48 19.17 19.47 19.82 19.93
38.41 38.10 37.11 36.33 35.23 34.57 34.41 33.09 32.11 31.65 29.61 27.74 26.86 26.61 26.34 26.10 26.54 24.64 22.84 27.00 27.33 27.57 26.98 26.59 26.03 24.69 23.15 22.98 22.24 21.51 21.01 20.47 20.17 20.02 19.93 20.06 19.84 19.87 19.12 18.71 19.03 19.34 19.17 19.43
36.84 36.49 36.07 35.44 33.86 31.96 29.75 30.12 30.11 29.09 28.39 27.84 27.61 27.52 26.72 25.45 25.48 27.57 27.89 28.16 28.40 27.65 27.31 26.27 24.86 23.07 22.01 21.77 21.25 20.73 20.41 20.17 20.10 20.19 20.09 21.28 19.91 19.29 19.01 18.56 18.00 18.47 18.41 18.70
33.57 31.69 31.59 31.03 30.99 29.78 28.41 27.92 26.75 26.68 26.27 25.57 25.86 26.75 27.47 27.86 26.16 25.90 26.75 26.91 28.13 26.37 25.20 25.57 23.23 21.22 21.05 20.81 20.49 19.95 19.77 20.18 20.06 19.82 18.96 18.84 18.79 18.48 18.32 17.89 17.51 17.61 18.29 18.65
31.39 31.52 31.64 32.24 29.26 27.66 26.82 27.70 25.86 25.90 25.22 24.02 24.20 24.55 24.82 25.78 26.54 25.96 25.55 25.21 23.55 23.54 21.49 21.17 21.14 20.47 20.12 19.78 19.90 19.40 19.23 19.16 18.88 18.39 18.93 18.33 18.31 17.65 17.14 16.98 16.72 16.97 17.40 17.65
31.76 31.48 28.29 27.31 28.04 27.88 28.38 27.31 25.87 25.24 25.67 24.42 22.42 23.68 23.83 23.74 24.03 23.06 23.07 21.37 20.53 20.01 19.61 19.38 19.37 19.45 19.38 19.14 18.74 18.88 18.87 18.75 19.04 18.35 18.05 17.29 16.80 16.73 16.62 16.52 16.47 16.67 16.85 16.97

GFSNGP_sfc_wetblb_042.txt.gz
Wetbulb
33.95 34.84 34.75 33.40 33.69 35.14 32.82 33.84 30.19 32.80 33.57 37.00 39.79 40.33 41.59 43.27 42.63 42.52 43.66 44.96 45.17 43.96 44.36 48.02 49.02 47.07 45.11 43.73 40.40 38.98 38.36 38.33 38.71 39.07 39.00 38.66 38.16 37.81 37.82 37.61 36.04 35.30 33.81 33.72
27.03 33.85 33.71 31.29 35.02 36.19 35.73 36.67 36.68 37.24 36.17 41.47 42.43 41.70 41.91 42.50 43.00 43.02 43.94 44.86 44.33 44.38 44.90 45.64 43.24 40.88 40.34 39.61 38.32 38.56 37.99 37.06 37.91 37.58 37.35 36.69 36.63 36.29 35.53 35.14 34.24 34.80 33.70 33.76
28.33 34.35 33.67 30.08 36.14 37.64 38.39 39.87 38.65 34.29 38.55 42.22 41.18 41.81 42.11 42.84 43.53 43.71 44.42 44.09 42.92 43.95 40.19 38.63 37.86 38.07 35.63 35.43 37.21 37.10 36.82 36.87 36.86 36.66 36.14 35.71 35.73 35.36 34.20 33.42 32.77 32.43 31.67 32.56
29.45 31.27 23.13 37.57 43.05 41.64 39.22 39.97 41.14 40.59 41.46 42.66 42.81 41.56 41.61 43.10 41.48 43.96 44.59 43.84 43.45 39.55 37.41 36.60 36.90 35.87 36.34 36.20 36.11 35.65 35.77 35.45 35.58 35.03 34.90 34.96 34.54 34.04 32.91 33.72 32.29 31.88 31.55 31.56
29.09 26.74 31.62 36.87 39.75 38.29 35.80 36.50 42.34 40.56 41.30 43.58 44.77 42.70 40.04 40.77 40.43 40.40 41.91 40.45 38.42 36.50 35.67 35.24 35.26 35.77 35.53 35.08 34.71 34.88 34.06 34.07 34.49 34.83 34.30 34.18 33.10 32.55 31.45 31.34 30.29 30.54 31.41 30.56
30.63 25.61 24.81 35.44 40.24 42.89 41.73 33.41 40.68 41.67 41.44 42.56 40.57 37.28 37.11 39.08 38.01 36.41 36.33 35.95 34.86 35.04 35.46 35.30 35.48 35.99 34.92 34.20 34.36 33.92 34.44 34.77 35.33 35.02 33.77 32.35 31.11 30.33 30.40 31.19 30.70 30.67 29.85 28.51
31.28 29.68 31.38 39.71 42.58 43.47 31.98 33.18 40.41 42.15 42.25 39.40 36.63 39.20 40.10 39.26 37.87 37.78 37.18 36.26 36.53 36.56 35.91 36.65 37.70 37.28 35.53 35.14 33.97 34.86 35.18 34.68 33.81 32.81 31.30 31.98 31.26 31.44 30.55 29.88 29.50 27.97 27.49 27.50
31.25 29.59 25.90 42.76 43.26 36.88 39.40 40.83 40.95 42.25 43.02 39.32 38.45 38.25 38.41 37.89 37.67 37.99 37.83 38.16 38.04 37.08 37.53 38.54 38.37 36.20 33.09 32.12 33.14 32.88 32.19 31.54 31.68 32.10 32.95 32.04 29.98 28.92 28.53 27.62 26.40 25.92 25.85 25.27
35.32 34.09 42.50 44.89 42.37 42.29 41.40 39.80 39.44 39.99 42.83 40.82 38.79 37.83 36.13 35.20 34.79 34.09 34.22 34.99 36.21 35.47 34.49 34.54 33.86 32.97 30.53 30.62 31.83 31.70 30.96 30.79 31.18 31.53 31.39 30.58 28.21 27.16 26.42 26.81 25.36 24.43 23.62 22.86
38.70 41.86 43.29 41.96 43.23 41.26 39.70 38.61 39.27 40.84 43.01 41.21 37.54 37.89 36.88 35.61 34.94 34.51 34.89 34.77 34.07 32.45 30.98 30.40 31.62 31.28 30.57 31.11 32.06 31.57 29.83 29.03 28.21 27.31 27.65 27.80 27.96 27.26 25.58 24.65 23.37 22.10 22.06 21.28
38.68 41.38 41.94 41.40 40.69 40.46 39.42 39.49 39.37 39.68 41.05 38.58 37.30 36.17 35.24 34.68 34.47 34.50 34.21 33.50 32.28 30.49 29.03 28.10 29.50 29.66 31.52 32.21 31.75 29.01 28.30 27.51 27.33 27.57 26.68 25.53 25.32 24.53 23.62 24.74 24.95 22.84 22.39 22.40
35.70 41.72 41.20 39.86 40.48 41.29 38.52 38.02 38.60 37.75 37.55 37.73 36.52 34.62 34.24 33.19 34.38 33.98 32.15 31.07 29.69 29.22 28.89 29.42 30.60 31.22 31.86 31.58 29.93 28.38 26.07 25.37 25.77 24.41 24.18 23.87 23.46 23.95 30.03 29.03 28.98 28.64 28.42 26.18
41.12 41.86 41.58 41.15 40.33 39.64 37.54 37.36 37.82 36.79 36.55 35.14 35.38 34.82 33.76 32.58 32.66 33.61 30.96 30.42 28.82 28.80 29.73 30.48 30.73 30.53 29.73 30.01 28.83 27.57 24.25 24.16 24.34 24.07 22.78 22.39 22.22 21.30 20.69 24.28 29.84 29.98 29.09 29.51
44.19 42.64 39.82 40.45 38.43 37.53 37.10 37.34 37.71 35.86 35.47 34.75 33.57 33.69 33.39 32.00 31.55 29.48 28.43 29.77 30.45 30.08 29.66 29.80 28.55 27.57 28.46 28.57 26.39 25.42 25.20 30.27 22.55 22.18 21.98 21.47 21.37 21.01 20.74 19.88 18.78 19.42 25.95 27.78
43.00 42.98 41.68 39.90 37.12 35.57 35.66 35.05 33.38 32.70 32.48 32.30 32.37 31.49 30.98 29.11 28.34 28.17 29.06 30.57 30.06 29.15 28.24 27.80 26.93 26.24 27.96 27.48 25.60 24.12 23.37 22.52 21.78 21.11 20.85 22.41 21.00 20.95 20.29 19.86 19.44 19.00 19.61 23.52
40.59 40.83 39.64 37.27 35.20 34.60 34.63 34.95 32.91 32.21 31.83 31.58 30.60 29.81 29.25 28.54 28.05 27.97 27.91 28.43 26.82 24.59 24.79 24.85 24.44 25.41 26.81 26.15 24.38 23.31 23.28 27.68 24.90 20.80 20.54 20.30 20.32 20.10 19.63 19.00 18.83 18.42 18.18 18.87
37.21 33.97 34.42 32.47 34.22 35.06 35.88 35.89 34.08 32.84 31.97 30.59 28.63 28.73 28.12 27.69 27.63 26.57 26.46 26.66 26.07 24.80 24.40 24.67 24.18 25.46 25.14 24.25 23.56 21.90 21.06 20.90 25.82 20.65 19.69 19.88 19.96 19.34 19.04 18.85 18.48 18.27 18.09 21.13
40.95 39.68 39.70 38.71 37.99 36.83 36.00 34.88 34.03 33.28 30.39 29.31 28.99 28.37 27.77 26.78 25.10 24.90 24.67 25.15 24.44 23.90 24.35 24.31 24.51 23.92 23.32 23.47 22.79 21.62 20.90 20.05 20.43 18.92 19.79 20.03 20.03 19.64 18.95 18.88 18.52 18.14 18.36 20.49
40.95 40.28 41.17 40.60 40.14 38.77 36.39 34.68 33.33 31.21 30.14 29.60 28.98 28.16 27.44 26.46 25.72 24.98 24.93 23.82 22.70 22.19 23.31 25.09 28.20 23.98 22.46 25.16 23.16 21.03 20.03 19.59 19.43 18.99 19.30 21.50 18.63 18.58 18.54 18.26 18.04 17.79 17.64 18.99
39.30 40.73 41.28 40.10 39.35 37.46 35.05 34.19 31.32 30.38 30.26 30.21 28.60 27.03 25.36 24.76 25.29 24.87 24.13 22.77 23.03 24.06 25.64 25.29 23.32 21.66 21.30 23.37 24.66 19.76 19.22 18.70 18.15 17.81 18.11 17.64 17.51 17.87 17.45 19.72 19.19 18.55 17.78 18.86
37.89 38.71 38.22 37.55 36.40 36.01 34.65 32.19 31.13 29.74 30.14 29.22 27.69 25.73 24.65 24.53 24.45 24.47 23.11 22.37 24.04 26.78 25.30 26.29 21.84 20.78 20.99 21.60 20.67 18.68 18.33 17.74 17.53 16.12 16.69 16.28 16.78 16.90 17.02 17.43 17.94 18.53 18.53 18.62
36.69 36.37 36.14 35.85 34.54 32.74 32.48 31.95 31.02 29.81 28.88 27.73 26.77 25.38 24.38 23.60 23.72 23.58 24.10 23.29 24.74 28.87 24.07 21.59 20.75 24.10 21.89 23.78 18.81 17.85 17.61 17.55 16.90 16.07 15.46 15.71 16.24 15.12 13.97 14.03 14.06 16.96 17.15 16.05
35.95 35.97 34.83 33.53 32.02 31.28 31.16 30.17 29.40 29.31 28.21 27.12 26.08 25.09 24.75 24.46 24.08 22.36 20.89 24.30 23.99 26.78 22.27 21.61 25.48 25.63 24.70 17.95 17.54 17.18 16.98 16.74 16.48 16.07 14.25 12.28 13.18 10.82 11.09 12.55 13.77 14.23 13.41 15.01
34.29 34.02 33.44 32.58 30.96 29.59 26.89 26.24 26.15 25.95 26.28 26.07 26.07 25.92 25.34 22.97 21.82 23.33 25.82 27.98 28.71 26.54 23.11 23.30 23.56 24.18 22.88 17.00 16.40 15.75 15.83 15.81 13.46 11.20 13.79 19.15 10.49 10.96 11.62 12.49 12.56 13.36 14.21 15.82
26.65 26.34 26.00 26.47 26.42 25.54 24.48 24.38 24.71 24.96 24.73 24.57 24.92 24.95 24.66 24.11 22.87 23.25 24.03 25.37 29.11 24.53 22.13 26.52 24.42 22.76 17.33 16.24 16.09 15.53 13.90 11.34 8.27 10.71 11.90 9.98 9.67 9.93 10.96 11.89 11.92 13.60 15.13 14.45
27.93 27.98 27.58 27.82 26.11 25.70 26.14 26.55 24.55 23.97 24.24 23.22 23.33 23.05 22.88 24.29 25.37 24.00 23.87 24.59 22.73 24.60 19.47 19.23 18.09 17.42 16.75 16.31 15.66 15.02 14.15 13.16 13.67 13.08 14.11 10.90 10.81 10.34 11.25 12.16 12.94 13.94 14.47 14.36
25.30 28.13 23.42 24.45 25.75 27.06 26.96 26.01 24.85 24.14 25.23 24.33 22.30 22.87 23.42 23.08 23.52 22.53 23.21 19.66 18.57 17.78 17.32 16.92 16.85 17.54 15.94 15.65 14.92 14.73 13.05 12.40 16.12 13.81 10.59 8.62 9.11 9.11 11.52 12.20 12.98 13.92 14.35 14.55

GFSNGP_sfc_wetblb_045.txt.gz
Wetbulb
32.10 33.41 32.96 31.01 31.41 32.90 30.23 31.55 28.49 30.76 32.65 37.27 40.54 42.02 42.67 42.39 43.58 43.55 43.01 43.74 43.49 42.93 44.53 45.23 43.69 41.69 39.66 39.98 39.89 40.46 40.01 39.06 38.50 39.29 39.80 39.10 38.13 38.04 37.90 37.53 36.51 35.95 35.24 34.69
22.41 31.86 31.93 28.49 33.10 33.65 33.58 33.76 34.37 34.74 34.86 42.49 43.94 44.60 43.04 43.00 43.80 42.64 41.90 43.87 43.10 43.69 41.16 39.46 40.99 40.01 39.14 39.13 39.24 39.29 38.72 37.66 37.56 37.98 37.66 36.89 36.70 36.11 35.68 35.21 34.58 33.99 33.27 33.52
20.83 31.64 31.74 27.81 32.92 33.82 34.99 36.86 36.52 35.06 38.96 43.41 42.27 43.06 40.11 39.94 39.41 40.79 43.75 44.81 42.46 36.67 34.90 35.72 37.40 37.33 37.37 36.70 37.39 36.99 36.46 36.32 36.39 36.17 35.41 35.02 35.22 34.68 34.14 33.73 34.15 33.43 33.05 32.35
22.78 27.25 21.30 34.85 40.32 40.16 37.57 38.89 39.63 40.48 41.56 42.24 42.64 40.80 39.44 37.67 35.19 37.09 43.94 42.15 38.10 36.00 34.84 35.36 35.59 35.72 36.40 36.43 36.07 35.53 35.11 35.07 35.27 35.07 34.61 34.89 34.57 33.76 33.33 33.06 32.00 31.54 31.09 31.28
26.27 24.24 29.99 36.29 37.97 37.29 35.20 34.49 40.73 39.48 41.18 42.37 42.63 42.63 38.64 36.99 35.90 34.57 34.39 34.43 34.29 34.68 34.64 34.85 34.91 35.57 35.09 34.60 34.45 34.35 33.88 34.27 34.56 34.86 34.10 33.97 33.55 33.57 33.18 32.43 31.08 29.87 30.75 30.43
30.87 23.27 23.33 34.52 39.19 41.05 39.86 31.51 39.33 40.03 41.52 41.16 40.20 36.87 36.64 36.87 36.21 34.20 34.40 34.60 34.06 34.66 34.96 34.39 34.51 35.19 34.07 33.60 33.71 33.32 33.82 33.97 34.87 34.74 34.15 33.22 32.71 31.61 30.71 30.79 30.72 30.81 29.82 28.63
30.52 29.28 29.98 36.68 40.10 42.59 30.91 32.29 38.73 40.46 42.49 38.75 37.84 38.10 38.04 37.52 36.18 36.09 35.62 35.57 36.18 36.26 34.92 35.15 36.19 35.87 34.09 34.19 33.29 34.61 35.56 35.88 35.65 35.16 33.82 32.62 31.25 30.46 30.58 29.94 29.12 27.60 26.47 25.55
32.74 28.93 25.30 39.31 40.14 35.87 38.58 39.24 38.87 40.34 41.66 38.38 38.57 37.86 36.73 37.56 37.09 36.55 35.93 36.20 36.82 35.08 34.19 34.82 36.77 36.04 34.47 33.15 34.70 34.29 34.23 33.23 32.00 31.92 32.30 31.39 29.97 29.08 28.06 26.88 24.93 24.06 25.01 24.73
32.57 31.88 38.69 40.57 40.57 39.51 39.55 38.84 37.89 39.29 41.53 40.18 37.19 36.06 34.55 33.43 33.51 36.81 36.29 35.67 35.92 33.96 33.63 33.71 35.22 36.20 33.66 32.65 32.55 31.42 31.09 30.88 30.85 31.30 30.75 28.34 26.34 25.15 24.68 25.29 24.35 22.35 21.80 21.37
36.96 40.28 40.59 40.09 38.61 38.53 38.16 37.00 37.89 41.15 40.52 39.18 38.29 36.52 35.13 33.97 33.66 33.73 33.35 33.29 33.86 32.80 31.78 30.57 31.20 31.24 30.94 31.31 31.80 31.25 30.09 29.51 27.78 26.62 26.40 26.36 26.44 25.66 23.93 22.64 21.13 20.93 21.08 20.13
37.17 39.69 39.30 38.84 38.39 38.15 37.72 38.30 38.27 39.51 40.05 38.21 37.60 35.67 34.83 34.70 34.21 34.19 33.22 32.41 31.64 29.60 28.49 28.48 30.28 30.62 31.43 31.51 31.30 29.28 27.78 26.23 25.95 25.75 24.10 22.75 22.97 22.57 22.99 22.83 23.10 21.26 21.35 22.18
35.96 40.18 39.97 38.71 38.67 39.27 37.20 36.77 38.21 37.31 35.89 36.56 35.60 34.13 33.58 32.66 33.08 32.29 30.53 30.40 29.31 29.09 29.18 29.87 30.69 30.54 30.89 31.25 29.94 27.39 24.91 23.96 23.78 22.64 21.93 21.46 20.95 21.27 30.02 29.66 29.88 29.10 28.56 26.45
40.01 40.83 40.33 39.33 38.67 37.89 36.79 36.24 37.06 36.41 36.27 33.80 33.77 33.52 33.27 30.88 30.75 32.27 30.07 29.51 29.09 29.23 30.09 30.55 30.33 29.70 29.53 29.24 27.32 25.91 23.35 23.57 23.73 22.51 20.81 19.87 19.20 18.75 18.88 22.41 28.57 29.17 29.36 29.46
42.57 41.55 38.84 38.49 36.97 36.46 36.43 36.00 36.27 34.23 34.36 34.01 32.88 32.82 32.75 31.43 30.33 28.94 28.82 29.59 30.21 30.02 29.54 29.32 28.19 26.37 26.86 27.22 25.43 24.67 24.64 27.98 21.02 20.11 19.78 19.28 19.10 19.21 19.07 18.69 17.88 18.67 24.81 26.99
41.08 40.91 40.67 37.12 35.13 33.76 33.44 33.21 32.03 31.19 31.55 30.48 31.34 30.81 30.04 28.26 27.38 27.65 29.42 30.13 29.80 28.96 28.34 28.13 26.64 25.11 26.21 25.31 23.85 22.22 22.13 20.87 19.59 19.45 20.40 21.49 20.13 19.94 19.16 18.94 18.48 17.94 18.53 22.30
39.13 37.93 36.47 34.73 33.06 32.43 32.56 32.43 31.15 31.20 30.93 29.48 28.73 28.51 28.13 27.67 27.01 27.21 28.86 29.19 27.21 24.29 24.80 24.83 24.22 24.45 24.91 23.79 22.56 22.14 23.10 27.19 23.19 19.72 19.63 19.57 19.60 19.12 18.55 17.94 17.79 17.33 17.04 17.73
36.91 33.55 31.80 29.93 31.80 32.31 32.89 33.81 33.67 31.90 30.77 28.93 27.37 27.72 27.27 26.87 26.13 25.06 24.78 25.14 24.89 23.93 24.01 24.31 23.19 23.91 23.92 23.21 22.54 20.19 19.79 21.23 24.90 19.43 18.92 19.32 19.28 18.45 18.12 17.95 17.45 17.16 16.88 20.03
39.47 39.64 38.99 36.79 35.98 34.62 34.35 34.05 33.01 32.26 29.58 29.02 28.51 27.86 26.90 26.40 24.33 23.56 23.45 23.72 23.35 22.68 23.29 23.05 22.87 22.77 22.27 22.22 21.35 20.26 19.81 19.22 19.62 18.15 18.88 19.45 19.26 18.52 18.01 17.74 17.42 17.03 17.19 19.27
39.94 40.49 39.62 38.97 37.75 37.28 34.95 33.62 32.48 29.96 29.00 28.56 27.96 26.81 26.27 25.17 24.14 23.72 23.68 23.23 22.50 21.73 22.41 24.08 27.42 23.75 22.58 24.58 21.97 20.07 19.09 18.69 18.38 17.97 18.35 20.54 17.49 17.52 17.39 17.26 17.05 16.95 16.85 18.19
39.15 40.46 40.82 39.97 39.70 37.23 34.28 33.26 31.05 29.34 29.44 29.07 27.13 25.82 24.25 23.73 23.88 23.50 23.08 21.82 21.97 22.78 24.06 24.06 22.43 21.59 21.65 23.95 23.69 18.85 18.31 17.80 16.98 16.71 17.64 16.16 16.45 16.68 16.31 18.82 18.48 17.85 17.19 18.24
36.92 38.06 38.34 38.47 36.95 35.26 33.55 31.84 30.53 29.05 29.01 27.98 26.93 25.60 24.23 23.69 23.57 23.35 22.29 21.51 23.00 26.23 24.26 24.97 20.82 20.04 20.90 22.11 19.46 17.79 17.39 16.81 16.43 15.01 15.54 15.06 15.86 16.17 16.36 16.66 16.72 17.39 17.53 17.84
36.00 36.09 35.48 34.87 33.41 31.07 31.00 30.93 30.45 29.43 27.97 27.18 26.81 25.10 23.81 22.84 22.61 22.11 23.54 23.90 24.75 29.02 22.83 20.44 19.76 23.28 22.34 23.30 17.80 16.90 16.60 16.61 15.92 15.03 14.66 14.92 15.11 13.87 12.22 12.36 12.19 15.53 16.06 14.77
34.90 35.63 34.57 32.87 30.98 29.82 29.76 29.69 29.36 28.90 26.81 26.03 25.74 25.20 25.07 24.97 24.04 22.30 20.91 24.17 24.69 25.79 20.75 20.49 25.57 27.07 25.88 16.96 16.59 16.24 16.04 15.80 15.63 15.44 13.09 10.70 11.21 8.56 9.44 10.36 11.70 12.93 12.18 13.28
32.39 33.11 33.03 31.40 29.25 28.16 25.66 25.63 25.95 25.53 25.51 26.23 25.70 26.37 25.26 23.21 21.92 23.00 25.39 28.23 28.11 26.13 21.83 23.45 24.82 26.22 22.36 16.38 15.78 14.92 14.88 14.91 12.32 9.32 12.05 17.97 8.17 8.25 9.43 10.58 10.71 12.09 12.48 13.89
26.55 26.02 25.19 25.61 25.82 24.89 23.76 23.22 22.93 24.14 24.82 24.08 24.51 25.14 25.94 25.71 24.19 23.82 24.96 25.42 29.08 24.72 22.49 27.32 26.27 24.84 17.25 16.24 15.67 14.66 12.94 9.63 6.36 8.04 10.17 7.86 7.45 7.43 9.06 9.67 10.29 11.63 12.15 11.70
27.61 27.92 27.24 26.90 25.77 24.61 24.27 25.10 24.29 24.63 24.19 23.15 23.16 23.89 24.42 24.69 25.08 23.98 24.35 26.03 24.70 25.27 20.96 20.95 19.07 18.05 17.11 16.35 15.10 14.23 13.23 11.90 12.85 12.00 12.95 9.33 8.56 8.62 9.13 10.22 10.81 11.55 12.72 11.97
24.74 27.91 22.15 24.53 24.99 25.04 25.80 25.81 24.28 23.95 25.57 24.16 23.00 23.85 24.50 24.35 24.07 24.34 25.26 22.81 21.70 19.63 18.67 18.59 18.78 18.62 16.54 15.68 14.59 13.88 11.81 11.04 14.87 12.59 9.06 6.90 7.60 7.31 9.49 10.68 10.94 11.96 12.72 13.22

GFSNGP_sfc_wetblb_048.txt.gz
Wetbulb
30.63 31.99 32.04 30.14 29.97 30.67 25.42 30.35 25.54 29.77 31.15 34.91 38.36 41.04 43.11 43.68 43.95 44.25 44.51 44.54 42.61 42.60 41.18 41.83 38.63 37.66 37.28 39.47 40.76 41.76 40.00 39.28 38.19 38.40 39.20 39.04 38.33 38.05 37.68 36.97 36.39 36.07 35.40 35.31
22.06 30.38 30.87 27.19 31.21 31.68 32.00 32.60 33.11 33.59 32.77 40.02 42.37 44.62 41.21 40.61 39.78 39.18 40.21 44.13 43.67 37.44 36.16 36.39 35.67 36.50 37.68 39.46 40.08 41.21 39.78 38.89 38.76 37.76 37.01 36.60 36.28 36.76 36.20 35.23 34.85 34.81 33.95 33.65
20.39 29.86 29.82 25.16 30.99 32.73 32.89 33.72 35.16 31.46 36.82 41.89 41.95 41.77 38.37 36.40 35.54 35.52 38.39 42.90 38.44 35.78 35.08 35.49 36.08 36.04 35.49 37.15 38.00 37.89 37.25 36.83 36.27 35.62 34.83 34.71 35.02 34.69 34.03 33.70 34.58 34.16 34.21 33.83
20.31 25.91 19.34 33.13 39.04 38.32 35.23 36.21 37.52 38.74 41.18 41.47 42.39 40.12 37.46 35.67 33.90 33.73 34.12 34.58 33.23 32.17 32.37 34.42 35.66 35.79 36.16 36.02 35.50 35.09 34.60 34.84 35.43 35.59 35.27 35.49 34.98 34.25 34.33 34.82 34.08 33.25 32.30 32.18
25.33 23.77 28.88 35.91 38.10 36.42 34.82 34.38 38.64 38.11 39.47 42.64 42.27 41.91 37.53 36.29 34.44 33.42 33.41 33.76 33.91 34.56 34.30 34.52 34.56 34.92 34.65 34.30 34.43 34.30 34.05 34.30 34.93 35.25 34.51 34.08 33.07 32.60 32.94 32.50 31.53 31.20 31.34 30.42
30.00 22.69 23.66 33.50 37.22 40.01 38.17 30.34 39.28 38.85 40.42 41.92 40.57 37.89 37.11 35.69 34.52 33.66 34.07 34.40 33.97 34.25 34.35 34.06 34.25 35.00 34.25 33.78 33.83 33.75 34.30 34.56 35.45 34.93 33.33 33.15 33.10 32.30 31.84 31.93 30.95 30.77 29.80 28.69
29.27 27.92 30.41 35.82 37.69 41.32 29.43 32.02 38.25 39.27 41.30 39.53 38.39 38.00 37.62 36.68 35.22 35.60 35.73 35.48 35.69 35.32 34.55 34.82 35.72 35.65 34.08 33.82 33.06 33.97 33.85 34.03 35.08 34.67 33.45 32.68 31.86 31.94 31.29 30.26 28.96 27.20 25.45 24.79
31.31 29.03 23.98 37.44 38.88 35.29 38.47 38.04 38.52 38.88 39.04 39.30 38.28 37.69 37.39 37.09 35.93 35.66 35.56 35.28 35.23 33.82 33.79 35.20 36.78 35.06 33.32 31.84 33.94 33.74 34.01 33.81 32.73 33.18 34.03 32.63 30.57 29.06 27.96 26.11 24.25 22.89 23.45 23.07
33.36 31.69 37.33 38.66 39.74 39.23 38.91 37.85 37.69 38.12 39.50 38.98 37.86 35.31 34.70 35.05 35.71 35.19 35.38 34.91 35.14 34.14 33.05 33.62 35.77 35.24 32.49 33.32 33.73 33.36 32.77 32.15 31.32 31.07 30.14 28.01 26.34 24.39 22.91 23.18 22.52 21.47 20.94 20.10
36.20 38.96 39.18 40.15 38.71 38.16 37.24 36.86 37.78 39.77 39.84 38.19 37.02 35.34 33.66 33.66 34.03 34.99 36.37 35.88 36.04 35.22 31.99 31.48 33.35 34.10 32.98 32.95 32.70 31.34 28.97 27.71 27.31 25.86 25.38 24.91 25.06 24.60 22.55 21.05 19.89 19.91 20.39 19.54
37.15 38.76 38.42 38.71 38.73 38.23 36.85 37.01 37.40 40.74 39.68 38.95 36.93 34.74 33.96 33.56 33.36 32.63 32.39 32.25 31.62 29.53 28.96 29.00 30.43 29.94 29.86 29.61 28.86 26.77 25.58 24.97 24.58 24.45 22.99 22.23 22.68 22.62 22.47 21.39 22.00 20.42 20.64 21.60
36.17 41.15 39.58 39.45 38.92 38.91 36.69 36.47 37.42 37.80 37.37 37.92 37.72 35.53 34.87 34.04 34.21 32.35 30.25 30.00 29.33 29.26 29.30 29.62 30.02 29.80 29.82 29.05 27.85 25.99 24.18 23.39 23.33 21.75 21.00 20.72 20.65 21.00 30.20 29.70 29.99 29.34 28.93 26.43
39.87 40.54 40.21 38.64 37.77 36.71 35.91 36.14 36.59 36.11 35.87 34.18 33.86 34.16 33.12 31.83 31.80 32.55 30.04 29.57 29.26 29.18 29.71 29.87 29.57 28.99 29.34 27.04 25.95 24.75 22.58 22.51 22.68 21.31 19.72 18.88 18.58 18.41 18.54 21.75 27.73 28.42 28.68 28.59
42.52 40.53 38.40 37.58 37.54 36.48 35.86 35.69 36.38 33.69 33.90 33.35 32.32 32.32 32.29 31.62 31.67 29.54 29.09 29.74 30.33 30.07 29.42 29.23 28.57 27.15 25.39 25.79 24.41 23.02 23.01 27.24 20.13 19.08 19.01 18.58 18.28 18.59 18.47 18.10 17.07 17.95 23.77 25.80
39.10 39.53 38.43 36.45 34.64 33.40 32.91 32.21 30.98 30.02 30.52 30.68 32.20 31.56 31.02 29.12 28.10 28.61 29.71 30.26 29.96 29.13 28.44 28.23 26.59 23.81 24.97 24.41 23.81 22.08 21.49 19.73 18.88 19.06 19.40 20.44 19.64 19.10 18.44 18.10 17.60 16.93 17.54 21.08
39.16 36.67 35.71 34.37 32.79 31.76 31.35 30.92 29.64 29.18 29.87 29.48 27.85 27.60 27.86 27.69 28.04 28.96 29.22 29.41 27.96 26.40 26.48 26.14 23.68 23.42 23.75 23.18 21.66 20.95 21.40 24.89 21.79 19.32 19.45 19.10 18.94 18.27 17.74 17.13 16.82 16.26 15.97 16.66
37.19 34.47 31.54 29.84 31.34 31.29 31.45 31.74 31.29 31.42 30.52 29.01 27.30 27.05 26.67 26.02 26.07 27.34 27.40 27.85 27.32 26.42 25.55 24.90 23.77 24.13 23.67 22.51 22.08 20.42 20.50 21.40 24.00 18.98 18.67 18.86 18.41 17.51 17.34 17.04 16.46 16.20 15.96 18.81
37.01 37.96 38.78 37.92 35.64 34.22 34.15 34.31 33.28 32.25 30.29 29.17 28.44 27.72 26.52 25.83 24.82 24.90 24.67 24.24 23.72 23.20 23.77 23.16 23.04 22.79 21.95 21.60 20.77 19.70 19.44 18.66 18.87 17.39 18.60 18.83 17.79 17.70 17.09 16.83 16.56 16.19 16.35 18.32
37.74 38.10 39.19 39.21 38.19 36.76 35.34 33.22 33.05 31.61 29.70 28.97 27.73 26.73 26.72 25.40 24.61 23.78 23.91 23.44 22.52 21.59 21.62 23.07 27.45 23.65 21.78 23.36 21.90 19.83 18.80 18.14 17.81 17.28 18.04 19.66 16.76 16.74 16.45 16.70 16.56 16.45 16.35 17.50
37.71 39.06 40.53 39.17 38.14 36.45 34.28 33.51 30.94 29.33 29.04 28.68 27.54 25.42 24.01 23.46 23.73 23.46 23.36 22.24 22.27 22.31 23.57 24.71 23.05 22.30 22.16 24.03 23.74 18.33 17.75 17.14 16.38 16.00 16.95 15.34 16.00 16.03 15.93 18.21 17.85 17.06 16.47 17.52
35.82 37.13 37.45 39.89 38.79 37.33 35.03 32.05 30.57 28.83 28.44 27.73 26.97 25.72 24.66 23.73 23.73 22.71 21.40 21.11 21.88 25.72 23.20 25.73 21.32 20.08 20.88 22.43 19.10 17.28 16.88 16.28 15.81 14.44 15.00 14.56 15.24 15.40 15.58 15.80 15.64 16.35 16.64 17.04
34.25 35.16 35.58 35.26 34.35 31.88 31.54 31.27 30.09 28.85 27.90 27.03 27.01 25.46 23.49 22.13 22.26 21.94 23.29 23.37 24.32 29.01 23.89 20.75 19.53 23.06 21.84 23.76 17.22 16.55 16.04 16.09 15.32 14.40 14.38 14.58 14.55 12.99 11.01 11.04 10.90 14.53 15.07 13.65
32.41 33.33 33.85 33.30 31.73 30.56 29.89 29.74 29.34 28.77 27.27 26.34 25.63 25.12 24.67 24.20 24.29 22.91 21.77 24.05 25.08 26.90 20.71 19.61 23.73 27.84 26.93 17.03 16.49 15.78 15.53 15.27 15.16 14.96 12.32 9.70 10.39 7.62 7.82 8.65 10.53 11.85 10.89 12.04
30.38 29.89 29.77 31.26 29.52 28.17 26.35 26.22 26.41 26.40 26.10 26.53 26.54 26.27 25.20 23.11 22.39 23.16 25.65 28.11 28.24 27.02 20.48 22.12 26.65 28.32 23.62 16.22 15.34 14.82 14.68 14.52 11.90 8.72 10.58 17.27 6.95 6.69 7.47 8.74 9.37 10.89 11.51 13.05
26.70 26.47 25.77 24.80 26.08 26.40 24.40 24.15 23.87 23.81 24.18 24.02 24.71 24.93 25.14 25.61 25.25 24.02 25.56 26.27 29.31 24.57 21.85 28.83 28.59 27.00 17.25 15.92 15.37 14.72 12.87 9.88 7.60 8.60 9.64 7.15 6.44 5.30 7.30 8.34 8.72 10.09 11.54 11.01
25.79 26.74 27.05 26.82 26.05 25.40 24.27 24.11 23.87 23.53 23.91 23.29 23.33 23.38 23.67 24.40 25.67 25.38 24.89 26.68 25.56 25.00 21.80 22.14 20.86 18.71 16.71 16.04 15.13 14.69 13.59 12.50 13.72 12.40 11.84 8.57 6.73 6.36 7.96 9.09 9.46 10.51 11.77 11.15
24.88 29.50 23.31 25.14 25.48 25.05 24.24 24.15 23.34 23.35 25.92 24.84 23.65 23.69 24.09 24.46 25.14 24.93 26.52 24.96 23.80 21.94 20.45 18.88 19.29 18.84 16.22 15.82 15.02 14.12 12.55 12.99 15.61 12.51 8.70 5.85 5.57 5.66 8.39 9.43 9.75 10.86 11.57 12.14

GFSNGP_sfc_wetblb_051.txt.gz
Wetbulb
29.72 30.87 31.12 29.94 29.45 29.92 23.50 28.47 20.59 26.16 28.01 33.53 36.65 38.98 41.52 41.87 41.12 40.10 39.60 39.35 41.00 41.20 38.72 36.78 35.14 35.82 37.55 38.65 39.32 39.79 38.90 38.78 39.53 39.15 39.70 38.72 37.87 37.33 37.90 37.34 36.40 35.81 35.04 34.88
22.86 29.54 30.02 27.13 30.70 30.90 30.46 30.95 30.65 31.88 31.60 38.55 40.66 42.95 42.24 39.32 37.21 36.57 36.72 38.63 41.09 35.18 33.38 32.83 32.57 33.80 35.83 35.98 36.59 37.90 37.94 36.69 37.29 37.06 36.72 36.26 35.78 36.12 36.11 35.78 35.38 35.08 34.89 34.99
20.43 27.80 28.88 23.74 29.53 30.39 30.76 32.01 33.91 29.92 34.50 41.50 40.24 42.53 39.17 36.22 34.65 34.16 34.41 34.61 33.27 32.71 32.24 32.04 33.01 34.59 33.63 34.34 35.40 35.07 35.43 35.41 35.30 35.40 35.05 35.17 35.44 35.23 34.68 34.26 34.47 34.07 34.44 34.46
20.84 25.09 17.98 30.53 36.94 35.57 33.74 35.63 36.10 36.57 38.75 41.01 42.08 40.56 37.07 36.02 33.04 32.87 33.37 32.89 33.02 33.02 33.31 33.99 35.84 35.82 36.11 36.14 35.97 35.75 35.32 35.49 35.99 35.79 35.12 35.25 35.06 34.57 34.46 34.54 33.94 33.54 32.77 32.48
23.97 24.61 26.54 32.49 37.34 35.78 34.01 34.29 37.46 35.99 38.46 41.52 42.12 39.61 37.78 36.47 33.92 32.85 33.14 33.63 33.49 33.95 34.17 34.24 34.34 35.14 35.03 34.83 35.16 35.28 35.12 35.30 35.64 35.42 34.60 34.40 33.30 32.66 32.51 32.54 32.12 31.99 31.83 31.65
29.91 24.43 21.53 31.83 36.29 39.26 37.88 30.48 38.39 37.86 38.67 42.08 40.73 38.26 38.17 35.26 34.85 33.90 34.49 34.07 33.53 34.28 34.64 34.20 34.52 35.26 34.48 34.20 34.16 33.99 34.79 34.86 35.48 35.44 34.36 32.77 32.42 32.20 31.94 32.12 31.90 31.69 30.63 29.29
29.50 25.92 28.43 35.79 36.91 40.44 29.51 31.85 37.92 38.00 39.29 40.67 39.45 39.48 37.58 36.47 35.05 35.75 35.50 35.08 35.70 35.47 35.12 35.58 35.95 35.27 33.80 33.54 32.08 33.89 34.84 35.23 34.54 33.93 32.81 32.17 32.09 32.08 31.42 30.61 28.85 26.57 25.14 23.77
30.40 28.57 24.27 36.85 38.54 34.79 38.42 38.17 38.89 38.21 38.83 40.35 38.72 37.66 37.20 36.82 35.51 35.43 34.34 34.69 34.85 34.58 34.83 35.94 35.92 34.75 33.36 31.89 34.58 34.55 33.77 33.21 32.78 33.89 34.68 33.05 31.53 29.20 26.82 25.11 23.07 22.40 21.34 21.05
31.17 30.67 37.12 37.32 39.89 40.97 39.49 38.10 37.47 38.27 39.39 40.57 38.15 36.36 37.26 35.84 35.48 35.40 34.20 33.90 33.98 34.10 34.22 34.87 35.78 35.14 32.43 33.72 34.77 34.14 33.20 32.70 32.51 31.74 29.40 26.99 24.77 22.94 21.63 21.32 20.51 20.48 20.31 19.73
35.04 38.35 38.51 39.63 39.27 39.61 39.05 37.99 37.52 38.42 40.06 39.24 37.98 35.58 34.44 34.81 36.02 35.61 35.89 35.17 35.19 33.85 33.48 33.38 34.41 34.39 33.99 34.39 34.01 31.97 28.10 25.96 24.99 23.97 23.41 23.14 23.62 23.63 21.11 19.64 18.96 19.65 19.98 19.27
36.27 39.08 39.31 38.62 39.04 39.53 38.02 37.30 37.03 39.40 39.40 38.02 35.42 34.98 34.53 33.93 33.39 34.29 33.65 33.77 30.09 30.45 30.33 31.04 32.20 31.79 31.75 28.83 27.08 25.21 24.67 24.48 23.40 22.77 21.75 21.43 21.91 21.37 21.42 20.04 20.86 19.66 19.89 21.32
35.69 40.45 38.47 38.82 38.00 38.51 37.12 36.24 36.74 38.65 37.26 38.35 38.17 35.24 34.66 33.83 33.39 32.55 29.62 29.25 28.96 29.60 29.51 29.33 27.84 26.87 26.99 27.38 26.35 24.82 23.35 22.67 22.13 21.06 20.22 20.49 20.71 21.03 30.56 30.09 30.80 30.07 29.70 26.20
38.22 40.16 39.87 39.66 37.71 37.21 36.24 36.00 36.25 37.16 37.45 36.48 36.07 34.92 33.61 33.83 32.25 32.59 30.22 29.81 29.03 28.54 28.52 27.12 26.66 26.36 26.02 26.08 25.79 24.69 22.51 21.98 21.81 20.58 19.05 18.33 17.98 17.99 18.28 21.79 27.76 28.40 28.60 28.37
40.27 39.37 37.86 37.52 38.05 36.72 35.77 35.20 36.74 33.98 34.08 33.84 32.56 32.50 32.47 32.23 32.97 29.88 29.24 29.85 30.20 29.86 29.15 26.73 25.71 24.44 24.89 25.56 24.53 22.76 22.62 26.34 19.32 18.47 18.69 18.27 18.11 18.26 18.15 17.56 16.47 17.26 23.18 25.45
38.16 38.30 36.80 36.11 34.52 33.54 32.85 32.03 31.13 30.58 30.04 29.59 30.71 32.19 32.54 31.53 29.30 29.13 29.73 30.23 29.88 29.08 28.50 27.34 24.61 23.25 24.55 24.37 23.98 22.06 21.07 19.51 18.50 18.47 18.72 20.32 19.01 18.40 17.81 17.43 16.80 16.07 16.71 20.41
37.43 38.37 36.22 35.21 33.96 32.28 31.33 30.65 29.92 28.96 29.00 28.10 28.71 29.76 31.68 30.65 29.19 29.10 29.34 29.38 28.18 26.82 27.07 26.24 23.63 22.92 23.52 23.26 21.47 20.54 21.39 25.47 22.06 19.35 19.13 18.47 18.16 17.55 17.04 16.37 16.02 15.58 15.22 15.83
33.50 33.91 35.11 31.55 32.33 32.04 31.26 31.51 30.88 29.80 29.67 28.56 27.66 26.91 27.63 27.76 27.81 27.55 27.87 28.43 27.86 27.13 26.93 25.73 23.41 23.70 23.45 22.28 22.06 20.56 20.57 21.30 23.45 18.65 18.22 18.16 17.48 16.84 16.70 16.29 15.74 15.52 15.31 17.95
34.32 35.62 36.66 37.43 37.69 35.84 33.44 33.63 32.83 31.65 30.73 30.25 28.83 27.99 26.79 26.32 26.11 26.22 25.87 26.04 25.23 24.23 25.17 24.01 23.62 23.16 22.06 21.71 21.23 20.19 19.91 18.52 18.22 16.98 18.10 18.02 17.13 17.10 16.43 16.15 15.94 15.69 15.85 17.58
36.31 36.48 37.23 38.02 38.71 38.10 35.82 34.58 33.49 32.42 30.58 29.62 28.24 27.14 26.53 25.65 26.01 26.06 25.72 25.40 23.64 21.73 22.16 23.14 27.79 23.93 21.49 22.59 21.78 19.52 18.48 17.64 17.43 16.96 17.70 19.65 16.52 16.16 15.94 16.31 16.23 15.99 15.83 16.88
35.72 37.09 38.23 38.45 37.52 36.29 34.35 33.75 32.33 30.45 30.05 29.18 27.50 26.05 24.46 23.45 23.74 23.95 24.61 23.23 23.97 23.24 22.98 23.68 23.29 21.24 20.91 23.56 24.77 18.03 17.27 16.75 15.96 15.68 16.09 14.90 15.46 15.63 15.49 17.80 17.45 16.50 15.76 16.78
33.82 35.09 36.41 38.91 38.95 37.10 35.16 32.96 31.22 29.11 28.85 27.62 26.77 25.51 24.26 22.81 23.55 23.41 21.91 21.90 21.80 25.32 23.03 26.97 21.16 20.33 20.70 22.67 20.64 16.86 16.49 15.92 15.48 14.35 14.88 14.32 14.79 14.91 15.10 15.28 15.19 15.73 15.97 16.44
32.12 32.13 33.22 34.71 35.23 33.92 34.00 32.90 31.97 29.48 28.06 26.17 26.33 25.61 24.16 22.95 22.60 22.63 23.88 24.11 23.10 29.18 24.51 20.75 20.31 23.34 21.37 26.07 16.85 16.13 15.67 15.71 15.12 14.20 13.78 14.18 14.70 13.65 10.99 10.27 10.42 13.71 14.39 12.70
30.71 31.06 30.81 31.43 31.14 31.13 31.27 30.61 29.49 28.56 27.52 27.53 26.24 25.23 25.16 24.80 24.38 23.16 22.09 23.74 24.31 27.76 20.93 19.70 23.34 27.57 27.81 17.29 16.17 15.74 15.54 15.03 14.74 14.26 12.19 9.71 10.60 7.87 7.63 8.17 9.54 11.72 9.89 10.69
28.72 29.19 29.27 28.79 28.65 28.58 27.29 27.11 27.56 27.74 27.95 27.44 27.16 26.79 25.97 23.87 23.01 24.02 26.11 27.77 28.27 28.35 20.31 21.12 25.46 28.89 28.45 15.85 15.19 14.74 14.68 14.32 11.67 8.99 10.53 17.63 7.39 6.71 7.18 8.58 8.78 9.94 10.05 11.93
26.21 26.34 26.81 27.20 26.99 26.86 25.17 24.26 24.10 24.12 24.76 24.52 25.35 25.49 25.78 26.21 26.30 24.28 25.46 26.73 29.79 26.69 21.40 27.37 28.97 29.85 18.33 15.49 15.10 14.91 13.25 10.25 6.09 7.56 9.72 7.68 7.32 6.43 7.59 8.30 8.39 9.22 9.50 10.30
25.11 26.91 26.25 25.95 25.93 25.70 25.40 24.73 24.21 23.90 23.75 22.97 23.58 24.47 23.92 24.80 25.26 25.51 25.96 27.35 27.15 25.50 21.60 23.96 24.23 22.72 17.48 16.44 15.91 15.35 14.33 13.46 15.31 12.86 12.96 10.89 8.92 7.08 7.91 8.75 8.94 9.68 10.95 10.35
23.67 29.56 28.28 26.43 26.38 26.13 24.95 24.20 23.25 22.97 25.01 24.03 24.60 24.43 24.55 24.83 25.45 25.20 26.90 26.12 25.48 23.44 22.62 22.21 23.05 21.89 17.33 16.25 16.54 15.61 14.37 13.97 16.09 13.80 13.51 12.20 8.91 6.77 8.99 9.38 9.20 9.98 10.69 11.44

GFSNGP_sfc_wetblb_054.txt.gz
Wetbulb
29.07 29.80 30.30 29.48 29.21 29.04 22.04 25.72 19.86 24.33 26.13 31.94 34.72 36.01 37.31 41.07 39.08 36.54 35.88 36.14 36.34 35.51 32.15 32.16 33.23 34.69 35.47 36.16 36.88 37.01 37.04 37.82 37.75 38.75 39.35 38.35 37.57 37.41 37.18 36.69 36.29 36.17 35.74 35.75
21.93 29.36 29.39 27.17 30.17 29.89 29.54 29.67 29.12 30.91 30.34 38.06 39.50 40.42 42.86 38.44 36.87 35.32 34.19 34.92 33.64 33.86 32.10 34.18 31.49 32.65 34.59 35.54 34.49 35.41 35.44 35.57 36.62 36.77 37.48 36.09 36.70 36.13 35.72 35.53 35.58 35.88 35.88 36.21
20.92 27.55 28.36 23.77 29.14 30.10 29.94 31.14 33.08 28.07 33.61 38.09 39.76 41.87 40.36 36.23 35.31 33.19 33.87 33.61 31.04 30.81 32.40 34.10 35.35 35.85 35.00 35.63 36.41 35.75 35.54 35.70 35.95 36.02 35.60 35.46 35.50 35.69 35.18 34.87 35.40 35.18 35.83 36.40
24.51 24.66 17.42 29.35 35.33 34.18 32.24 33.52 34.39 34.67 36.74 39.50 40.89 40.27 37.26 36.73 33.49 32.48 33.20 32.98 31.98 32.23 33.39 34.23 35.94 35.96 36.41 36.89 36.53 36.45 35.77 35.88 36.23 36.09 35.69 35.76 35.27 34.71 34.84 34.87 34.35 33.94 33.09 32.77
24.47 24.50 25.75 31.60 34.98 33.74 32.63 33.82 35.66 35.08 36.25 40.28 41.96 38.78 37.98 36.28 33.94 32.69 31.24 33.32 33.04 33.61 33.80 34.33 34.46 35.34 35.33 35.15 35.47 35.33 34.48 34.69 35.44 35.17 34.40 34.34 32.88 32.44 32.69 32.51 32.32 32.05 32.09 32.33
28.93 24.01 20.37 29.21 34.98 39.33 37.59 30.12 37.15 37.39 38.06 40.53 40.85 34.68 39.03 35.47 35.06 34.02 34.49 34.34 34.04 34.67 35.01 34.66 35.14 35.68 34.68 34.12 34.24 34.19 34.86 34.87 35.32 34.94 33.96 32.69 32.40 32.16 32.36 32.18 31.94 32.31 31.35 31.52
28.36 26.89 26.26 33.36 37.23 39.04 31.18 30.47 36.97 38.07 38.96 41.58 39.73 39.61 36.94 35.46 34.98 34.97 35.31 34.49 35.59 35.66 34.84 34.91 35.54 35.39 33.73 33.63 33.42 34.81 35.24 34.66 34.25 33.67 32.53 32.39 32.01 32.02 32.01 30.59 27.89 25.98 25.04 24.75
28.96 27.56 23.30 36.35 38.97 36.49 38.83 38.68 37.41 37.60 39.15 41.32 39.22 37.64 37.20 34.72 34.29 33.93 33.25 33.53 35.14 34.99 34.96 35.58 35.84 35.04 33.78 32.51 34.82 34.84 34.08 33.45 32.90 33.36 34.46 33.75 31.46 28.95 26.26 24.83 22.92 21.18 20.86 21.00
29.67 28.47 36.48 38.71 38.59 41.49 39.93 38.69 36.43 36.87 39.48 40.44 38.67 37.39 36.85 34.85 33.72 34.00 33.31 33.54 33.92 34.92 34.56 35.22 35.65 35.28 32.84 34.33 35.48 34.37 33.82 33.21 31.97 28.84 26.42 25.59 23.82 22.18 20.83 20.23 19.42 18.97 18.98 18.74
33.97 38.66 38.92 40.46 40.80 39.37 39.54 38.45 37.96 38.65 40.09 39.00 38.87 37.31 36.22 35.91 33.89 34.18 34.35 33.94 34.60 34.81 34.12 33.74 34.93 35.10 34.79 34.92 34.34 31.11 26.88 24.09 23.41 22.79 22.23 22.01 22.62 22.81 20.37 19.03 18.35 18.70 19.57 18.90
33.64 38.46 40.02 39.28 39.82 39.44 38.84 37.80 36.68 38.32 39.76 38.92 37.08 36.06 35.86 35.74 34.66 35.32 34.28 33.62 32.65 32.98 33.23 33.22 34.02 33.65 32.68 29.17 26.61 24.58 23.44 22.79 21.54 21.49 20.85 20.87 21.28 21.06 20.73 18.32 20.25 19.18 19.38 20.69
35.24 38.63 37.91 38.31 38.71 38.25 37.84 37.18 36.90 37.29 37.06 37.03 36.44 36.17 35.69 34.40 33.99 32.79 29.68 28.64 30.76 31.17 30.63 30.46 30.23 27.37 25.83 26.24 25.52 23.77 22.48 21.69 21.28 20.20 19.87 20.70 20.96 21.14 30.93 30.18 30.75 30.39 29.40 26.08
36.63 38.03 39.20 39.59 38.84 36.97 36.35 36.97 36.08 36.80 38.41 36.67 36.02 36.12 35.20 33.75 33.28 33.39 30.13 29.60 27.87 30.29 29.26 26.87 25.66 25.30 25.26 25.26 24.81 23.96 21.40 21.31 21.50 20.27 18.53 17.43 17.30 17.08 17.42 21.32 27.82 28.13 28.23 27.83
39.50 37.64 37.03 36.32 36.71 37.35 36.07 35.19 36.88 34.41 35.45 36.24 35.36 33.45 33.44 32.74 34.00 30.66 29.94 30.29 29.73 29.41 26.57 25.88 25.06 24.19 24.33 24.86 24.02 22.10 22.12 25.91 18.89 17.89 17.90 17.38 17.19 17.47 17.42 16.90 15.82 16.49 22.43 24.93
36.92 37.93 36.66 36.28 34.58 33.58 32.59 32.47 31.86 31.75 31.04 30.56 31.75 31.83 32.94 32.44 31.14 30.28 30.35 30.47 30.21 29.47 27.85 25.42 24.39 23.47 24.17 23.83 23.87 21.95 20.83 18.91 17.91 17.85 18.22 19.53 18.18 17.63 17.12 16.70 16.10 15.32 15.98 19.92
35.66 35.52 37.16 36.77 34.78 33.09 31.48 30.85 31.24 30.44 29.37 28.52 29.10 30.15 33.08 33.09 31.81 29.77 29.82 29.77 28.35 27.13 27.54 24.99 24.13 23.49 23.56 23.61 21.33 20.18 21.03 24.83 21.72 19.12 18.50 17.76 17.46 16.95 16.46 15.81 15.43 14.95 14.65 15.32
32.31 32.75 34.57 31.73 35.48 34.40 31.96 32.10 31.81 31.13 29.58 28.25 28.06 29.11 30.17 29.46 28.95 28.51 28.58 29.26 29.16 28.24 27.75 25.41 24.44 24.22 23.91 22.25 21.54 20.11 20.28 20.89 23.95 18.38 17.78 17.52 16.86 16.28 16.15 15.74 15.21 15.00 14.86 17.45
34.80 34.68 33.98 34.19 35.14 36.84 37.18 34.72 33.32 32.17 30.41 31.07 29.11 27.99 28.33 28.23 27.84 27.32 27.10 27.27 26.84 26.21 25.96 25.17 24.32 23.62 22.14 21.52 21.22 20.31 19.86 18.49 17.98 16.86 17.67 17.47 16.62 16.58 15.94 15.66 15.49 15.33 15.51 17.07
35.60 35.89 36.46 35.83 36.99 37.33 38.17 36.11 34.24 33.27 31.30 30.06 28.82 28.13 28.44 28.32 27.82 27.16 26.60 26.25 25.47 23.72 23.76 24.79 28.18 24.50 22.02 23.15 22.07 19.67 18.43 17.50 17.11 16.78 17.20 19.62 16.43 15.77 15.55 15.72 15.82 15.80 15.42 16.38
34.64 35.42 36.39 36.45 38.56 35.13 34.54 33.92 33.08 31.33 30.85 29.93 29.31 27.88 26.82 25.96 25.61 25.73 26.24 25.54 26.29 25.60 24.63 25.56 24.40 22.05 20.68 24.15 24.32 18.18 17.21 16.63 15.76 15.38 15.69 14.63 14.79 15.33 15.15 17.73 17.53 16.32 15.36 16.17
32.16 32.98 33.48 35.23 36.27 37.91 34.38 32.87 31.49 30.03 29.79 29.61 28.64 26.69 25.07 24.49 24.41 23.68 22.66 22.56 22.93 26.28 24.27 27.97 22.11 20.47 20.33 23.42 20.30 16.82 16.34 15.81 15.28 14.20 14.81 14.52 14.32 14.84 14.65 14.92 15.07 15.42 15.45 15.86
30.38 30.85 30.95 31.52 32.62 34.16 34.35 34.01 32.54 30.86 28.87 27.69 26.28 24.86 23.53 22.88 23.03 23.21 24.74 25.15 23.76 29.46 25.68 22.88 21.54 23.43 21.52 27.03 17.11 16.17 15.73 15.44 14.80 13.72 13.29 13.64 14.01 13.16 11.49 10.64 10.63 13.37 13.80 12.43
29.24 29.57 30.10 29.71 28.93 29.07 31.21 32.41 31.96 30.54 28.09 27.15 26.49 25.48 25.07 24.73 24.63 23.32 22.53 24.19 24.99 28.24 23.15 21.53 24.39 28.19 28.50 18.63 16.14 15.58 15.20 14.76 14.47 13.75 11.98 10.04 11.08 8.84 8.99 8.89 9.47 11.22 9.93 10.59
27.42 28.00 28.20 28.44 28.69 28.57 26.92 27.38 27.69 28.54 28.61 29.07 28.90 27.79 26.10 23.96 23.55 24.51 25.83 27.96 28.29 29.16 21.81 22.67 26.79 29.56 29.32 17.17 15.51 14.72 14.40 14.41 11.66 9.21 11.17 17.95 8.41 7.97 8.53 9.22 9.28 10.36 9.73 11.48
23.92 24.29 25.79 26.04 26.40 26.03 25.27 24.80 24.58 24.39 25.10 24.87 25.34 26.47 26.87 26.87 26.45 25.06 25.02 26.56 29.80 28.01 22.88 28.25 29.24 29.90 21.76 17.25 15.86 15.18 13.71 11.65 9.29 10.50 11.14 9.59 9.48 8.08 8.95 9.14 9.30 9.80 9.22 9.84
22.25 23.67 25.75 27.72 25.24 25.35 25.08 24.71 23.78 23.86 23.54 23.08 23.30 24.12 24.91 25.68 25.83 25.52 25.71 27.35 27.48 27.57 22.26 24.29 25.78 25.96 20.17 17.97 16.59 15.46 14.39 14.05 16.22 15.27 14.32 11.89 9.51 9.62 9.47 9.31 9.11 9.94 10.90 10.16
18.94 24.50 20.59 23.65 24.85 25.21 25.51 26.83 25.61 24.42 24.67 23.89 23.21 23.69 24.17 24.82 25.67 25.04 26.64 26.13 26.28 25.28 22.53 23.12 25.14 24.12 19.95 18.53 17.64 16.30 15.16 14.98 16.79 13.85 13.03 11.86 11.79 10.67 9.37 9.24 10.11 10.47 10.52 10.88

GFSNGP_sfc_wetblb_057.txt.gz
Wetbulb
30.02 30.46 30.69 30.20 30.13 29.50 24.96 26.78 23.24 26.45 26.66 32.15 34.79 35.70 37.83 40.67 39.02 37.00 35.52 35.32 33.86 34.03 33.72 34.60 34.76 35.34 36.45 36.63 36.89 37.29 37.28 37.52 37.73 38.30 38.84 38.56 37.95 38.36 38.21 38.28 38.30 36.96 36.47 36.83
23.33 29.94 29.89 27.95 30.85 30.56 30.14 30.15 29.22 30.21 30.43 38.11 39.28 40.55 42.22 39.10 37.28 34.42 34.24 34.72 33.00 33.14 33.46 34.47 35.18 35.34 36.30 36.39 36.37 37.33 36.50 36.09 36.69 36.98 37.23 37.21 37.24 37.28 37.98 37.64 38.37 38.44 37.88 37.42
22.59 28.15 28.51 24.69 29.50 30.66 30.39 31.23 32.42 27.92 33.32 38.07 38.42 40.17 41.41 38.18 36.04 33.84 33.98 33.68 32.57 31.96 32.71 34.59 36.11 36.68 36.39 36.61 37.34 36.84 36.55 36.63 36.57 36.31 35.67 35.76 36.23 36.15 35.96 36.26 37.16 37.24 37.60 38.02
25.44 24.94 17.24 29.24 34.89 33.89 32.51 33.47 34.07 34.65 35.97 38.52 38.83 41.13 38.19 37.27 34.26 33.18 33.56 33.34 32.46 33.10 33.82 34.69 36.06 36.42 36.89 37.21 36.80 36.23 35.95 36.01 36.17 35.79 35.33 35.25 34.65 34.57 34.77 35.06 34.59 34.18 33.44 33.52
23.05 24.33 25.53 31.24 33.44 32.69 32.08 34.12 35.17 34.68 36.28 37.96 41.84 39.61 37.78 36.25 34.48 32.95 33.21 33.06 33.44 34.24 34.56 34.95 35.36 36.15 35.98 35.97 36.44 35.90 35.23 35.78 35.78 35.31 35.07 33.83 32.47 32.37 32.69 32.29 32.02 32.15 32.66 32.85
25.99 23.20 20.46 29.33 35.20 39.08 37.99 32.08 37.70 36.44 37.25 40.43 41.14 36.73 38.52 34.96 35.21 34.58 34.73 34.96 34.61 35.25 35.47 35.30 35.67 35.93 35.04 34.96 35.03 34.37 34.77 35.11 35.57 35.53 34.30 32.71 32.40 32.05 32.22 32.25 31.52 31.95 31.31 32.89
24.98 23.79 26.37 32.62 36.86 39.37 32.56 33.02 38.37 39.44 39.76 41.18 39.44 39.27 37.18 35.27 34.47 34.92 34.69 34.63 36.02 35.61 34.74 35.08 35.85 35.46 34.37 34.60 33.78 34.73 34.94 35.11 34.66 34.06 32.68 32.82 32.40 32.04 30.75 28.41 27.68 27.21 26.62 26.77
27.17 25.86 20.31 35.74 38.06 37.07 39.94 40.01 39.25 39.02 39.26 41.54 40.00 37.18 36.34 35.08 34.08 33.90 33.32 34.11 35.66 34.98 34.74 35.73 36.23 35.77 34.23 32.80 35.09 35.58 34.69 34.12 33.52 34.09 34.39 32.04 28.97 27.17 26.83 26.16 24.97 24.17 24.30 24.60
28.60 27.79 35.60 38.21 39.76 42.05 41.74 40.11 39.06 38.25 39.44 41.40 39.26 37.69 37.00 35.27 34.49 34.49 33.59 33.47 34.16 35.24 35.01 35.51 35.86 34.69 33.87 34.59 35.44 34.69 33.29 30.19 27.45 26.66 26.41 26.61 26.10 25.23 24.59 24.61 23.85 23.02 23.09 23.17
33.76 36.89 36.68 39.55 41.40 40.72 40.20 39.41 39.78 39.42 39.65 39.79 39.20 38.49 36.99 35.30 34.37 34.14 33.98 33.47 34.41 34.08 34.41 34.12 35.52 35.57 35.25 35.32 34.38 30.79 26.62 25.33 25.23 25.24 24.34 24.39 25.08 24.98 23.52 22.84 22.54 22.90 23.23 22.63
33.20 36.00 38.74 40.90 41.37 41.08 39.91 39.07 38.28 38.49 39.57 39.64 38.54 37.67 37.33 35.72 35.12 35.31 34.72 34.64 35.50 34.86 34.36 34.25 35.20 34.68 32.65 31.01 28.33 26.28 25.17 24.84 24.41 24.26 24.28 24.60 25.02 24.97 24.06 23.07 24.45 23.73 23.49 24.15
35.94 37.89 36.61 38.82 40.44 41.07 39.42 38.53 38.50 37.46 38.56 38.63 38.21 36.46 37.26 36.62 36.58 35.34 34.03 31.68 33.33 34.03 33.73 33.09 32.82 30.18 28.08 27.92 27.22 25.55 24.14 24.10 24.17 24.08 24.40 24.86 25.47 25.89 31.19 30.93 30.96 30.11 28.86 27.14
36.89 36.14 37.24 39.05 39.34 37.76 37.14 37.29 36.88 36.56 37.81 37.70 36.45 35.73 36.57 35.56 35.35 35.48 31.87 30.93 32.62 32.81 32.43 31.67 28.87 27.28 27.00 26.81 26.44 25.27 24.00 23.84 24.40 22.99 22.29 22.23 21.76 21.79 21.44 24.02 27.94 28.06 28.10 27.73
38.77 37.88 35.53 36.16 36.05 35.82 35.53 35.43 36.48 34.82 36.33 37.34 36.23 34.64 35.88 34.85 35.53 32.82 31.21 31.36 31.34 32.10 30.34 28.41 26.95 26.21 26.19 26.27 25.92 24.12 24.03 26.25 22.19 21.60 21.53 20.95 21.00 20.74 20.84 20.34 19.49 20.06 22.83 25.49
34.52 35.84 36.79 37.82 36.68 34.77 33.39 33.20 32.82 32.91 32.72 33.17 34.54 33.16 32.98 33.41 33.34 31.98 31.93 31.64 31.42 30.93 29.26 26.74 25.87 25.21 25.68 25.60 25.03 23.99 23.38 21.85 21.22 21.20 20.93 21.49 20.66 20.19 20.03 19.39 18.78 18.44 19.27 21.32
33.22 34.17 35.94 35.16 36.28 36.22 33.88 32.77 31.45 31.87 30.87 30.83 31.33 31.40 32.78 34.43 33.39 32.15 30.92 30.71 29.23 28.54 28.56 27.04 25.90 25.27 25.15 25.45 23.90 22.55 23.03 24.23 22.41 21.71 21.42 20.10 19.98 19.63 19.05 18.55 18.19 18.04 17.96 18.33
32.32 32.37 31.68 33.43 34.56 35.16 36.31 35.14 33.42 32.36 31.38 29.72 29.73 30.41 31.33 32.58 31.72 30.40 29.59 30.22 30.17 29.12 28.56 27.51 26.29 25.85 25.69 24.61 23.28 22.11 23.05 24.44 23.86 20.47 20.12 19.78 19.39 18.95 18.72 18.39 18.03 17.86 17.92 19.10
33.28 33.83 34.83 34.96 34.05 33.97 35.03 38.01 36.20 34.18 32.37 32.09 30.73 30.12 30.21 30.13 30.28 28.98 28.46 28.38 28.05 27.55 27.75 27.33 26.10 25.48 24.63 23.44 22.58 22.05 21.87 21.07 19.98 19.40 19.70 19.37 19.00 18.92 18.46 18.05 17.91 17.65 18.06 18.50
35.30 35.25 35.61 36.02 36.57 35.22 35.84 37.61 37.72 35.30 32.85 31.54 29.78 29.21 30.08 30.15 29.89 29.44 28.46 27.80 26.96 25.86 25.91 26.28 28.89 26.43 23.98 24.22 23.63 21.83 20.67 19.40 19.10 19.01 19.21 21.23 19.32 18.24 17.92 17.73 17.85 17.94 17.86 17.84
33.65 34.15 34.56 35.28 37.10 36.73 32.47 32.72 33.53 32.41 31.09 30.00 29.78 28.65 27.92 27.96 28.47 27.95 27.87 27.09 27.74 27.88 26.46 26.73 27.43 24.12 23.34 25.72 26.39 20.32 19.27 18.73 18.10 17.83 17.91 17.48 17.36 17.35 17.41 18.82 19.26 18.14 17.27 17.53
31.11 31.66 31.89 32.09 33.14 35.72 35.81 33.15 31.79 30.72 30.50 30.21 29.25 28.53 28.21 28.30 27.75 27.07 25.38 25.07 25.56 27.98 26.43 29.00 24.73 23.31 23.45 25.93 23.10 19.05 18.37 17.95 17.75 17.12 17.12 17.94 17.00 16.81 16.81 16.65 16.64 16.74 16.50 16.77
29.57 29.77 30.22 30.64 30.01 30.60 33.10 34.51 33.54 31.66 29.75 28.81 28.75 28.10 26.56 24.97 24.20 24.12 25.55 26.01 25.47 30.42 27.39 26.77 24.86 24.93 23.82 28.56 19.36 18.71 18.11 18.00 17.63 16.49 15.76 15.74 16.01 16.15 16.08 15.55 15.21 15.69 15.69 15.26
28.08 28.91 29.17 28.77 28.50 28.57 29.46 29.36 31.17 32.43 31.13 29.58 27.95 26.65 25.71 25.10 24.44 23.67 23.45 25.36 25.70 29.67 26.07 24.81 26.07 28.79 29.42 21.72 19.36 18.71 18.26 17.52 16.93 16.35 15.60 15.05 15.57 14.84 14.58 14.66 14.26 14.46 14.28 14.01
25.89 26.59 27.63 28.06 27.84 27.46 26.22 26.50 25.95 26.33 28.12 29.14 29.15 28.54 27.71 26.29 25.13 25.94 26.25 28.30 28.67 30.08 24.32 24.84 28.26 30.52 30.61 20.54 19.09 18.45 17.99 17.24 16.26 15.34 14.72 19.00 14.31 13.76 13.31 13.52 13.01 13.69 13.28 13.97
21.44 22.11 22.89 25.92 25.28 25.51 25.04 24.82 24.28 24.19 25.02 25.19 25.84 26.95 27.95 27.98 27.24 26.34 26.76 27.16 29.86 29.73 25.08 28.96 30.43 31.12 24.22 20.49 19.01 18.26 17.86 17.40 15.65 14.35 14.65 14.68 14.38 13.41 13.50 12.99 12.59 12.87 12.90 12.83
19.64 20.37 21.82 24.00 24.25 24.20 24.24 25.55 24.87 24.47 24.26 23.66 23.95 24.22 24.41 25.18 25.77 26.36 25.94 27.59 27.28 29.53 23.94 25.58 27.79 28.32 22.14 20.54 19.30 18.49 17.80 17.04 18.51 19.26 16.05 15.39 14.66 13.98 13.46 13.39 13.19 13.00 13.16 12.86
15.87 21.63 16.45 19.70 21.79 21.78 22.04 23.85 26.47 25.44 25.34 23.99 23.32 23.95 23.73 23.75 24.46 25.74 26.62 26.28 26.31 27.32 23.46 24.03 26.61 26.45 22.22 21.05 19.40 18.49 18.04 17.69 18.86 17.71 17.50 16.48 15.45 14.66 14.14 13.52 12.64 12.39 12.44 12.53

GFSNGP_sfc_wetblb_060.txt.gz
Wetbulb
32.99 33.31 33.63 33.36 33.27 32.71 30.41 33.69 32.17 32.92 32.66 38.30 40.43 41.56 43.31 44.53 42.85 40.33 40.41 39.63 39.11 39.69 40.19 41.16 41.14 41.56 41.66 41.50 41.28 41.99 41.41 40.95 40.18 39.91 38.97 38.60 38.69 38.89 38.91 38.73 38.37 38.14 37.22 37.41
29.95 32.52 32.81 31.25 33.99 34.37 33.51 34.16 33.49 34.93 34.59 42.42 43.89 44.05 43.74 43.84 40.80 38.13 36.76 37.08 37.58 38.02 38.98 39.78 40.90 41.19 41.30 41.14 40.51 40.68 39.00 38.20 38.82 37.90 37.74 37.26 38.07 38.80 38.57 38.39 38.99 38.33 38.48 38.82
28.69 31.23 31.31 29.17 32.68 33.86 34.65 35.93 36.26 31.94 37.88 42.02 41.44 41.71 42.89 42.07 40.25 37.25 36.57 36.56 37.06 37.38 38.05 39.41 39.78 40.16 39.73 40.29 40.86 39.83 38.62 38.46 37.79 36.96 36.06 36.12 36.16 35.71 36.02 36.39 36.87 36.97 37.27 37.24
29.98 30.25 24.69 33.73 38.11 38.01 36.10 37.42 38.46 38.69 40.14 41.60 41.96 42.60 42.19 41.98 40.32 38.13 36.84 36.12 36.22 37.99 38.08 38.59 39.58 39.83 40.14 40.16 38.38 37.53 36.93 36.31 36.36 35.83 35.48 35.82 35.83 35.39 35.27 34.87 34.31 34.22 33.16 32.47
28.31 27.91 32.18 35.19 35.73 35.64 35.37 37.84 40.40 38.64 40.96 42.57 42.39 43.76 42.51 40.67 38.80 37.85 37.36 37.16 37.09 36.86 36.83 38.50 38.66 39.07 39.35 38.09 37.39 36.66 36.22 36.09 36.48 36.41 35.41 35.26 33.76 32.82 32.21 32.23 32.03 32.05 32.50 33.33
29.95 25.22 24.90 35.64 39.98 42.87 41.25 36.53 42.85 41.37 42.02 42.41 43.84 41.73 44.21 40.32 38.47 37.65 37.56 37.94 37.73 37.30 36.72 36.76 36.68 38.23 38.00 36.39 35.93 35.22 35.49 35.74 35.97 35.65 34.42 33.24 32.54 32.30 32.76 32.96 32.09 33.62 32.63 34.70
30.48 28.91 32.39 38.37 40.08 41.58 34.36 37.06 43.23 43.16 43.70 43.88 42.64 45.19 41.60 39.25 37.88 38.24 37.95 37.42 37.65 37.12 35.91 36.24 37.12 37.05 35.78 35.51 34.63 35.67 35.96 35.79 35.76 35.46 34.15 34.12 33.19 33.52 32.55 31.56 31.11 31.28 30.98 32.07
29.67 27.80 25.22 39.86 41.53 38.46 42.15 43.99 43.96 43.99 44.06 43.14 43.36 38.89 38.44 37.69 37.54 36.98 36.55 36.76 37.32 36.47 36.28 37.17 37.19 36.63 35.29 34.31 35.86 36.00 35.86 35.28 35.41 36.04 34.60 33.10 31.97 32.07 32.16 31.66 30.41 29.63 29.33 29.08
33.95 33.95 39.88 42.11 41.82 44.27 43.79 43.80 44.23 43.60 44.16 44.18 41.63 38.99 39.52 36.40 36.19 36.48 36.02 35.33 36.23 35.76 35.09 35.90 36.51 37.20 35.27 35.24 35.93 35.83 35.29 33.11 32.19 32.20 32.00 32.15 31.74 31.09 30.68 30.92 30.38 29.24 28.97 28.52
36.23 40.61 40.71 42.17 43.42 43.58 43.83 43.68 44.29 44.00 43.61 44.17 43.70 41.88 39.04 37.66 35.66 35.13 35.68 35.03 36.41 35.92 35.57 34.51 36.45 36.78 36.38 36.15 36.44 34.59 32.40 31.34 31.70 31.29 30.61 30.93 31.08 30.66 30.26 29.70 29.15 28.90 28.08 27.72
38.31 40.78 42.48 44.49 44.96 44.19 43.32 43.92 43.01 42.66 42.83 43.32 44.06 42.38 41.07 38.00 36.26 35.75 35.48 36.00 36.21 36.58 36.15 35.70 36.65 36.53 36.78 36.32 34.59 32.38 31.43 31.16 30.91 30.65 30.50 30.38 30.70 30.42 29.64 29.35 29.74 28.91 28.54 28.30
37.19 42.93 43.25 43.40 42.94 41.52 42.69 42.89 43.37 42.41 42.11 43.04 43.75 43.04 41.95 39.71 38.18 36.65 35.63 36.82 37.02 37.53 36.61 36.38 36.34 34.73 35.61 34.67 33.24 31.71 30.47 30.26 30.22 30.46 30.76 31.16 31.03 30.73 31.76 31.55 30.85 30.05 28.78 28.98
42.10 41.71 41.95 42.78 42.72 40.94 40.26 41.32 41.31 41.39 41.89 42.02 42.32 42.90 42.16 40.60 38.75 37.76 36.08 35.16 36.73 37.64 38.09 36.87 35.87 35.03 33.64 32.38 31.85 31.09 30.59 29.67 29.61 29.58 29.96 29.31 28.74 28.85 27.43 28.30 28.12 27.96 27.82 27.78
40.90 40.85 41.14 41.09 41.01 40.97 40.36 39.88 39.86 40.08 40.55 41.60 42.39 41.25 41.38 40.25 38.90 37.51 34.81 34.64 37.09 38.06 36.60 36.90 35.46 32.90 32.12 31.74 31.12 30.31 30.07 29.14 29.28 28.68 28.33 27.81 27.78 26.91 26.81 25.77 25.13 25.60 24.86 26.22
38.14 38.12 38.69 39.15 39.00 39.98 39.70 38.38 38.03 38.70 38.88 38.70 40.75 39.61 39.70 38.20 37.54 36.93 35.12 34.32 35.94 37.53 36.40 35.19 33.19 31.20 31.34 31.02 29.92 29.52 29.28 28.67 28.47 28.05 27.60 26.93 26.32 25.65 25.68 24.69 24.34 24.20 24.63 24.34
35.97 36.44 37.27 37.86 37.86 38.57 38.72 36.89 36.14 38.11 38.02 37.69 37.82 38.75 38.46 38.99 38.12 35.52 34.04 33.47 32.67 34.56 35.46 32.00 31.50 31.60 30.53 30.25 29.98 29.49 29.06 27.86 27.54 27.23 27.06 25.71 25.38 25.09 24.48 24.15 23.65 23.57 23.42 23.45
33.84 34.38 34.80 34.96 35.89 37.28 38.01 38.67 38.55 36.78 36.45 36.64 37.10 37.95 37.44 37.22 35.56 33.82 32.81 32.92 33.06 33.73 35.49 32.43 30.23 30.29 29.66 29.69 28.86 28.84 28.74 28.38 28.02 26.46 25.74 25.50 25.29 24.66 24.44 23.82 23.40 23.24 23.35 23.39
35.17 35.75 36.27 36.23 36.14 36.85 37.96 39.14 39.30 39.39 36.39 35.88 35.16 34.51 35.04 34.87 33.83 33.31 31.62 30.69 29.44 30.17 32.25 31.28 29.96 29.22 29.41 28.89 28.52 28.23 28.29 28.36 27.11 25.82 25.47 24.62 24.73 24.51 23.92 23.30 23.02 22.57 23.05 22.85
35.71 35.51 35.44 35.53 36.44 37.07 37.76 36.94 38.78 40.43 37.70 35.68 34.06 33.36 34.84 34.53 34.19 32.58 30.63 28.80 28.03 27.48 29.60 30.65 30.86 29.47 28.45 28.22 27.84 27.42 27.05 25.86 24.95 24.93 24.96 25.06 25.04 23.90 23.26 22.93 22.73 22.67 22.58 21.97
34.67 34.56 34.04 34.01 35.55 36.29 35.66 34.47 35.18 36.27 35.95 34.43 34.09 32.86 31.48 30.44 32.06 30.36 29.66 29.00 29.83 30.12 28.97 29.73 30.34 28.57 27.80 27.71 28.97 26.47 25.90 25.21 24.67 24.53 23.55 24.42 23.84 23.02 22.83 22.08 22.74 22.38 21.95 21.61
31.93 32.64 32.68 32.30 32.03 33.13 34.45 35.73 33.33 32.81 32.85 32.88 31.87 30.66 30.03 29.12 29.39 29.57 28.27 28.35 29.95 30.01 28.98 30.27 29.54 28.18 27.49 28.23 29.04 25.47 24.89 24.40 23.51 23.51 23.18 24.02 22.58 22.72 22.08 21.88 21.22 20.91 20.70 20.73
30.95 31.27 31.60 31.76 31.59 31.63 31.82 33.57 34.32 33.18 31.23 30.09 29.96 29.92 29.53 28.36 28.02 28.26 29.87 30.16 28.47 31.93 29.92 29.69 29.30 28.65 27.78 30.06 26.73 24.64 24.00 23.78 23.52 23.38 22.55 22.40 21.67 21.37 21.73 21.96 21.40 21.65 20.92 20.86
29.40 29.64 30.48 30.39 29.87 30.11 31.57 30.47 29.94 31.15 32.19 31.52 29.87 28.36 27.87 28.44 28.10 26.79 26.83 29.03 28.70 30.92 29.36 29.75 29.46 29.58 29.74 29.26 24.81 24.03 23.51 23.04 22.71 22.28 22.40 22.45 22.06 22.39 22.12 21.84 21.66 20.81 20.29 20.05
27.91 28.26 28.49 29.45 29.92 29.76 28.43 29.09 28.97 28.72 28.69 29.98 31.03 31.13 29.18 27.64 26.72 27.32 29.32 29.81 30.25 30.75 29.03 29.21 29.95 30.91 30.84 26.97 24.39 23.65 23.41 23.01 22.90 22.70 22.12 22.66 22.10 21.72 21.00 20.78 20.10 20.19 19.38 18.98
25.00 25.74 26.76 27.17 27.44 27.11 26.09 26.59 28.88 29.39 28.58 28.53 28.54 28.95 30.37 31.41 30.63 29.38 27.94 28.19 30.53 30.17 29.58 29.95 31.17 31.69 29.77 25.89 24.33 23.52 23.22 23.25 23.59 22.18 20.97 21.43 21.76 21.27 20.94 20.13 19.52 19.14 19.10 19.02
24.38 24.55 24.62 24.99 25.68 25.05 24.45 25.63 26.73 28.32 29.08 28.05 28.37 28.31 28.16 28.36 28.72 29.49 28.13 28.02 27.83 29.98 27.97 27.09 29.93 30.64 28.77 26.02 24.59 23.54 22.93 22.58 22.45 22.29 20.83 20.83 21.27 20.46 20.14 19.90 19.20 18.84 18.74 18.59
22.18 23.94 24.02 23.60 23.93 23.16 23.90 25.54 25.71 26.02 27.49 27.91 27.95 28.88 27.53 27.39 27.51 28.26 28.33 27.72 27.65 28.13 26.29 26.04 29.18 30.53 26.60 25.66 24.79 23.63 22.39 21.97 22.51 21.56 22.47 22.82 21.50 21.15 20.27 19.66 19.36 19.11 18.14 17.57

GFSNGP_sfc_wetblb_063.txt.gz
Wetbulb
35.06 35.59 35.82 35.16 34.99 35.35 32.01 34.69 33.13 35.08 35.30 39.68 41.95 42.79 44.55 45.89 46.21 44.25 42.81 41.95 41.87 42.93 43.40 43.71 43.70 44.17 44.01 43.70 43.15 43.19 42.35 41.90 41.12 41.25 40.77 40.54 40.17 40.15 40.02 39.52 38.97 39.12 38.45 38.38
32.00 34.49 34.69 32.74 35.57 35.99 35.14 34.84 35.34 36.12 35.82 43.11 44.50 45.19 45.18 45.86 44.69 42.81 40.75 40.10 39.94 40.86 41.68 42.20 42.97 42.69 43.04 42.80 42.56 42.73 41.05 40.16 40.37 39.82 39.06 38.32 38.22 38.58 38.41 38.36 37.77 37.82 38.17 38.81
30.05 32.83 32.87 29.96 34.05 35.14 35.84 37.22 36.75 32.63 38.83 43.07 42.19 43.18 43.85 45.47 44.57 42.86 40.96 40.07 40.14 40.25 40.81 41.57 41.70 42.15 41.26 41.61 41.63 40.34 39.36 38.97 38.43 37.93 37.32 36.98 37.15 36.87 36.17 35.63 35.64 34.93 34.67 34.07
31.01 31.89 25.25 35.32 39.82 39.44 37.31 38.46 39.70 39.97 41.64 43.03 43.23 43.99 44.74 45.58 45.14 42.61 40.62 39.88 39.05 40.10 40.27 40.77 41.48 41.29 41.76 40.56 38.20 37.23 36.91 36.42 37.05 37.07 36.74 36.58 35.71 35.06 34.94 35.29 34.59 34.17 33.29 33.15
29.53 29.91 34.16 36.23 37.02 36.47 36.42 37.91 41.05 40.22 42.27 43.76 44.67 44.39 45.21 45.05 42.88 42.08 41.15 40.64 40.10 40.07 39.24 39.98 40.24 40.76 40.53 39.22 37.99 36.40 36.39 35.93 36.62 36.45 35.44 35.08 33.81 33.48 33.21 32.84 32.76 32.74 33.22 33.81
30.90 26.29 25.69 36.88 40.79 43.32 42.38 36.03 44.03 43.62 43.24 43.96 44.13 41.05 44.87 43.77 41.71 40.47 40.30 40.42 39.70 39.67 38.73 38.36 38.29 40.19 39.03 37.10 36.17 35.50 35.73 35.92 36.33 36.11 35.02 33.69 33.10 33.00 33.65 33.44 32.96 34.19 34.57 35.79
30.80 28.33 33.30 40.32 42.61 42.51 34.36 36.53 44.69 44.83 44.92 45.20 43.46 45.47 44.91 42.80 41.11 41.28 40.77 39.78 39.98 39.35 37.75 38.32 38.99 38.52 34.84 35.61 34.95 35.75 36.25 36.41 36.04 35.81 34.49 34.49 34.15 34.58 34.43 33.33 32.94 32.41 32.18 32.99
31.52 27.69 26.08 41.57 41.12 37.04 42.61 45.92 45.23 45.58 45.56 44.66 45.50 41.60 40.75 40.49 39.59 39.45 38.69 38.60 39.38 38.28 37.76 38.19 37.51 36.33 34.25 34.44 36.19 36.62 36.60 36.17 36.17 36.73 35.62 34.18 33.72 33.48 33.42 32.47 31.29 30.66 30.28 29.77
34.64 34.67 41.75 43.71 43.92 45.41 45.67 44.99 45.84 45.14 45.84 45.25 43.83 40.74 40.78 39.24 38.21 38.61 38.87 38.40 39.17 37.65 35.65 36.16 37.56 37.04 35.13 35.45 36.65 36.89 36.64 34.85 33.61 33.44 33.41 33.59 32.83 32.31 31.79 31.82 30.63 29.40 29.02 28.61
37.49 41.37 41.80 42.92 45.19 45.49 45.84 44.56 45.55 45.70 45.06 45.10 45.03 43.70 41.22 39.20 37.61 37.26 37.77 37.40 38.17 36.64 35.46 35.37 37.22 37.60 36.25 37.27 37.70 37.04 34.52 32.78 32.68 32.10 31.94 32.11 31.68 31.40 31.03 30.23 29.55 28.84 27.97 27.67
39.21 42.29 44.03 45.77 46.62 46.68 45.09 45.87 45.31 45.41 44.38 44.36 44.93 45.00 42.59 40.56 38.16 37.61 37.25 37.75 38.56 37.23 36.30 36.13 36.95 37.38 38.38 38.51 37.39 34.50 32.85 32.37 32.05 31.73 31.41 30.98 31.11 30.94 29.79 29.95 30.08 28.74 28.19 27.79
37.70 43.60 43.59 44.28 46.07 44.61 44.16 44.69 44.84 44.41 44.05 44.39 44.79 45.19 44.61 42.55 40.51 38.82 37.37 37.34 37.55 37.95 36.81 36.82 37.16 37.80 38.40 37.67 36.03 33.28 31.69 31.47 31.50 31.33 31.70 31.78 31.18 30.37 31.94 31.46 30.92 30.35 29.73 28.78
42.40 44.42 44.45 44.91 43.78 42.89 42.75 42.86 43.08 42.67 43.79 43.36 44.46 45.43 45.18 43.45 41.89 39.85 37.78 37.10 37.93 38.00 37.52 37.27 37.28 36.97 37.61 36.20 34.38 32.75 31.20 30.86 30.88 30.80 30.53 30.24 29.55 29.35 27.88 28.09 28.49 28.06 27.95 27.81
43.71 42.99 42.01 44.24 43.48 43.02 42.70 42.81 42.40 41.98 42.39 43.03 44.03 44.60 44.61 44.19 42.41 39.77 37.99 37.77 38.56 38.93 38.80 38.49 37.58 37.16 36.17 34.48 32.21 31.52 31.25 31.96 30.80 29.85 29.23 29.01 28.58 27.55 27.23 26.10 25.51 25.93 26.05 26.04
41.69 41.40 41.45 41.82 41.86 41.69 42.15 41.77 40.24 40.52 41.70 41.52 42.72 42.97 43.03 42.56 41.25 39.93 39.69 37.81 37.99 38.24 38.22 38.79 38.09 36.65 34.86 33.50 31.28 30.73 30.39 29.96 29.98 29.40 28.61 28.18 27.18 26.53 26.44 25.46 25.00 24.91 25.27 25.75
39.25 38.11 38.68 38.59 39.80 40.02 40.41 40.72 39.37 39.93 41.34 40.93 40.53 41.28 41.97 42.37 41.71 40.74 38.73 36.56 35.69 35.39 37.25 37.76 36.65 35.60 33.01 32.10 31.03 30.61 30.41 30.54 29.73 27.95 27.25 26.79 26.32 25.85 25.31 24.98 24.61 24.24 24.06 24.13
36.19 36.33 36.57 36.28 37.03 38.46 39.08 40.42 40.61 40.66 40.41 40.10 39.65 40.09 40.91 40.32 40.02 38.79 35.89 35.36 36.63 36.57 36.85 36.06 35.10 33.29 31.70 31.40 30.73 30.48 29.79 28.47 29.30 27.52 27.03 26.11 25.75 25.42 25.39 24.76 24.19 24.04 24.11 25.07
35.97 36.96 37.45 37.40 36.96 37.31 38.10 39.34 40.67 40.89 40.71 41.54 38.52 37.03 37.95 38.39 38.06 36.52 33.98 34.05 33.81 32.57 33.72 34.26 33.92 30.89 30.37 30.67 30.54 30.06 29.02 28.53 27.74 26.51 26.20 25.35 25.36 25.59 24.97 24.39 24.09 23.53 23.77 24.45
36.82 36.40 36.19 35.35 35.79 36.12 37.34 37.59 37.29 38.10 40.52 41.40 37.30 35.12 36.72 37.69 37.61 36.23 33.69 31.40 31.11 30.98 30.97 31.82 32.84 31.06 29.34 30.25 30.30 28.89 28.37 27.99 26.92 25.87 25.49 26.24 25.36 24.85 24.23 23.83 23.50 23.60 23.49 23.34
34.85 34.97 34.83 33.67 34.50 34.81 35.11 36.30 35.40 35.75 37.14 37.68 36.58 35.43 34.45 35.36 35.30 34.09 32.19 31.47 32.53 31.87 30.40 30.44 30.77 29.95 29.35 29.53 31.04 28.46 27.88 27.00 25.82 25.14 24.61 24.36 24.52 24.48 23.84 24.17 23.58 23.33 23.00 22.94
33.18 33.76 33.51 32.97 32.59 33.37 32.41 34.79 34.97 32.84 33.56 34.17 34.08 34.01 32.86 32.87 32.19 31.16 29.68 29.11 30.62 31.83 30.40 31.23 30.12 29.39 29.12 29.32 30.15 27.52 26.78 25.85 25.08 24.41 23.66 23.89 23.56 23.46 22.73 22.65 22.51 22.26 21.88 21.99
32.15 32.43 32.64 33.10 32.91 32.92 33.06 32.85 32.47 33.47 33.27 31.54 30.25 30.22 29.74 29.12 28.70 28.96 30.33 30.68 30.97 33.76 32.31 31.13 30.90 31.32 29.29 30.99 28.98 26.30 25.69 25.28 24.69 24.27 23.60 23.39 23.18 22.49 21.97 22.42 22.41 22.84 22.45 21.99
30.99 30.70 31.01 31.27 31.15 31.76 33.10 32.13 31.39 30.69 30.36 31.87 31.52 30.10 29.41 30.20 30.10 28.74 28.54 30.56 29.87 31.49 31.75 30.50 31.63 32.95 33.66 30.30 28.41 26.13 24.98 24.29 23.93 23.85 23.38 23.63 23.40 23.65 23.59 23.55 23.21 22.97 22.36 21.49
29.68 29.66 29.46 30.06 31.25 30.65 28.50 28.75 30.38 30.74 30.17 29.87 30.48 31.61 31.11 29.26 28.99 28.99 29.33 30.56 31.28 30.65 30.70 30.32 31.65 32.59 32.54 29.36 26.91 25.52 24.68 24.11 23.89 23.87 23.29 25.18 24.27 24.16 23.76 23.12 22.19 22.05 21.53 21.17
26.91 27.05 27.76 27.88 27.95 27.52 26.52 26.67 28.14 30.53 30.61 30.67 30.36 30.05 29.67 31.40 30.68 31.57 29.23 27.91 30.37 30.15 29.30 31.43 32.01 32.55 30.65 28.69 26.32 24.97 24.49 24.42 24.50 24.23 23.33 23.50 23.60 23.39 23.07 22.38 21.73 21.21 21.02 20.72
26.86 26.66 26.53 26.00 25.94 25.80 25.58 26.48 26.49 27.92 27.95 27.88 29.48 30.54 29.85 29.58 29.29 29.47 29.94 29.37 28.55 30.48 28.76 27.40 29.02 30.15 29.78 28.05 26.99 25.61 24.86 24.45 24.53 24.68 23.50 22.80 23.05 23.19 22.87 21.86 21.28 20.70 20.59 20.64
24.89 25.32 25.66 25.56 25.45 24.96 25.01 25.95 25.99 26.00 27.06 26.97 26.70 29.05 29.94 29.78 28.82 28.76 29.29 28.71 28.62 28.61 28.85 26.71 27.82 29.85 29.51 27.76 27.23 25.79 24.99 24.61 24.85 23.72 23.91 22.86 22.78 23.27 21.74 21.46 21.27 20.86 20.75 19.96

GFSNGP_sfc_wetblb_066.txt.gz
Wetbulb
32.79 35.00 35.46 33.95 33.46 34.14 28.11 30.95 23.71 30.16 31.38 35.34 37.46 38.89 39.80 42.45 43.96 42.77 41.77 40.96 40.14 40.10 38.90 39.35 39.40 39.80 39.99 39.75 39.44 39.51 38.72 38.09 37.70 38.07 39.45 39.28 39.58 39.49 38.93 38.59 38.66 37.89 38.62 38.56
25.40 33.26 32.79 29.75 34.07 34.39 33.67 33.29 32.28 33.41 32.53 38.57 39.44 41.48 40.38 41.78 43.24 41.67 40.33 39.58 38.75 39.02 39.02 39.62 38.49 39.01 39.88 39.17 39.35 39.33 37.70 37.02 37.43 37.80 37.88 37.13 37.34 37.15 37.19 36.47 36.36 35.91 35.47 36.87
23.83 30.83 30.22 24.68 31.11 33.06 34.00 34.94 34.07 29.33 34.92 39.16 39.31 41.47 41.14 42.33 43.31 42.44 40.38 38.92 38.67 38.03 37.73 38.04 38.24 38.96 37.55 37.46 38.08 38.39 37.47 36.76 36.87 36.99 36.15 36.08 36.24 36.18 35.05 35.13 35.26 34.86 34.22 33.80
24.02 26.37 16.37 32.90 38.15 37.82 35.59 36.89 37.35 37.72 39.35 40.99 40.67 41.47 42.68 43.09 42.70 41.04 39.55 38.68 37.50 37.17 37.28 37.84 38.19 38.03 37.87 38.09 37.49 37.09 36.14 35.94 36.45 36.26 35.32 35.31 35.23 34.85 34.44 34.44 33.89 33.46 32.82 33.14
23.90 24.94 30.58 32.86 35.17 34.90 34.17 34.93 39.18 37.72 39.30 40.83 42.25 42.05 41.64 43.46 41.14 39.36 38.72 38.27 37.03 36.24 36.53 37.12 38.52 37.95 37.22 37.57 36.66 36.05 35.24 35.09 35.41 34.67 34.96 34.67 33.34 32.79 32.46 32.56 32.45 32.10 32.82 29.11
29.25 23.69 22.40 34.59 38.25 41.12 39.36 34.14 40.96 39.91 39.52 41.41 41.82 36.99 41.32 40.30 39.34 37.88 37.88 37.54 36.16 35.81 36.03 36.54 37.20 36.78 36.77 35.97 35.52 35.31 35.51 35.45 35.69 35.69 34.56 33.11 32.78 32.67 32.96 32.62 30.29 29.21 30.82 29.65
27.89 27.79 29.46 38.68 40.53 40.04 32.47 34.87 41.93 42.75 42.31 42.29 39.71 40.73 41.48 40.27 39.16 38.66 37.63 37.25 37.23 35.90 34.44 35.39 36.17 35.88 34.59 34.81 34.54 35.93 36.60 36.35 35.67 34.91 33.72 33.73 32.78 28.81 26.90 27.99 28.30 26.78 26.97 27.18
29.71 27.07 21.78 39.75 38.15 34.38 40.04 42.39 42.60 41.82 41.81 43.42 42.04 40.59 40.48 40.28 39.50 38.48 36.87 36.92 37.26 35.14 34.88 35.74 37.13 36.11 34.50 34.36 36.14 36.51 35.98 35.31 34.15 34.46 34.50 33.35 29.05 28.54 27.01 26.07 24.54 23.91 23.79 23.33
30.73 30.14 38.77 40.18 40.14 42.45 42.76 43.37 42.01 41.22 42.76 43.25 42.43 40.35 40.22 38.88 38.38 38.39 38.21 36.30 36.71 34.76 35.38 36.11 36.92 36.13 34.40 35.26 36.45 36.34 34.45 32.56 30.36 29.93 29.62 29.54 26.62 25.72 24.82 24.91 23.50 22.57 22.12 21.69
33.98 37.05 37.64 39.24 41.23 42.60 42.28 41.78 43.95 43.25 42.26 42.23 42.35 40.95 40.34 38.76 37.68 37.40 37.85 36.69 36.00 34.62 34.25 34.84 36.81 36.75 36.25 36.44 36.24 35.01 31.62 27.88 27.24 26.59 26.82 26.60 26.56 25.50 23.86 23.15 22.62 21.75 22.07 21.62
34.62 37.65 38.96 41.61 41.46 42.23 42.34 42.59 42.43 42.90 42.03 41.71 41.79 42.31 40.50 38.48 37.68 37.55 36.33 37.25 35.72 34.29 35.03 35.31 36.92 36.44 36.58 36.37 35.16 31.27 28.31 27.24 26.74 26.68 25.31 24.60 25.88 25.87 23.48 24.95 25.99 22.46 22.21 22.84
33.13 39.52 38.98 39.68 41.57 42.26 41.73 41.06 41.28 41.19 40.85 41.63 42.13 42.23 41.97 39.52 37.96 36.89 35.75 36.73 35.02 35.23 35.97 35.59 36.38 36.23 36.05 35.54 33.24 29.03 27.31 26.20 25.53 24.99 25.05 24.96 24.91 25.61 32.19 30.94 30.92 30.49 29.88 26.89
37.66 40.72 41.17 41.81 40.91 40.00 39.52 39.46 40.10 39.80 40.66 39.89 41.58 42.72 42.82 40.70 38.47 38.64 35.89 36.73 36.50 36.88 36.60 36.20 36.76 37.01 35.24 33.85 31.00 28.62 26.08 25.71 25.89 26.64 24.99 24.06 23.66 24.04 22.96 25.74 29.36 28.79 28.41 28.10
40.95 39.88 38.30 41.22 39.79 39.91 39.62 40.74 41.26 38.75 39.47 40.12 40.62 42.49 42.41 41.40 39.97 37.36 35.78 36.64 37.93 37.97 37.05 36.97 36.81 36.14 34.03 32.28 28.61 27.00 25.82 31.75 24.69 24.28 23.89 23.37 22.57 22.07 21.54 21.07 20.31 20.60 27.07 26.22
38.96 38.66 38.13 38.45 38.47 38.29 38.91 39.18 37.44 37.45 38.41 38.81 40.01 40.92 40.95 40.34 38.61 37.46 37.28 37.58 38.25 38.36 37.53 37.25 36.76 35.84 32.79 30.39 27.36 25.83 25.12 24.46 23.95 22.98 22.98 24.20 22.61 22.44 22.00 21.53 20.80 20.08 20.15 24.69
37.78 36.80 36.35 36.25 36.59 37.29 37.03 37.10 36.97 37.10 37.74 37.92 37.84 38.57 39.98 39.83 39.55 38.32 37.17 36.40 35.91 36.31 37.98 37.77 36.92 35.24 31.01 28.88 26.48 25.30 25.10 29.13 26.96 23.11 22.79 22.24 22.10 21.64 21.27 20.84 20.42 20.00 19.63 20.01
34.23 32.65 33.85 32.43 34.78 35.17 35.89 37.07 37.15 37.27 37.78 37.44 37.10 37.41 38.06 38.53 37.72 36.88 36.06 35.27 37.10 37.37 37.80 36.74 35.63 30.98 29.66 28.42 26.82 25.09 24.52 24.99 28.94 23.05 22.38 22.27 21.74 21.31 20.91 20.39 20.25 20.20 19.75 22.57
35.54 36.25 36.76 36.37 34.65 34.96 35.43 36.42 37.94 38.83 36.79 37.76 38.49 35.86 35.13 37.50 37.16 35.96 34.51 33.03 33.60 35.03 35.25 35.23 33.85 30.31 28.98 28.63 28.05 26.59 25.39 24.15 24.42 22.31 22.64 22.43 21.86 21.87 20.92 20.72 20.55 20.49 20.21 22.21
36.43 35.94 35.87 35.22 35.07 35.10 35.91 36.89 36.72 35.38 35.38 34.62 37.39 33.92 34.12 36.43 37.02 35.30 33.38 32.55 32.29 31.93 33.54 33.65 34.11 31.33 29.16 29.47 29.63 27.64 25.56 24.64 24.34 23.18 22.86 24.96 23.24 22.00 21.29 20.58 20.35 19.99 19.81 21.05
35.01 35.28 35.24 34.11 34.53 34.06 33.26 34.57 35.71 34.95 34.02 32.34 33.84 33.33 32.43 32.81 34.42 33.44 32.08 29.82 31.44 32.37 32.65 32.77 32.41 30.31 29.02 29.61 32.32 27.01 26.44 25.53 24.28 22.89 22.14 21.68 22.13 21.78 21.10 23.63 21.35 20.50 19.96 20.82
34.24 33.92 33.76 33.59 32.76 33.68 32.90 32.89 33.05 33.86 34.38 31.72 30.00 30.20 29.85 30.37 31.11 31.71 29.96 29.10 30.92 31.84 30.99 32.72 31.35 30.05 29.32 29.56 31.06 25.91 25.29 24.61 23.91 22.52 22.09 23.04 21.98 21.99 20.93 19.96 20.03 20.40 20.29 20.20
31.32 31.01 31.31 31.67 31.49 31.40 31.69 31.27 30.65 30.22 31.62 32.62 31.65 30.62 29.91 29.45 28.70 28.96 30.33 30.27 31.28 33.79 31.28 30.81 31.17 31.89 30.56 32.60 29.61 26.37 25.14 24.50 24.22 22.80 21.08 20.94 21.61 21.07 20.17 18.81 18.59 20.38 21.14 19.43
29.04 29.13 28.91 28.60 28.51 29.21 30.57 29.34 29.54 29.17 28.16 27.48 28.58 30.09 30.05 29.94 30.28 29.40 29.47 31.04 31.35 32.42 32.16 31.65 32.66 34.45 34.69 31.82 29.00 27.20 25.47 24.23 23.13 22.30 20.92 20.75 21.32 21.52 21.60 21.14 21.60 22.69 20.25 20.23
27.45 27.14 27.05 27.63 27.62 27.01 23.77 23.85 24.68 28.41 28.06 27.80 27.41 27.42 28.20 28.19 28.79 29.96 30.28 32.49 33.22 31.73 30.89 31.50 32.99 34.95 35.51 31.06 29.04 28.26 26.71 24.82 23.70 22.73 21.92 25.06 22.60 22.90 22.79 22.56 22.97 22.45 21.21 21.88
23.34 22.09 22.27 21.62 23.28 22.82 21.26 21.22 21.75 23.25 25.39 26.14 27.39 27.37 27.40 26.51 26.63 28.01 28.06 27.92 30.33 30.39 28.42 32.11 32.87 33.70 32.89 30.32 28.77 27.33 26.28 24.48 23.06 23.11 22.06 21.90 21.48 21.31 21.51 20.93 21.82 21.09 20.11 18.03
22.87 21.72 21.51 21.99 21.31 21.84 21.25 22.37 22.37 23.29 23.99 23.55 24.47 25.79 27.76 26.86 25.86 25.66 25.58 28.04 26.36 27.92 28.33 28.37 29.29 29.76 29.18 28.44 26.69 25.47 24.04 23.63 24.13 24.58 22.91 21.91 21.35 21.11 20.56 20.80 21.53 20.87 18.68 18.06
19.61 23.39 18.42 21.09 21.50 21.45 21.06 22.39 22.57 21.82 23.49 23.27 22.89 24.20 25.63 25.99 25.93 26.31 27.22 24.60 24.86 25.52 26.11 27.46 27.77 29.28 28.28 28.42 27.08 26.15 24.66 23.46 24.52 22.70 23.55 21.49 20.81 20.32 21.53 20.79 21.09 19.43 16.68 18.62

GFSNGP_sfc_wetblb_069.txt.gz
Wetbulb
32.20 34.21 33.96 31.84 31.84 32.05 26.41 30.29 23.58 28.80 29.77 35.12 35.88 36.19 37.51 39.90 41.93 41.55 40.49 40.08 40.28 38.98 37.98 38.10 38.51 38.39 38.41 38.22 38.19 37.90 37.14 36.68 36.28 36.91 38.41 38.70 38.19 38.03 37.80 37.33 37.74 37.93 38.00 38.12
22.14 32.42 31.95 29.68 32.88 33.03 32.37 31.96 31.80 32.04 31.18 37.37 38.40 39.46 40.45 41.37 41.85 40.51 39.93 39.06 38.73 38.70 38.41 38.20 37.71 38.14 38.23 37.62 37.28 36.95 35.81 35.48 36.20 37.62 37.43 36.92 36.89 36.91 36.77 36.62 36.14 35.92 36.14 37.31
21.48 29.80 28.37 22.81 30.28 32.09 32.48 33.75 34.07 28.90 33.71 36.39 37.22 39.84 40.30 40.74 42.07 41.82 40.67 38.36 37.38 37.31 37.48 37.26 37.66 37.50 35.76 35.93 36.61 36.19 35.72 35.62 37.07 36.75 36.38 36.24 36.50 36.01 35.41 34.90 34.74 34.34 34.87 35.29
21.31 24.53 15.01 28.33 36.34 35.76 34.40 35.61 35.63 35.65 36.40 38.10 39.23 40.01 41.30 42.78 42.07 41.63 39.81 38.19 37.22 36.24 36.81 37.24 37.13 36.77 36.23 36.65 37.39 36.97 36.16 36.10 36.71 36.22 35.34 35.86 35.37 34.33 33.94 33.32 32.21 32.74 32.29 31.38
22.67 22.00 25.98 30.81 33.75 33.47 32.15 32.36 37.10 35.98 37.03 38.86 40.74 40.28 39.63 42.73 41.83 40.56 38.16 37.39 36.38 36.16 36.01 35.82 36.17 36.31 35.69 35.66 36.62 35.84 35.25 35.37 35.03 35.58 35.20 34.69 33.34 32.61 32.57 32.28 31.91 31.65 26.17 25.85
28.13 20.53 21.39 32.85 35.72 39.04 37.91 31.38 39.34 38.42 38.08 38.11 40.55 34.98 38.26 39.47 38.29 37.16 36.82 36.25 34.93 35.00 34.89 34.73 34.87 35.72 34.82 34.28 35.57 34.70 34.85 35.02 35.38 35.87 35.02 33.61 32.85 32.44 32.23 25.72 30.00 31.86 31.75 26.24
25.62 24.82 28.01 36.32 38.85 39.79 31.45 32.00 40.37 39.47 39.39 40.41 38.54 40.26 41.27 39.79 37.84 37.08 36.01 35.41 35.19 34.70 33.51 33.85 34.64 34.13 33.00 35.16 35.03 36.28 36.65 36.34 35.73 35.19 33.96 32.87 32.02 26.29 24.02 25.88 25.88 25.18 25.47 25.60
27.13 26.98 21.66 38.25 36.99 34.52 38.84 40.62 41.27 41.04 41.44 42.75 41.84 39.58 38.60 39.38 38.59 38.08 36.47 35.99 35.31 33.73 33.54 34.60 35.06 34.71 34.91 34.46 36.24 36.47 36.17 35.31 33.65 32.10 33.68 32.13 28.53 28.28 27.49 24.93 23.23 22.46 22.05 21.87
29.19 28.93 36.18 38.48 38.22 40.93 42.03 43.10 42.20 41.29 42.26 42.98 41.43 40.31 40.19 38.77 38.01 37.83 37.11 35.69 35.37 33.80 33.12 34.18 36.59 36.19 34.87 35.45 36.47 35.83 35.27 33.36 32.48 31.88 29.88 28.55 25.40 24.10 23.12 22.62 21.48 20.56 20.87 20.89
32.21 35.20 36.27 38.27 39.64 41.92 42.33 41.21 41.93 43.02 42.77 43.19 42.40 41.01 39.42 38.99 37.96 37.70 37.57 36.54 34.71 33.63 32.71 34.85 36.03 35.88 36.37 36.50 36.72 35.56 32.40 30.13 27.64 26.88 26.19 25.83 24.81 24.09 22.27 21.36 20.71 20.81 21.38 20.93
32.45 35.64 37.07 38.52 39.24 41.14 41.16 41.66 41.11 40.83 40.89 40.94 41.50 41.62 40.42 38.43 37.50 37.64 37.29 36.39 35.06 33.61 33.76 35.03 36.25 35.78 36.68 36.74 34.61 32.60 28.68 25.49 25.90 26.48 24.79 24.16 25.21 22.67 23.07 23.87 23.57 21.71 22.00 22.55
31.38 36.99 37.06 38.92 39.84 41.22 40.97 40.84 40.80 40.41 39.80 40.27 41.24 41.49 41.17 38.66 37.39 36.77 35.76 36.10 34.55 33.86 34.19 35.56 36.43 35.94 36.06 36.15 34.06 30.05 25.14 24.33 24.42 23.58 23.28 23.66 25.07 24.88 31.67 31.00 31.43 31.04 30.55 26.49
36.85 39.27 40.01 40.47 39.92 39.89 39.44 39.13 39.13 38.70 38.66 38.51 41.00 41.35 41.52 39.71 38.13 38.27 35.55 35.36 35.61 35.26 35.35 36.03 36.00 36.03 36.32 35.01 33.04 27.40 24.93 24.21 24.27 25.28 23.83 23.39 23.72 23.05 22.55 26.06 30.43 29.93 29.50 28.99
40.06 39.74 37.40 39.57 38.88 38.76 39.32 39.33 39.95 38.00 38.17 38.51 39.04 40.85 41.40 41.01 39.36 37.07 35.47 35.75 35.93 36.74 36.41 36.00 36.44 35.92 35.54 34.25 30.18 26.39 24.85 30.66 23.74 23.43 23.34 22.75 22.14 22.09 21.72 21.76 20.68 20.56 27.91 28.11
37.97 38.07 38.16 37.97 37.89 37.62 38.10 38.39 36.50 36.57 36.92 37.36 38.10 38.99 40.11 40.10 39.03 37.43 36.44 35.45 35.84 36.64 36.59 36.22 36.50 36.49 35.44 32.71 28.59 25.53 24.71 24.89 23.46 22.79 22.73 23.92 22.09 21.49 20.97 20.82 20.32 19.86 19.52 24.42
36.52 36.41 36.29 35.98 35.83 35.81 35.39 35.32 34.63 35.72 36.67 36.70 36.35 36.77 38.38 39.32 39.32 38.19 36.30 35.44 34.87 35.10 36.71 36.13 36.32 37.38 35.50 30.99 28.11 25.82 24.52 28.85 26.63 22.60 22.28 22.30 21.35 20.99 20.62 20.15 20.09 19.96 19.64 19.84
34.43 31.95 31.84 30.66 33.46 33.08 33.88 35.85 35.62 35.36 35.85 35.70 36.20 37.09 35.88 36.98 37.71 37.45 35.88 35.77 36.23 36.02 37.72 36.99 36.37 36.52 34.30 31.68 28.56 26.99 25.54 26.27 30.24 23.60 22.58 22.47 21.62 21.02 20.90 20.77 20.29 19.98 20.05 22.51
35.47 36.30 36.01 36.23 35.11 33.82 33.76 35.00 36.83 37.37 34.83 34.12 34.29 35.89 35.08 34.38 35.62 36.05 36.34 35.21 34.54 34.81 35.01 34.63 35.76 34.03 33.00 31.43 29.43 26.93 26.46 26.01 26.32 23.85 23.16 22.73 21.97 21.62 21.20 21.15 21.07 20.72 20.79 22.10
36.60 36.03 35.58 35.27 35.01 35.04 35.63 36.16 36.28 36.68 35.10 33.85 33.39 34.36 34.87 33.89 34.44 35.32 35.41 33.99 32.93 31.19 33.68 34.80 35.92 33.80 31.11 30.70 30.38 28.19 27.06 26.04 25.79 25.25 24.31 25.78 24.21 22.32 21.52 21.22 21.14 21.01 20.63 21.22
35.24 35.51 35.02 34.37 34.85 34.35 33.31 34.18 34.88 35.30 34.83 32.56 31.19 31.08 31.48 31.30 31.72 32.04 32.35 31.40 32.93 33.20 33.00 34.18 34.24 32.82 31.10 30.41 33.50 28.57 27.60 26.57 26.06 25.49 24.36 23.64 23.39 22.51 21.89 23.77 21.70 21.40 20.75 21.31
33.89 33.95 33.87 33.34 32.94 33.59 32.54 31.95 31.38 30.95 33.65 34.20 31.94 29.20 27.67 27.77 29.29 29.64 28.69 28.49 31.95 32.59 32.87 33.67 33.78 32.81 30.94 30.31 32.75 28.14 28.10 26.59 25.92 25.07 24.20 25.15 22.81 22.64 21.59 21.20 21.45 21.33 21.04 21.03
31.95 31.35 31.30 31.54 31.20 30.74 30.65 30.50 29.84 28.87 28.09 28.29 30.33 30.93 30.34 30.21 29.24 28.72 30.30 30.40 31.38 33.73 31.87 31.21 31.84 32.50 30.91 33.45 31.69 29.66 28.19 27.24 25.87 24.90 23.56 23.16 22.97 22.30 21.72 21.03 20.68 21.17 21.10 21.06
28.70 28.78 28.59 28.36 28.31 28.30 27.80 25.75 26.52 28.74 27.63 26.28 26.24 26.46 27.58 28.78 29.77 29.73 30.20 31.70 31.70 32.28 32.34 31.18 32.26 34.30 35.43 33.16 30.46 29.71 27.98 27.21 26.55 25.05 23.95 23.57 23.27 22.60 22.16 21.65 20.98 21.62 20.90 20.87
26.94 26.70 26.74 26.77 26.69 24.44 22.30 22.73 22.99 26.02 26.34 27.21 27.05 26.11 25.00 24.34 25.45 27.65 28.73 31.22 33.21 33.72 31.50 31.97 33.30 35.21 35.81 32.14 29.74 29.23 28.09 27.36 26.89 26.13 25.04 26.72 23.27 23.26 22.45 21.57 21.27 21.60 20.52 22.02
24.17 21.82 21.15 20.33 22.65 21.87 19.88 19.62 20.33 21.39 23.69 23.93 24.88 25.60 26.35 25.68 24.08 24.90 24.68 25.73 29.66 29.38 28.15 30.98 33.25 34.45 33.10 31.71 29.95 29.00 28.34 27.75 27.07 26.08 24.87 24.04 23.38 22.83 21.86 21.27 20.88 19.75 19.56 19.53
21.86 21.14 21.05 21.41 20.85 21.15 20.33 21.31 21.30 22.02 22.54 22.15 22.83 23.31 24.23 25.28 25.14 25.01 24.08 26.61 25.16 27.18 25.44 27.16 27.81 29.36 29.64 31.32 30.10 29.05 28.07 27.19 27.34 27.41 24.55 22.97 23.22 22.33 21.80 20.99 20.17 20.85 20.28 19.66
18.30 22.85 17.38 20.22 20.63 20.69 20.02 20.95 21.75 21.05 22.23 21.96 21.85 23.44 23.77 23.85 24.70 25.52 26.45 23.34 23.59 24.00 24.23 25.11 26.22 27.25 26.80 26.77 26.67 24.95 25.59 24.82 26.22 24.92 26.51 24.19 23.48 22.96 21.71 21.00 20.63 20.11 19.04 18.40

GFSNGP_sfc_wetblb_072.txt.gz
Wetbulb
30.55 32.91 32.28 30.76 31.10 31.49 28.18 32.15 27.93 31.64 29.21 34.47 36.79 37.33 38.65 41.35 41.46 42.11 41.36 40.58 39.81 38.74 37.93 38.24 37.85 37.63 37.34 37.18 36.98 36.91 36.56 36.01 35.85 38.01 38.35 38.09 37.77 37.53 37.44 37.06 37.03 37.78 38.36 37.31
21.63 30.98 30.76 28.31 31.80 32.08 31.53 30.82 31.27 30.82 31.35 37.88 39.20 36.59 36.76 37.77 40.55 40.74 39.72 39.35 39.29 38.67 37.64 37.83 37.58 37.61 37.68 36.88 36.33 36.28 35.36 35.14 36.04 37.51 37.19 37.01 37.09 37.05 36.58 35.96 36.07 36.43 36.82 37.71
20.47 28.71 27.65 24.07 29.60 31.43 31.66 32.70 33.55 28.63 34.61 36.44 36.61 38.59 39.56 39.46 40.88 41.16 39.99 38.53 37.87 37.71 37.77 37.33 37.40 37.07 35.87 35.74 35.81 35.07 34.80 35.47 37.06 37.08 36.37 36.29 36.32 35.63 34.91 34.49 34.91 34.91 35.50 36.14
20.35 24.10 13.31 28.66 34.79 34.23 33.40 34.31 34.68 34.49 35.70 37.44 37.92 38.75 40.27 40.97 41.52 41.70 42.11 39.36 37.27 36.38 37.14 37.39 36.90 36.19 35.81 36.15 36.30 37.05 36.46 36.66 36.92 36.07 36.05 35.92 34.97 34.23 33.46 33.18 33.22 32.11 29.43 26.46
21.82 21.18 25.24 28.92 32.91 32.33 30.72 31.36 36.04 35.87 35.88 36.96 38.77 38.78 37.82 42.07 42.46 42.23 40.76 38.43 36.73 36.56 36.84 35.88 35.88 35.77 35.45 35.47 36.56 36.07 35.65 35.62 35.71 35.98 35.29 34.60 33.20 32.80 32.44 31.81 25.64 23.71 21.99 24.11
26.95 20.03 20.13 28.90 34.13 36.64 36.16 29.02 36.93 37.57 36.35 36.54 38.28 32.93 35.62 41.01 39.09 38.41 37.66 36.20 35.08 35.04 34.98 35.04 35.44 35.57 34.83 34.39 35.56 35.00 35.32 35.12 35.78 36.16 35.07 33.66 32.86 32.51 32.00 31.64 28.70 26.51 25.38 25.10
26.84 26.55 26.19 33.34 36.93 38.78 28.11 30.46 39.14 38.30 38.21 37.25 36.74 37.31 40.03 38.85 37.99 37.24 35.83 35.15 35.34 34.95 34.28 34.32 35.40 34.87 32.92 33.31 35.09 35.82 36.17 36.13 35.86 35.23 34.27 33.41 32.53 26.25 22.41 23.61 25.52 24.22 25.03 24.46
29.29 26.86 22.25 36.91 36.00 33.29 37.11 39.06 39.62 38.65 39.57 39.46 40.58 39.19 38.16 38.76 36.93 37.04 36.23 35.43 35.08 33.67 33.18 34.12 34.36 33.98 32.66 33.74 36.64 36.84 36.38 35.57 34.81 34.60 34.27 32.46 28.61 28.04 26.63 24.20 22.93 21.54 21.56 21.96
29.56 29.01 35.31 37.33 36.77 39.25 41.20 41.32 41.96 40.81 41.58 43.55 41.42 39.38 38.83 38.25 37.30 37.22 37.00 36.01 34.45 33.39 32.74 33.02 34.05 34.06 34.47 35.82 36.51 36.17 35.43 34.09 32.46 31.62 31.23 29.86 27.45 26.09 23.52 22.35 21.03 20.16 20.31 20.37
30.86 34.29 35.22 37.30 38.65 40.49 41.90 41.11 41.97 42.28 42.20 43.02 42.24 40.99 39.10 38.31 37.52 37.20 37.16 36.10 35.40 32.98 32.02 31.91 33.46 35.42 36.52 36.55 36.57 35.59 34.69 30.87 30.47 28.61 26.66 25.90 26.00 25.66 22.94 20.82 19.56 20.13 20.43 20.91
31.06 34.27 36.32 38.17 38.66 40.39 40.87 41.05 40.65 40.71 40.60 40.62 41.54 41.27 41.09 39.31 37.57 36.94 36.45 36.84 35.67 33.49 32.93 33.39 34.75 35.64 36.83 36.93 36.51 34.22 32.97 29.31 25.56 24.90 25.74 23.23 23.58 22.91 23.11 22.29 22.04 20.34 21.03 21.84
30.66 36.12 35.87 36.25 38.34 39.43 39.82 39.83 40.23 40.37 39.38 39.71 40.03 40.61 41.23 39.47 38.08 36.81 36.75 35.50 34.20 33.65 33.77 33.86 35.17 35.66 36.52 36.92 35.61 32.02 28.66 24.63 23.29 22.95 21.99 23.10 25.22 24.66 30.47 30.57 32.64 31.75 30.46 25.88
36.21 38.78 39.37 40.15 39.47 40.47 39.92 39.27 38.93 38.60 38.41 37.79 39.14 41.03 41.10 39.85 37.64 38.18 35.74 35.40 35.03 34.58 34.54 34.52 35.32 35.88 36.45 36.61 33.23 31.46 26.71 23.74 23.06 24.04 21.73 21.71 23.01 23.55 23.65 26.92 31.75 31.21 30.90 30.62
38.78 39.49 36.61 38.37 39.65 40.16 39.98 39.02 40.18 37.28 37.31 37.63 37.66 39.29 40.00 41.15 38.80 36.99 35.69 36.01 36.23 35.99 35.19 35.60 35.48 36.27 36.40 36.64 33.04 31.15 25.97 30.50 23.72 23.03 22.32 22.31 22.59 23.47 22.95 22.23 21.55 21.64 28.46 29.74
37.83 36.71 37.33 37.85 37.08 37.18 37.26 37.59 35.66 36.44 36.53 36.62 37.11 37.25 38.91 40.22 39.08 37.61 37.09 36.07 35.81 35.55 35.34 35.36 35.18 36.18 37.10 36.31 32.95 30.85 26.15 24.52 23.83 22.89 22.73 24.36 22.94 22.29 21.33 20.50 19.88 19.46 19.15 24.23
35.89 35.71 35.96 35.81 35.80 35.64 34.86 34.19 33.61 34.51 35.34 35.50 35.47 35.86 36.28 37.23 38.46 39.39 37.05 35.88 34.68 34.61 35.28 35.09 35.58 37.33 37.25 35.35 33.92 30.14 27.59 29.32 28.14 24.33 23.74 23.70 22.29 21.26 20.49 19.74 19.70 19.35 18.66 19.26
33.87 32.07 32.31 31.39 34.12 33.13 32.77 34.42 34.41 34.26 34.52 34.40 34.74 35.46 35.72 35.54 35.33 36.08 36.18 35.05 35.81 36.40 36.27 35.47 35.46 36.39 36.32 34.54 33.02 31.83 27.22 26.88 31.25 24.64 23.29 23.83 23.17 22.17 21.82 20.79 20.25 19.47 19.58 22.17
35.50 35.68 36.14 36.69 35.52 34.89 34.18 34.25 34.85 35.69 34.64 32.32 31.68 31.63 32.66 34.04 33.95 34.42 34.66 34.38 34.62 35.12 34.93 35.59 35.77 35.94 36.14 34.96 33.32 31.73 28.83 27.21 28.06 26.28 24.16 23.49 23.39 23.30 22.47 21.82 21.37 20.55 20.28 21.69
36.77 35.88 35.64 35.43 35.23 35.43 35.63 36.20 36.07 36.43 35.75 32.98 31.98 31.50 32.63 33.48 33.28 33.16 33.62 32.97 32.60 33.54 34.91 34.01 36.09 36.40 35.25 34.52 33.55 31.53 29.27 27.54 26.94 26.69 25.03 26.62 25.54 24.02 22.85 21.82 21.63 21.49 20.99 21.41
35.32 35.55 34.96 34.45 35.03 34.36 33.43 33.87 33.84 34.83 35.35 34.82 32.15 30.72 29.94 29.94 29.85 30.29 31.20 31.17 32.94 34.24 33.99 34.22 34.82 34.94 34.36 33.70 35.66 31.11 29.29 28.14 27.06 26.88 25.69 24.97 24.78 24.33 23.56 24.63 22.71 22.11 21.63 21.56
34.55 34.68 34.31 34.16 33.66 33.43 32.35 31.62 30.68 29.53 30.49 32.43 33.09 31.90 30.91 29.72 28.72 28.54 28.77 29.00 30.96 31.28 32.57 33.88 33.61 33.22 32.59 31.86 34.06 30.70 28.55 28.40 27.95 26.83 25.83 26.84 25.43 25.20 23.53 23.18 22.87 22.50 21.79 21.33
32.99 32.15 32.08 32.28 31.73 30.74 30.50 30.04 29.84 29.41 28.16 27.28 27.34 27.78 29.30 29.91 30.22 30.26 30.00 29.37 30.36 33.98 32.48 31.55 31.75 33.71 32.04 34.39 32.17 31.49 29.77 29.60 29.03 28.31 26.87 27.76 27.14 25.56 24.67 23.52 22.35 22.75 22.01 20.92
28.99 28.88 28.64 28.49 28.42 28.39 26.14 24.83 25.99 28.43 27.63 26.46 25.40 25.05 25.01 25.83 26.46 26.78 28.34 31.35 31.98 32.90 32.24 31.81 32.68 33.91 35.47 33.58 31.28 31.26 29.74 29.18 28.67 28.12 27.55 27.58 26.81 25.99 25.41 24.31 24.30 23.59 22.38 21.22
26.68 26.68 26.47 26.62 26.97 24.07 22.18 22.40 23.26 24.92 25.26 26.66 26.72 26.56 25.27 23.87 24.31 25.76 25.74 27.87 29.90 30.60 31.87 32.13 32.92 34.84 35.41 31.94 30.78 30.05 29.33 28.76 28.38 28.20 27.65 28.98 26.60 25.89 25.40 25.86 25.01 23.78 22.09 22.83
25.00 22.89 21.84 21.29 22.89 21.99 20.20 19.86 20.38 20.73 22.56 22.66 23.73 23.85 24.80 25.11 24.34 25.07 24.12 24.17 27.90 27.90 25.90 29.41 31.91 32.63 32.24 31.60 30.75 29.70 29.19 28.63 28.46 27.80 26.83 26.41 26.60 25.71 25.78 25.45 24.60 23.65 22.28 22.01
21.24 21.27 21.39 21.42 20.79 20.97 20.31 20.99 20.71 21.28 21.61 20.99 21.64 22.51 23.20 23.81 23.78 24.44 23.86 26.08 23.98 26.41 23.58 24.42 25.81 27.13 26.99 28.54 30.77 30.03 29.27 28.51 28.82 29.30 27.27 26.30 25.80 25.43 25.07 24.67 23.73 23.84 23.76 22.55
17.41 22.18 17.04 19.59 20.03 20.04 19.38 19.77 20.59 20.31 21.42 20.86 20.91 22.71 22.01 21.68 22.73 23.68 25.18 22.89 23.21 23.33 23.01 23.22 24.15 25.47 25.00 25.08 25.15 25.83 25.66 27.69 29.04 27.45 27.04 26.01 24.78 24.05 23.53 23.33 24.46 24.23 22.74 20.73

GFSNGP_sfc_wetblb_075.txt.gz
Wetbulb
29.26 30.21 31.13 30.08 30.31 32.94 32.53 33.65 27.72 31.23 29.12 34.06 35.83 36.57 38.63 40.45 41.05 40.86 40.59 40.60 40.41 39.30 38.36 38.19 37.60 36.93 36.87 36.46 36.34 36.48 35.79 35.21 35.11 38.12 38.38 38.17 37.64 37.44 37.28 37.33 37.63 38.15 37.64 36.83
22.47 30.35 30.56 28.30 31.15 31.55 33.40 33.89 33.96 33.56 29.96 37.68 37.96 35.50 38.01 39.62 40.80 40.84 40.62 40.93 40.22 39.55 38.38 37.86 37.18 37.33 37.30 36.51 36.25 36.25 35.17 34.98 36.31 37.64 37.48 37.17 37.23 36.62 36.22 36.10 36.60 37.12 37.34 37.78
20.40 28.00 27.21 22.94 29.49 30.57 31.38 32.93 33.17 28.11 35.47 35.16 35.66 37.15 37.63 37.47 39.31 40.79 41.67 40.84 39.74 39.52 38.64 37.85 37.74 37.88 36.77 35.89 35.67 35.07 34.79 35.19 37.04 37.13 36.42 36.31 36.05 35.51 35.06 34.41 35.35 34.95 34.97 34.75
19.76 23.65 14.94 28.23 32.67 33.34 32.61 34.51 34.78 34.83 34.89 37.31 37.73 37.89 38.51 38.57 38.41 39.80 41.21 40.28 39.12 38.33 37.64 37.54 37.32 36.80 36.25 35.88 35.43 35.27 35.09 36.36 36.93 36.49 36.18 35.67 34.94 34.11 33.42 33.65 32.14 30.61 26.78 25.49
22.03 21.46 24.63 29.07 30.60 31.23 30.13 30.79 35.27 34.94 36.69 36.52 37.79 37.25 37.46 39.98 41.15 40.84 41.64 40.73 38.89 37.40 37.42 36.78 36.34 35.73 35.45 35.14 35.41 35.23 35.86 36.42 36.14 36.35 35.44 34.59 33.36 32.59 32.22 27.14 22.98 21.57 20.70 23.98
22.12 20.30 19.03 26.72 33.97 35.24 34.95 26.97 36.50 35.78 35.89 35.62 36.96 32.16 34.96 40.20 41.82 41.18 40.34 37.91 36.30 35.94 35.82 35.74 35.00 35.24 34.52 33.77 34.20 35.42 35.68 35.78 36.17 36.31 35.20 33.56 32.92 32.33 31.27 25.42 21.69 23.05 24.71 23.90
25.96 25.82 26.15 31.93 33.91 36.63 25.78 28.07 38.41 36.43 36.31 36.07 35.08 36.01 39.08 40.01 37.71 37.93 36.14 35.31 35.08 35.11 35.03 35.25 34.85 34.55 32.94 32.79 33.30 35.98 36.24 35.99 36.13 35.85 34.54 33.47 32.40 30.25 30.33 29.58 29.81 24.15 24.26 23.30
28.10 26.38 22.24 34.78 35.56 31.65 35.12 37.68 38.70 37.44 36.12 37.26 38.18 38.83 37.99 37.48 36.56 36.61 36.14 35.18 35.17 33.44 33.06 33.85 34.56 34.03 32.28 32.34 34.94 36.44 36.09 35.66 34.90 34.52 34.59 33.46 31.42 27.50 25.67 24.16 22.60 21.52 21.66 22.27
28.96 28.37 34.61 35.38 37.17 38.14 39.91 39.88 40.05 40.41 40.79 39.94 40.15 38.44 38.01 37.65 37.50 36.34 35.76 36.28 35.77 33.67 33.00 33.21 34.05 34.27 32.79 35.21 36.61 36.28 35.77 34.86 34.42 34.07 33.08 31.37 27.55 26.30 24.47 22.12 21.07 20.11 20.34 20.19
30.60 33.54 34.17 35.24 36.52 38.87 40.87 40.32 41.89 41.75 42.89 43.34 42.49 39.75 38.22 37.50 36.42 36.15 36.63 35.79 35.35 34.16 32.69 31.98 33.02 34.04 34.29 36.48 36.88 36.05 34.86 33.64 32.64 31.63 28.66 26.96 26.39 25.94 23.54 21.00 20.38 20.95 21.27 21.56
29.88 32.63 34.43 36.86 37.03 38.58 39.88 40.27 40.13 40.29 40.43 41.01 41.75 41.01 40.65 38.71 36.91 36.46 36.41 36.07 35.65 34.45 33.71 33.09 33.12 33.42 34.70 36.75 36.45 34.89 34.37 32.55 29.95 28.84 28.76 23.94 23.06 21.97 22.15 21.07 22.06 20.53 20.89 21.82
29.22 34.96 35.54 35.91 37.12 38.05 39.87 39.52 39.61 39.68 38.95 39.67 40.33 40.20 40.88 40.51 39.65 38.16 36.61 35.92 34.68 34.25 33.70 34.03 34.17 33.68 36.19 37.05 36.20 34.39 33.42 31.09 27.80 24.55 23.50 22.06 21.66 23.05 29.98 29.57 32.03 32.34 30.63 25.60
35.49 36.22 37.45 38.07 37.82 38.33 39.82 39.89 39.73 39.61 38.65 37.98 38.43 40.10 40.91 40.90 38.85 38.59 36.37 35.76 35.10 34.50 34.98 34.53 34.62 34.38 35.90 36.87 36.15 33.99 32.92 29.41 24.47 24.83 21.99 21.30 22.66 22.81 23.07 26.73 33.06 32.32 32.18 32.16
38.21 39.40 36.47 37.34 37.93 39.12 40.71 40.39 40.72 37.73 37.33 37.29 36.53 38.00 38.72 39.81 38.71 37.33 36.24 36.13 35.67 35.29 34.96 35.31 35.16 34.93 35.95 36.73 34.93 33.47 29.99 32.72 24.33 23.42 21.95 21.44 21.74 23.23 23.22 22.32 21.74 22.43 29.19 30.80
37.53 36.97 38.26 38.26 37.34 36.63 36.31 36.77 35.31 35.75 35.74 36.04 36.32 36.15 36.83 37.54 38.04 38.15 38.34 36.06 35.47 35.01 35.01 34.97 34.90 35.48 36.56 36.42 34.45 33.03 30.49 28.17 25.37 23.45 23.00 23.68 23.01 23.05 22.86 22.21 21.44 20.47 18.84 23.88
35.31 35.41 36.33 36.16 35.75 35.57 35.08 33.75 33.32 33.87 34.41 34.41 34.62 35.10 35.30 35.09 35.54 37.07 38.12 36.07 34.67 34.50 35.83 35.15 34.98 36.76 36.72 35.20 34.42 34.08 32.30 32.91 29.24 24.95 24.19 24.51 23.62 23.02 22.22 20.92 20.36 19.74 19.28 20.40
33.57 31.12 32.48 31.64 33.91 33.54 33.68 34.25 34.09 33.75 33.68 33.29 33.53 33.65 33.18 33.91 34.31 34.11 35.97 35.62 35.02 35.51 36.14 36.00 35.62 36.04 36.35 35.65 34.84 34.92 33.23 31.77 33.47 26.50 24.79 24.88 24.58 23.52 22.74 21.52 21.03 20.72 21.42 22.71
34.69 34.64 35.48 35.58 34.56 33.38 33.48 34.73 35.56 33.85 33.22 31.42 31.30 30.33 30.32 30.99 31.93 33.29 33.72 33.88 33.14 32.66 33.47 34.24 35.35 35.24 36.73 36.20 35.65 35.23 33.28 30.69 30.51 28.06 26.18 24.67 24.73 24.00 22.68 22.44 22.53 22.37 21.62 21.42
35.51 35.02 35.36 35.54 35.87 35.81 35.77 35.82 35.67 35.96 35.07 32.85 32.66 31.10 31.44 32.31 31.58 31.54 31.58 32.03 32.03 31.41 32.61 33.66 36.08 35.85 34.78 35.59 35.39 34.08 31.33 30.29 29.16 28.53 27.26 27.63 26.15 24.39 24.06 23.60 23.41 22.88 22.37 21.96
35.28 35.17 35.01 34.39 34.86 34.51 33.40 32.66 32.83 33.20 33.80 34.72 34.43 32.16 30.99 30.14 29.42 29.75 30.10 29.78 30.62 32.13 32.39 32.85 33.24 34.06 34.87 34.78 37.04 33.41 31.39 30.49 29.48 28.94 27.53 26.30 25.83 25.26 24.51 25.57 23.95 23.42 22.80 22.71
35.01 35.15 35.08 34.77 33.83 33.76 32.88 31.86 30.63 29.57 29.36 29.65 30.32 30.70 30.69 31.14 30.88 29.61 29.32 29.25 29.41 30.86 31.61 33.02 33.28 33.31 33.64 34.06 35.58 33.75 31.48 30.29 29.60 29.20 28.44 29.05 27.19 27.52 25.97 25.39 24.32 23.83 23.16 22.80
32.82 32.22 32.58 32.77 31.62 30.86 30.37 29.90 30.32 29.93 28.48 27.40 27.14 26.79 26.77 26.87 27.48 29.13 31.18 30.14 31.23 34.73 32.48 31.09 30.31 32.93 32.77 35.17 32.26 32.73 30.76 30.27 30.07 29.71 28.70 28.49 28.64 28.05 28.18 27.41 26.40 26.04 24.67 23.71
30.25 29.60 28.75 28.68 28.28 28.01 25.04 24.41 26.24 28.07 27.73 27.18 26.23 26.32 25.10 24.88 25.02 26.24 26.45 27.83 28.37 30.81 32.15 31.67 33.62 34.89 35.22 33.74 31.35 31.35 30.60 30.01 29.90 29.65 29.32 28.88 28.80 29.15 28.62 28.07 27.57 27.03 25.86 24.75
26.77 26.54 25.84 26.20 26.61 24.41 22.22 22.13 23.37 24.30 24.52 25.79 26.16 25.84 25.17 23.76 24.26 25.33 25.99 27.58 29.04 29.99 28.24 28.96 31.75 34.54 35.15 31.81 31.32 30.94 30.53 29.98 29.72 29.56 29.14 30.73 28.86 28.71 28.33 27.86 27.49 27.38 26.88 27.16
24.84 21.95 20.99 21.27 23.15 22.08 19.90 19.84 20.25 20.94 22.53 22.40 23.18 23.20 23.99 24.26 23.28 24.35 23.74 24.05 27.43 26.76 24.92 27.65 30.21 31.12 28.01 30.89 30.93 30.36 29.93 29.50 29.38 28.76 28.16 27.87 27.97 27.25 26.90 26.57 26.56 27.10 26.64 25.52
22.27 21.65 21.86 21.77 21.01 20.73 20.19 20.73 20.53 21.16 21.28 20.64 21.21 22.21 22.61 22.23 22.22 23.08 22.82 25.46 23.62 25.92 22.77 23.18 24.23 25.73 25.20 25.30 27.48 29.39 29.58 29.20 29.84 29.72 28.73 27.47 27.26 27.07 26.77 26.28 25.47 26.11 27.07 24.58
16.86 21.75 16.49 19.15 19.64 19.64 18.93 19.08 19.64 19.99 21.26 20.36 20.11 21.81 21.74 20.45 21.06 22.44 23.41 20.86 21.72 22.51 22.41 22.62 23.04 24.50 23.93 23.83 23.55 23.51 22.34 26.59 29.18 28.04 26.35 23.76 23.50 25.79 24.80 23.87 24.19 24.01 24.56 24.46

GFSNGP_sfc_wetblb_078.txt.gz
Wetbulb
31.07 30.72 31.67 31.03 32.32 33.83 32.88 33.91 29.65 28.67 28.92 34.11 37.27 36.13 36.83 38.25 40.07 40.52 40.07 40.14 39.69 39.33 39.18 38.39 37.69 37.06 36.96 37.18 36.80 36.86 36.26 35.42 35.45 38.10 38.55 38.20 37.75 37.49 37.64 37.82 37.99 38.03 37.01 36.43
23.35 29.65 30.11 28.76 30.49 31.40 33.35 33.86 34.39 34.39 33.29 38.77 39.18 35.21 35.69 38.46 40.54 41.21 40.69 40.76 40.00 39.37 38.84 37.54 36.89 36.62 37.08 36.61 36.41 36.76 35.77 35.43 36.51 37.96 37.70 37.33 37.07 36.65 36.49 36.79 37.16 37.42 36.97 37.71
21.54 27.21 26.67 22.26 28.86 30.19 30.49 33.21 34.27 31.22 35.77 35.71 35.60 37.30 37.79 37.48 39.89 41.21 41.71 41.56 40.42 40.09 39.22 38.37 37.49 37.17 35.95 35.69 35.79 35.23 34.79 35.17 36.60 37.31 36.69 36.56 36.09 35.73 35.16 35.20 35.37 34.36 34.09 34.85
21.06 23.19 15.82 27.39 31.71 32.56 31.64 33.58 34.79 34.98 36.61 37.22 38.00 37.69 38.11 38.31 39.59 40.37 42.09 42.17 41.12 39.95 38.07 38.00 37.97 37.54 36.40 35.66 34.89 34.83 34.48 35.31 36.70 36.76 36.21 35.64 35.15 34.44 33.96 33.36 32.07 29.98 26.52 25.65
25.41 21.94 23.96 29.03 28.76 29.94 29.33 29.85 33.69 34.23 36.67 37.67 36.46 36.33 37.28 38.78 39.16 39.94 40.17 41.49 41.28 39.91 38.56 37.74 37.53 36.86 35.90 34.96 34.88 34.82 34.90 35.71 36.50 36.71 35.61 34.88 33.76 33.12 32.34 29.90 22.70 22.44 22.66 23.93
24.82 22.18 18.36 25.70 32.68 34.37 33.33 26.30 34.50 35.08 34.43 34.14 35.42 31.73 35.44 38.41 39.62 40.22 40.93 40.43 38.31 37.47 37.23 36.96 35.77 36.06 35.18 34.70 34.63 34.36 35.17 36.46 36.54 36.61 35.34 33.85 32.98 32.26 30.82 24.81 22.77 23.49 25.11 23.59
27.20 25.68 25.28 31.38 33.26 35.03 24.06 27.14 36.25 36.65 36.35 34.42 33.65 35.46 37.56 39.27 38.96 39.50 37.64 36.50 35.80 35.97 35.94 35.98 35.44 35.43 33.76 33.29 33.29 35.07 36.10 36.49 36.36 36.11 34.90 33.77 32.60 31.41 25.37 25.93 26.28 23.67 23.83 22.67
28.44 26.75 22.31 33.87 34.43 30.51 33.74 36.35 37.21 37.08 35.74 35.37 36.74 37.11 36.78 37.29 36.51 36.21 35.11 35.57 36.08 34.48 34.21 34.16 34.77 34.78 32.92 32.69 34.31 35.11 35.43 35.85 35.52 35.16 35.02 33.55 31.83 30.18 29.40 28.17 23.58 21.67 21.49 21.90
28.46 28.18 33.98 34.55 36.34 37.59 37.86 38.29 38.66 37.73 38.31 37.66 38.23 37.12 37.35 36.26 35.16 35.30 35.56 35.28 35.26 35.34 33.46 32.44 33.30 33.78 32.24 32.73 34.45 34.30 35.27 34.90 34.48 34.47 33.60 33.25 30.16 27.09 23.97 22.58 21.55 20.42 20.28 19.91
30.33 32.77 33.16 34.54 35.15 36.87 39.16 38.96 39.54 42.49 42.87 41.12 39.69 39.04 37.70 36.61 35.76 35.98 36.38 35.27 35.16 33.47 33.77 32.84 32.39 33.39 33.29 34.47 36.68 35.72 34.97 34.43 34.13 33.01 31.96 30.91 28.43 27.60 24.25 21.48 19.96 20.13 20.19 20.35
28.96 31.94 32.93 35.89 35.86 36.79 38.16 39.85 38.96 38.83 40.06 40.92 41.16 40.34 39.40 38.75 37.12 36.16 35.68 35.47 34.79 34.62 34.46 33.76 33.32 33.25 33.98 35.78 36.45 35.40 34.83 33.83 32.99 32.71 32.93 26.84 26.07 24.38 24.28 21.35 22.08 19.94 20.24 21.36
28.74 33.83 34.47 34.95 36.99 37.20 38.79 39.28 39.49 39.12 37.72 38.79 40.08 40.40 39.83 40.03 39.89 37.74 37.04 36.19 34.81 33.98 33.57 33.64 34.23 34.26 34.63 35.81 36.33 35.22 33.96 32.89 32.24 31.08 28.12 25.11 22.82 21.52 29.74 29.72 30.84 31.57 30.35 25.05
33.18 34.70 35.16 36.27 36.55 37.12 37.84 38.66 38.87 39.23 39.05 38.19 36.90 39.40 39.27 40.18 40.04 39.73 37.19 36.47 36.13 35.38 34.13 33.69 34.04 34.13 35.31 36.07 36.21 34.78 33.69 32.72 31.46 29.67 26.14 23.08 21.24 20.72 21.57 25.83 33.14 33.84 33.83 33.19
36.45 37.35 34.60 36.29 36.82 36.97 38.54 40.50 40.33 36.84 36.70 36.78 35.87 36.86 37.23 38.32 37.46 36.89 36.42 36.41 35.80 34.95 34.29 34.07 34.75 35.11 35.30 36.02 35.64 34.74 34.09 35.42 31.08 28.34 24.86 22.43 21.84 22.98 22.57 22.20 22.33 23.87 30.40 31.45
36.70 36.85 36.91 36.74 36.86 35.79 35.77 36.47 35.11 34.87 34.84 35.01 35.27 35.17 35.68 35.88 36.39 36.84 36.85 36.16 35.19 34.69 34.84 34.56 34.53 35.82 36.26 35.87 34.45 34.15 32.68 32.25 30.98 26.03 23.78 24.04 22.72 22.39 22.74 22.14 21.52 21.10 20.20 24.78
36.01 35.66 35.66 35.30 35.15 34.71 34.52 33.74 33.63 33.73 33.94 33.47 33.74 34.00 34.08 34.09 34.36 34.75 35.29 35.63 33.78 33.71 35.92 35.54 35.31 36.68 36.80 35.97 34.51 33.43 33.48 34.30 31.99 27.11 24.97 24.42 23.42 22.81 22.37 22.29 22.38 22.29 21.40 21.36
34.42 31.96 32.48 31.42 34.13 32.59 32.55 33.84 33.87 33.43 33.27 32.60 32.35 31.70 31.03 31.15 31.75 32.67 33.71 34.84 36.63 36.19 35.93 34.86 34.86 36.15 36.84 35.86 34.78 34.63 34.06 33.66 35.67 29.31 26.51 25.81 25.25 23.98 23.92 23.04 22.82 22.55 22.76 23.54
34.84 34.50 35.78 36.08 35.00 33.73 33.09 33.17 34.24 34.32 33.19 30.73 30.44 29.36 29.16 29.28 29.75 30.66 31.63 32.37 32.23 32.25 32.45 32.86 33.20 33.42 35.44 35.94 35.22 35.24 34.48 33.57 33.23 33.28 29.24 27.27 26.09 25.50 24.28 23.53 23.23 22.89 22.86 22.46
34.66 34.18 34.50 34.98 35.17 35.19 35.45 35.50 35.31 35.69 34.98 34.90 33.86 32.08 31.39 31.39 30.74 30.26 28.82 29.27 30.19 30.27 31.73 32.38 34.67 34.70 32.73 33.97 35.59 34.93 34.49 33.10 31.46 31.89 30.46 30.14 28.11 25.75 24.55 24.30 24.52 24.29 24.06 23.14
34.39 34.74 34.96 34.46 35.03 34.68 32.60 32.24 32.82 31.95 31.97 33.57 34.79 33.76 32.57 32.17 31.16 29.80 30.19 30.89 30.65 30.32 30.35 30.72 31.98 31.78 32.25 33.66 37.27 32.50 33.81 32.43 31.53 30.73 30.53 28.86 28.48 27.60 25.67 26.67 25.11 24.62 23.89 23.65
35.17 35.63 35.25 34.53 33.64 32.93 31.95 31.32 30.76 29.36 29.12 28.33 28.15 26.86 26.89 28.28 27.86 29.61 30.46 29.61 30.31 32.69 33.02 31.98 30.49 31.09 32.36 34.41 35.53 34.84 32.88 31.91 31.15 30.87 30.35 30.87 29.11 29.18 28.10 27.35 26.65 25.90 24.34 23.78
33.68 33.87 33.86 33.64 32.03 30.74 28.98 28.83 29.26 28.65 27.07 26.22 26.03 26.31 25.66 25.66 25.95 27.65 30.40 27.63 28.84 31.47 32.45 31.95 31.67 32.94 33.04 35.29 32.05 32.15 31.88 31.61 31.29 30.85 30.11 29.87 29.86 28.98 28.92 28.59 27.77 27.75 27.91 27.45
30.53 30.04 29.59 29.66 29.12 27.92 24.28 23.63 25.79 26.74 26.95 26.65 26.54 26.41 25.80 25.60 25.62 25.63 25.60 27.25 27.23 29.10 28.52 29.64 32.46 34.86 35.40 32.71 31.61 31.29 31.02 30.44 30.27 30.17 29.91 29.60 29.52 29.75 29.63 29.42 29.58 29.25 28.82 27.93
27.23 26.81 25.88 26.38 26.05 23.97 21.55 21.64 22.90 23.52 23.65 24.71 25.12 24.63 24.44 23.10 23.38 25.02 25.59 27.31 28.91 29.40 27.45 27.88 29.93 32.22 33.30 31.69 31.16 31.03 30.77 30.45 30.13 29.92 29.56 31.62 29.56 29.37 29.48 29.47 28.96 28.83 27.83 28.49
25.67 22.48 20.63 20.72 23.05 21.98 19.54 19.40 19.59 20.31 22.05 22.07 22.79 23.12 23.78 23.86 23.00 23.59 23.22 23.79 27.05 26.69 24.25 26.94 29.32 29.79 25.84 25.69 28.75 29.86 30.01 29.99 30.01 29.28 28.72 28.83 28.74 28.70 28.36 28.02 27.78 27.60 27.39 26.65
22.53 22.56 21.65 21.67 21.15 20.46 20.21 20.01 19.79 20.48 20.90 20.66 21.07 21.93 22.49 21.56 21.11 22.14 21.76 23.89 22.29 24.94 22.27 22.82 23.87 25.08 23.97 23.85 23.94 25.82 28.00 28.55 29.43 29.37 29.54 28.36 27.88 26.36 25.59 25.74 24.47 25.13 26.57 27.61
17.60 22.33 16.98 19.84 19.99 19.81 19.34 19.18 18.61 19.14 21.05 20.33 19.97 21.24 21.98 20.44 20.27 21.63 22.57 19.54 20.09 20.77 20.81 21.32 22.03 23.59 23.14 23.01 22.03 21.61 18.48 19.12 24.82 26.83 27.65 27.55 26.96 26.62 24.46 24.04 22.93 21.29 22.75 24.62

GFSNGP_sfc_wetblb_081.txt.gz
Wetbulb
31.34 31.12 32.74 31.85 32.03 32.64 31.49 33.00 29.22 30.12 31.01 35.35 37.55 38.99 37.85 39.05 40.09 41.32 41.68 41.76 41.96 41.65 41.10 40.74 39.69 39.51 39.48 39.54 38.99 38.97 38.43 38.14 38.39 39.54 39.76 39.50 38.86 38.54 38.61 38.77 38.62 38.53 37.96 37.82
26.39 31.59 29.90 28.65 31.34 32.58 32.95 33.41 33.35 33.89 33.09 40.05 41.19 38.39 39.09 39.45 38.45 40.66 41.70 42.65 42.64 41.93 41.23 40.50 40.00 39.27 39.04 38.80 38.63 38.77 37.88 37.51 38.18 38.87 38.77 38.55 37.83 37.60 37.56 37.69 38.08 38.17 38.33 38.50
26.18 28.33 27.34 22.91 29.26 31.51 32.96 33.83 34.49 31.07 35.75 39.04 38.42 39.11 40.75 41.76 39.73 40.33 42.57 42.84 42.36 42.07 41.95 41.35 40.13 39.86 38.61 38.20 38.22 37.59 37.11 37.20 38.09 38.26 37.90 37.54 36.96 36.44 36.35 36.21 36.21 35.74 36.42 37.45
26.77 25.57 18.00 28.56 33.16 33.20 32.63 34.35 35.10 35.34 37.21 38.31 39.07 40.81 39.70 39.28 39.56 40.48 42.77 43.23 43.28 42.83 41.25 40.77 40.23 39.27 38.41 37.78 37.25 36.86 36.36 36.81 37.71 37.61 37.18 36.53 36.04 35.22 35.08 34.65 33.80 32.70 32.04 32.68
25.44 22.78 24.66 29.81 29.18 29.70 29.11 29.91 34.05 34.52 36.75 37.90 38.12 37.45 38.37 39.64 39.75 41.34 42.64 44.11 44.32 43.65 42.06 40.06 39.56 38.95 37.99 36.73 36.49 36.21 35.96 36.54 37.25 37.56 36.32 35.55 34.83 34.06 32.97 31.99 30.43 29.37 29.75 30.78
25.73 20.68 18.94 26.57 32.26 34.62 33.72 27.19 34.96 34.67 34.73 34.56 34.95 30.98 35.81 39.54 39.84 39.64 40.33 42.01 41.92 40.66 39.57 39.48 38.55 38.37 37.00 35.87 35.80 35.52 36.11 36.88 37.56 37.60 36.16 34.89 33.88 32.95 32.00 30.21 29.24 30.16 29.86 30.12
27.16 24.72 26.18 31.68 33.96 35.23 26.38 28.08 36.66 38.22 38.03 36.27 33.42 36.23 38.13 39.93 40.30 40.21 40.03 39.32 38.27 38.50 38.44 38.46 37.68 37.72 36.46 35.83 35.58 36.79 37.24 37.61 37.37 37.23 35.71 34.55 33.30 32.36 30.12 29.29 29.07 28.26 28.80 28.11
28.63 26.21 23.32 34.79 33.53 30.65 33.98 36.48 38.23 38.69 38.13 36.58 36.23 37.62 38.16 38.20 38.13 37.70 36.83 36.84 36.80 36.68 36.44 36.16 36.94 37.16 35.43 35.15 36.43 36.91 36.89 36.79 36.66 36.18 35.65 34.41 32.83 31.37 30.48 29.58 27.94 26.44 26.29 26.53
28.49 28.49 34.18 34.64 35.57 37.37 37.75 37.65 39.02 39.42 39.92 37.95 37.87 38.25 38.45 37.23 36.40 36.49 36.28 35.77 36.26 35.90 34.87 35.34 35.96 36.79 35.09 35.38 36.05 36.03 35.74 35.85 35.70 35.33 34.61 33.63 32.03 30.83 29.41 28.33 26.82 25.83 25.19 25.03
30.32 32.96 33.26 34.80 35.19 36.32 38.28 39.05 40.49 42.73 43.13 40.38 39.27 39.11 37.93 36.79 35.88 35.71 35.77 35.50 35.69 35.14 34.37 34.32 35.27 35.13 35.58 35.00 35.99 35.58 35.32 35.31 34.85 33.94 32.99 32.75 31.94 30.90 28.37 26.63 25.42 24.89 24.09 24.36
28.91 32.24 33.07 35.24 35.54 36.44 36.76 38.85 40.19 40.04 41.02 41.65 41.38 40.32 39.64 38.31 36.82 36.65 36.79 36.93 36.31 35.67 35.19 35.68 34.70 35.36 35.47 35.94 36.88 35.63 35.41 34.89 34.05 33.71 33.57 31.59 31.05 29.93 28.55 27.04 26.77 25.01 24.98 25.31
28.74 34.32 33.71 34.84 35.43 37.07 37.19 39.03 40.15 39.59 38.77 39.59 40.74 40.76 40.87 40.11 39.51 38.23 36.96 36.69 35.63 35.24 35.20 35.25 34.85 35.04 35.18 36.33 36.55 36.02 34.79 34.05 33.58 33.20 33.00 31.50 30.21 28.56 32.42 31.71 31.81 32.49 31.63 27.28
33.89 35.18 34.45 35.96 37.76 37.14 36.80 38.33 38.86 38.95 38.71 38.44 38.22 39.85 40.33 40.19 40.04 40.42 38.23 37.11 36.09 36.06 35.79 35.27 34.87 34.81 35.68 36.47 36.54 35.62 34.76 33.82 33.73 33.10 31.66 30.14 27.61 26.13 25.51 27.40 33.02 33.04 33.32 33.20
37.30 36.82 35.41 36.75 36.56 37.11 38.69 39.46 40.18 37.46 37.21 36.86 36.93 37.16 38.06 38.92 38.73 37.87 37.47 37.89 37.20 36.40 35.71 35.26 34.95 35.18 36.26 36.63 36.08 35.34 35.21 35.68 33.26 32.90 31.53 29.95 27.54 26.04 25.31 24.82 24.53 26.85 32.29 33.92
37.55 37.25 37.14 35.20 36.07 34.98 35.43 36.14 35.28 35.07 34.97 34.90 35.06 35.24 35.88 35.80 35.73 35.80 36.58 37.11 36.18 35.53 35.42 35.50 35.12 35.81 36.68 36.82 35.38 34.82 34.22 34.62 33.54 32.52 30.16 29.52 27.62 25.87 25.45 24.67 24.49 24.38 24.14 27.71
37.62 36.91 37.31 35.21 35.41 34.44 34.99 34.48 33.86 33.72 33.83 33.60 34.02 34.04 33.75 33.87 34.18 34.76 35.20 35.97 35.29 35.22 35.72 36.10 35.76 36.75 36.72 36.33 35.49 34.84 34.17 35.17 34.80 31.98 30.33 29.55 26.55 25.80 24.98 24.74 24.59 24.75 24.45 25.01
34.06 33.70 35.13 33.57 34.87 34.24 33.59 34.15 34.30 33.72 33.16 32.66 31.78 31.22 31.12 31.07 31.66 31.76 32.21 33.23 34.19 35.10 36.20 36.72 36.26 36.71 36.93 36.46 35.00 34.67 34.19 34.37 35.95 31.04 29.58 29.14 28.23 26.22 25.84 25.48 25.21 25.27 25.73 26.77
34.70 35.51 36.17 36.49 35.13 33.79 33.45 33.71 34.15 34.10 33.00 31.67 31.26 31.00 30.74 30.40 30.11 31.06 31.32 30.62 31.40 32.33 33.05 34.46 34.91 34.73 35.71 35.60 35.05 35.41 34.45 33.93 34.23 33.89 30.77 29.48 28.16 27.88 26.77 25.91 25.57 25.28 25.91 25.25
34.75 34.21 34.80 35.10 35.24 34.99 34.94 34.71 34.70 34.78 35.12 35.07 34.73 33.19 32.20 31.79 31.07 30.49 30.61 30.64 29.70 29.87 30.58 30.96 33.88 34.79 33.69 34.32 34.60 33.98 34.43 33.88 33.16 33.53 33.26 32.22 31.27 29.67 27.25 26.90 26.62 26.09 26.21 25.68
34.66 34.98 34.20 34.25 34.84 34.04 32.41 32.60 32.64 31.12 30.76 31.52 32.64 31.07 30.19 30.32 30.28 30.61 31.53 29.90 30.34 31.17 33.33 32.57 32.26 31.68 32.19 32.86 36.63 33.25 33.37 33.92 33.40 32.57 32.34 31.50 30.82 29.98 29.21 29.08 28.13 27.88 26.81 26.01
35.45 35.58 34.89 33.89 32.12 32.32 31.85 31.64 31.34 30.00 29.07 28.69 27.50 26.16 25.88 25.88 25.81 27.16 30.00 29.79 28.59 30.28 32.49 33.34 32.61 31.84 32.86 34.42 35.18 34.49 33.44 33.12 32.58 32.17 31.35 32.07 30.44 30.65 29.63 29.05 28.78 28.83 27.76 27.34
34.68 34.53 34.19 34.04 32.92 29.68 27.20 28.34 28.84 28.17 27.16 26.24 26.34 26.25 25.59 25.02 24.93 27.05 27.71 25.94 27.51 30.98 29.98 30.61 31.64 33.61 33.98 35.60 33.17 32.60 32.53 32.55 32.16 31.91 31.42 31.14 30.99 30.24 30.06 29.79 29.17 28.86 28.75 28.86
30.08 30.07 30.10 30.06 29.35 27.42 25.24 24.81 26.01 25.94 25.88 25.80 25.16 24.38 23.70 23.90 24.45 24.45 24.96 27.16 27.89 29.82 28.20 27.53 31.32 32.86 34.08 32.63 31.81 31.83 31.61 31.34 31.19 31.16 31.14 31.10 30.76 30.77 30.61 30.31 30.36 30.35 30.08 29.60
27.95 26.72 25.78 26.46 25.86 24.15 22.07 20.97 21.60 22.35 22.58 23.45 24.13 23.61 23.52 22.50 22.99 25.02 25.06 26.67 28.57 29.30 27.81 28.22 30.08 31.43 30.15 28.02 30.02 30.89 31.02 30.91 30.88 30.93 30.37 32.03 30.45 30.15 29.94 30.01 29.96 30.55 29.78 30.07
25.51 22.29 20.49 20.74 22.98 22.13 19.43 18.79 18.06 18.32 21.03 21.12 21.87 22.64 23.63 23.45 22.67 23.12 22.95 23.06 25.68 26.04 24.51 26.55 28.73 29.19 25.45 24.97 24.92 26.73 28.65 29.28 29.63 29.94 29.52 29.46 29.42 29.32 29.42 29.21 28.91 29.05 28.96 28.55
23.43 23.34 22.42 21.84 21.68 20.67 20.27 19.78 19.48 19.73 20.25 20.11 20.59 21.56 22.48 22.08 21.17 21.76 21.41 23.32 21.46 23.72 21.44 22.18 23.57 24.86 23.89 23.70 24.08 23.45 23.52 24.63 26.80 27.22 28.26 28.47 28.77 28.47 28.08 27.47 25.95 26.66 27.46 27.69
19.40 23.60 17.47 20.00 20.36 20.21 19.47 19.19 18.56 18.70 20.64 20.17 19.56 20.56 21.76 21.33 20.21 21.52 22.30 19.40 19.61 19.97 19.99 20.62 20.94 22.16 22.49 22.75 22.04 21.81 19.52 19.08 22.07 22.35 22.64 24.43 26.08 27.00 27.04 26.69 25.81 24.58 23.70 23.48

GFSNGP_sfc_wetblb_084.txt.gz
Wetbulb
34.88 34.76 35.37 34.74 35.12 36.36 34.06 35.70 31.37 34.79 35.40 38.72 41.71 43.22 44.85 45.72 45.22 45.54 46.93 46.96 47.88 48.14 48.41 48.06 47.00 46.81 46.50 46.30 45.19 44.96 44.15 43.81 43.78 43.93 44.23 43.77 42.93 42.62 41.64 40.71 40.56 41.59 41.06 40.53
32.30 35.69 34.85 32.74 35.40 36.35 36.34 36.45 36.27 36.60 36.18 43.14 44.56 45.28 44.62 44.89 45.00 44.56 45.79 47.57 48.01 48.65 48.83 48.05 47.59 46.57 46.05 45.75 44.87 44.41 43.87 43.37 43.32 43.24 42.65 42.37 41.52 40.86 40.16 39.55 39.48 39.98 39.63 39.46
29.50 32.46 31.54 29.29 32.99 34.46 35.75 37.88 37.47 33.57 38.88 43.20 42.41 42.95 43.94 45.14 45.80 46.03 46.98 47.32 48.45 48.97 48.92 49.10 48.49 47.76 45.92 45.59 45.04 43.72 43.40 43.01 42.44 42.45 41.60 40.79 39.96 38.81 38.32 38.14 38.38 38.67 39.19 39.24
30.20 29.65 23.47 34.19 36.25 37.32 36.19 37.78 39.77 39.41 40.49 42.25 42.85 44.23 44.80 46.08 45.57 45.98 46.67 46.71 48.39 49.75 49.83 50.15 49.50 47.62 47.00 45.17 43.59 42.90 42.27 41.51 41.75 41.36 40.58 39.62 38.30 37.52 37.41 36.84 36.57 36.45 36.30 36.80
28.74 27.90 31.95 34.50 34.66 33.67 33.56 34.47 39.74 38.75 40.28 41.58 42.67 42.06 41.74 45.06 46.06 46.93 48.09 48.33 49.23 50.69 51.03 50.17 48.01 47.07 45.10 43.00 42.86 41.98 41.12 41.18 40.65 40.83 39.77 38.33 37.05 36.46 34.83 33.34 33.23 33.65 35.18 35.54
30.31 25.92 23.35 33.18 37.42 38.82 38.44 31.87 39.74 39.11 39.96 40.90 40.52 37.19 42.84 44.35 45.32 46.06 47.51 47.44 48.29 49.65 48.43 48.14 47.22 46.12 44.12 42.58 41.72 40.71 40.76 40.96 41.10 40.98 39.96 37.94 36.41 34.69 34.01 33.64 33.07 34.57 33.89 34.61
29.55 28.54 31.89 38.08 38.94 40.20 29.81 34.17 41.96 42.87 43.27 42.44 39.18 42.18 43.11 43.93 44.57 44.14 44.90 45.66 47.29 46.53 46.69 46.79 44.64 44.11 42.63 41.88 40.68 41.53 41.36 40.88 40.56 40.40 39.40 37.47 34.86 34.11 32.47 31.83 33.12 33.67 33.53 33.78
31.01 27.98 25.53 38.29 37.38 34.13 40.02 42.40 43.10 44.22 44.35 42.69 42.66 42.18 42.89 42.73 42.78 42.52 42.38 41.98 43.77 44.50 43.72 43.06 43.05 42.55 41.70 40.24 41.46 40.53 40.01 39.57 39.50 39.16 37.67 36.03 34.63 33.18 31.78 31.92 32.37 31.69 31.29 31.52
34.31 33.88 38.95 40.26 41.53 43.37 43.76 42.87 44.19 44.94 45.21 43.27 42.24 42.64 43.08 42.58 42.25 42.33 42.55 42.26 42.85 42.93 40.93 41.12 42.02 42.67 40.69 40.99 40.30 39.86 39.38 39.00 38.62 38.17 36.62 35.24 33.63 32.14 31.09 32.43 31.84 30.85 30.23 29.99
34.49 39.15 39.52 40.03 42.17 42.91 43.81 44.00 45.50 46.60 45.56 41.93 41.82 43.68 43.12 42.22 41.62 42.00 41.60 41.69 41.83 41.54 41.07 40.05 41.10 41.26 42.37 40.75 40.77 39.87 39.17 38.66 38.05 36.41 34.74 33.92 33.66 32.90 32.52 32.45 31.84 31.30 30.04 29.18
34.47 37.70 39.81 41.17 42.15 43.31 42.43 42.35 43.26 45.30 45.81 45.73 45.45 44.19 43.84 42.80 41.68 41.71 41.39 40.87 40.95 41.00 40.91 40.63 40.23 39.98 40.24 39.73 39.95 39.17 38.94 37.65 36.93 35.76 35.14 32.94 32.94 32.54 32.41 34.04 33.30 31.74 31.20 30.45
33.31 36.93 37.61 40.18 42.15 42.64 41.86 41.96 43.15 44.26 43.41 44.48 45.21 44.58 44.41 44.10 43.32 41.68 41.28 39.09 37.87 38.44 37.52 39.04 38.09 38.82 39.05 39.83 39.02 38.62 37.39 36.83 36.16 34.74 34.57 33.13 32.50 31.49 35.54 34.58 33.53 33.38 32.46 31.23
36.73 38.76 38.85 41.07 41.53 43.69 41.80 42.00 43.77 43.50 44.02 43.20 42.84 44.30 44.13 43.70 43.43 42.65 41.05 39.76 39.37 39.76 38.57 37.38 36.77 36.91 38.47 38.81 38.21 37.06 36.19 36.35 35.83 34.73 33.87 32.83 32.38 31.99 31.76 33.56 34.86 34.16 34.19 34.32
36.38 38.04 38.31 41.28 41.18 42.95 43.02 43.13 42.77 41.32 41.17 41.19 41.21 41.60 42.37 42.52 41.93 41.45 40.93 41.08 40.90 40.35 39.96 39.36 37.14 36.91 38.31 38.44 37.44 36.78 36.93 36.76 35.18 34.95 33.89 33.39 32.81 32.25 33.03 30.80 28.97 30.08 34.03 34.38
35.58 37.74 39.75 40.77 40.83 40.52 40.89 41.38 40.51 39.35 38.74 38.62 39.55 39.60 40.23 40.16 39.98 39.53 39.67 40.12 39.88 39.58 39.70 39.19 38.23 37.23 38.32 38.04 36.71 36.26 35.49 36.64 36.48 35.76 34.34 33.78 32.64 31.65 31.26 29.53 29.22 29.96 30.53 31.89
37.67 38.98 39.60 39.20 39.82 39.38 39.73 39.65 39.92 39.01 39.19 38.63 38.68 38.17 37.10 37.29 37.61 37.72 38.08 38.67 38.94 39.37 39.86 39.24 38.89 39.15 38.00 37.44 36.61 36.40 35.95 36.19 36.53 35.45 33.76 33.03 31.82 31.21 30.85 30.70 30.17 29.47 29.21 29.31
34.31 34.43 37.69 37.78 37.86 38.22 39.32 39.46 40.16 38.97 37.93 38.06 36.66 35.74 35.51 35.58 36.13 35.98 36.24 37.01 37.50 37.78 38.39 38.68 39.17 39.75 38.90 37.09 35.95 35.70 35.33 34.96 37.04 33.91 32.56 32.19 32.35 30.96 32.00 32.03 30.83 29.99 29.72 30.43
37.74 38.21 38.00 38.16 38.77 37.04 36.41 36.89 37.42 37.34 36.56 35.26 34.81 34.78 34.06 33.74 33.11 33.27 33.23 33.14 34.61 36.48 35.43 35.31 36.33 36.34 37.39 37.71 36.73 36.18 35.57 35.08 35.26 35.14 32.27 31.22 31.23 31.66 31.21 30.47 29.66 29.31 29.39 29.39
36.56 35.95 36.58 37.09 37.99 37.71 37.61 37.23 37.05 36.82 36.72 36.83 36.64 34.94 34.36 33.61 32.94 32.65 33.43 32.55 32.47 33.46 33.72 35.38 34.61 35.34 36.34 35.96 36.65 36.65 36.44 35.95 35.01 35.33 33.97 33.19 32.42 31.28 30.18 29.91 29.73 29.55 29.67 29.87
35.98 36.17 35.90 35.29 35.76 35.48 34.31 34.64 33.80 32.43 32.39 32.82 33.21 31.96 31.18 30.24 29.75 30.95 33.36 31.41 30.37 31.34 32.86 33.93 34.35 33.70 33.78 35.04 36.07 36.04 35.33 35.30 34.77 34.60 34.17 33.62 32.61 31.85 31.29 31.01 29.98 30.01 30.55 30.61
35.84 35.77 34.71 33.89 33.10 32.97 32.57 32.73 32.41 31.00 30.23 30.51 29.96 29.00 28.90 29.02 29.84 31.55 31.86 31.83 30.16 31.38 32.04 31.97 32.42 33.67 33.48 34.81 35.76 35.36 34.23 33.92 33.82 33.57 32.76 33.07 32.37 32.45 31.80 31.20 30.09 30.04 29.79 30.16
34.62 34.23 34.17 34.30 33.29 30.11 29.61 30.70 30.95 30.23 29.61 29.10 29.07 28.74 28.18 27.54 28.54 29.80 29.62 28.53 30.18 31.01 31.04 30.59 31.98 33.06 33.83 35.38 33.48 33.42 32.93 32.79 32.77 32.75 32.51 32.60 32.09 31.93 31.52 31.31 30.73 30.64 30.73 31.38
31.27 31.74 32.29 32.28 31.28 29.31 27.51 27.58 28.14 28.31 27.90 27.70 26.98 26.19 26.30 26.88 28.32 28.37 27.68 28.99 29.57 30.69 30.12 29.56 31.61 32.38 31.94 31.17 31.98 32.77 32.89 32.85 32.86 33.13 33.44 33.61 33.61 33.49 32.81 33.25 33.24 33.09 32.81 32.26
31.32 29.37 28.68 28.79 28.85 27.48 25.89 24.84 25.93 26.19 26.32 26.24 26.64 26.30 26.55 26.74 27.23 28.21 27.23 27.19 27.61 28.75 28.21 28.64 30.27 30.96 29.63 28.47 28.85 29.94 30.60 31.01 31.08 31.42 31.71 32.38 32.76 32.71 32.34 32.20 32.11 32.34 32.58 32.44
30.83 28.54 26.82 26.21 26.36 26.47 24.69 24.26 23.78 23.90 24.52 24.91 25.26 25.85 26.27 26.73 25.77 26.07 25.68 25.29 25.81 26.38 25.84 26.15 27.64 28.42 27.42 27.32 27.52 27.36 27.67 28.62 29.22 29.74 29.75 30.02 30.10 30.22 30.56 30.82 30.70 30.69 30.96 30.41
27.93 27.23 27.96 26.87 26.44 25.45 24.81 23.98 24.02 24.29 24.14 24.03 24.58 25.04 25.66 25.77 24.67 24.94 24.65 24.97 24.13 24.72 23.90 24.30 25.01 25.66 25.33 25.42 26.33 25.81 25.94 25.96 26.06 26.73 27.59 27.39 27.66 28.09 28.59 28.62 28.31 28.23 28.75 29.30
27.13 27.43 25.45 24.80 24.61 24.33 24.00 23.77 23.08 23.48 24.18 24.00 23.84 24.48 24.45 25.09 24.05 24.85 24.25 23.29 23.06 22.89 22.98 23.27 23.65 24.02 24.37 24.79 24.74 24.66 23.99 24.19 24.54 25.29 26.36 25.98 25.53 25.70 26.09 26.50 26.92 27.72 27.93 27.39

GFSNGP_sfc_wetblb_087.txt.gz
Wetbulb
36.69 35.99 37.24 36.36 36.23 36.89 34.60 35.98 32.32 35.59 36.38 40.07 42.64 43.78 45.46 47.40 47.20 46.75 46.71 48.57 49.04 49.37 49.80 50.35 49.82 49.37 49.43 49.05 48.06 47.10 46.22 45.91 45.70 46.02 46.25 45.96 45.05 44.43 43.75 43.07 42.42 42.73 42.25 41.69
32.72 36.00 36.06 33.72 36.38 37.37 37.40 36.92 36.63 37.29 37.07 43.57 44.99 45.93 45.34 45.99 46.36 46.31 46.57 47.45 49.38 49.90 50.44 50.16 49.90 49.21 48.78 47.99 47.03 46.83 45.98 45.50 45.93 45.53 45.06 44.43 43.92 42.97 42.23 41.12 40.84 40.71 40.52 40.35
29.97 34.60 33.48 30.14 34.54 36.53 37.46 39.10 38.49 34.55 39.42 43.77 43.15 43.90 44.70 45.38 46.09 46.07 46.90 48.18 48.59 49.84 50.48 51.04 50.74 50.35 48.44 48.26 47.53 46.07 45.73 45.46 44.82 44.72 43.66 43.25 42.51 41.43 40.30 39.53 39.48 39.45 39.96 39.65
30.22 31.47 24.39 35.38 38.99 40.73 38.70 39.69 41.01 40.70 41.36 42.82 43.48 44.87 45.88 46.72 46.02 46.13 47.28 48.35 49.21 50.17 51.30 52.00 52.09 51.07 50.08 48.71 47.04 45.57 45.28 44.91 44.44 44.09 43.17 42.08 40.83 39.93 39.22 38.64 38.09 38.37 37.95 37.17
29.14 28.04 33.19 35.69 35.34 35.33 34.87 35.32 40.82 39.88 41.62 42.85 43.86 44.19 43.72 47.03 47.66 47.00 47.62 49.03 50.12 50.48 51.59 52.59 51.96 51.10 49.26 47.32 46.15 44.80 44.38 43.92 43.66 43.34 42.29 40.58 38.89 38.70 36.93 34.34 33.66 34.17 35.92 36.60
31.83 27.00 23.74 33.83 37.81 40.37 40.30 31.93 42.09 41.37 41.53 42.59 43.39 37.89 43.06 45.33 45.74 45.93 47.63 49.12 49.33 50.58 51.25 52.07 51.83 50.42 47.87 45.72 44.76 43.72 43.85 43.73 43.51 43.06 41.87 39.82 38.19 36.87 35.66 34.69 33.16 34.88 35.41 36.22
30.89 28.88 32.58 39.57 40.17 41.62 29.71 34.65 43.54 43.96 44.31 44.27 41.64 43.54 45.43 45.60 45.38 46.04 45.61 47.92 48.49 49.88 50.76 51.26 50.65 48.89 46.12 45.52 44.26 45.11 44.41 43.42 42.67 42.38 41.31 39.88 36.60 35.62 34.01 33.12 33.12 34.33 33.96 34.34
31.74 28.62 25.70 40.89 39.27 34.59 40.46 43.81 44.09 44.85 45.95 44.72 44.62 44.33 44.12 44.95 44.53 44.61 44.29 43.88 46.93 47.56 48.23 48.59 47.60 46.74 45.48 44.01 44.82 43.88 43.10 41.84 41.50 41.19 39.53 38.09 36.52 34.60 33.08 32.33 32.38 33.45 33.01 32.53
34.81 34.26 40.35 41.86 42.27 44.17 44.73 44.00 44.68 46.09 46.92 46.61 44.50 44.19 44.92 44.48 44.38 44.41 44.48 43.92 45.20 44.92 43.16 44.01 45.00 45.81 44.07 43.66 43.30 41.86 41.15 40.66 40.47 39.75 38.65 37.43 35.27 33.05 31.35 31.69 32.04 32.48 31.24 30.69
35.48 39.06 40.70 42.41 43.51 44.28 45.43 44.77 46.25 46.94 47.40 46.33 43.97 45.43 45.12 44.71 43.95 43.96 43.92 43.90 44.62 44.05 43.09 42.34 44.04 44.42 44.84 43.52 42.65 41.51 40.51 40.21 39.95 38.24 37.05 36.15 34.56 33.18 31.88 31.46 32.14 32.10 30.21 29.41
35.04 38.78 40.70 42.76 43.21 43.71 44.29 45.15 44.48 45.46 46.73 47.00 47.14 46.24 45.80 44.89 44.09 43.71 43.43 43.12 43.78 43.81 43.34 42.70 42.94 42.79 43.21 42.71 42.42 41.07 40.91 40.10 38.79 37.46 36.32 34.35 33.54 32.76 32.50 33.89 34.83 33.14 31.63 30.78
31.63 38.53 38.69 40.55 42.42 43.61 43.02 43.24 44.41 44.11 45.20 45.99 46.61 46.05 46.12 45.47 44.89 42.93 43.36 42.23 41.41 40.99 41.44 41.52 41.40 41.15 41.17 41.11 41.47 40.89 39.65 38.04 37.81 36.44 36.08 33.92 32.52 32.01 36.05 36.18 37.17 36.53 35.93 32.86
34.17 37.71 38.27 40.61 43.20 44.75 43.75 44.08 44.25 45.34 45.77 44.40 44.97 45.84 45.65 44.88 44.55 43.12 43.27 41.63 41.01 41.49 40.87 40.09 39.05 38.90 39.25 39.48 39.17 38.88 38.10 36.56 36.05 36.11 35.01 33.12 32.21 31.68 30.82 34.12 37.11 34.89 35.15 34.68
37.55 36.29 35.75 41.59 40.40 42.62 43.39 44.35 44.60 43.88 43.83 43.77 42.93 43.71 44.23 43.72 43.53 43.16 42.14 42.42 42.67 42.31 41.51 40.80 39.18 37.95 38.57 38.84 38.15 37.40 37.09 37.65 36.28 36.24 34.17 33.42 32.88 32.47 32.81 32.68 32.14 32.25 35.57 35.14
35.90 37.46 39.00 39.07 41.85 42.33 42.41 42.95 41.88 40.90 40.29 40.21 41.56 41.28 42.14 41.77 41.18 40.63 40.95 41.19 41.50 41.48 41.49 41.00 40.17 39.92 40.14 39.20 37.94 37.00 36.08 35.95 35.65 35.56 35.01 34.42 33.38 32.81 33.00 32.90 31.46 30.10 30.25 32.82
36.34 38.43 39.92 39.10 40.47 41.30 41.12 41.24 42.06 41.30 41.44 40.95 40.72 40.02 39.30 39.46 39.33 39.26 39.29 39.52 39.43 39.73 40.43 40.53 40.44 41.26 40.54 39.03 37.65 37.09 36.25 36.76 36.84 35.09 34.27 34.20 33.39 32.47 32.01 31.43 30.61 30.06 29.48 29.34
33.47 34.43 35.53 34.13 39.21 40.08 40.28 41.52 42.24 41.33 40.61 40.52 38.68 37.87 37.85 37.86 38.20 37.76 37.23 37.10 37.28 38.21 38.47 38.19 37.83 38.56 39.76 39.13 37.68 36.95 36.23 35.73 37.49 35.19 33.71 33.17 32.79 31.85 32.21 32.04 31.85 31.89 31.58 31.49
36.91 37.29 38.36 37.90 37.87 39.39 38.20 38.64 39.28 39.45 38.82 37.58 37.41 37.42 36.63 35.78 34.75 34.83 34.84 35.32 36.07 36.43 35.24 35.77 35.92 35.29 37.35 38.31 37.87 37.41 36.07 35.34 34.76 35.56 33.73 32.66 32.37 32.67 32.05 31.99 32.50 32.38 32.31 31.58
38.04 37.06 36.74 37.16 38.42 38.74 38.48 38.28 37.85 37.93 38.06 38.34 38.12 36.70 35.95 34.65 33.88 33.53 34.38 33.71 33.25 33.38 32.64 34.36 34.64 35.33 35.40 36.40 36.53 36.89 36.19 35.55 34.85 34.62 34.70 34.53 33.50 32.85 31.75 31.64 31.67 31.55 31.64 31.45
36.69 36.67 36.12 35.32 36.01 36.13 35.22 35.62 35.14 33.87 33.41 34.08 34.07 33.19 32.37 30.98 30.90 31.72 34.20 31.26 30.50 30.91 32.75 32.82 32.57 32.70 34.24 34.83 36.55 35.04 34.74 34.75 34.60 34.22 33.72 33.63 33.02 32.45 32.17 32.12 31.38 30.99 30.82 30.66
35.75 35.75 34.93 34.55 33.82 33.94 33.84 34.10 33.34 31.79 31.50 31.86 31.41 30.46 30.03 30.24 30.86 31.58 32.02 32.05 30.40 31.25 32.39 32.08 32.30 32.78 33.76 34.58 34.84 33.64 33.54 33.16 33.20 33.35 32.79 32.97 32.89 33.09 32.37 32.06 31.42 31.21 30.72 30.78
34.28 34.21 34.00 34.19 32.61 30.42 30.91 31.76 31.96 31.47 30.93 30.39 29.93 29.23 28.60 28.16 29.04 30.26 30.21 28.62 30.40 31.29 31.55 31.05 31.89 32.41 32.91 33.13 32.39 32.23 32.55 32.35 32.13 32.06 31.90 31.99 31.88 31.88 32.15 32.33 32.03 31.82 31.05 30.99
31.33 31.02 32.19 32.94 32.11 30.59 29.21 28.83 29.17 29.29 28.98 28.61 27.80 27.06 27.18 27.40 28.34 28.54 27.83 29.42 29.56 30.15 30.07 30.06 31.14 31.81 32.01 30.41 30.50 31.02 30.88 31.62 31.55 31.72 31.88 31.98 31.97 32.05 32.02 32.10 32.39 32.44 32.37 32.26
33.28 32.18 29.68 29.60 30.09 29.10 27.42 26.99 27.22 27.38 27.28 27.22 27.39 27.35 27.22 27.53 28.23 29.45 28.39 28.21 27.79 28.23 27.96 27.81 29.02 30.15 30.19 28.90 28.70 28.94 29.30 29.46 30.13 30.57 30.77 31.64 31.32 31.52 31.75 31.73 31.57 31.75 31.73 31.99
32.73 31.77 28.98 28.60 27.75 27.78 26.94 26.29 25.57 25.33 25.75 25.97 26.41 26.89 27.39 27.94 26.35 27.17 26.64 26.31 26.68 26.43 26.26 27.03 27.89 28.08 26.87 26.70 26.88 27.09 27.09 27.52 27.71 27.91 28.25 28.66 28.56 29.02 29.67 29.92 30.10 30.19 30.43 30.66
31.51 30.98 30.92 29.00 28.33 27.53 26.75 25.66 25.08 25.80 25.27 24.90 25.89 26.29 26.53 26.95 26.21 25.87 25.62 25.91 25.27 25.37 24.57 24.67 25.03 25.54 25.36 25.25 25.44 25.57 25.46 25.57 25.65 25.72 26.28 26.13 26.78 26.53 26.89 26.94 27.06 27.41 27.97 28.22
31.14 31.77 29.03 27.37 27.00 26.65 25.99 25.56 24.68 24.88 25.58 24.92 24.68 25.57 25.50 25.86 25.78 25.63 25.69 24.62 24.25 24.05 23.91 23.97 24.22 24.55 24.57 24.49 24.52 24.35 24.21 24.02 24.52 24.01 24.01 24.45 25.00 24.96 24.83 24.75 25.20 25.45 26.14 25.74

GFSNGP_sfc_wetblb_090.txt.gz
Wetbulb
34.82 36.28 36.02 35.18 34.80 36.36 34.00 34.82 29.97 32.95 34.44 38.31 40.76 41.06 39.26 41.16 42.70 42.56 43.11 43.93 45.03 44.73 44.16 44.69 45.30 45.67 45.47 44.81 44.11 43.91 43.38 43.14 43.11 43.81 43.78 43.10 42.26 41.90 41.23 40.55 39.76 40.15 39.83 39.09
32.21 36.13 35.45 32.86 35.53 36.49 36.14 36.31 35.78 35.88 35.03 41.62 43.17 43.18 42.75 42.08 42.90 42.34 42.21 44.00 44.39 46.01 45.71 45.30 44.63 44.70 45.38 44.42 43.58 43.50 42.46 42.21 42.85 42.55 42.27 41.84 41.22 40.39 39.85 38.92 38.13 37.98 38.10 39.94
27.85 33.56 32.11 28.89 32.71 34.72 36.15 37.82 37.03 32.35 37.23 41.38 40.58 41.52 41.44 41.68 42.76 42.74 43.27 43.59 44.23 45.00 45.99 45.83 45.42 45.25 43.78 43.31 43.38 42.57 42.19 42.50 42.55 42.32 41.20 40.52 39.81 39.18 38.95 36.62 36.75 36.81 38.76 38.98
29.67 31.01 21.92 33.14 36.67 38.44 36.92 38.21 39.09 38.99 39.39 40.96 40.67 41.07 41.73 41.58 40.15 41.46 43.22 43.88 44.28 44.91 46.17 46.98 46.75 45.86 44.90 44.38 43.03 42.18 41.75 41.86 42.02 41.48 40.58 39.58 38.50 38.19 38.57 36.06 36.36 37.71 37.33 36.05
27.71 26.15 30.79 31.84 33.44 34.65 33.79 32.98 38.60 37.56 38.93 39.58 40.31 38.83 38.93 42.73 41.89 41.08 42.23 43.60 43.99 45.11 45.28 46.82 46.80 46.00 45.04 43.39 42.48 41.75 41.36 41.16 41.24 41.07 39.62 38.27 37.07 38.18 35.82 33.73 33.36 33.42 34.64 35.86
29.65 24.64 23.11 30.76 34.64 38.07 36.99 26.77 38.92 38.51 38.41 39.59 39.78 33.15 37.08 41.17 42.59 42.38 43.18 43.10 43.56 44.66 45.77 46.30 46.46 46.28 43.89 41.90 40.97 40.55 41.09 40.99 41.08 40.76 39.23 37.23 37.80 36.52 34.66 33.38 33.13 34.24 34.36 35.52
28.04 26.84 30.46 35.58 36.88 38.65 25.26 29.82 40.78 40.93 41.03 40.18 37.94 38.85 40.64 41.91 41.91 42.60 42.27 41.94 43.25 44.30 44.59 45.35 45.60 44.41 42.28 41.00 40.07 41.22 41.79 41.28 40.69 39.85 38.22 36.55 36.21 34.94 33.51 33.03 33.31 33.70 33.44 33.49
29.08 25.00 24.54 36.91 36.83 30.90 36.35 39.10 40.24 40.87 41.57 41.87 41.36 40.99 40.56 41.65 41.34 41.95 41.77 41.67 43.28 43.50 42.67 43.28 44.17 43.36 41.40 39.94 41.06 40.90 40.31 39.85 39.00 38.34 38.54 37.82 36.14 34.79 33.62 32.71 32.04 32.24 31.86 29.52
33.67 31.90 37.54 38.05 37.50 39.84 40.50 39.09 40.30 41.83 42.53 43.13 41.56 40.88 41.71 41.43 40.56 40.65 40.76 41.08 42.14 40.57 39.77 40.61 41.96 42.30 40.36 39.77 39.99 39.51 38.67 37.96 37.66 38.47 37.86 37.04 35.29 33.40 32.01 32.00 31.69 31.57 30.53 28.24
31.97 36.32 37.64 39.00 39.54 40.05 40.48 40.17 41.43 43.33 43.34 42.90 40.16 42.00 42.24 41.37 40.53 40.08 40.62 40.22 41.01 40.00 38.92 38.95 40.47 41.78 40.97 40.22 39.73 38.78 37.61 37.16 36.97 37.73 36.77 36.08 34.90 33.54 32.17 31.27 31.27 30.97 29.14 27.19
30.56 33.80 37.63 39.20 38.25 39.49 40.18 41.27 40.74 41.06 41.73 43.64 43.36 42.96 42.37 41.25 40.46 40.04 39.71 39.79 40.09 39.66 39.32 38.83 39.35 39.42 40.12 39.85 39.39 38.07 37.85 36.85 35.83 37.06 36.36 34.20 33.65 32.91 32.27 33.01 33.55 31.94 29.67 27.49
25.02 32.31 33.88 35.52 36.26 40.66 40.53 41.10 41.15 40.22 40.84 42.55 42.84 42.86 42.88 41.39 40.61 40.73 40.67 38.83 37.84 37.44 38.06 37.91 38.19 37.94 38.23 39.52 40.55 39.58 38.20 36.67 35.94 35.59 35.23 33.77 32.57 32.11 36.50 36.07 37.20 37.78 37.13 31.20
29.96 32.69 33.16 34.96 39.06 40.31 39.77 40.78 41.63 41.64 42.32 41.17 41.81 42.71 42.57 41.10 40.94 42.84 39.21 38.46 39.30 39.79 39.49 38.89 38.32 39.03 39.62 39.73 39.54 38.72 37.57 36.43 36.27 35.20 34.15 32.83 32.02 31.36 30.80 33.97 37.42 37.84 37.61 36.85
33.38 32.65 32.78 36.04 34.72 37.71 41.03 41.21 41.66 39.98 39.73 40.44 40.66 41.42 41.68 40.87 40.22 38.73 38.18 38.81 39.20 39.16 38.37 37.19 36.48 36.50 38.49 38.56 38.06 37.77 37.56 38.19 35.54 35.14 33.92 32.88 32.52 31.97 31.87 31.48 31.44 32.82 36.59 35.68
34.15 32.82 33.44 37.20 38.57 39.81 40.96 40.34 39.30 38.07 37.78 39.04 39.94 39.59 39.74 38.64 37.77 37.40 37.54 37.94 38.62 38.57 38.45 38.23 37.57 37.53 37.54 37.64 36.45 36.25 35.82 35.67 35.60 34.62 33.85 33.66 32.56 32.24 32.25 32.08 32.22 31.27 29.77 33.62
34.38 34.75 35.42 36.42 37.71 39.51 38.92 38.90 38.59 38.31 38.27 38.20 38.28 37.39 36.28 36.24 36.14 36.02 35.97 35.85 35.42 35.64 36.76 37.21 37.21 37.06 37.93 36.97 36.59 36.45 35.96 36.58 36.59 34.31 33.80 33.65 32.89 32.30 32.03 32.13 32.05 31.13 29.74 28.48
31.83 31.21 32.03 31.36 34.43 37.58 37.87 38.44 38.69 38.46 37.97 36.04 34.58 34.74 34.85 35.02 34.77 33.45 33.28 33.75 34.32 34.96 34.66 34.42 34.72 34.93 35.36 36.76 35.07 35.64 35.36 35.49 37.67 34.68 33.75 33.52 33.19 32.39 32.32 31.97 31.63 31.43 31.04 30.89
34.94 35.07 36.13 35.12 36.66 37.38 37.67 37.00 37.32 37.13 35.32 35.21 35.41 34.67 33.74 33.14 32.45 32.40 32.73 33.94 34.61 33.45 32.22 34.34 34.72 34.90 34.75 35.02 34.85 36.41 34.97 34.51 34.07 34.80 33.71 32.95 32.91 32.69 32.12 32.00 32.08 31.93 32.46 32.69
36.99 36.15 36.18 36.48 37.49 38.32 37.89 36.93 36.70 37.03 37.05 37.27 36.18 34.15 32.78 30.90 30.15 30.07 31.66 31.02 29.78 29.27 28.38 30.83 32.95 34.06 33.96 34.74 35.99 35.39 34.63 34.09 33.61 33.56 33.82 34.77 33.88 32.95 31.90 31.87 31.92 32.17 32.53 32.23
36.86 36.63 36.07 34.77 34.85 34.97 33.91 34.01 33.95 32.79 32.47 32.16 31.92 31.15 30.30 29.18 29.91 30.47 31.84 28.23 27.95 28.61 29.90 29.11 29.67 29.83 31.17 32.86 35.22 33.97 33.48 33.54 33.62 33.57 33.57 33.25 32.81 32.31 32.26 32.74 31.92 31.65 31.60 31.63
35.41 35.02 34.29 34.45 34.00 34.33 34.67 34.52 33.36 31.57 31.04 30.48 29.20 28.05 27.82 28.02 29.27 29.07 28.67 28.40 27.59 29.30 29.96 30.69 29.18 28.03 28.63 31.24 32.29 31.56 32.09 32.04 32.03 31.94 31.93 32.13 32.10 32.23 31.85 31.73 31.57 31.54 31.19 31.07
34.16 34.22 34.32 34.07 31.64 30.05 29.36 29.42 29.61 29.52 28.27 27.67 27.20 26.64 26.02 25.72 26.41 27.72 27.95 26.04 26.59 31.25 28.52 26.64 25.47 29.95 30.80 30.79 24.48 29.42 29.81 30.71 31.22 31.58 31.42 31.58 31.54 31.52 31.61 31.67 31.67 31.79 31.27 30.76
29.48 29.68 29.81 29.92 29.48 28.57 27.91 26.90 27.06 27.07 26.58 26.34 25.66 24.84 24.56 24.37 24.54 24.82 24.63 25.98 25.27 27.52 25.72 24.72 28.80 30.84 31.38 24.10 22.11 21.98 24.38 27.47 28.69 29.18 29.80 30.61 31.10 31.05 31.11 31.27 31.60 31.67 31.66 31.55
32.32 33.16 31.92 29.29 28.31 27.48 25.33 24.93 24.24 24.94 24.84 25.33 25.14 25.20 24.37 23.48 23.63 25.64 24.94 27.01 27.93 27.21 25.27 25.02 26.03 29.52 29.30 22.36 20.90 21.36 22.00 21.77 21.33 21.59 24.19 28.41 24.22 27.53 29.40 29.67 29.72 30.38 30.71 30.97
31.57 30.96 29.13 28.16 27.37 26.35 25.17 23.53 22.06 21.83 23.18 23.23 23.93 24.28 24.56 24.59 23.14 23.47 22.57 23.24 26.36 25.15 22.89 26.30 27.78 27.86 23.86 23.14 22.17 22.51 22.08 20.39 18.57 20.10 21.69 21.74 23.06 23.74 23.52 24.85 26.08 27.26 28.17 28.86
31.23 31.70 31.57 31.30 30.24 28.84 25.79 24.52 22.90 23.42 23.09 22.54 23.13 23.71 23.64 24.35 23.70 23.73 22.53 24.54 23.22 24.42 22.10 22.13 22.51 23.50 22.90 22.69 22.60 22.78 22.39 21.82 21.92 21.21 22.02 20.30 20.92 21.95 21.97 22.07 22.12 23.29 23.59 24.53
26.26 31.63 26.40 28.00 28.04 28.06 26.27 24.81 23.31 23.08 24.33 23.42 22.92 23.63 23.53 23.75 24.02 24.46 24.94 22.33 22.02 21.96 21.51 21.55 21.70 22.61 22.17 21.90 21.76 21.33 19.81 19.56 22.75 21.21 18.41 18.52 19.13 19.15 20.59 20.46 20.18 23.24 23.51 22.63

GFSNGP_sfc_wetblb_093.txt.gz
Wetbulb
33.24 34.81 35.36 35.12 34.70 35.82 33.14 33.36 28.37 31.40 33.01 37.58 39.25 39.16 39.35 39.64 40.93 39.74 41.09 42.83 43.08 43.08 42.90 43.13 43.55 44.38 44.67 44.45 44.06 43.70 43.03 42.47 42.36 42.80 42.70 41.99 41.35 41.18 40.70 39.97 39.11 39.39 39.07 38.51
28.52 34.32 34.96 32.09 35.73 35.89 36.21 35.88 35.06 34.74 33.86 40.26 41.90 40.31 40.59 40.21 40.78 40.59 41.22 42.07 44.11 44.29 43.70 43.31 43.11 43.66 43.87 42.68 42.73 43.17 42.43 41.85 42.20 42.17 41.58 40.83 40.32 39.44 38.91 37.93 37.72 37.62 37.60 38.26
25.06 33.82 31.91 28.21 31.89 34.57 35.24 37.13 36.54 32.00 37.17 41.56 40.27 40.21 40.33 40.57 40.63 40.77 41.08 42.13 42.53 43.20 44.69 44.67 44.40 45.00 43.70 42.53 42.01 41.49 41.32 41.43 41.62 41.62 40.73 39.88 39.30 38.42 37.33 36.17 36.16 36.08 36.31 37.20
23.24 30.72 21.12 31.81 37.21 38.10 35.95 37.22 38.82 38.67 38.55 40.68 41.22 41.17 41.51 40.42 39.50 40.37 41.18 41.94 42.49 42.24 43.89 45.07 45.66 45.48 44.19 43.02 42.33 41.37 40.78 41.04 41.25 40.78 39.94 38.97 38.05 37.20 36.19 35.05 34.58 34.87 36.34 35.16
23.37 26.73 29.03 31.78 33.76 34.58 32.79 33.40 38.03 36.68 38.55 39.63 39.11 37.87 36.11 40.43 40.39 39.60 40.58 41.77 41.67 41.89 43.21 44.99 45.42 45.50 43.98 42.35 41.56 41.02 40.67 40.72 40.71 40.43 38.83 37.55 36.14 35.16 33.69 32.95 32.07 33.41 34.08 36.30
26.38 23.79 22.31 30.36 33.57 37.20 35.88 27.23 38.49 36.91 36.75 37.14 37.94 31.49 34.72 39.79 41.04 41.02 41.74 41.85 41.44 41.58 42.43 43.75 44.71 44.79 43.35 41.77 41.02 40.62 40.30 40.15 40.47 40.12 38.65 36.59 35.20 34.55 35.72 34.49 33.33 34.86 35.01 35.96
25.59 25.70 28.22 35.99 35.97 37.95 25.32 26.75 39.05 40.10 39.98 39.38 36.90 37.59 39.77 40.12 40.50 40.88 41.02 40.73 41.26 41.09 42.72 43.18 43.84 44.46 42.85 40.83 40.45 40.95 40.99 40.46 40.04 39.27 37.52 35.90 35.05 35.21 34.85 33.82 33.19 33.87 33.85 34.62
27.40 23.21 21.70 37.08 35.46 29.97 34.98 37.59 38.40 39.46 40.40 40.24 39.71 39.01 39.25 40.04 39.91 40.20 39.79 40.14 41.73 40.36 39.89 40.83 42.48 43.54 40.71 40.26 39.84 40.58 40.06 39.43 38.48 37.28 37.60 35.81 34.06 35.26 34.50 33.73 33.07 32.96 32.93 32.11
32.90 30.66 37.06 38.51 37.25 37.85 37.70 37.59 38.87 41.31 41.99 41.80 40.36 39.54 41.08 40.38 39.19 39.45 39.23 39.97 40.49 39.20 39.04 39.92 41.60 41.42 39.48 39.21 39.60 39.10 38.64 37.39 36.50 36.44 36.08 35.45 34.70 34.27 33.16 32.89 32.33 31.89 31.28 30.42
29.55 34.88 36.62 36.99 37.08 37.18 38.59 38.16 39.02 41.26 41.68 42.03 39.72 41.38 40.30 40.28 39.34 38.98 39.38 39.62 39.74 38.98 38.43 38.58 40.15 40.92 39.85 39.16 38.88 38.49 37.20 36.22 36.05 35.57 35.49 36.36 35.42 34.35 33.13 32.14 31.88 31.75 30.70 29.54
27.14 29.39 33.93 35.84 35.61 36.03 38.93 40.10 40.72 40.47 40.54 42.25 42.93 41.70 40.58 41.04 40.43 39.51 38.58 38.32 38.94 38.77 38.27 37.92 38.22 38.83 38.96 38.79 38.52 37.32 36.75 36.10 35.53 36.44 36.38 34.93 34.76 33.88 33.06 33.21 33.83 32.26 31.56 30.42
22.77 28.77 29.62 31.44 34.87 38.31 37.45 38.64 40.35 40.37 40.55 41.96 42.33 41.75 41.61 40.04 39.57 39.72 39.79 38.96 36.92 36.76 37.01 36.89 36.99 37.17 37.63 38.37 38.14 37.27 37.46 37.47 37.02 36.48 35.48 34.61 33.46 32.89 37.03 36.49 36.90 37.54 36.76 32.51
27.37 29.81 31.73 33.17 34.56 37.91 38.16 38.83 40.98 40.49 41.89 40.84 40.71 41.65 41.57 39.63 39.45 40.93 38.51 37.50 37.28 38.22 38.62 37.92 36.43 36.82 37.54 39.75 39.95 39.10 37.96 37.19 36.85 36.01 34.31 33.25 32.55 31.94 31.27 33.66 37.92 37.79 38.26 38.03
35.70 34.23 31.01 32.35 32.57 37.64 40.02 40.60 42.03 40.33 39.54 40.01 40.36 41.79 40.78 39.61 39.41 37.71 37.30 37.73 38.25 37.63 36.77 36.33 35.98 36.34 38.09 38.58 38.96 38.69 38.33 38.78 36.20 35.04 34.22 33.33 32.82 32.07 31.82 31.68 31.51 32.89 37.05 38.03
34.38 33.21 32.10 31.76 34.82 37.42 40.18 41.40 39.69 38.58 37.88 37.96 38.56 38.85 39.91 37.85 36.75 36.16 36.00 36.40 37.68 37.28 36.93 36.66 35.84 35.39 36.26 36.25 35.41 35.90 36.39 36.06 36.14 34.98 33.99 34.01 32.73 32.14 31.98 31.76 31.74 32.17 32.35 35.12
34.73 33.04 32.86 32.13 32.63 34.87 38.92 39.53 39.14 38.19 37.44 37.02 36.13 36.76 36.77 36.52 35.19 34.28 33.32 34.22 34.95 34.63 35.11 35.10 33.82 34.07 34.85 35.33 34.51 34.19 35.29 37.17 36.96 34.07 33.59 33.58 32.82 32.15 31.83 31.80 31.91 32.13 31.85 31.32
32.65 29.33 30.57 29.61 32.63 34.28 37.38 38.00 38.64 39.10 37.33 35.91 34.47 34.46 34.56 34.01 32.82 32.02 31.90 32.99 33.84 32.99 33.17 33.41 33.20 35.24 35.83 35.83 33.87 33.63 33.64 35.38 37.64 34.51 33.37 33.39 33.19 32.52 32.45 31.94 31.92 32.07 32.40 32.88
36.23 34.98 33.43 34.29 35.43 36.86 37.97 37.37 36.61 36.29 35.21 35.15 35.20 34.23 33.69 32.92 31.93 31.29 30.99 32.00 31.84 30.08 29.75 31.29 32.05 34.64 34.64 34.96 35.20 35.59 35.39 34.64 33.91 33.88 33.69 32.91 32.94 33.05 32.59 32.16 32.01 31.96 32.48 32.75
37.20 36.14 35.88 35.72 36.12 37.60 36.82 35.75 34.95 34.70 35.10 36.36 35.99 33.93 31.97 30.22 29.36 29.87 30.24 28.23 27.33 27.08 27.67 29.09 32.17 31.28 30.26 33.27 35.36 34.81 33.65 33.63 33.50 33.35 33.26 34.57 33.73 33.25 31.85 31.84 32.01 32.24 32.53 32.45
36.96 36.63 36.21 34.79 35.06 34.86 34.16 34.46 34.31 33.49 32.78 32.65 32.04 30.76 28.81 28.20 29.12 30.04 29.94 26.86 27.19 28.10 28.91 29.02 29.12 28.34 28.70 30.16 33.72 32.62 32.42 32.38 32.49 32.74 32.88 32.90 32.23 32.07 32.09 32.70 32.05 31.79 31.94 31.93
34.97 35.15 34.63 34.58 34.00 34.13 34.06 34.62 34.03 31.25 30.55 30.39 28.56 27.03 26.73 26.82 28.42 28.38 28.43 27.48 27.44 29.66 29.80 30.05 29.07 28.28 28.49 29.50 29.95 29.78 30.39 30.47 30.97 31.37 31.37 31.57 31.76 31.87 31.69 31.58 31.56 31.54 31.38 31.44
33.94 34.21 34.40 33.12 31.89 29.47 28.59 28.65 28.56 28.00 26.87 26.34 25.76 25.01 25.25 25.05 26.11 27.75 27.58 26.42 26.51 30.21 27.64 26.46 25.64 29.45 28.68 28.62 21.63 24.94 28.43 28.54 28.66 29.05 29.00 29.78 29.99 29.92 29.71 30.00 30.03 31.30 31.52 31.65
30.26 28.37 27.62 27.35 27.15 27.38 26.78 25.42 25.63 25.72 25.63 25.61 25.14 24.47 24.18 24.27 24.26 24.58 24.79 25.85 24.99 27.24 24.97 24.16 27.55 30.10 29.98 22.47 20.32 19.28 19.89 20.21 22.15 23.10 24.68 26.89 27.62 26.89 28.08 28.53 29.52 30.38 30.69 30.59
31.18 30.86 30.88 30.71 28.51 27.08 25.52 25.58 24.25 24.65 24.53 24.75 24.62 24.90 23.98 23.08 23.00 24.90 24.62 27.05 27.91 27.01 24.96 24.53 25.06 29.01 27.45 20.59 18.43 17.19 17.86 18.13 17.02 15.81 19.30 25.10 19.17 19.97 21.42 22.70 22.82 23.65 26.08 26.98
31.59 31.52 30.39 30.12 30.34 29.52 25.54 23.98 22.53 22.55 23.02 22.85 23.44 24.01 24.43 24.28 23.30 24.19 22.85 23.36 26.64 25.40 22.88 25.70 27.25 27.23 22.89 21.99 21.22 21.12 19.58 17.84 15.54 17.12 18.65 17.51 18.18 18.60 20.11 21.19 21.14 22.81 23.14 23.35
30.86 31.54 32.01 32.12 31.83 31.35 30.60 28.33 24.29 23.81 22.87 22.39 22.82 23.11 23.06 23.76 23.78 24.38 22.90 24.37 23.25 24.53 22.53 22.03 22.24 23.15 22.52 22.02 22.01 21.62 20.88 19.64 19.98 19.26 19.99 17.00 16.29 16.51 17.88 18.74 19.08 19.94 20.84 21.68
21.53 29.10 25.36 27.32 27.11 27.92 28.45 28.38 25.17 23.94 24.63 23.71 22.92 23.45 23.24 23.46 24.04 24.66 25.07 22.68 22.80 22.34 21.78 21.65 21.66 22.32 22.06 21.77 21.44 20.60 18.06 17.31 20.80 18.78 14.83 13.57 14.02 13.57 16.38 16.91 16.23 17.20 19.06 20.42

GFSNGP_sfc_wetblb_096.txt.gz
Wetbulb
32.36 33.81 34.17 33.41 34.27 35.26 33.18 32.80 27.01 29.50 30.56 35.56 35.94 36.96 36.03 37.99 39.57 39.04 40.19 41.72 41.95 42.08 41.91 42.19 43.14 44.14 44.76 44.93 44.28 43.87 43.48 42.97 42.63 42.60 42.74 41.42 41.05 40.31 40.67 40.15 39.66 39.23 38.74 38.27
24.39 31.58 32.86 31.32 34.71 35.84 35.68 35.59 34.53 33.52 33.19 38.80 40.83 38.84 36.88 38.19 40.03 39.32 39.11 41.02 42.95 43.00 42.39 42.60 42.45 43.86 44.35 43.77 43.37 43.13 42.14 41.85 41.76 41.52 40.62 40.09 39.58 39.22 38.53 38.05 37.98 37.80 37.59 37.85
17.13 28.62 31.26 25.68 30.36 33.89 34.36 36.36 36.17 32.38 36.61 40.60 40.22 40.60 40.44 39.63 39.37 39.70 40.14 40.53 40.67 42.25 43.34 42.62 42.94 44.06 43.76 43.04 42.36 41.65 41.31 41.05 41.12 40.79 39.91 39.27 38.86 38.12 37.10 36.24 36.14 35.97 36.03 36.56
16.08 28.60 21.31 32.25 35.74 37.12 35.86 36.78 38.07 37.75 38.00 40.01 41.21 42.13 40.98 39.27 38.39 39.01 39.51 40.09 40.72 40.59 40.99 43.75 44.10 44.20 43.89 42.66 42.24 41.39 40.55 40.53 40.59 40.20 39.30 38.41 37.51 36.82 35.64 34.87 34.78 34.52 34.54 33.79
20.78 23.61 29.06 30.95 32.21 34.04 32.74 33.15 36.78 36.39 38.64 40.47 39.24 37.36 35.96 39.66 39.62 38.99 39.78 41.11 41.38 41.68 41.40 42.15 43.83 44.71 43.63 42.12 41.48 40.92 40.16 40.26 39.99 39.82 38.36 37.08 36.05 34.95 33.41 32.96 32.22 32.71 33.66 35.04
24.57 22.78 20.97 28.87 33.62 35.50 35.42 27.32 37.86 36.56 36.18 36.56 36.71 31.14 34.27 39.36 39.93 40.08 40.96 41.29 40.84 40.63 40.94 40.87 43.45 43.85 42.94 41.51 41.00 40.75 40.23 40.28 40.21 39.70 38.41 36.71 35.16 33.87 34.87 34.63 33.21 33.93 33.32 35.78
18.70 18.10 26.98 33.65 34.89 35.98 23.43 25.38 38.25 39.34 39.33 38.71 36.55 36.88 39.59 39.30 39.52 39.91 40.11 40.01 40.81 41.12 41.05 41.50 42.35 43.27 42.29 40.54 40.82 41.26 40.47 40.30 39.88 39.09 37.81 36.09 34.84 34.83 31.90 34.57 34.08 32.02 33.72 35.25
25.77 20.94 20.81 36.27 35.03 28.93 32.03 35.02 37.89 39.17 39.71 39.52 39.15 38.69 38.35 39.47 39.01 39.21 38.86 39.52 40.36 38.99 38.94 39.78 41.64 42.78 40.93 40.40 40.36 40.18 40.07 39.69 39.15 38.16 37.91 36.30 35.41 32.79 33.89 35.00 34.08 33.24 33.25 33.26
29.06 26.29 35.69 37.06 35.90 36.48 37.63 36.75 36.75 37.53 42.18 41.06 39.46 38.95 39.63 39.29 38.07 38.37 38.21 39.18 39.17 37.98 37.83 38.31 39.81 40.62 38.91 38.02 39.62 39.17 38.73 38.19 37.24 36.13 35.50 34.54 32.85 32.30 34.16 34.12 33.32 32.92 32.58 32.25
28.66 31.37 33.61 35.25 38.31 38.62 37.88 37.24 38.81 39.68 38.61 41.75 39.24 40.26 39.40 39.14 38.60 38.18 38.27 38.55 38.75 37.98 37.37 37.27 38.47 39.73 39.59 40.35 39.37 39.04 37.62 36.52 35.77 35.13 34.54 34.21 34.28 34.86 34.21 33.27 32.73 32.51 31.66 31.04
25.65 27.23 31.20 32.54 32.89 36.71 38.34 38.21 38.59 39.77 40.03 39.39 42.07 40.73 39.54 40.03 40.67 38.93 38.15 37.77 38.32 38.05 37.39 36.83 37.90 37.83 38.05 38.33 38.55 37.45 36.56 35.61 34.90 35.13 35.22 34.48 35.13 34.91 34.12 34.65 34.64 32.86 32.52 32.00
22.08 27.44 27.35 28.61 32.16 35.22 36.70 38.10 38.69 39.00 38.88 40.54 42.16 42.27 42.21 40.15 39.04 38.58 39.20 37.93 37.21 36.66 36.96 36.35 36.66 36.76 36.98 37.59 37.64 36.52 35.29 35.23 36.59 36.69 36.13 35.27 34.44 33.76 37.59 37.36 37.50 37.87 37.71 34.02
27.15 30.43 30.29 31.35 33.05 34.15 36.41 37.82 39.73 39.73 39.64 39.31 41.12 42.01 41.46 40.21 38.32 40.06 37.50 36.54 36.40 36.83 37.06 37.95 37.68 37.59 38.26 38.06 39.32 38.56 37.91 37.43 37.22 36.63 34.54 33.88 33.03 32.65 31.98 34.00 38.05 38.36 38.20 38.56
35.01 35.23 30.90 31.40 29.97 32.94 34.14 38.41 40.52 41.00 40.84 39.27 40.37 41.73 41.83 39.95 38.65 37.46 37.05 36.89 37.02 36.37 35.64 35.52 35.19 34.79 35.98 37.56 37.15 37.97 38.57 39.03 36.65 35.54 34.70 33.82 33.63 32.89 32.51 31.95 31.84 32.61 37.01 38.31
34.19 33.36 33.45 32.58 32.56 34.83 35.30 38.98 40.26 39.93 38.49 37.93 39.16 41.07 40.29 37.96 36.83 35.42 35.23 36.92 36.69 35.99 35.75 35.37 34.41 33.50 34.70 35.37 34.68 34.42 35.51 36.10 36.31 35.21 34.32 34.47 33.19 32.58 32.36 31.98 31.88 32.23 32.56 35.00
34.72 34.15 31.26 30.92 31.10 33.48 34.29 38.28 39.06 39.72 38.27 36.90 36.23 36.97 37.35 36.62 35.04 33.10 32.93 34.52 34.34 32.85 33.20 33.12 32.45 33.36 34.44 34.55 33.61 33.04 34.02 37.32 37.23 34.28 33.82 33.63 33.03 32.45 32.05 31.76 31.88 32.03 32.04 32.36
32.83 30.97 30.19 29.57 32.77 35.13 35.83 38.20 38.21 40.01 38.04 36.37 35.34 35.24 35.23 33.43 32.56 31.92 31.77 32.96 32.34 31.84 32.93 31.83 31.99 33.77 34.14 34.57 34.67 35.31 34.96 35.41 37.22 34.75 33.36 33.16 33.12 32.67 32.66 32.36 32.13 32.17 32.54 33.64
36.20 36.38 35.50 34.83 35.46 36.17 37.57 37.16 36.57 36.51 35.74 35.48 35.26 35.06 34.13 33.07 31.92 31.02 30.80 30.95 29.37 28.43 29.06 29.43 31.02 33.07 33.21 34.32 35.24 35.38 34.92 34.59 33.88 33.72 33.55 33.02 32.86 33.02 32.74 32.44 32.33 32.15 32.65 32.89
37.05 36.43 36.11 35.74 35.41 35.81 36.27 35.40 35.16 35.36 35.55 36.48 35.50 32.94 31.86 31.05 30.14 30.01 28.93 27.98 27.41 26.78 27.34 28.49 31.59 29.96 29.32 31.49 33.91 33.63 32.93 32.97 33.03 33.16 33.12 34.34 33.42 33.07 32.17 31.96 31.95 32.08 32.35 32.33
36.59 36.88 36.49 35.57 35.51 34.96 34.64 34.48 34.67 33.91 33.78 33.97 33.47 32.00 30.16 29.04 29.19 29.77 27.92 26.61 27.01 27.95 28.91 29.05 28.80 28.22 28.11 29.27 31.53 31.26 31.39 31.72 31.77 31.87 32.19 32.43 32.20 31.87 31.91 32.80 32.25 31.87 31.90 31.99
34.78 35.29 34.91 34.84 34.08 34.32 34.36 34.40 34.02 32.64 31.83 31.56 31.10 29.59 28.20 26.61 27.23 28.08 26.68 26.34 27.49 29.59 29.07 29.94 28.40 28.32 28.51 28.90 28.86 27.85 29.09 29.19 29.44 29.37 29.84 30.08 30.35 30.01 29.88 30.04 30.28 30.46 30.32 30.78
33.32 34.11 34.47 33.72 32.52 30.80 28.61 27.95 27.68 28.54 28.05 26.67 25.72 25.54 25.15 24.49 25.60 25.92 26.93 26.86 26.86 30.09 27.81 26.52 25.76 28.64 27.55 27.84 23.72 24.15 23.52 23.18 23.94 24.91 25.72 26.89 27.02 27.04 27.11 27.87 28.01 28.71 29.44 29.65
31.42 27.79 27.49 26.43 25.46 25.78 26.97 25.78 25.06 25.52 25.29 25.50 25.16 24.60 24.48 24.83 24.69 25.53 25.51 26.37 25.29 27.56 25.01 24.19 27.29 29.85 29.04 23.08 22.24 20.44 20.11 19.66 20.03 19.62 17.98 16.63 18.45 18.13 17.84 19.31 21.02 23.74 24.90 24.93
31.31 30.97 30.32 31.01 29.31 27.89 25.41 26.49 25.68 25.25 24.92 25.09 25.27 24.84 23.60 22.19 22.61 24.44 24.43 27.47 28.06 27.52 24.56 24.36 25.45 29.03 26.60 21.59 19.09 17.18 17.11 16.83 14.96 12.93 15.62 22.16 13.94 14.87 16.25 17.64 18.83 20.84 20.89 22.12
31.54 31.39 31.09 30.37 30.38 31.07 30.52 28.22 26.20 25.24 24.43 24.06 24.31 24.26 24.46 24.12 22.99 23.69 23.52 23.24 27.23 26.40 22.85 26.31 27.87 27.81 23.23 21.97 20.63 20.05 18.86 15.92 13.35 14.71 17.18 15.69 14.52 13.11 15.37 16.58 16.81 17.83 16.38 17.24
27.97 29.19 31.08 31.26 31.45 31.51 30.89 29.81 28.72 28.97 27.55 25.67 24.49 24.15 23.68 23.85 23.77 24.37 22.47 24.12 22.70 24.77 23.45 22.80 22.77 23.45 22.88 22.25 21.98 21.54 20.76 19.48 19.54 18.96 18.94 15.20 12.80 12.31 13.52 14.75 14.86 15.27 16.61 15.71
20.58 27.25 23.58 25.87 25.75 26.03 25.92 26.59 26.74 27.38 27.22 25.45 24.75 25.12 24.44 24.12 24.05 24.81 25.54 22.75 23.01 22.88 22.25 21.73 21.87 23.12 21.54 21.72 21.50 20.70 18.98 17.96 20.27 18.57 15.18 13.24 13.44 12.19 13.86 14.05 13.45 14.22 14.97 15.76

GFSNGP_sfc_wetblb_099.txt.gz
Wetbulb
30.15 31.93 33.19 31.75 33.16 35.08 32.35 32.73 26.61 28.04 29.47 34.07 35.41 36.20 37.58 37.96 37.83 38.32 39.38 41.01 41.66 41.26 41.05 41.23 42.57 43.11 43.63 44.17 44.14 43.94 43.48 42.98 42.82 42.75 42.50 42.10 41.22 40.31 39.86 38.99 38.63 38.74 38.70 38.40
18.03 29.08 30.62 30.06 32.21 34.11 35.05 35.03 34.49 31.99 31.22 37.47 39.22 35.72 35.88 38.71 39.37 39.10 39.30 39.70 40.42 41.93 41.36 41.45 41.70 42.64 43.99 43.82 43.65 43.21 42.59 42.58 42.44 41.90 40.96 40.01 39.06 38.45 37.85 37.20 37.00 37.22 37.13 37.51
14.25 24.22 24.74 21.15 29.36 31.63 33.69 35.65 35.74 31.77 35.49 39.66 40.15 39.74 38.29 38.90 38.64 38.98 39.63 40.31 40.11 40.18 41.67 41.59 41.90 43.02 43.47 43.29 42.89 42.15 41.89 41.58 41.34 40.64 39.58 38.71 38.11 37.32 36.41 35.64 35.74 35.50 35.82 36.14
15.21 25.81 17.12 29.20 35.32 34.42 33.18 35.70 36.94 36.59 37.00 39.52 41.34 42.80 42.62 40.80 38.96 38.92 39.18 39.30 39.43 39.23 39.37 39.90 42.05 42.66 43.11 43.10 42.13 41.90 41.22 40.91 40.44 39.92 38.86 37.74 37.01 36.37 35.10 34.26 34.22 33.82 33.76 32.67
19.33 20.67 24.28 29.70 30.99 31.95 32.49 32.19 35.39 35.12 37.36 39.27 40.55 38.44 36.98 39.72 39.20 38.67 38.79 39.92 40.07 40.35 40.39 40.06 40.01 42.13 42.58 41.46 41.26 41.03 40.67 40.64 40.32 39.83 38.45 36.88 35.87 34.85 32.86 32.91 32.16 32.47 33.40 34.58
24.03 18.01 17.74 27.16 33.08 34.34 34.17 27.14 34.89 35.07 35.68 35.92 35.98 31.39 34.96 39.21 39.46 38.88 39.24 40.32 40.31 40.28 40.35 40.44 40.87 41.92 41.73 41.15 40.97 41.23 41.42 41.15 40.36 39.85 38.70 37.16 35.48 33.72 35.07 34.83 33.08 34.29 34.37 32.89
16.89 15.55 23.22 33.16 35.28 35.06 23.29 24.63 34.62 35.98 38.82 36.62 34.84 35.67 38.38 39.18 39.14 38.92 39.15 38.95 40.17 39.90 39.96 40.94 41.61 42.13 41.19 40.86 41.27 42.34 40.94 40.41 39.96 39.29 38.12 36.85 34.55 34.89 33.89 34.19 34.20 34.50 34.06 32.13
23.02 19.86 16.88 34.92 34.05 28.62 32.63 35.61 35.67 36.95 38.26 39.83 39.70 38.41 37.83 38.85 38.35 38.36 38.02 39.04 39.53 38.41 38.13 38.70 40.05 41.24 39.70 39.89 40.25 40.00 39.94 39.50 38.34 37.52 37.90 36.07 35.92 34.37 32.64 32.65 33.72 34.53 34.07 31.72
24.79 24.58 33.50 34.32 33.87 35.31 36.38 35.24 35.61 36.29 38.06 37.93 39.74 39.42 39.53 38.91 37.40 37.87 37.43 38.54 38.62 37.49 37.00 37.24 38.19 39.78 38.61 37.83 39.35 39.61 38.82 37.90 37.52 37.16 36.49 36.38 34.26 32.42 32.16 34.01 34.57 33.97 33.36 33.05
27.92 28.94 29.53 33.27 35.59 37.92 38.99 37.87 37.42 37.80 38.44 38.57 37.13 39.79 38.78 38.67 38.34 37.50 37.49 37.72 37.65 37.17 36.48 36.23 36.61 37.88 38.13 38.67 40.84 40.34 38.79 36.20 35.60 35.36 34.74 33.73 33.34 33.34 32.70 33.79 33.95 33.53 32.62 32.05
24.06 25.93 30.04 31.47 30.76 30.97 32.49 36.87 38.11 38.93 38.47 38.57 38.33 40.81 39.00 39.26 39.00 37.83 37.15 37.54 37.39 36.63 35.96 35.73 36.34 36.20 37.06 39.51 40.22 38.95 37.90 36.52 36.05 36.15 34.39 32.67 33.36 34.05 34.19 35.47 35.58 34.01 33.06 32.61
21.47 26.20 26.13 27.50 29.82 33.62 32.93 34.39 37.70 38.73 38.30 39.16 39.08 40.71 40.46 39.83 39.32 37.75 37.73 37.26 36.76 36.08 36.51 36.01 36.38 36.48 36.65 37.54 38.70 37.88 36.25 34.69 34.31 34.10 34.91 35.69 35.16 34.60 38.25 37.90 38.21 38.63 38.25 35.07
26.74 28.63 30.41 31.69 32.41 33.43 32.56 34.21 36.39 38.31 40.11 39.46 38.90 40.50 40.43 39.75 39.06 39.80 37.23 36.14 36.30 36.15 36.42 36.86 37.49 37.36 38.45 38.10 38.13 37.61 36.94 36.58 37.06 36.77 35.12 34.75 33.79 33.45 32.83 34.90 38.41 38.91 38.86 38.69
34.58 33.79 31.66 30.75 29.66 32.84 32.81 32.69 36.46 38.24 39.52 41.06 38.01 40.64 40.78 40.37 39.36 37.48 37.13 36.92 36.22 35.32 34.56 34.36 33.80 33.13 34.19 36.10 36.40 36.24 36.24 39.05 36.97 36.12 35.03 34.44 34.31 33.48 33.15 32.59 32.35 32.90 36.58 38.54
34.11 34.93 33.60 32.05 31.27 33.33 34.75 34.36 36.43 37.86 38.19 39.99 38.60 40.45 40.26 39.37 38.18 36.69 36.11 36.38 36.16 35.24 34.30 33.46 32.44 31.98 33.49 34.18 33.67 33.49 33.74 34.15 36.45 35.46 34.36 34.66 33.56 33.10 32.90 32.39 32.15 32.31 32.59 34.65
34.80 34.66 32.51 29.79 30.36 33.89 34.53 34.88 37.19 38.46 39.84 38.44 37.21 38.29 38.68 36.95 34.89 33.70 34.04 35.04 34.39 32.56 32.52 32.17 32.03 32.75 33.83 33.81 33.46 32.87 32.95 36.65 36.48 34.08 33.85 33.78 33.34 32.74 32.35 32.13 32.08 32.01 32.01 32.44
33.16 31.31 30.48 29.11 30.65 34.49 36.26 37.43 38.15 38.15 38.40 36.28 35.30 35.63 35.23 33.83 33.17 32.34 32.15 32.01 31.84 32.84 31.63 30.86 32.86 34.21 34.25 34.25 32.90 33.59 35.12 35.38 37.13 34.58 33.55 33.23 33.09 32.67 32.64 32.39 32.19 32.17 32.64 33.52
36.19 35.87 36.03 34.86 35.09 35.28 36.46 36.46 36.53 36.65 36.35 36.52 35.98 35.41 34.58 34.12 33.41 32.07 31.34 30.11 29.08 28.34 28.88 29.90 30.61 30.78 32.00 33.45 34.40 34.83 34.38 34.24 33.76 33.81 33.38 33.04 32.82 32.92 32.39 32.18 32.00 31.91 32.47 32.88
36.49 36.41 36.56 36.08 35.52 35.55 35.45 35.18 35.23 35.45 35.38 36.42 35.55 33.62 32.63 31.58 31.67 31.58 30.53 29.77 28.40 27.48 27.39 28.81 31.14 29.71 28.82 30.56 31.56 32.28 32.86 32.69 32.59 32.75 32.86 33.90 32.82 32.74 31.92 31.83 31.74 31.85 32.02 32.02
36.09 37.05 36.50 36.07 36.04 35.12 34.65 34.83 34.83 34.07 33.85 34.24 34.05 32.78 31.29 30.72 30.99 31.29 29.36 27.56 26.91 27.16 28.22 28.86 28.46 27.33 27.52 28.85 31.17 29.02 30.72 30.96 31.38 31.48 32.13 31.51 31.46 31.36 31.46 32.05 31.69 31.46 31.36 31.54
34.71 35.08 34.96 34.84 33.76 32.83 32.82 31.96 32.13 29.51 29.76 29.14 29.71 29.91 29.46 28.42 28.26 28.86 27.21 26.03 27.04 28.77 28.61 29.92 28.23 27.73 28.15 28.32 28.42 27.16 27.07 27.37 28.62 28.59 28.65 28.62 28.51 29.06 29.06 29.04 29.21 29.46 29.61 29.89
32.50 33.37 34.35 33.71 32.48 31.33 28.70 25.94 25.84 26.93 26.73 26.38 26.54 26.08 25.48 24.75 25.54 26.32 27.45 26.77 26.86 30.76 27.69 26.46 25.79 28.22 27.51 27.85 24.02 23.54 23.21 23.30 22.58 21.89 21.33 21.79 22.51 21.78 20.18 19.75 19.77 23.07 23.56 23.76
31.63 29.03 27.99 25.34 24.24 24.25 24.49 24.52 23.69 24.41 24.68 25.06 25.21 24.57 23.73 24.07 24.13 24.63 24.88 27.01 25.74 27.69 25.54 24.48 26.62 29.94 29.40 23.29 21.54 20.63 20.79 20.46 20.84 20.50 19.03 17.43 18.23 18.04 16.74 15.90 17.08 18.59 17.14 18.93
31.72 31.35 30.64 30.60 31.52 30.54 27.09 25.48 24.99 24.46 24.41 24.86 25.20 25.39 24.46 22.83 22.30 23.05 24.00 27.28 28.34 27.74 25.26 24.41 26.03 29.50 28.15 21.82 19.78 18.17 18.26 18.03 15.81 13.80 16.02 21.54 13.61 13.17 13.13 14.37 15.09 16.88 17.15 18.29
31.41 31.00 30.35 30.42 30.34 30.78 31.15 30.40 29.04 28.43 27.14 27.06 26.63 25.24 24.97 24.89 23.75 23.46 23.73 23.39 27.77 26.96 23.71 26.80 28.98 29.22 24.22 22.40 21.47 21.17 20.63 17.85 14.15 16.06 17.93 15.75 14.69 13.07 14.01 15.34 15.29 16.38 15.09 14.99
26.24 28.43 29.11 29.33 29.88 29.57 29.29 29.19 28.27 28.01 27.27 27.38 28.78 28.65 25.93 24.49 24.21 25.17 23.63 24.64 22.83 24.92 23.71 22.93 24.00 24.74 24.00 23.06 22.14 21.85 21.34 20.36 20.37 19.36 18.91 16.20 14.23 13.34 13.94 14.54 14.15 14.54 15.69 14.52
22.69 27.41 23.56 23.59 24.16 24.72 24.61 24.53 24.17 24.73 26.98 26.92 26.97 27.97 27.13 24.85 24.37 25.15 26.06 23.99 24.47 24.04 23.75 23.44 22.91 24.17 22.54 21.59 21.72 21.33 19.48 18.28 20.39 17.35 15.01 12.70 12.08 11.23 13.48 13.73 13.16 13.92 14.05 14.22

GFSNGP_sfc_wetblb_102.txt.gz
Wetbulb
28.26 28.91 31.08 30.72 30.49 31.21 31.28 32.90 26.38 25.94 28.52 33.14 34.39 34.30 35.50 36.99 38.17 38.47 38.20 39.38 40.74 41.37 41.02 40.71 41.66 41.83 42.62 43.13 43.45 43.16 42.92 42.39 41.99 41.88 41.65 41.37 41.17 41.03 40.71 39.64 38.96 38.81 38.15 37.59
17.15 25.85 26.64 26.39 30.45 32.12 32.70 32.29 33.78 32.97 30.41 35.88 38.03 34.07 35.78 36.66 37.56 37.23 38.41 39.64 39.74 39.58 40.70 40.90 41.09 42.04 43.02 43.49 42.95 42.96 42.53 42.34 42.09 41.67 41.17 40.51 39.56 38.61 37.88 37.37 37.03 37.24 36.77 36.81
15.84 23.50 27.34 19.34 27.91 30.80 31.65 35.00 34.90 30.83 35.27 39.77 38.95 38.50 38.12 38.41 38.67 38.58 39.91 40.58 40.21 40.01 39.52 40.74 41.25 41.88 42.60 42.66 42.34 41.84 41.79 41.62 41.48 40.79 39.93 38.97 38.07 37.42 36.59 35.81 35.45 35.01 35.08 35.71
17.54 24.07 11.84 26.84 33.96 33.93 32.15 33.59 36.43 36.53 37.02 39.79 40.17 41.56 42.68 40.62 39.46 39.77 39.62 39.62 39.04 38.54 38.87 39.54 39.79 41.41 41.76 42.67 42.10 41.44 41.05 40.96 40.82 40.19 39.01 37.65 36.89 36.09 34.93 34.15 34.39 33.81 33.71 32.22
18.66 19.51 21.97 28.19 30.85 28.82 32.30 31.88 34.33 32.46 34.99 37.45 39.18 37.60 37.13 38.97 38.81 38.01 37.39 38.92 39.47 39.47 39.71 39.70 39.78 39.64 40.83 40.63 40.72 40.84 40.96 41.02 40.70 39.97 38.09 36.87 35.91 34.92 32.73 33.10 32.30 32.94 33.65 34.17
17.54 17.25 15.42 24.72 33.67 34.67 32.23 26.72 35.03 34.99 34.83 36.38 35.63 32.00 36.79 38.56 39.33 39.64 39.57 39.41 39.18 39.18 39.40 39.30 39.59 39.49 39.75 39.60 39.44 40.08 40.66 40.68 40.06 39.59 38.49 37.15 35.79 33.88 35.33 34.93 33.36 34.73 34.88 33.32
16.22 14.92 20.53 30.01 35.36 34.83 25.17 24.74 34.98 36.47 36.37 36.11 35.06 36.11 38.89 40.30 40.01 39.99 38.70 38.56 39.27 38.31 38.58 39.77 40.35 40.03 39.20 38.79 39.57 41.33 40.50 39.92 39.39 38.90 38.06 36.59 34.53 35.40 35.12 34.76 34.70 34.60 34.84 32.75
21.21 18.77 14.83 33.25 32.47 27.93 31.41 34.17 34.95 35.61 37.10 37.17 38.28 39.15 38.75 38.46 38.39 38.55 38.46 38.78 38.91 37.46 37.65 38.22 39.19 40.36 39.71 38.63 39.40 40.23 40.17 39.92 39.26 38.31 37.99 36.09 35.98 35.17 34.56 34.27 32.76 32.38 33.17 34.40
23.53 23.17 30.70 36.17 31.79 33.69 34.96 34.63 34.85 35.40 36.74 37.89 37.96 37.93 39.16 38.90 37.40 37.57 37.17 37.88 37.91 36.66 36.71 37.02 37.23 39.38 38.77 38.56 39.17 39.17 38.94 38.32 37.43 36.84 35.94 35.87 35.56 33.85 32.76 32.26 32.21 31.97 33.65 33.43
27.22 27.77 28.48 30.95 34.29 35.08 32.70 33.41 36.27 37.76 37.07 37.99 36.85 37.81 38.48 38.50 37.85 37.78 37.16 37.32 37.13 36.53 36.11 35.88 36.01 36.78 37.19 37.77 38.76 39.00 38.58 38.09 36.39 35.65 34.35 34.55 33.98 34.19 33.29 32.08 31.77 33.23 33.62 32.88
23.37 25.08 28.11 30.28 28.90 29.73 32.07 32.97 33.82 36.46 37.08 38.33 37.90 37.99 38.32 38.24 37.86 37.57 37.41 37.43 37.14 36.16 35.58 35.15 35.71 35.78 36.60 37.87 38.50 38.17 38.43 37.42 36.76 36.47 35.39 34.94 34.13 33.85 33.08 34.07 36.34 34.72 33.75 31.80
21.38 25.27 25.40 26.65 28.80 32.35 32.15 32.35 32.67 34.14 35.82 38.41 39.28 38.14 38.30 38.73 38.01 37.68 36.93 36.58 36.97 35.75 35.64 35.38 35.18 35.33 35.84 37.85 39.40 38.50 37.12 36.75 36.69 36.72 35.35 34.99 34.43 34.79 38.49 38.34 39.00 39.14 38.46 35.21
25.67 27.49 29.63 30.76 31.78 31.88 30.73 32.22 32.77 32.25 33.92 36.61 39.62 39.73 38.83 39.33 38.97 39.35 36.84 35.92 36.04 35.95 35.75 35.54 34.97 35.74 37.43 38.70 38.81 38.16 37.02 36.42 36.42 35.44 34.17 34.22 34.14 33.99 33.36 35.26 39.04 39.21 39.21 39.14
32.63 31.25 28.09 29.13 28.78 31.31 31.97 33.12 34.49 35.04 36.43 37.86 39.60 39.81 40.99 40.14 39.35 38.16 37.37 36.62 35.77 35.09 34.81 34.05 33.30 32.69 33.71 35.40 36.72 36.17 37.19 38.98 37.02 35.95 34.92 34.47 34.53 33.94 33.87 33.31 32.93 33.38 36.97 38.50
33.41 34.67 34.09 33.32 30.19 30.95 33.95 35.24 34.23 36.62 38.35 39.58 40.33 39.21 40.37 38.93 38.27 37.60 37.66 37.02 36.09 34.69 33.86 33.47 32.83 32.49 33.55 33.88 33.43 33.28 33.59 33.46 34.39 35.71 34.90 35.07 34.07 33.58 33.42 32.95 32.65 32.72 32.91 34.74
33.95 34.45 33.33 31.66 29.22 31.24 34.60 36.65 36.82 37.47 38.28 38.88 37.05 37.57 38.60 37.54 34.99 34.39 34.92 35.32 34.31 32.63 32.34 32.25 32.87 33.15 33.27 33.15 32.78 32.33 32.38 36.25 35.08 32.85 33.88 33.75 33.47 33.08 32.73 32.53 32.45 32.40 32.36 32.58
32.85 31.40 31.52 31.64 30.59 34.00 35.63 36.90 36.65 36.72 37.64 35.86 35.16 35.57 34.80 33.82 33.38 33.02 32.79 32.47 32.79 32.28 30.22 31.06 32.93 34.11 34.47 34.40 34.06 34.59 34.68 34.98 37.34 34.20 33.57 33.41 33.27 32.83 32.87 32.60 32.33 32.31 32.51 33.42
35.05 35.96 35.50 35.33 34.76 35.04 35.46 36.00 35.91 35.90 35.75 36.44 35.92 35.42 34.71 34.24 33.56 32.68 32.48 30.99 30.27 29.43 29.43 30.28 30.81 30.63 30.52 31.72 33.47 34.16 34.14 33.84 33.57 33.82 33.16 32.98 32.86 32.88 32.24 32.15 32.20 31.75 32.25 32.91
34.69 36.13 36.55 36.40 35.78 35.31 35.44 34.66 34.63 35.36 35.06 35.50 35.46 33.72 32.87 31.93 31.98 31.92 31.58 31.09 30.27 28.88 28.41 28.97 30.86 29.38 28.69 30.39 30.33 31.59 32.74 32.58 32.44 32.55 32.67 33.81 32.61 32.39 31.75 31.64 31.60 31.66 31.75 31.84
35.27 37.03 36.67 36.11 36.15 35.09 34.44 34.76 34.76 33.76 33.59 34.30 34.27 32.99 31.77 31.20 31.32 31.43 30.25 29.12 28.79 28.14 29.14 28.71 28.21 27.29 27.42 28.37 30.57 27.50 29.07 30.63 31.03 31.09 31.89 31.15 30.89 30.34 30.25 30.67 30.32 30.24 30.23 30.41
34.82 35.22 35.09 34.98 33.88 32.84 32.33 30.45 30.86 28.99 27.98 27.52 26.04 26.34 26.73 27.70 27.64 27.25 27.06 26.07 27.12 28.76 28.55 29.97 27.43 27.18 27.43 27.80 27.36 25.68 25.80 26.01 26.56 26.61 26.75 27.04 27.47 27.46 26.72 26.35 26.92 27.39 27.95 27.62
32.83 33.47 34.43 33.60 32.02 29.85 28.41 25.05 23.67 24.09 24.21 24.31 24.73 24.44 24.06 24.32 24.95 26.65 28.16 27.86 27.96 31.17 28.24 26.62 25.33 27.64 27.09 27.70 22.18 21.90 21.09 20.77 20.52 20.57 20.33 21.48 21.88 21.31 20.89 20.59 19.91 22.81 21.45 19.79
31.68 30.52 28.25 25.00 23.64 24.82 25.83 23.73 23.43 23.27 23.28 23.36 23.42 23.43 22.81 23.51 23.51 23.75 23.88 27.67 26.93 29.09 26.63 25.16 26.51 29.83 30.17 22.73 20.44 19.50 19.58 19.72 20.65 20.17 18.37 17.16 18.03 16.68 17.25 17.22 18.03 18.59 16.52 17.84
31.94 31.49 30.96 30.26 30.38 30.98 30.12 28.90 26.72 27.22 25.12 24.36 24.87 24.25 23.40 22.25 23.32 24.52 25.26 27.77 29.57 28.08 25.92 24.52 25.84 29.84 30.22 21.75 19.37 18.68 19.09 18.57 17.01 15.04 16.61 21.55 14.14 13.84 13.71 14.39 14.10 15.84 16.29 17.76
31.44 30.87 30.47 29.92 30.19 30.62 30.66 30.57 30.25 29.94 29.41 28.27 27.93 28.43 27.47 24.70 23.76 24.41 24.07 24.46 27.96 27.82 24.18 27.44 29.32 30.03 25.75 22.49 21.68 21.76 22.17 21.44 19.63 19.68 19.38 17.82 16.40 14.85 15.30 16.59 16.51 16.48 16.22 15.75
28.76 29.34 29.29 29.11 28.75 29.07 28.27 27.34 26.53 27.50 27.13 27.23 26.78 27.37 28.39 28.09 24.25 25.84 24.83 25.67 24.20 25.21 24.73 23.73 23.54 24.70 24.48 23.50 23.27 22.63 22.23 21.46 21.32 19.80 19.07 17.43 15.60 13.86 14.32 14.98 15.01 15.01 15.22 13.81
25.57 27.48 25.33 23.26 22.97 23.40 23.54 23.75 22.91 23.59 25.36 24.96 25.18 25.59 26.06 27.36 27.30 27.97 27.60 25.27 25.11 25.37 24.87 24.33 23.96 24.82 23.25 22.59 22.43 22.05 20.97 20.05 21.52 18.75 16.92 14.85 13.18 12.08 14.20 13.74 12.66 12.93 12.88 13.50

GFSNGP_sfc_wetblb_105.txt.gz
Wetbulb
26.28 26.89 28.22 28.11 28.46 30.34 25.34 29.26 29.03 28.34 29.04 33.40 35.55 36.34 38.24 39.86 39.66 39.86 40.62 41.27 41.46 42.36 42.90 42.71 43.49 44.31 45.31 45.93 46.37 46.18 45.78 45.38 44.88 44.43 43.99 43.47 43.21 43.18 42.91 43.00 42.80 42.68 41.69 41.07
14.69 25.66 25.85 25.25 27.83 28.96 30.30 31.15 30.58 31.54 31.61 37.31 39.40 38.30 37.39 38.13 39.75 39.78 40.56 41.64 42.00 41.49 41.74 42.83 43.44 43.80 44.59 45.14 45.38 45.45 44.95 44.79 44.15 43.64 43.29 43.17 42.85 42.46 41.98 41.05 40.93 40.82 40.40 40.20
14.80 23.36 24.73 18.70 28.49 29.54 31.12 33.14 33.32 28.32 35.46 39.80 38.64 38.87 39.43 39.89 39.29 39.70 40.88 41.61 42.02 41.74 41.21 41.45 42.76 43.79 44.26 45.11 44.86 44.56 44.61 44.22 43.61 43.22 42.59 42.29 41.67 40.72 39.83 39.55 39.54 39.43 39.32 39.57
18.81 18.57 10.37 28.70 32.97 34.41 32.61 33.44 34.15 35.31 36.18 36.99 38.05 40.53 41.56 41.56 40.75 41.01 41.18 41.25 41.11 40.36 41.34 42.30 42.23 42.94 43.65 44.26 44.32 44.07 43.74 43.39 43.19 42.67 41.91 40.95 40.31 39.57 38.40 38.55 38.41 38.10 37.91 37.63
17.98 18.88 21.00 27.92 31.33 30.01 30.10 32.28 35.36 33.94 35.48 37.06 37.96 37.58 38.62 40.91 40.37 40.33 40.04 40.51 41.07 41.35 41.45 41.58 41.61 41.85 42.02 42.74 43.41 43.10 43.09 43.15 42.99 42.52 41.01 39.83 39.01 37.86 36.65 34.65 34.24 35.22 36.53 36.70
16.87 14.78 16.07 25.93 32.47 34.69 32.82 27.27 35.53 35.75 35.40 35.84 36.55 33.62 36.78 39.32 40.52 40.82 40.72 40.59 40.27 40.86 41.29 41.14 41.47 41.54 40.64 41.00 41.50 42.25 43.46 43.02 42.68 42.22 41.07 39.72 38.70 36.92 36.77 36.62 34.84 36.52 36.21 36.74
17.39 15.71 20.16 27.24 33.55 34.59 26.06 26.06 35.13 36.16 36.31 36.44 35.43 37.35 39.55 40.53 40.76 40.76 40.41 40.06 40.88 40.00 39.45 39.73 40.21 40.47 40.46 40.49 40.44 42.57 42.58 42.53 41.95 41.57 40.43 39.35 36.57 37.10 36.39 36.49 36.37 36.54 36.67 36.32
21.22 18.52 14.47 32.69 31.94 28.25 31.33 34.71 35.38 35.92 36.97 36.93 37.71 38.47 39.14 39.66 39.79 39.58 39.24 39.72 39.71 39.08 38.59 38.77 38.89 39.65 40.27 39.94 40.88 41.89 41.86 41.37 40.59 40.00 39.05 37.52 37.22 36.71 36.73 36.57 36.11 35.60 35.76 36.14
23.05 22.89 29.09 34.52 32.94 34.24 35.16 34.95 35.11 35.34 37.03 37.55 37.83 38.03 38.67 38.83 39.14 38.74 38.35 38.53 38.64 37.91 37.84 37.90 37.67 38.47 39.61 40.24 40.37 40.41 40.60 40.37 39.82 38.89 37.99 37.67 36.63 35.70 35.47 35.91 35.52 35.17 35.39 35.68
27.11 27.40 29.81 30.58 34.57 35.79 31.86 31.67 32.97 34.92 35.70 36.58 36.66 38.20 38.25 39.09 38.43 37.92 37.89 37.74 37.76 37.37 36.98 36.70 36.81 37.18 37.97 39.22 40.13 40.26 39.81 39.09 38.44 37.88 36.83 37.41 36.92 36.20 35.84 35.37 35.38 35.40 35.23 35.20
24.15 25.86 26.85 30.59 30.38 30.18 31.52 32.86 32.82 33.40 33.83 36.01 36.82 37.51 38.68 38.42 38.94 38.08 38.15 37.93 37.54 36.91 36.28 36.02 36.48 36.70 37.33 38.98 39.74 38.93 38.72 38.47 38.01 38.35 36.54 35.79 36.36 36.04 36.27 36.94 37.10 36.64 36.10 35.39
22.48 25.59 25.79 27.00 28.67 32.14 31.59 31.60 32.15 31.77 32.23 34.72 36.47 37.54 39.70 39.54 38.78 38.45 38.36 37.76 36.99 36.62 36.48 36.19 36.13 36.40 38.07 39.18 39.85 39.29 37.97 37.72 37.68 37.25 36.50 36.35 35.79 35.36 38.29 38.54 39.59 39.64 38.61 36.48
25.12 26.31 28.48 30.12 31.21 31.48 30.68 31.58 32.24 32.19 32.52 32.07 35.23 38.15 40.07 39.80 39.29 39.66 37.54 37.06 36.69 36.16 35.75 35.14 34.66 35.67 36.37 38.36 39.41 38.92 37.88 37.52 37.86 37.12 36.10 35.17 34.95 34.83 34.21 36.80 39.32 39.42 39.56 39.62
30.88 30.77 27.58 29.21 27.95 30.32 30.88 31.98 34.13 34.04 36.07 35.74 36.84 38.62 40.22 40.47 39.99 38.71 38.09 37.25 36.26 35.65 34.84 34.42 33.85 33.42 34.26 35.44 37.45 37.44 38.00 38.62 37.88 36.96 35.90 35.23 35.66 34.99 34.90 34.29 33.70 34.15 37.99 39.32
31.13 33.60 32.02 30.94 29.01 30.79 32.34 34.70 36.15 36.41 37.84 38.93 40.08 38.77 40.21 39.79 38.89 38.19 37.91 37.46 36.77 35.59 34.23 33.76 33.40 33.36 34.20 34.77 34.37 34.40 35.15 35.75 36.42 36.60 35.75 35.62 34.85 34.30 34.17 33.86 33.65 33.82 33.46 35.31
31.74 33.55 32.95 31.58 29.55 30.39 33.80 36.58 36.43 36.90 38.16 36.46 35.83 36.31 37.82 38.40 35.82 35.35 35.43 36.01 35.30 33.99 32.95 33.18 33.35 33.63 34.36 34.24 34.10 34.05 34.12 36.80 35.43 34.31 34.79 34.99 34.11 33.71 33.32 33.29 33.27 33.22 33.05 33.27
30.65 29.16 31.19 31.16 31.87 33.73 35.40 36.66 36.38 36.15 36.59 36.33 35.62 35.70 34.77 34.20 33.90 33.66 33.14 33.24 33.47 31.91 30.70 31.58 32.71 33.50 34.53 34.58 34.57 34.60 35.31 35.80 37.73 35.01 34.39 34.10 34.03 33.43 33.38 33.15 32.95 32.87 33.14 33.74
32.04 34.25 35.15 34.96 33.60 33.56 35.25 36.00 35.78 35.65 35.08 36.08 35.98 35.37 35.02 34.54 33.87 33.26 32.91 31.73 31.25 30.62 30.46 31.15 31.39 31.05 30.62 31.79 32.64 33.86 34.10 34.10 33.92 34.20 33.54 33.18 33.11 33.14 32.59 32.50 32.39 32.08 32.11 32.82
33.97 35.06 35.21 36.41 36.02 35.42 35.49 35.07 34.79 35.14 34.70 35.03 35.28 34.20 33.42 32.84 33.27 32.66 32.19 31.46 30.85 30.54 31.27 30.43 31.04 29.89 29.58 30.96 30.93 31.66 32.61 32.97 32.62 32.75 32.93 34.18 32.69 32.29 31.86 31.81 31.76 31.78 31.85 31.93
34.41 35.34 36.18 36.31 36.42 35.53 34.84 35.13 34.84 33.38 32.12 31.90 33.46 33.22 32.31 31.84 31.69 31.63 31.24 30.58 31.37 30.50 29.73 29.74 29.49 28.63 28.69 29.35 30.60 29.08 29.21 31.10 31.44 31.69 31.78 31.39 31.07 30.41 30.61 31.04 30.36 30.18 30.29 30.23
33.78 34.63 34.97 35.58 34.87 33.70 31.31 30.86 28.61 25.76 26.47 26.76 25.52 24.74 24.82 25.62 26.96 27.02 26.56 26.62 28.53 29.47 29.61 30.32 28.37 28.47 28.51 28.63 28.24 27.28 27.57 27.60 27.10 27.94 27.49 28.11 28.27 27.14 26.20 26.03 26.42 26.68 26.50 26.08
34.11 34.26 34.30 33.86 31.00 28.81 25.72 23.96 23.28 22.98 22.06 22.48 23.59 23.96 23.22 23.02 23.12 24.49 27.15 27.16 28.61 31.28 29.72 28.39 27.67 28.61 28.61 28.84 25.86 25.30 24.58 24.21 23.44 22.57 22.08 22.70 23.23 22.79 22.00 21.76 21.95 23.37 22.57 22.25
31.71 29.23 27.35 24.42 23.10 24.44 26.81 26.41 23.52 22.82 22.88 23.64 23.91 23.39 22.66 22.94 22.45 21.92 22.33 26.73 27.92 29.07 28.68 27.47 27.84 29.89 31.30 25.43 24.14 23.39 23.01 22.69 22.65 22.28 21.42 21.17 21.28 20.52 20.47 20.28 20.55 20.42 19.56 19.77
32.19 30.44 29.95 30.02 26.65 28.89 29.69 30.79 30.68 29.92 29.47 28.23 26.85 26.73 25.06 23.88 24.00 24.27 24.24 27.62 29.89 29.52 27.46 26.60 27.37 30.14 31.03 24.01 22.53 21.55 21.52 21.43 20.48 20.32 20.76 23.02 19.67 19.04 18.75 18.62 18.28 18.41 18.29 19.17
32.37 30.94 30.20 29.82 29.17 28.82 26.75 28.83 26.57 24.80 26.48 27.34 28.06 27.30 28.09 27.76 25.57 25.28 24.98 25.33 27.54 28.29 26.15 28.42 29.96 30.02 27.02 23.42 21.67 21.71 21.91 21.18 20.95 21.53 21.65 21.24 20.86 19.88 19.25 18.60 18.06 18.13 18.20 18.16
29.29 29.19 29.32 29.64 28.97 27.90 26.09 25.29 23.70 22.64 26.00 25.61 25.81 24.76 25.91 26.80 27.10 28.17 26.01 27.63 26.40 26.57 26.15 25.85 25.40 25.11 25.18 24.26 22.78 22.70 23.12 23.48 24.00 24.14 22.23 21.14 20.21 18.85 18.01 17.46 17.19 17.04 16.99 15.99
27.31 28.54 26.30 24.28 22.43 22.70 22.77 23.03 21.97 22.20 23.53 23.06 23.27 24.58 24.49 24.51 25.04 27.12 28.36 26.45 26.57 26.60 26.56 26.42 26.12 26.28 25.41 24.33 24.14 23.31 22.77 22.53 23.54 21.93 21.44 20.24 19.21 18.00 17.44 17.06 16.22 15.45 14.55 14.44

GFSNGP_sfc_wetblb_108.txt.gz
Wetbulb
29.14 29.43 29.47 28.72 28.61 29.95 28.64 30.51 28.11 31.93 32.35 37.86 40.53 41.46 41.47 43.89 44.09 45.13 45.70 46.51 46.29 47.22 47.70 48.90 49.69 50.82 50.92 51.16 51.40 51.73 51.28 51.14 51.05 51.38 51.29 50.22 50.12 49.92 49.44 49.14 48.33 47.84 46.95 46.39
23.32 29.00 30.02 26.50 29.66 30.79 31.35 31.65 31.87 31.99 32.55 39.79 42.88 44.05 43.56 42.80 42.70 43.51 44.92 46.50 47.05 46.44 46.54 47.16 48.23 49.18 49.72 50.51 50.80 51.09 50.78 50.24 49.28 48.90 48.61 48.21 48.33 47.96 47.66 47.18 46.97 46.56 46.05 45.39
24.04 27.93 27.33 25.54 31.22 32.56 33.36 34.56 33.67 29.89 36.27 40.86 40.26 41.56 43.06 43.95 44.87 45.12 45.61 46.19 46.44 46.21 46.06 46.68 46.97 48.06 49.02 50.05 50.38 50.12 50.27 49.74 48.41 48.14 47.58 47.26 46.85 46.28 45.79 45.70 45.91 45.53 44.69 44.90
26.01 26.46 20.86 31.98 36.55 36.96 33.90 33.94 34.89 35.46 36.59 38.00 39.86 41.29 42.42 44.90 45.15 45.50 46.29 46.03 45.87 45.43 45.84 46.27 46.95 47.31 47.58 48.46 49.58 49.50 49.88 49.39 48.75 47.88 47.20 46.79 46.09 45.82 45.74 45.46 45.03 44.51 43.91 44.45
24.60 24.72 27.17 31.26 34.49 33.68 32.44 32.84 35.57 34.52 36.47 38.32 40.91 40.97 41.10 43.53 44.21 44.07 44.74 45.44 45.68 46.01 45.60 45.95 45.94 46.24 46.08 46.92 47.98 48.40 48.68 49.09 48.81 48.20 47.03 46.18 45.58 45.23 44.43 41.20 40.94 43.20 42.65 41.39
25.86 20.28 20.65 32.20 35.67 38.00 37.00 30.50 36.42 36.58 36.62 36.95 40.13 36.65 39.12 42.13 43.18 43.69 44.72 45.03 44.92 45.62 45.59 46.03 45.95 45.91 45.71 46.07 46.22 46.83 48.18 48.38 48.41 48.02 47.07 45.83 45.47 43.69 42.86 40.20 38.09 40.04 40.22 42.52
25.12 24.11 27.59 33.47 36.14 37.84 28.70 30.95 37.72 37.83 37.19 37.43 36.38 37.64 40.11 42.09 42.55 42.60 42.60 43.24 44.59 44.88 44.59 44.62 44.77 44.78 45.11 45.93 45.70 46.78 47.15 47.74 47.40 47.13 46.43 45.44 41.37 41.47 39.36 38.66 38.93 39.65 39.91 41.31
24.88 22.98 22.67 35.61 36.24 32.22 36.03 38.25 38.25 38.67 38.53 38.03 38.60 39.71 41.55 42.03 42.57 42.34 41.77 41.70 42.33 42.60 42.97 43.30 43.20 42.93 44.42 44.83 46.39 46.08 46.11 46.56 46.48 46.29 44.25 43.14 42.52 40.04 40.01 39.72 39.54 39.23 39.38 39.77
30.13 31.33 34.88 39.13 37.92 38.94 39.22 38.27 37.21 36.56 37.58 38.11 38.30 38.74 39.64 41.44 42.41 42.32 41.77 41.81 42.37 41.36 41.13 41.47 41.68 41.98 42.26 44.26 44.31 44.66 45.22 45.51 45.64 45.54 44.24 43.64 41.04 38.67 38.40 39.39 39.15 39.44 40.43 40.30
31.33 34.68 34.78 36.87 38.76 39.81 37.32 35.69 36.03 36.89 36.85 37.26 37.39 39.08 39.23 40.38 42.19 42.77 41.54 41.08 41.39 41.74 41.73 41.32 40.87 40.66 41.55 43.10 44.00 44.24 44.82 44.86 44.79 43.99 42.92 42.44 40.75 38.91 39.35 38.58 40.41 40.39 39.71 39.21
32.51 34.22 33.53 35.33 37.00 37.14 35.10 36.10 36.06 36.91 36.70 36.32 36.91 38.40 39.38 40.10 41.20 42.53 41.24 40.83 40.77 40.43 39.79 39.76 40.93 40.87 41.62 42.36 43.72 43.72 43.72 43.05 42.72 42.22 40.48 39.46 39.91 39.33 38.98 40.01 41.55 40.62 40.05 39.23
32.47 34.71 34.35 34.74 35.47 35.35 34.53 34.63 35.54 35.27 35.76 37.50 37.30 37.14 39.00 40.66 41.17 40.52 39.95 39.40 39.41 38.70 38.47 39.42 40.12 39.94 39.55 40.31 42.27 43.10 41.22 40.21 39.61 39.07 38.11 37.74 37.11 36.51 38.86 38.89 39.71 40.26 39.94 38.62
33.70 33.79 34.04 35.03 35.47 35.38 33.98 34.84 35.77 36.05 37.23 36.88 38.85 39.19 40.21 41.04 41.04 40.49 39.14 39.67 38.94 38.06 38.70 39.02 38.92 38.88 38.46 40.40 41.16 40.23 40.43 39.18 39.32 38.90 37.66 36.79 36.84 36.17 34.84 37.23 40.01 40.28 39.88 39.29
34.93 35.22 32.90 33.75 33.01 34.56 34.67 35.67 37.25 38.39 38.63 38.47 40.02 40.78 41.70 41.98 41.25 40.13 39.87 38.49 37.38 37.16 37.09 37.82 37.60 36.77 37.75 38.24 39.21 40.50 41.20 39.23 39.45 37.71 37.05 36.14 36.37 36.49 35.69 35.14 34.69 35.86 39.33 39.91
34.86 36.02 35.40 35.57 34.45 34.51 35.72 36.94 36.72 38.08 38.77 38.41 38.14 38.92 39.77 40.30 40.39 39.39 38.69 38.33 37.80 36.52 35.59 35.34 35.67 35.57 36.67 37.49 37.26 37.54 38.70 39.56 40.25 39.95 38.15 37.10 36.47 35.71 35.57 35.09 34.72 34.53 34.42 36.98
34.75 35.68 35.40 34.43 33.49 34.12 35.62 36.02 36.51 36.88 37.69 36.89 36.59 36.37 36.42 36.74 36.97 36.85 37.08 37.35 36.52 36.57 35.17 34.99 34.90 35.07 36.04 36.42 36.75 37.23 37.51 37.26 37.40 37.83 37.60 36.91 35.54 34.71 34.29 34.17 33.92 34.06 34.01 34.41
33.05 31.78 33.52 32.80 33.32 34.12 35.24 36.40 36.67 36.46 36.72 36.68 36.64 36.87 35.85 34.90 34.71 34.63 34.46 34.32 34.42 34.40 34.43 34.56 34.69 34.85 35.51 35.50 35.73 36.02 36.91 37.44 37.96 37.11 36.76 36.85 36.01 34.84 34.46 33.92 33.61 33.60 33.91 34.39
36.70 36.31 36.40 35.99 34.85 34.33 34.59 36.47 36.46 36.26 35.74 36.12 36.96 36.48 35.80 35.49 34.94 34.51 34.15 33.24 32.52 31.72 31.93 32.22 32.91 33.01 33.06 33.76 34.16 34.92 35.25 35.12 35.29 35.59 34.78 34.41 34.30 34.12 33.68 33.44 33.11 32.66 32.44 32.95
36.64 36.55 36.73 36.90 37.15 35.52 34.47 34.90 34.58 35.47 35.00 35.14 35.14 34.52 34.24 33.83 33.95 34.29 34.26 33.33 32.56 31.88 33.60 33.34 32.98 32.07 31.37 32.01 32.85 33.17 33.63 33.88 33.85 33.99 33.92 34.83 34.39 33.15 32.45 32.32 32.17 32.20 32.23 32.12
35.21 35.80 36.40 36.38 36.32 35.88 34.42 35.19 35.02 33.70 33.05 31.96 31.58 32.70 32.79 33.28 33.26 32.98 33.11 32.61 34.23 35.11 33.43 32.40 31.93 30.77 30.74 31.02 31.89 31.57 31.60 32.32 32.82 33.25 33.36 33.18 32.67 32.18 32.35 32.29 32.03 31.89 31.77 31.53
35.02 35.52 35.52 35.89 35.84 35.95 34.86 33.62 30.75 28.53 28.59 29.08 28.45 28.48 28.42 28.93 29.27 29.67 28.65 28.63 31.71 32.44 32.44 31.32 31.61 30.95 30.69 30.68 30.84 30.47 30.63 30.75 31.15 31.64 31.61 31.68 31.15 30.49 30.12 29.94 29.62 29.97 29.35 29.13
34.89 33.80 34.03 35.22 33.39 33.06 30.11 29.13 28.60 27.76 27.15 27.32 27.55 27.74 27.35 27.37 27.45 27.18 28.63 28.43 31.58 31.57 31.99 31.57 31.06 30.30 30.78 30.59 28.92 28.54 28.53 28.91 28.95 28.64 28.53 28.79 28.84 28.03 27.42 27.23 27.15 27.02 26.65 26.50
34.74 33.90 33.18 31.55 29.25 28.61 30.48 31.65 30.95 28.13 27.97 28.45 27.52 27.26 27.26 28.08 27.85 26.33 26.41 29.43 30.95 30.70 31.69 31.55 30.38 30.17 31.26 30.26 27.46 27.61 27.55 27.43 27.38 27.03 26.91 26.97 26.88 26.60 25.96 25.41 25.18 24.98 24.40 24.05
34.29 32.07 31.29 30.92 30.31 30.34 30.44 32.64 32.85 32.52 31.94 31.89 31.49 30.83 29.07 29.41 31.01 30.93 29.68 28.96 28.71 29.94 30.15 30.62 29.61 30.32 30.95 29.13 26.80 26.29 26.24 26.12 26.57 26.51 26.21 25.61 25.25 24.69 24.23 23.82 23.01 22.80 22.23 22.26
33.01 33.15 32.34 31.68 31.33 32.03 30.23 29.85 29.28 28.53 28.33 28.78 28.87 29.57 29.83 31.13 29.68 30.83 28.83 29.86 30.24 29.46 28.88 29.59 30.36 30.72 29.78 28.61 26.44 25.59 25.82 25.77 25.78 25.25 24.97 25.03 24.39 23.90 23.53 22.63 22.10 22.10 22.08 22.22
32.65 32.16 32.18 31.77 30.83 30.31 30.09 28.64 27.36 27.59 27.53 27.13 28.38 29.03 29.36 29.56 29.44 30.01 30.07 29.89 29.33 29.24 29.20 29.18 28.63 28.00 27.39 27.49 26.83 25.63 25.09 25.35 25.82 26.02 25.19 24.81 24.24 23.34 22.58 21.78 21.32 21.67 21.96 21.59
30.74 31.06 29.14 27.79 27.12 27.14 27.01 26.72 25.41 26.23 26.30 26.08 26.08 28.01 28.41 28.27 28.47 29.14 29.00 29.00 29.00 28.82 28.85 28.93 28.92 29.33 28.57 27.39 26.53 26.36 25.38 25.41 26.13 25.40 25.76 25.50 24.03 23.25 22.22 21.74 21.68 21.40 20.77 19.94

GFSNGP_sfc_wetblb_111.txt.gz
Wetbulb
30.24 31.08 30.76 29.47 29.49 30.99 29.20 30.66 28.13 31.56 31.76 37.83 40.43 42.08 43.69 45.15 46.12 46.21 46.68 47.33 47.29 47.65 48.88 49.99 51.05 51.53 52.53 52.90 53.46 53.67 53.38 53.71 53.64 54.33 54.58 54.18 53.79 52.33 50.73 49.76 48.51 47.46 46.54 46.52
25.55 30.94 30.57 27.49 30.58 31.30 31.97 32.70 32.47 33.66 33.56 41.40 42.89 44.52 44.26 44.68 44.48 45.10 46.16 47.21 47.81 47.82 47.99 48.48 49.39 49.88 51.30 51.71 51.51 52.58 51.72 51.39 51.41 51.39 50.93 51.17 51.26 51.20 49.59 47.83 47.12 46.68 45.92 45.98
25.56 30.40 29.16 27.19 31.77 33.09 34.40 35.49 34.04 30.44 36.54 40.45 39.88 41.03 42.25 43.41 44.97 45.37 46.33 47.12 47.23 46.75 46.95 47.51 47.70 48.71 49.60 50.71 51.41 51.63 51.36 50.62 49.93 49.71 49.14 49.00 48.99 48.50 47.55 47.10 46.98 46.51 46.16 45.93
28.28 28.43 23.26 32.98 37.84 37.76 34.73 34.95 35.93 36.42 36.70 38.96 40.67 42.75 43.11 44.36 44.11 44.78 45.21 45.59 46.50 46.95 47.27 47.44 48.22 48.57 48.66 49.36 50.31 50.66 50.79 50.19 49.72 49.19 48.43 47.98 47.28 46.80 46.60 46.55 46.33 45.60 44.96 45.04
26.96 27.40 29.86 32.60 34.94 35.00 33.63 33.44 36.83 35.92 37.95 40.07 42.23 42.64 41.43 43.41 44.24 44.44 44.99 45.65 46.20 47.22 47.02 47.52 47.58 47.68 47.73 48.13 48.59 49.37 49.75 50.30 49.84 49.00 47.84 47.09 46.13 46.05 46.12 42.49 42.42 44.32 44.24 44.00
28.20 23.17 22.37 33.97 37.76 39.60 38.63 30.38 38.10 37.23 37.03 37.81 40.93 36.82 37.85 42.01 44.14 44.28 45.58 45.78 45.61 46.37 47.22 47.50 47.33 47.35 46.70 47.00 47.26 47.49 48.61 49.90 50.44 49.60 48.44 46.76 46.55 45.60 45.13 41.81 39.93 43.22 42.87 43.64
28.21 26.50 30.07 37.55 38.23 39.82 28.62 31.73 39.45 39.47 38.27 38.65 37.44 38.76 41.04 43.36 43.46 44.43 43.48 44.66 45.14 45.50 45.78 46.06 45.98 45.94 45.82 46.88 46.66 48.30 48.75 49.54 49.94 49.69 48.40 47.60 44.78 44.95 42.95 40.35 41.10 41.50 41.17 42.26
28.52 25.41 24.22 39.07 37.50 33.35 37.81 40.12 40.38 39.74 38.86 38.46 39.93 40.60 40.77 42.15 43.37 44.03 42.79 42.48 43.24 43.14 44.09 44.89 44.87 44.55 44.76 45.47 47.35 47.36 47.54 47.16 48.21 48.71 47.34 46.01 44.61 42.47 41.68 41.23 40.35 40.05 40.40 40.83
32.07 32.97 38.15 40.72 40.26 41.41 40.94 39.86 40.03 38.43 38.74 38.18 38.02 39.04 39.93 40.21 42.46 44.18 43.71 43.20 43.64 43.26 42.77 43.47 43.36 43.03 42.66 44.28 45.32 45.81 46.10 46.39 47.12 47.47 46.17 45.06 43.44 41.41 40.96 41.07 41.21 40.87 40.79 40.62
32.91 37.28 37.14 39.57 41.24 41.25 41.36 39.11 38.29 38.29 38.03 38.11 37.09 38.40 38.94 40.17 41.18 43.12 44.46 42.74 42.77 42.93 42.84 42.83 42.81 42.68 42.74 43.04 44.76 45.12 45.39 45.94 46.67 46.12 44.93 44.78 43.23 41.17 41.25 41.10 41.29 41.08 40.81 40.56
34.15 37.31 36.81 38.04 39.39 40.60 38.39 37.80 37.63 38.29 38.07 37.61 37.52 37.43 38.65 39.40 40.58 42.33 43.43 42.44 42.44 41.56 40.81 40.72 42.03 42.02 42.01 42.34 43.95 44.38 45.10 45.14 44.98 45.10 44.08 43.29 42.24 40.56 41.24 41.97 42.79 41.74 40.82 39.64
33.74 38.97 37.76 37.65 39.62 38.17 36.86 36.69 37.12 36.37 36.50 38.00 38.41 38.10 38.68 38.86 41.22 42.08 40.81 40.97 40.50 40.19 40.23 40.39 41.02 41.07 40.69 41.42 42.23 43.36 42.78 43.11 42.82 41.27 39.81 39.42 38.84 37.66 39.70 40.32 41.18 40.96 41.38 39.87
37.31 38.12 37.55 37.56 37.78 37.86 36.30 35.91 36.76 36.86 37.91 37.75 38.89 40.07 39.90 39.73 41.81 42.47 40.72 39.77 40.07 38.94 39.75 40.19 40.03 39.69 39.54 39.70 41.91 41.16 40.44 40.15 39.81 39.19 38.75 38.02 38.05 36.79 34.80 37.45 40.36 40.78 40.70 40.54
37.74 37.20 35.01 36.15 35.65 36.66 36.22 36.76 37.77 38.64 39.43 39.88 39.85 40.79 40.29 40.91 42.22 41.44 39.95 40.32 39.59 38.78 38.31 38.68 38.96 38.19 38.56 39.08 39.24 40.66 41.81 39.97 40.96 39.79 37.88 36.73 36.62 35.93 35.87 35.28 34.55 35.10 39.85 39.90
37.04 38.36 37.93 37.88 36.60 36.02 37.11 37.20 36.23 37.18 39.17 38.98 39.04 38.48 39.53 39.67 40.31 40.24 39.44 38.95 38.42 37.75 36.53 36.14 36.34 36.69 37.66 38.17 38.17 38.13 38.67 39.73 40.14 40.60 39.13 37.47 35.71 35.25 35.28 34.84 34.77 34.73 34.71 37.94
37.09 37.18 36.95 35.90 35.17 35.58 36.32 36.58 35.43 36.54 38.00 38.10 37.78 37.75 36.81 36.75 37.09 37.21 37.09 37.24 36.56 36.40 36.57 35.62 35.73 35.78 36.40 36.62 36.88 37.60 38.29 37.73 38.31 38.21 37.86 37.53 36.92 36.14 35.53 34.77 34.36 34.25 33.92 34.15
34.30 33.29 34.50 34.59 34.30 35.12 35.81 36.65 36.18 36.67 37.20 37.14 37.03 37.50 37.47 36.39 35.52 35.35 34.91 34.76 34.65 34.38 33.26 33.39 33.94 35.01 35.78 35.62 35.48 36.12 35.94 36.78 37.78 37.32 36.78 36.63 36.03 35.07 34.66 34.03 33.70 33.80 34.07 34.46
38.66 38.41 38.17 37.45 36.05 35.67 35.61 36.03 36.38 36.61 36.35 36.47 36.56 36.79 36.10 35.58 35.12 35.31 34.95 34.65 33.97 33.52 33.23 33.13 33.42 33.67 33.01 33.30 33.84 33.90 34.60 34.98 35.48 35.80 35.60 34.46 34.51 34.57 34.31 33.75 33.61 33.15 32.98 33.41
38.17 37.59 37.83 37.53 37.68 36.98 35.76 35.03 35.18 35.23 35.24 35.34 34.85 34.18 34.78 34.70 34.69 34.51 34.16 33.05 33.00 32.81 34.86 34.41 33.51 32.94 33.31 32.94 32.39 32.89 32.79 33.10 33.73 34.08 34.29 34.89 34.39 33.29 32.72 32.61 32.40 32.40 32.33 32.01
37.38 38.16 37.86 37.48 36.96 35.91 34.69 35.46 35.25 34.40 34.52 33.36 32.01 31.65 31.53 32.13 32.22 32.34 33.07 31.88 33.24 34.07 34.62 34.51 33.47 32.84 31.86 31.68 31.97 31.81 31.51 31.59 31.97 32.97 33.61 32.87 32.55 32.19 32.24 32.65 32.04 31.84 31.80 31.81
36.15 36.29 36.32 36.41 35.79 36.45 36.35 36.13 34.93 31.61 30.62 30.22 29.24 29.14 28.92 29.47 29.72 29.41 28.49 28.36 31.48 32.46 33.14 33.07 31.94 31.98 31.71 31.48 31.41 30.90 30.47 30.62 30.89 31.73 32.37 32.45 31.81 31.44 31.20 31.19 30.92 31.15 30.89 30.56
36.18 35.68 35.54 35.26 35.33 34.89 34.54 32.53 31.01 29.96 29.40 29.26 29.75 29.97 29.59 29.82 30.65 29.58 29.99 28.14 30.31 32.24 32.39 32.59 32.64 32.28 31.52 31.26 30.75 29.53 29.26 29.38 29.78 29.92 29.75 30.10 30.34 29.89 29.38 28.99 28.75 28.22 27.56 27.32
35.83 34.58 33.95 33.62 33.24 33.72 31.64 32.15 32.64 30.68 30.12 30.31 29.36 29.47 29.34 29.72 29.40 28.35 29.48 31.09 30.24 30.84 30.76 31.68 32.75 31.59 31.24 30.84 29.97 28.51 28.09 28.14 28.03 28.00 27.65 28.05 28.12 28.37 27.71 26.81 26.35 26.01 25.18 24.79
34.83 34.40 34.13 33.46 31.87 31.46 30.67 32.55 33.69 33.45 32.54 31.83 31.56 32.14 31.21 30.38 31.48 33.02 32.55 32.27 31.16 29.47 29.52 30.75 31.40 31.56 31.50 30.30 30.25 28.24 27.58 27.39 27.63 27.93 27.16 27.61 27.27 26.49 25.70 24.65 23.91 23.95 23.14 23.05
33.78 33.64 33.50 32.79 31.81 32.49 32.69 31.42 30.68 30.25 29.62 29.74 29.85 30.33 30.60 31.14 29.84 30.81 31.10 30.79 31.50 30.85 30.06 31.35 31.42 31.49 30.27 29.65 29.76 28.41 27.42 26.96 27.28 26.87 26.23 26.18 26.01 25.35 24.90 24.25 23.19 22.62 22.42 22.57
33.26 33.28 33.57 33.48 33.23 32.50 31.80 30.85 29.04 29.21 28.54 28.13 29.04 29.69 29.91 30.20 30.07 30.03 30.35 30.75 30.21 30.42 29.45 30.08 29.68 29.55 29.36 28.89 28.86 28.28 27.24 26.44 26.43 26.51 25.69 25.33 25.66 25.17 24.48 23.82 23.20 23.21 23.44 23.29
32.70 33.18 31.58 30.04 29.53 29.40 29.18 28.67 27.14 27.09 27.53 26.91 26.49 28.45 28.65 27.92 27.83 28.05 28.69 28.34 28.57 28.78 29.17 29.49 29.53 29.31 29.15 28.95 28.26 28.46 27.76 26.39 26.71 26.14 26.75 26.09 25.28 24.87 24.17 23.57 23.15 22.91 22.65 21.90

GFSNGP_sfc_wetblb_114.txt.gz
Wetbulb
28.17 29.78 29.91 28.00 27.96 29.52 20.61 26.64 18.96 26.93 27.63 34.68 37.57 38.58 39.58 40.32 42.16 43.89 43.68 43.79 43.18 42.75 43.88 45.95 47.11 48.02 48.94 49.82 50.72 51.70 52.85 53.31 52.96 53.10 53.27 53.10 51.63 51.12 50.27 48.64 47.51 46.97 46.50 46.42
17.97 29.58 29.18 25.59 29.60 29.67 30.32 31.11 30.21 31.39 31.57 38.44 40.36 41.21 38.99 40.90 42.18 42.26 42.98 44.35 43.78 43.40 43.33 43.81 44.03 46.59 48.59 48.25 48.72 49.84 49.47 49.93 51.13 50.40 50.18 50.14 49.45 48.01 47.53 46.64 45.91 45.74 45.69 45.68
18.78 26.49 24.97 18.57 30.10 31.28 33.55 35.03 33.33 29.41 32.76 37.34 37.41 39.20 40.30 39.30 40.87 41.37 41.98 42.62 43.04 43.39 43.02 42.91 43.27 44.51 44.93 47.35 48.63 48.65 48.32 48.07 48.02 47.79 47.41 47.39 47.30 46.58 45.97 45.11 45.33 44.89 44.98 45.08
19.48 21.54 13.18 30.14 36.49 36.28 33.64 34.21 34.40 34.70 35.85 38.14 39.43 40.75 40.75 40.66 40.10 40.17 41.53 42.13 42.72 42.35 42.64 43.41 44.07 44.12 44.25 46.13 47.60 47.94 47.80 47.22 47.25 46.93 46.12 45.60 44.90 44.23 43.74 43.74 44.40 44.49 44.27 43.70
18.45 18.55 24.96 30.10 32.85 33.22 31.46 30.96 35.46 34.22 35.94 37.28 39.56 40.82 38.80 40.64 41.64 40.77 41.44 41.82 42.25 43.43 44.14 43.78 43.40 43.80 44.26 44.53 44.95 46.56 47.21 47.06 46.79 46.38 45.49 44.82 43.76 43.11 42.57 39.92 39.38 41.09 41.75 41.64
22.04 18.05 17.67 30.14 35.44 37.80 36.36 25.96 36.46 36.22 35.69 36.06 37.27 35.01 36.89 40.83 41.94 41.81 41.34 42.95 42.27 42.26 43.19 42.99 43.51 43.93 43.38 43.48 43.74 43.44 44.68 46.57 47.29 46.32 45.13 43.57 43.02 42.56 41.43 41.02 39.01 40.59 40.99 40.87
21.09 19.00 25.09 34.48 36.59 37.62 23.61 27.33 37.20 37.85 36.66 36.23 34.58 37.57 38.64 42.32 41.30 42.16 41.14 42.24 42.45 41.85 41.38 41.79 42.41 42.50 41.95 42.79 42.91 44.66 45.42 45.15 46.91 46.51 45.04 43.63 41.87 40.79 38.76 38.94 39.24 38.94 39.20 39.82
22.08 19.01 16.59 35.88 34.94 30.21 33.89 36.64 38.29 37.59 36.56 36.90 37.30 37.10 37.30 38.35 39.92 42.05 40.97 40.67 41.56 40.06 40.54 42.13 41.42 40.94 40.65 40.84 42.75 43.35 43.78 44.15 44.35 45.21 44.87 43.15 41.15 39.29 38.25 37.92 37.28 37.16 37.44 37.75
26.63 26.74 34.34 37.09 35.94 37.73 38.01 36.74 36.84 35.49 36.65 35.79 35.41 35.31 36.70 36.90 36.64 41.09 42.80 40.19 40.61 39.61 39.99 40.42 40.47 40.13 39.02 39.63 41.33 42.15 42.33 42.55 43.14 44.75 43.19 42.25 39.73 38.15 37.59 37.55 37.63 37.28 37.94 38.48
28.52 31.82 33.32 36.24 37.74 38.11 38.46 35.72 35.97 35.78 34.78 35.01 34.05 35.43 35.08 35.61 36.52 38.60 42.34 39.70 40.62 40.29 38.84 38.58 39.21 39.91 39.25 40.62 41.36 41.72 41.46 41.76 42.66 44.71 43.42 42.58 41.03 39.38 38.52 38.36 38.41 38.83 39.38 39.20
28.58 31.90 32.62 34.53 35.96 37.37 36.13 36.04 35.44 35.42 34.89 34.68 34.56 34.66 35.05 35.02 36.21 37.64 40.19 41.25 40.80 39.22 37.76 37.70 38.40 38.60 38.59 39.27 40.08 40.63 42.14 43.31 43.60 43.69 43.14 42.09 40.98 40.31 38.49 39.44 40.75 40.06 38.86 38.03
26.12 33.48 32.64 32.78 35.61 36.93 35.11 34.77 34.73 33.42 33.16 34.81 35.20 35.38 36.75 35.50 35.96 37.77 38.52 39.19 39.52 39.60 38.77 38.80 38.82 37.35 37.14 37.62 38.81 39.29 39.64 40.64 41.15 40.39 39.27 39.67 39.05 38.08 39.99 41.06 41.61 41.85 41.90 40.37
31.73 33.34 33.64 34.53 34.80 35.26 34.29 34.07 34.51 33.40 34.53 34.92 37.40 38.89 39.73 37.58 37.07 40.81 39.37 38.33 39.06 38.43 38.63 38.88 38.69 37.76 37.51 37.92 38.06 38.97 39.79 39.34 39.19 39.24 38.29 37.80 37.20 35.74 34.36 37.26 40.39 40.90 41.06 41.00
33.71 33.94 31.47 33.15 32.06 34.07 33.98 34.85 36.28 35.80 36.35 36.37 39.08 39.48 39.63 39.02 39.75 39.12 40.38 39.26 38.69 38.09 37.45 37.11 37.36 36.58 37.16 37.74 37.93 37.90 38.51 40.12 39.75 38.71 37.21 37.07 36.94 35.61 35.25 34.69 34.33 35.17 40.49 40.58
32.98 34.25 34.24 34.22 33.38 33.23 34.51 34.95 34.55 35.46 37.56 37.61 38.36 37.77 37.41 36.33 37.87 39.02 38.95 38.75 38.45 37.65 36.77 36.25 36.23 36.44 36.81 37.08 36.29 36.15 36.17 35.15 35.13 36.45 35.60 36.56 35.21 34.91 35.08 34.73 34.52 34.64 35.21 38.98
33.65 34.41 33.85 32.63 32.19 33.02 33.63 34.11 34.86 35.80 36.56 36.63 37.32 37.22 37.08 36.12 36.26 36.62 36.55 36.42 36.20 36.04 35.87 35.49 35.53 35.82 36.04 36.09 35.70 36.19 36.47 37.49 37.81 34.97 35.27 35.26 34.18 33.95 34.20 34.26 34.13 34.33 34.22 34.53
32.17 30.73 31.89 31.63 31.43 32.18 32.76 34.13 35.70 35.92 35.97 35.75 35.92 37.27 37.22 36.96 36.07 35.02 34.82 34.65 34.39 34.20 33.69 33.30 33.74 34.45 34.85 34.39 34.09 33.79 33.34 34.28 36.19 35.20 34.48 34.50 34.67 34.19 34.15 33.82 33.69 33.78 34.23 34.63
34.59 34.93 34.65 34.07 32.79 32.41 33.33 35.35 36.19 36.30 35.70 35.66 35.63 35.35 34.91 34.84 34.34 34.80 34.70 34.45 34.18 33.78 33.59 33.66 33.41 33.80 33.75 33.40 33.36 33.02 32.27 31.77 32.66 33.19 34.25 32.83 33.01 33.67 33.58 33.24 33.36 33.11 33.40 33.65
35.38 34.94 35.10 35.21 34.48 33.91 33.90 35.04 35.42 35.31 35.22 34.74 34.12 33.34 33.38 33.41 33.49 33.07 33.05 32.17 31.71 31.49 31.84 33.94 33.65 32.86 32.11 32.48 32.22 31.71 31.32 31.51 31.58 32.05 32.78 34.13 33.61 33.22 32.21 32.12 32.20 32.36 32.44 32.24
34.86 35.28 34.89 34.68 35.31 34.78 34.77 35.30 35.23 34.59 34.61 31.88 29.58 27.89 27.09 27.01 27.11 26.43 27.16 26.56 27.73 29.22 30.95 32.41 32.71 31.05 29.73 29.44 31.77 29.53 29.59 29.87 30.28 31.17 32.00 31.96 32.00 31.84 31.80 32.60 31.89 31.68 31.68 31.71
34.60 34.64 34.35 34.07 34.97 35.45 35.43 35.60 34.66 32.12 29.68 28.10 26.04 25.06 24.70 25.46 25.90 25.10 23.53 22.70 25.70 29.07 29.42 31.90 29.38 27.97 28.28 29.43 29.35 27.12 27.06 26.96 27.13 26.64 28.79 31.20 31.37 31.28 30.95 30.72 30.75 30.84 30.66 30.51
33.58 33.12 33.49 33.61 33.79 35.03 33.27 31.05 28.42 26.84 25.64 24.89 25.43 25.91 27.24 28.47 29.24 29.59 29.67 28.04 26.02 31.30 28.98 27.87 27.54 30.03 28.40 31.76 24.58 24.31 23.15 22.85 22.85 22.39 22.98 24.36 27.14 28.50 28.54 28.61 28.55 28.58 28.05 27.79
32.81 33.05 32.22 33.35 33.09 33.33 28.79 27.94 27.64 26.45 25.38 25.91 26.37 27.37 28.46 27.16 26.50 25.44 26.09 28.14 27.12 29.14 27.88 26.25 29.47 32.94 33.08 26.52 23.24 24.98 23.43 22.60 21.99 21.32 21.13 21.79 23.88 23.87 24.47 24.89 25.26 25.23 23.99 23.48
32.37 33.13 33.80 33.96 33.33 27.85 26.47 27.70 29.14 29.47 31.18 31.11 29.12 28.97 28.10 25.71 25.72 27.27 27.93 31.18 31.96 30.20 28.13 28.69 30.18 32.63 32.95 24.07 23.64 24.18 24.11 23.67 22.64 20.10 20.94 26.81 23.86 24.84 24.82 24.40 23.74 23.79 22.75 23.34
32.88 32.53 30.25 26.36 26.68 27.38 26.86 27.27 26.86 24.22 26.28 25.69 26.37 26.52 26.73 26.41 25.43 26.29 26.00 26.65 30.44 29.53 28.74 30.60 31.05 31.59 30.15 26.11 24.28 24.68 25.10 24.51 23.69 24.01 24.14 22.29 24.18 24.72 24.16 23.62 22.98 22.53 21.77 20.97
29.57 29.65 29.39 28.85 28.62 28.52 27.98 26.50 24.44 23.32 23.38 24.24 24.52 24.83 25.41 25.95 25.56 25.70 25.28 27.73 26.10 28.00 25.88 27.36 28.71 28.74 28.20 28.03 27.09 26.67 26.67 25.79 26.52 25.31 25.17 24.87 24.79 23.85 24.17 23.61 22.86 22.87 22.56 21.76
29.95 32.37 27.84 26.94 26.65 26.71 26.23 26.27 24.41 23.15 24.99 23.66 23.11 24.15 24.96 23.79 23.45 24.04 25.24 22.43 22.86 23.38 22.99 23.32 23.53 27.05 27.82 27.51 27.34 27.65 26.84 26.24 27.03 25.21 24.82 24.67 24.48 24.41 23.45 22.68 22.74 22.83 22.86 22.54

GFSNGP_sfc_wetblb_117.txt.gz
Wetbulb
25.24 28.03 28.21 26.50 26.32 27.67 17.72 24.27 17.97 24.99 29.47 32.91 35.18 35.58 38.45 37.89 40.74 40.81 40.89 41.22 41.31 40.92 41.09 42.56 45.08 47.15 47.94 48.63 49.70 52.29 53.06 53.33 53.35 53.76 53.63 53.39 53.20 52.50 50.91 50.31 49.92 49.09 48.26 48.01
16.40 27.66 27.76 25.20 28.25 28.16 28.62 29.29 28.45 29.31 31.87 36.51 38.65 37.31 36.71 37.90 39.19 39.11 39.99 40.87 41.37 41.79 41.28 41.71 41.43 43.88 46.88 47.24 47.77 49.03 49.60 50.16 50.44 51.54 52.24 50.67 49.51 48.43 47.96 46.91 46.18 46.37 46.40 46.46
16.63 25.94 21.42 16.01 28.22 29.40 31.31 32.05 31.18 24.23 31.14 35.39 36.03 38.34 37.25 37.59 38.11 38.63 39.44 40.14 40.73 40.40 40.73 41.17 41.69 42.71 43.23 45.99 47.15 47.25 47.12 47.52 48.08 48.66 48.89 48.89 47.54 46.30 45.07 44.29 44.12 43.88 44.25 44.43
15.43 17.64 8.70 26.49 35.06 34.80 32.24 33.00 33.20 33.47 34.01 37.29 39.00 39.78 38.57 38.76 38.09 38.50 39.95 40.10 40.49 40.37 40.80 41.19 41.88 42.45 42.77 43.62 46.07 46.73 46.16 46.17 46.59 46.80 46.79 46.51 45.91 44.85 43.80 43.31 43.56 43.22 43.49 43.35
15.93 14.35 22.78 28.30 31.79 32.19 30.16 29.05 34.17 32.91 34.90 35.82 37.32 39.40 35.91 39.35 39.66 39.05 38.95 40.51 40.74 40.63 41.01 41.21 41.19 41.72 42.07 42.44 42.49 43.82 45.83 45.97 45.76 45.77 44.97 44.48 43.91 43.17 42.06 39.93 39.69 43.08 43.54 42.70
18.27 16.15 16.50 27.22 33.57 36.37 34.66 24.29 35.39 34.81 34.63 34.46 35.57 31.93 35.95 38.17 40.03 40.49 40.47 40.05 40.24 40.66 40.84 40.39 40.41 41.22 41.35 41.71 42.29 42.76 43.80 43.86 46.40 45.51 44.54 43.50 42.63 41.97 41.38 40.82 39.26 40.42 41.48 42.05
17.47 15.93 22.92 32.28 35.29 36.34 21.42 24.07 36.00 36.52 35.86 34.60 32.08 35.58 37.38 39.54 39.36 40.17 40.57 39.99 40.27 39.83 39.58 39.90 40.07 40.13 39.77 40.45 40.19 41.82 42.90 43.75 44.06 45.47 44.13 43.36 41.27 40.35 39.32 39.57 39.16 39.08 39.41 39.40
19.14 16.32 14.85 34.55 33.87 28.20 31.28 35.57 37.09 36.93 35.90 35.51 35.95 35.31 35.11 36.05 37.15 39.30 40.25 39.29 39.41 38.49 38.93 39.87 39.62 39.16 38.26 37.92 39.89 40.96 41.71 42.13 42.31 42.77 44.09 42.62 40.73 38.77 38.03 38.14 37.78 37.42 37.72 37.57
24.01 23.62 30.96 34.94 33.58 35.98 36.22 35.23 35.97 36.08 36.12 36.24 34.38 33.21 34.16 34.75 34.95 38.19 39.53 40.45 39.29 38.30 38.06 38.03 38.53 38.34 36.99 37.59 39.20 39.93 40.38 40.55 40.95 41.92 41.92 40.67 39.13 37.54 36.57 36.73 36.61 36.48 37.33 36.92
27.05 27.63 31.92 34.93 36.08 37.04 37.59 35.34 34.87 34.61 34.37 33.94 32.07 33.21 32.99 33.80 34.15 34.72 38.97 39.61 39.84 39.85 37.12 36.62 36.89 37.61 36.66 37.60 38.74 39.21 39.54 40.24 40.40 41.58 43.42 42.56 41.13 39.11 36.75 36.21 36.15 37.08 37.27 37.35
26.20 29.18 31.11 33.48 35.22 36.14 34.77 34.81 34.58 34.88 34.29 33.57 32.67 32.77 33.33 33.73 34.13 34.71 37.81 39.16 39.83 39.74 36.91 36.56 36.97 36.57 36.19 36.77 37.45 38.39 39.16 39.95 42.26 43.01 43.00 41.96 41.27 40.51 39.79 39.33 39.23 38.58 39.38 39.55
25.22 30.19 30.39 30.94 33.59 35.66 33.68 33.73 34.20 33.44 32.77 33.19 33.83 33.87 35.51 35.39 34.80 34.34 36.79 37.70 37.71 39.35 38.98 39.11 37.87 36.64 36.09 36.58 36.61 37.27 37.73 38.03 40.08 40.04 39.55 40.42 39.62 39.06 40.71 40.76 42.24 41.91 42.27 40.91
30.93 31.39 32.30 32.76 33.63 34.26 33.57 33.49 33.35 33.12 33.51 33.64 34.58 36.87 39.20 37.76 35.87 39.04 37.67 37.40 38.61 38.79 38.74 38.57 38.36 37.40 37.48 38.08 38.33 37.90 38.75 39.15 38.70 39.38 38.51 38.07 37.56 36.84 35.38 37.71 40.49 40.97 41.22 41.95
32.01 32.65 29.98 31.76 31.63 33.18 33.15 33.44 36.26 34.50 35.23 35.18 35.69 38.74 38.86 38.72 39.59 39.27 38.50 39.48 38.74 38.23 37.58 37.21 37.19 36.52 37.10 37.34 37.11 36.87 37.54 37.98 37.43 38.11 36.94 36.84 36.90 35.64 35.24 34.60 34.67 35.54 40.35 40.91
32.11 32.24 32.36 32.76 32.17 31.67 32.78 33.51 33.28 33.53 34.74 37.09 36.49 36.48 37.22 36.21 35.29 37.99 38.79 38.67 38.59 38.05 37.38 36.83 36.51 36.66 36.81 36.95 36.49 36.37 36.49 36.43 35.98 34.28 34.67 36.55 35.24 34.72 34.69 34.47 34.25 34.67 35.63 38.84
31.79 32.55 31.99 32.08 30.88 31.38 32.19 32.85 32.50 33.52 36.53 36.60 36.98 35.95 36.70 35.99 35.70 36.22 36.26 35.84 35.72 35.76 36.13 35.58 35.41 35.85 35.74 35.56 34.68 34.81 35.68 36.55 36.87 35.69 35.07 34.85 34.93 34.37 34.14 33.98 33.97 34.08 34.13 34.46
30.15 28.92 29.78 29.41 30.24 31.22 31.74 33.18 33.65 34.28 36.21 35.90 36.08 36.06 36.15 36.58 36.53 35.01 35.08 35.18 34.90 34.46 34.48 33.84 34.22 34.90 35.17 34.68 33.91 33.76 33.25 33.68 35.38 33.81 32.00 33.42 34.00 33.70 33.91 33.81 33.72 33.83 34.33 34.84
33.46 34.70 33.80 32.70 31.71 31.63 31.59 33.03 33.66 35.56 35.83 36.05 35.67 34.88 34.33 33.65 33.61 34.01 34.00 33.36 33.14 33.17 33.53 31.83 32.23 33.50 34.15 32.81 31.97 31.25 30.95 30.61 31.14 32.04 32.79 31.96 32.54 33.31 33.34 33.17 33.36 33.40 33.78 33.80
33.42 33.67 33.64 33.70 33.24 32.70 32.74 33.41 34.31 36.14 35.71 35.45 34.30 33.05 32.45 31.93 33.15 31.98 29.95 28.95 27.13 25.40 28.13 31.31 33.61 32.92 31.87 32.01 32.55 29.53 29.21 29.40 29.18 29.44 31.54 33.02 32.49 32.36 32.13 32.16 32.32 32.71 32.96 32.64
33.34 34.20 34.24 33.32 33.20 33.49 32.98 33.57 35.38 35.07 35.15 34.04 30.14 27.01 25.70 26.19 25.90 25.00 24.21 23.57 24.56 25.51 27.68 29.65 30.23 29.92 30.40 29.26 32.12 27.82 27.41 27.28 26.83 26.64 28.66 29.79 31.05 30.79 32.11 32.56 31.94 31.80 31.78 31.91
33.29 33.19 32.94 33.19 32.58 33.00 33.11 33.98 35.13 34.11 33.37 30.00 26.81 24.52 23.95 24.21 24.95 25.12 24.26 25.48 27.31 27.47 28.56 30.54 28.45 27.86 27.65 29.36 29.44 26.66 26.37 26.47 26.02 24.70 25.02 27.76 29.32 30.90 31.26 30.68 30.96 31.01 30.86 30.89
33.06 32.87 32.61 32.65 32.35 31.92 32.87 33.71 32.96 31.47 27.10 24.32 23.87 24.21 24.85 25.68 27.44 28.45 28.68 26.78 27.36 30.62 28.15 26.47 25.99 28.42 28.89 32.52 23.51 23.40 23.67 23.32 23.23 21.94 21.19 22.81 22.74 24.51 26.96 28.21 28.42 28.62 28.66 28.58
33.14 32.81 31.88 31.69 31.56 32.13 30.52 27.93 26.51 25.38 24.54 24.10 24.48 25.53 25.97 26.56 25.72 25.11 25.17 27.58 27.61 29.61 28.19 25.93 29.18 32.56 33.30 26.61 22.36 21.91 22.61 23.10 23.20 23.08 22.82 20.95 20.69 19.30 19.63 20.64 21.80 24.06 23.87 24.35
32.29 32.27 32.24 32.29 32.16 31.99 27.51 26.61 27.14 26.24 25.72 27.94 30.15 29.24 27.44 25.11 24.38 25.17 26.14 28.98 30.64 30.28 28.26 28.56 30.19 31.27 32.04 29.37 27.05 25.74 21.62 23.34 22.56 22.41 22.59 27.10 22.02 21.73 20.96 22.01 21.54 20.65 22.27 23.85
31.38 30.28 29.44 29.56 31.57 28.78 25.62 25.61 24.81 24.33 26.50 26.00 26.04 25.93 25.98 25.49 24.79 25.43 24.34 25.19 28.61 28.28 25.93 29.40 30.93 30.38 28.02 27.42 27.37 27.37 26.64 23.89 24.38 23.55 23.95 23.73 22.84 21.70 21.56 20.35 22.03 23.12 23.10 22.57
31.14 31.59 32.18 29.75 27.76 27.59 27.40 26.40 24.73 22.71 23.24 23.75 23.77 23.98 24.50 24.93 24.05 23.48 23.08 24.88 22.83 24.77 22.39 22.89 23.72 24.67 25.68 26.62 26.61 26.51 26.68 27.26 27.30 26.40 26.14 24.55 23.50 23.73 23.39 22.91 24.02 23.89 23.70 23.11
27.63 29.91 26.52 26.36 26.76 27.08 26.97 26.52 24.90 23.69 24.97 23.31 22.47 23.49 23.59 22.27 22.24 21.51 22.63 19.76 20.36 20.70 20.04 20.27 20.71 22.32 22.54 22.75 24.26 25.34 25.77 26.02 27.25 27.08 24.60 25.22 24.49 24.53 24.52 24.09 23.84 23.68 23.68 23.73